Anda di halaman 1dari 119

$GPGGA,040500.000,,,,,0,00,25.

5,,,,,,*65
$GPGLL,,,,,040500.000,V,N*7B
$GPGSA,A,1,,,,,,,,,,,,,25.5,25.5,25.5*02
$GPGSV,2,1,05,01,,,31,04,,,29,08,,,33,11,,,29*70
$GPGSV,2,2,05,23,,,34*7A
$GPRMC,040500.000,V,,,,,,,,,,N*4C
$GPVTG,,,,,,,,,N*30
$GPZDA,040500.000,,,,,*57
$GPTXT,01,01,01,ANTENNA OK*35
$GPGGA,040501.000,,,,,0,00,25.5,,,,,,*64
$GPGLL,,,,,040501.000,V,N*7A
$GPGSA,A,1,,,,,,,,,,,,,25.5,25.5,25.5*02
$GPGSV,2,1,05,01,,,28,04,,,29,08,,,30,11,,,28*7A
$GPGSV,2,2,05,23,,,32*7C
$GPRMC,040501.000,V,,,,,,,,,,N*4D
$GPVTG,,,,,,,,,N*30
$GPZDA,040501.000,,,,,*56
$GPTXT,01,01,01,ANTENNA OK*35
$GPGGA,040502.000,,,,,0,00,25.5,,,,,,*67
$GPGLL,,,,,040502.000,V,N*79
$GPGSA,A,1,,,,,,,,,,,,,25.5,25.5,25.5*02
$GPGSV,2,1,05,01,,,28,04,,,29,08,67,237,30,11,20,195,28*72
$GPGSV,2,2,05,23,39,239,32*4E
$GPRMC,040502.000,V,,,,,,,310517,,,N*4F
$GPVTG,,,,,,,,,N*30
$GPZDA,040502.000,31,05,2017,00,00*56
$GPTXT,01,01,01,ANTENNA OK*35
$GPGGA,040503.000,,,,,0,00,25.5,,,,,,*66
$GPGLL,,,,,040503.000,V,N*78
$GPGSA,A,1,,,,,,,,,,,,,25.5,25.5,25.5*02
$GPGSV,2,1,05,01,,,28,04,,,29,08,67,237,30,11,20,195,28*72
$GPGSV,2,2,05,23,39,239,29*44
$GPRMC,040503.000,V,,,,,,,310517,,,N*4E
$GPVTG,,,,,,,,,N*30
$GPZDA,040503.000,31,05,2017,00,00*57
$GPTXT,01,01,01,ANTENNA OK*35
$GPGGA,040504.000,,,,,0,00,25.5,,,,,,*61
$GPGLL,,,,,040504.000,V,N*7F
$GPGSA,A,1,,,,,,,,,,,,,25.5,25.5,25.5*02
$GPGSV,2,1,05,01,,,28,04,,,29,08,67,237,30,11,20,195,28*72
$GPGSV,2,2,05,23,39,239,29*44
$GPRMC,040504.000,V,,,,,,,310517,,,N*49
$GPVTG,,,,,,,,,N*30
$GPZDA,040504.000,31,05,2017,00,00*50
$GPTXT,01,01,01,ANTENNA OK*35
$GPGGA,040505.000,,,,,0,00,25.5,,,,,,*60
$GPGLL,,,,,040505.000,V,N*7E
$GPGSA,A,1,,,,,,,,,,,,,25.5,25.5,25.5*02
$GPGSV,2,1,05,01,,,26,04,,,27,08,67,237,30,11,20,195,28*72
$GPGSV,2,2,05,23,39,239,29*44
$GPRMC,040505.000,V,,,,,,,310517,,,N*48
$GPVTG,,,,,,,,,N*30
$GPZDA,040505.000,31,05,2017,00,00*51
$GPTXT,01,01,01,ANTENNA OK*35
$GPGGA,040506.000,,,,,0,00,25.5,,,,,,*63
$GPGLL,,,,,040506.000,V,N*7D
$GPGSA,A,1,,,,,,,,,,,,,25.5,25.5,25.5*02
$GPGSV,2,1,05,01,,,26,04,,,27,08,67,237,29,11,20,195,28*7A
$GPGSV,2,2,05,23,39,239,30*4C
$GPRMC,040506.000,V,,,,,,,310517,,,N*4B
$GPVTG,,,,,,,,,N*30
$GPZDA,040506.000,31,05,2017,00,00*52
$GPTXT,01,01,01,ANTENNA OK*35
$GPGGA,040507.000,,,,,0,00,25.5,,,,,,*62
$GPGLL,,,,,040507.000,V,N*7C
$GPGSA,A,1,,,,,,,,,,,,,25.5,25.5,25.5*02
$GPGSV,2,1,05,01,,,26,04,,,27,08,67,237,29,11,20,195,28*7A
$GPGSV,2,2,05,23,39,239,30*4C
$GPRMC,040507.000,V,,,,,,,310517,,,N*4A
$GPVTG,,,,,,,,,N*30
$GPZDA,040507.000,31,05,2017,00,00*53
$GPTXT,01,01,01,ANTENNA OK*35
$GPGGA,040508.000,,,,,0,00,25.5,,,,,,*6D
$GPGLL,,,,,040508.000,V,N*73
$GPGSA,A,1,,,,,,,,,,,,,25.5,25.5,25.5*02
$GPGSV,2,1,05,01,,,26,04,,,27,08,67,237,31,11,20,195,28*73
$GPGSV,2,2,05,23,39,239,30*4C
$GPRMC,040508.000,V,,,,,,,310517,,,N*45
$GPVTG,,,,,,,,,N*30
$GPZDA,040508.000,31,05,2017,00,00*5C
$GPTXT,01,01,01,ANTENNA OK*35
$GPGGA,040509.000,,,,,0,00,25.5,,,,,,*6C
$GPGLL,,,,,040509.000,V,N*72
$GPGSA,A,1,,,,,,,,,,,,,25.5,25.5,25.5*02
$GPGSV,2,1,05,01,,,26,04,,,27,08,67,237,31,11,20,195,28*73
$GPGSV,2,2,05,23,39,239,30*4C
$GPRMC,040509.000,V,,,,,,,310517,,,N*44
$GPVTG,,,,,,,,,N*30
$GPZDA,040509.000,31,05,2017,00,00*5D
$GPTXT,01,01,01,ANTENNA OK*35
$GPGGA,040510.000,,,,,0,00,25.5,,,,,,*64
$GPGLL,,,,,040510.000,V,N*7A
$GPGSA,A,1,,,,,,,,,,,,,25.5,25.5,25.5*02
$GPGSV,2,1,05,01,,,26,04,,,27,08,67,237,31,11,20,195,29*72
$GPGSV,2,2,05,23,39,239,31*4D
$GPRMC,040510.000,V,,,,,,,310517,,,N*4C
$GPVTG,,,,,,,,,N*30
$GPZDA,040510.000,31,05,2017,00,00*55
$GPTXT,01,01,01,ANTENNA OK*35
$GPGGA,040511.000,,,,,0,00,25.5,,,,,,*65
$GPGLL,,,,,040511.000,V,N*7B
$GPGSA,A,1,,,,,,,,,,,,,25.5,25.5,25.5*02
$GPGSV,2,1,05,01,,,26,04,,,27,08,67,237,31,11,20,195,29*72
$GPGSV,2,2,05,23,39,239,31*4D
$GPRMC,040511.000,V,,,,,,,310517,,,N*4D
$GPVTG,,,,,,,,,N*30
$GPZDA,040511.000,31,05,2017,00,00*54
$GPTXT,01,01,01,ANTENNA OK*35
$GPGGA,040512.000,,,,,0,00,25.5,,,,,,*66
$GPGLL,,,,,040512.000,V,N*78
$GPGSA,A,1,,,,,,,,,,,,,25.5,25.5,25.5*02
$GPGSV,2,1,05,01,,,27,04,,,26,08,67,237,30,11,20,195,29*73
$GPGSV,2,2,05,23,39,239,28*45
$GPRMC,040512.000,V,,,,,,,310517,,,N*4E
$GPVTG,,,,,,,,,N*30
$GPZDA,040512.000,31,05,2017,00,00*57
$GPTXT,01,01,01,ANTENNA OK*35
$GPGGA,040513.000,,,,,0,00,25.5,,,,,,*67
$GPGLL,,,,,040513.000,V,N*79
$GPGSA,A,1,,,,,,,,,,,,,25.5,25.5,25.5*02
$GPGSV,2,1,05,01,,,27,04,,,26,08,67,237,30,11,20,195,29*73
$GPGSV,2,2,05,23,39,239,28*45
$GPRMC,040513.000,V,,,,,,,310517,,,N*4F
$GPVTG,,,,,,,,,N*30
$GPZDA,040513.000,31,05,2017,00,00*56
$GPTXT,01,01,01,ANTENNA OK*35
$GPGGA,040514.000,,,,,0,00,25.5,,,,,,*60
$GPGLL,,,,,040514.000,V,N*7E
$GPGSA,A,1,,,,,,,,,,,,,25.5,25.5,25.5*02
$GPGSV,2,1,05,01,,,27,04,,,26,08,67,237,30,11,20,195,29*73
$GPGSV,2,2,05,23,39,239,28*45
$GPRMC,040514.000,V,,,,,,,310517,,,N*48
$GPVTG,,,,,,,,,N*30
$GPZDA,040514.000,31,05,2017,00,00*51
$GPTXT,01,01,01,ANTENNA OK*35
$GPGGA,040515.000,,,,,0,00,25.5,,,,,,*61
$GPGLL,,,,,040515.000,V,N*7F
$GPGSA,A,1,,,,,,,,,,,,,25.5,25.5,25.5*02
$GPGSV,2,1,05,01,,,27,04,,,26,08,67,237,30,11,20,195,29*73
$GPGSV,2,2,05,23,39,239,30*4C
$GPRMC,040515.000,V,,,,,,,310517,,,N*49
$GPVTG,,,,,,,,,N*30
$GPZDA,040515.000,31,05,2017,00,00*50
$GPTXT,01,01,01,ANTENNA OK*35
$GPGGA,040516.000,,,,,0,00,25.5,,,,,,*62
$GPGLL,,,,,040516.000,V,N*7C
$GPGSA,A,1,,,,,,,,,,,,,25.5,25.5,25.5*02
$GPGSV,2,1,05,01,,,27,04,,,26,08,67,237,31,11,20,195,29*72
$GPGSV,2,2,05,23,39,239,30*4C
$GPRMC,040516.000,V,,,,,,,310517,,,N*4A
$GPVTG,,,,,,,,,N*30
$GPZDA,040516.000,31,05,2017,00,00*53
$GPTXT,01,01,01,ANTENNA OK*35
$GPGGA,040517.000,,,,,0,00,25.5,,,,,,*63
$GPGLL,,,,,040517.000,V,N*7D
$GPGSA,A,1,,,,,,,,,,,,,25.5,25.5,25.5*02
$GPGSV,2,1,05,01,,,27,04,,,26,08,67,237,31,11,20,195,29*72
$GPGSV,2,2,05,23,39,239,30*4C
$GPRMC,040517.000,V,,,,,,,310517,,,N*4B
$GPVTG,,,,,,,,,N*30
$GPZDA,040517.000,31,05,2017,00,00*52
$GPTXT,01,01,01,ANTENNA OK*35
$GPGGA,040518.000,,,,,0,00,25.5,,,,,,*6C
$GPGLL,,,,,040518.000,V,N*72
$GPGSA,A,1,,,,,,,,,,,,,25.5,25.5,25.5*02
$GPGSV,2,1,05,01,,,27,04,,,26,08,67,237,31,11,20,195,29*72
$GPGSV,2,2,05,23,39,239,30*4C
$GPRMC,040518.000,V,,,,,,,310517,,,N*44
$GPVTG,,,,,,,,,N*30
$GPZDA,040518.000,31,05,2017,00,00*5D
$GPTXT,01,01,01,ANTENNA OK*35
$GPGGA,040519.000,,,,,0,00,25.5,,,,,,*6D
$GPGLL,,,,,040519.000,V,N*73
$GPGSA,A,1,,,,,,,,,,,,,25.5,25.5,25.5*02
$GPGSV,2,1,05,01,,,27,04,,,27,08,67,237,31,11,20,195,29*73
$GPGSV,2,2,05,23,39,239,30*4C
$GPRMC,040519.000,V,,,,,,,310517,,,N*45
$GPVTG,,,,,,,,,N*30
$GPZDA,040519.000,31,05,2017,00,00*5C
$GPTXT,01,01,01,ANTENNA OK*35
$GPGGA,040520.000,,,,,0,00,25.5,,,,,,*67
$GPGLL,,,,,040520.000,V,N*79
$GPGSA,A,1,,,,,,,,,,,,,25.5,25.5,25.5*02
$GPGSV,2,1,05,01,,,27,04,,,27,08,67,237,31,11,20,195,29*73
$GPGSV,2,2,05,23,39,239,30*4C
$GPRMC,040520.000,V,,,,,,,310517,,,N*4F
$GPVTG,,,,,,,,,N*30
$GPZDA,040520.000,31,05,2017,00,00*56
$GPTXT,01,01,01,ANTENNA OK*35
$GPGGA,040521.000,,,,,0,00,25.5,,,,,,*66
$GPGLL,,,,,040521.000,V,N*78
$GPGSA,A,1,,,,,,,,,,,,,25.5,25.5,25.5*02
$GPGSV,2,1,05,01,,,27,04,,,27,08,67,237,31,11,20,195,29*73
$GPGSV,2,2,05,23,39,239,30*4C
$GPRMC,040521.000,V,,,,,,,310517,,,N*4E
$GPVTG,,,,,,,,,N*30
$GPZDA,040521.000,31,05,2017,00,00*57
$GPTXT,01,01,01,ANTENNA OK*35
$GPGGA,040522.000,,,,,0,00,25.5,,,,,,*65
$GPGLL,,,,,040522.000,V,N*7B
$GPGSA,A,1,,,,,,,,,,,,,25.5,25.5,25.5*02
$GPGSV,2,1,05,01,,,27,04,,,27,08,67,237,31,11,20,195,29*73
$GPGSV,2,2,05,23,39,239,30*4C
$GPRMC,040522.000,V,,,,,,,310517,,,N*4D
$GPVTG,,,,,,,,,N*30
$GPZDA,040522.000,31,05,2017,00,00*54
$GPTXT,01,01,01,ANTENNA OK*35
$GPGGA,040523.000,,,,,0,00,25.5,,,,,,*64
$GPGLL,,,,,040523.000,V,N*7A
$GPGSA,A,1,,,,,,,,,,,,,25.5,25.5,25.5*02
$GPGSV,2,1,05,01,,,27,04,,,27,08,68,237,31,11,20,195,29*7C
$GPGSV,2,2,05,23,39,239,30*4C
$GPRMC,040523.000,V,,,,,,,310517,,,N*4C
$GPVTG,,,,,,,,,N*30
$GPZDA,040523.000,31,05,2017,00,00*55
$GPTXT,01,01,01,ANTENNA OK*35
$GPGGA,040524.000,,,,,0,00,25.5,,,,,,*63
$GPGLL,,,,,040524.000,V,N*7D
$GPGSA,A,1,,,,,,,,,,,,,25.5,25.5,25.5*02
$GPGSV,2,1,05,01,,,28,04,,,27,08,68,237,31,11,20,195,29*73
$GPGSV,2,2,05,23,39,239,30*4C
$GPRMC,040524.000,V,,,,,,,310517,,,N*4B
$GPVTG,,,,,,,,,N*30
$GPZDA,040524.000,31,05,2017,00,00*52
$GPTXT,01,01,01,ANTENNA OK*35
$GPGGA,040525.000,,,,,0,00,25.5,,,,,,*62
$GPGLL,,,,,040525.000,V,N*7C
$GPGSA,A,1,,,,,,,,,,,,,25.5,25.5,25.5*02
$GPGSV,2,1,05,01,,,28,04,,,26,08,68,237,31,11,20,195,29*72
$GPGSV,2,2,05,23,39,239,30*4C
$GPRMC,040525.000,V,,,,,,,310517,,,N*4A
$GPVTG,,,,,,,,,N*30
$GPZDA,040525.000,31,05,2017,00,00*53
$GPTXT,01,01,01,ANTENNA OK*35
$GPGGA,040526.000,,,,,0,00,25.5,,,,,,*61
$GPGLL,,,,,040526.000,V,N*7F
$GPGSA,A,1,,,,,,,,,,,,,25.5,25.5,25.5*02
$GPGSV,2,1,05,01,,,28,04,,,26,08,68,237,31,11,20,195,29*72
$GPGSV,2,2,05,23,39,239,30*4C
$GPRMC,040526.000,V,,,,,,,310517,,,N*49
$GPVTG,,,,,,,,,N*30
$GPZDA,040526.000,31,05,2017,00,00*50
$GPTXT,01,01,01,ANTENNA OK*35
$GPGGA,040527.000,,,,,0,00,25.5,,,,,,*60
$GPGLL,,,,,040527.000,V,N*7E
$GPGSA,A,1,,,,,,,,,,,,,25.5,25.5,25.5*02
$GPGSV,2,1,05,01,,,28,04,,,26,08,68,237,29,11,20,195,29*7B
$GPGSV,2,2,05,23,39,239,30*4C
$GPRMC,040527.000,V,,,,,,,310517,,,N*48
$GPVTG,,,,,,,,,N*30
$GPZDA,040527.000,31,05,2017,00,00*51
$GPTXT,01,01,01,ANTENNA OK*35
$GPGGA,040528.000,,,,,0,00,25.5,,,,,,*6F
$GPGLL,,,,,040528.000,V,N*71
$GPGSA,A,1,,,,,,,,,,,,,25.5,25.5,25.5*02
$GPGSV,2,1,05,01,,,26,04,,,26,08,68,237,29,11,20,195,29*75
$GPGSV,2,2,05,23,39,239,30*4C
$GPRMC,040528.000,V,,,,,,,310517,,,N*47
$GPVTG,,,,,,,,,N*30
$GPZDA,040528.000,31,05,2017,00,00*5E
$GPTXT,01,01,01,ANTENNA OK*35
$GPGGA,040529.000,,,,,0,00,25.5,,,,,,*6E
$GPGLL,,,,,040529.000,V,N*70
$GPGSA,A,1,,,,,,,,,,,,,25.5,25.5,25.5*02
$GPGSV,2,1,05,01,,,26,04,,,26,08,68,237,29,11,20,195,29*75
$GPGSV,2,2,05,23,39,239,30*4C
$GPRMC,040529.000,V,,,,,,,310517,,,N*46
$GPVTG,,,,,,,,,N*30
$GPZDA,040529.000,31,05,2017,00,00*5F
$GPTXT,01,01,01,ANTENNA OK*35
$GPGGA,040530.000,,,,,0,00,25.5,,,,,,*66
$GPGLL,,,,,040530.000,V,N*78
$GPGSA,A,1,,,,,,,,,,,,,25.5,25.5,25.5*02
$GPGSV,2,1,05,01,,,26,04,,,26,08,68,237,29,11,20,195,28*74
$GPGSV,2,2,05,23,39,239,30*4C
$GPRMC,040530.000,V,,,,,,,310517,,,N*4E
$GPVTG,,,,,,,,,N*30
$GPZDA,040530.000,31,05,2017,00,00*57
$GPTXT,01,01,01,ANTENNA OK*35
$GPGGA,040531.000,,,,,0,00,25.5,,,,,,*67
$GPGLL,,,,,040531.000,V,N*79
$GPGSA,A,1,,,,,,,,,,,,,25.5,25.5,25.5*02
$GPGSV,2,1,05,01,,,26,04,,,26,08,68,237,28,11,20,195,28*75
$GPGSV,2,2,05,23,39,239,30*4C
$GPRMC,040531.000,V,,,,,,,310517,,,N*4F
$GPVTG,,,,,,,,,N*30
$GPZDA,040531.000,31,05,2017,00,00*56
$GPTXT,01,01,01,ANTENNA OK*35
$GPGGA,040532.000,,,,,0,00,25.5,,,,,,*64
$GPGLL,,,,,040532.000,V,N*7A
$GPGSA,A,1,,,,,,,,,,,,,25.5,25.5,25.5*02
$GPGSV,2,1,05,01,,,26,04,,,26,08,68,237,28,11,20,195,28*75
$GPGSV,2,2,05,23,39,239,29*44
$GPRMC,040532.000,V,,,,,,,310517,,,N*4C
$GPVTG,,,,,,,,,N*30
$GPZDA,040532.000,31,05,2017,00,00*55
$GPTXT,01,01,01,ANTENNA OK*35
$GPGGA,040533.000,,,,,0,00,25.5,,,,,,*65
$GPGLL,,,,,040533.000,V,N*7B
$GPGSA,A,1,,,,,,,,,,,,,25.5,25.5,25.5*02
$GPGSV,2,1,05,01,,,26,04,,,25,08,68,237,31,11,20,195,28*7E
$GPGSV,2,2,05,23,39,239,29*44
$GPRMC,040533.000,V,,,,,,,310517,,,N*4D
$GPVTG,,,,,,,,,N*30
$GPZDA,040533.000,31,05,2017,00,00*54
$GPTXT,01,01,01,ANTENNA OK*35
$GPGGA,040534.000,,,,,0,00,25.5,,,,,,*62
$GPGLL,,,,,040534.000,V,N*7C
$GPGSA,A,1,,,,,,,,,,,,,25.5,25.5,25.5*02
$GPGSV,2,1,05,01,,,27,04,,,25,08,68,237,31,11,20,195,28*7F
$GPGSV,2,2,05,23,39,239,29*44
$GPRMC,040534.000,V,,,,,,,310517,,,N*4A
$GPVTG,,,,,,,,,N*30
$GPZDA,040534.000,31,05,2017,00,00*53
$GPTXT,01,01,01,ANTENNA OK*35
$GPGGA,040535.000,,,,,0,00,25.5,,,,,,*63
$GPGLL,,,,,040535.000,V,N*7D
$GPGSA,A,1,,,,,,,,,,,,,25.5,25.5,25.5*02
$GPGSV,2,1,05,01,,,27,04,,,25,08,68,237,31,11,20,195,28*7F
$GPGSV,2,2,05,23,39,239,27*4A
$GPRMC,040535.000,V,,,,,,,310517,,,N*4B
$GPVTG,,,,,,,,,N*30
$GPZDA,040535.000,31,05,2017,00,00*52
$GPTXT,01,01,01,ANTENNA OK*35
$GPGGA,040536.000,,,,,0,00,25.5,,,,,,*60
$GPGLL,,,,,040536.000,V,N*7E
$GPGSA,A,1,,,,,,,,,,,,,25.5,25.5,25.5*02
$GPGSV,2,1,05,01,,,27,04,,,25,08,68,237,32,11,20,195,28*7C
$GPGSV,2,2,05,23,39,239,27*4A
$GPRMC,040536.000,V,,,,,,,310517,,,N*48
$GPVTG,,,,,,,,,N*30
$GPZDA,040536.000,31,05,2017,00,00*51
$GPTXT,01,01,01,ANTENNA OK*35
$GPGGA,040537.000,,,,,0,00,25.5,,,,,,*61
$GPGLL,,,,,040537.000,V,N*7F
$GPGSA,A,1,,,,,,,,,,,,,25.5,25.5,25.5*02
$GPGSV,2,1,05,01,,,27,04,,,25,08,68,237,32,11,20,195,27*73
$GPGSV,2,2,05,23,39,239,27*4A
$GPRMC,040537.000,V,,,,,,,310517,,,N*49
$GPVTG,,,,,,,,,N*30
$GPZDA,040537.000,31,05,2017,00,00*50
$GPTXT,01,01,01,ANTENNA OK*35
$GPGGA,040538.000,,,,,0,00,25.5,,,,,,*6E
$GPGLL,,,,,040538.000,V,N*70
$GPGSA,A,1,,,,,,,,,,,,,25.5,25.5,25.5*02
$GPGSV,2,1,05,01,,,27,04,,,25,08,68,237,30,11,20,195,27*71
$GPGSV,2,2,05,23,39,239,27*4A
$GPRMC,040538.000,V,,,,,,,310517,,,N*46
$GPVTG,,,,,,,,,N*30
$GPZDA,040538.000,31,05,2017,00,00*5F
$GPTXT,01,01,01,ANTENNA OK*35
$GPGGA,040539.000,,,,,0,00,25.5,,,,,,*6F
$GPGLL,,,,,040539.000,V,N*71
$GPGSA,A,1,,,,,,,,,,,,,25.5,25.5,25.5*02
$GPGSV,2,1,05,01,,,27,04,,,25,08,68,237,30,11,20,195,27*71
$GPGSV,2,2,05,23,39,239,28*45
$GPRMC,040539.000,V,,,,,,,310517,,,N*47
$GPVTG,,,,,,,,,N*30
$GPZDA,040539.000,31,05,2017,00,00*5E
$GPTXT,01,01,01,ANTENNA OK*35
$GPGGA,040540.000,,,,,0,00,25.5,,,,,,*61
$GPGLL,,,,,040540.000,V,N*7F
$GPGSA,A,1,,,,,,,,,,,,,25.5,25.5,25.5*02
$GPGSV,2,1,05,01,,,27,04,,,25,08,68,237,30,11,20,195,27*71
$GPGSV,2,2,05,23,39,239,28*45
$GPRMC,040540.000,V,,,,,,,310517,,,N*49
$GPVTG,,,,,,,,,N*30
$GPZDA,040540.000,31,05,2017,00,00*50
$GPTXT,01,01,01,ANTENNA OK*35
$GPGGA,040541.000,,,,,0,00,25.5,,,,,,*60
$GPGLL,,,,,040541.000,V,N*7E
$GPGSA,A,1,,,,,,,,,,,,,25.5,25.5,25.5*02
$GPGSV,2,1,05,01,,,27,04,,,25,08,68,237,28,11,20,195,27*78
$GPGSV,2,2,05,23,39,239,28*45
$GPRMC,040541.000,V,,,,,,,310517,,,N*48
$GPVTG,,,,,,,,,N*30
$GPZDA,040541.000,31,05,2017,00,00*51
$GPTXT,01,01,01,ANTENNA OK*35
$GPGGA,040542.000,,,,,0,00,25.5,,,,,,*63
$GPGLL,,,,,040542.000,V,N*7D
$GPGSA,A,1,,,,,,,,,,,,,25.5,25.5,25.5*02
$GPGSV,2,1,05,01,,,27,04,,,25,08,68,237,28,11,20,195,28*77
$GPGSV,2,2,05,23,39,239,28*45
$GPRMC,040542.000,V,,,,,,,310517,,,N*4B
$GPVTG,,,,,,,,,N*30
$GPZDA,040542.000,31,05,2017,00,00*52
$GPTXT,01,01,01,ANTENNA OK*35
$GPGGA,040543.000,,,,,0,00,25.5,,,,,,*62
$GPGLL,,,,,040543.000,V,N*7C
$GPGSA,A,1,,,,,,,,,,,,,25.5,25.5,25.5*02
$GPGSV,2,1,05,01,,,27,04,,,25,08,68,237,30,11,20,195,28*7E
$GPGSV,2,2,05,23,39,239,28*45
$GPRMC,040543.000,V,,,,,,,310517,,,N*4A
$GPVTG,,,,,,,,,N*30
$GPZDA,040543.000,31,05,2017,00,00*53
$GPTXT,01,01,01,ANTENNA OK*35
$GPGGA,040544.000,,,,,0,00,25.5,,,,,,*65
$GPGLL,,,,,040544.000,V,N*7B
$GPGSA,A,1,,,,,,,,,,,,,25.5,25.5,25.5*02
$GPGSV,2,1,06,01,,,27,04,,,25,07,23,318,,08,68,237,30*74
$GPGSV,2,2,06,11,20,195,28,23,39,239,28*73
$GPRMC,040544.000,V,,,,,,,310517,,,N*4D
$GPVTG,,,,,,,,,N*30
$GPZDA,040544.000,31,05,2017,00,00*54
$GPTXT,01,01,01,ANTENNA OK*35
$GPGGA,040545.000,,,,,0,00,25.5,,,,,,*64
$GPGLL,,,,,040545.000,V,N*7A
$GPGSA,A,1,,,,,,,,,,,,,25.5,25.5,25.5*02
$GPGSV,2,1,06,01,,,28,04,,,25,07,23,318,,08,68,237,30*7B
$GPGSV,2,2,06,11,20,195,28,23,39,239,28*73
$GPRMC,040545.000,V,,,,,,,310517,,,N*4C
$GPVTG,,,,,,,,,N*30
$GPZDA,040545.000,31,05,2017,00,00*55
$GPTXT,01,01,01,ANTENNA OK*35
$GPGGA,040546.000,,,,,0,00,25.5,,,,,,*67
$GPGLL,,,,,040546.000,V,N*79
$GPGSA,A,1,,,,,,,,,,,,,25.5,25.5,25.5*02
$GPGSV,2,1,06,01,,,28,04,,,25,07,23,318,,08,68,237,30*7B
$GPGSV,2,2,06,11,20,195,29,23,39,239,28*72
$GPRMC,040546.000,V,,,,,,,310517,,,N*4F
$GPVTG,,,,,,,,,N*30
$GPZDA,040546.000,31,05,2017,00,00*56
$GPTXT,01,01,01,ANTENNA OK*35
$GPGGA,040547.000,,,,,0,00,25.5,,,,,,*66
$GPGLL,,,,,040547.000,V,N*78
$GPGSA,A,1,,,,,,,,,,,,,25.5,25.5,25.5*02
$GPGSV,2,1,06,01,,,28,04,,,25,07,23,318,,08,68,237,30*7B
$GPGSV,2,2,06,11,20,195,29,23,39,239,28*72
$GPRMC,040547.000,V,,,,,,,310517,,,N*4E
$GPVTG,,,,,,,,,N*30
$GPZDA,040547.000,31,05,2017,00,00*57
$GPTXT,01,01,01,ANTENNA OK*35
$GPGGA,040548.000,,,,,0,00,25.5,,,,,,*69
$GPGLL,,,,,040548.000,V,N*77
$GPGSA,A,1,,,,,,,,,,,,,25.5,25.5,25.5*02
$GPGSV,2,1,06,01,,,28,04,,,26,07,23,318,,08,68,237,30*78
$GPGSV,2,2,06,11,20,195,29,23,39,239,28*72
$GPRMC,040548.000,V,,,,,,,310517,,,N*41
$GPVTG,,,,,,,,,N*30
$GPZDA,040548.000,31,05,2017,00,00*58
$GPTXT,01,01,01,ANTENNA OK*35
$GPGGA,040549.000,,,,,0,00,25.5,,,,,,*68
$GPGLL,,,,,040549.000,V,N*76
$GPGSA,A,1,,,,,,,,,,,,,25.5,25.5,25.5*02
$GPGSV,2,1,06,01,,,28,04,,,26,07,23,318,,08,68,237,30*78
$GPGSV,2,2,06,11,20,195,29,23,39,239,28*72
$GPRMC,040549.000,V,,,,,,,310517,,,N*40
$GPVTG,,,,,,,,,N*30
$GPZDA,040549.000,31,05,2017,00,00*59
$GPTXT,01,01,01,ANTENNA OK*35
$GPGGA,040550.000,,,,,0,00,25.5,,,,,,*60
$GPGLL,,,,,040550.000,V,N*7E
$GPGSA,A,1,,,,,,,,,,,,,25.5,25.5,25.5*02
$GPGSV,2,1,06,01,,,28,04,,,26,07,23,318,,08,68,237,30*78
$GPGSV,2,2,06,11,20,195,30,23,39,239,28*7A
$GPRMC,040550.000,V,,,,,,,310517,,,N*48
$GPVTG,,,,,,,,,N*30
$GPZDA,040550.000,31,05,2017,00,00*51
$GPTXT,01,01,01,ANTENNA OK*35
$GPGGA,040551.000,,,,,0,00,25.5,,,,,,*61
$GPGLL,,,,,040551.000,V,N*7F
$GPGSA,A,1,,,,,,,,,,,,,25.5,25.5,25.5*02
$GPGSV,2,1,06,01,,,29,04,,,26,07,23,318,,08,68,238,31*77
$GPGSV,2,2,06,11,20,195,30,23,39,239,28*7A
$GPRMC,040551.000,V,,,,,,,310517,,,N*49
$GPVTG,,,,,,,,,N*30
$GPZDA,040551.000,31,05,2017,00,00*50
$GPTXT,01,01,01,ANTENNA OK*35
$GPGGA,040552.000,,,,,0,00,25.5,,,,,,*62
$GPGLL,,,,,040552.000,V,N*7C
$GPGSA,A,1,,,,,,,,,,,,,25.5,25.5,25.5*02
$GPGSV,2,1,06,01,,,29,04,,,27,07,23,318,,08,68,238,31*76
$GPGSV,2,2,06,11,20,195,30,23,39,239,28*7A
$GPRMC,040552.000,V,,,,,,,310517,,,N*4A
$GPVTG,,,,,,,,,N*30
$GPZDA,040552.000,31,05,2017,00,00*53
$GPTXT,01,01,01,ANTENNA OK*35
$GPGGA,040553.000,,,,,0,00,25.5,,,,,,*63
$GPGLL,,,,,040553.000,V,N*7D
$GPGSA,A,1,,,,,,,,,,,,,25.5,25.5,25.5*02
$GPGSV,2,1,06,01,,,29,04,,,27,07,23,318,,08,68,238,31*76
$GPGSV,2,2,06,11,20,195,30,23,39,239,29*7B
$GPRMC,040553.000,V,,,,,,,310517,,,N*4B
$GPVTG,,,,,,,,,N*30
$GPZDA,040553.000,31,05,2017,00,00*52
$GPTXT,01,01,01,ANTENNA OK*35
$GPGGA,040554.000,,,,,0,00,25.5,,,,,,*64
$GPGLL,,,,,040554.000,V,N*7A
$GPGSA,A,1,,,,,,,,,,,,,25.5,25.5,25.5*02
$GPGSV,2,1,06,01,,,29,04,,,27,07,23,318,,08,68,238,31*76
$GPGSV,2,2,06,11,20,195,30,23,39,239,29*7B
$GPRMC,040554.000,V,,,,,,,310517,,,N*4C
$GPVTG,,,,,,,,,N*30
$GPZDA,040554.000,31,05,2017,00,00*55
$GPTXT,01,01,01,ANTENNA OK*35
$GPGGA,040555.000,,,,,0,00,25.5,,,,,,*65
$GPGLL,,,,,040555.000,V,N*7B
$GPGSA,A,1,,,,,,,,,,,,,25.5,25.5,25.5*02
$GPGSV,2,1,06,01,,,29,04,,,27,07,23,318,,08,68,238,31*76
$GPGSV,2,2,06,11,20,195,30,23,39,239,29*7B
$GPRMC,040555.000,V,,,,,,,310517,,,N*4D
$GPVTG,,,,,,,,,N*30
$GPZDA,040555.000,31,05,2017,00,00*54
$GPTXT,01,01,01,ANTENNA OK*35
$GPGGA,040556.000,,,,,0,00,25.5,,,,,,*66
$GPGLL,,,,,040556.000,V,N*78
$GPGSA,A,1,,,,,,,,,,,,,25.5,25.5,25.5*02
$GPGSV,2,1,06,01,,,29,04,,,27,07,23,318,,08,68,238,31*76
$GPGSV,2,2,06,11,20,195,30,23,39,239,29*7B
$GPRMC,040556.000,V,,,,,,,310517,,,N*4E
$GPVTG,,,,,,,,,N*30
$GPZDA,040556.000,31,05,2017,00,00*57
$GPTXT,01,01,01,ANTENNA OK*35
$GPGGA,040557.000,,,,,0,00,25.5,,,,,,*67
$GPGLL,,,,,040557.000,V,N*79
$GPGSA,A,1,,,,,,,,,,,,,25.5,25.5,25.5*02
$GPGSV,2,1,06,01,,,29,04,,,27,07,23,318,,08,68,238,31*76
$GPGSV,2,2,06,11,20,195,30,23,39,239,30*73
$GPRMC,040557.000,V,,,,,,,310517,,,N*4F
$GPVTG,,,,,,,,,N*30
$GPZDA,040557.000,31,05,2017,00,00*56
$GPTXT,01,01,01,ANTENNA OK*35
$GPGGA,040558.000,,,,,0,00,25.5,,,,,,*68
$GPGLL,,,,,040558.000,V,N*76
$GPGSA,A,1,,,,,,,,,,,,,25.5,25.5,25.5*02
$GPGSV,2,1,06,01,,,29,04,,,27,07,23,318,,08,68,238,32*75
$GPGSV,2,2,06,11,21,195,31,23,39,239,30*73
$GPRMC,040558.000,V,,,,,,,310517,,,N*40
$GPVTG,,,,,,,,,N*30
$GPZDA,040558.000,31,05,2017,00,00*59
$GPTXT,01,01,01,ANTENNA OK*35
$GPGGA,040559.000,,,,,0,00,25.5,,,,,,*69
$GPGLL,,,,,040559.000,V,N*77
$GPGSA,A,1,,,,,,,,,,,,,25.5,25.5,25.5*02
$GPGSV,2,1,06,01,,,29,04,,,27,07,23,318,,08,68,238,32*75
$GPGSV,2,2,06,11,21,195,31,23,39,239,30*73
$GPRMC,040559.000,V,,,,,,,310517,,,N*41
$GPVTG,,,,,,,,,N*30
$GPZDA,040559.000,31,05,2017,00,00*58
$GPTXT,01,01,01,ANTENNA OK*35
$GPGGA,040600.000,,,,,0,00,25.5,,,,,,*66
$GPGLL,,,,,040600.000,V,N*78
$GPGSA,A,1,,,,,,,,,,,,,25.5,25.5,25.5*02
$GPGSV,2,1,06,01,,,29,04,,,27,07,23,318,,08,68,238,32*75
$GPGSV,2,2,06,11,21,195,31,23,39,239,30*73
$GPRMC,040600.000,V,,,,,,,310517,,,N*4E
$GPVTG,,,,,,,,,N*30
$GPZDA,040600.000,31,05,2017,00,00*57
$GPTXT,01,01,01,ANTENNA OK*35
$GPGGA,040601.000,,,,,0,00,25.5,,,,,,*67
$GPGLL,,,,,040601.000,V,N*79
$GPGSA,A,1,,,,,,,,,,,,,25.5,25.5,25.5*02
$GPGSV,2,1,06,01,,,30,04,,,27,07,23,318,,08,68,238,32*7D
$GPGSV,2,2,06,11,21,195,31,23,39,239,30*73
$GPRMC,040601.000,V,,,,,,,310517,,,N*4F
$GPVTG,,,,,,,,,N*30
$GPZDA,040601.000,31,05,2017,00,00*56
$GPTXT,01,01,01,ANTENNA OK*35
$GPGGA,040602.000,,,,,0,00,25.5,,,,,,*64
$GPGLL,,,,,040602.000,V,N*7A
$GPGSA,A,1,,,,,,,,,,,,,25.5,25.5,25.5*02
$GPGSV,2,1,06,01,00,189,30,04,,,27,07,23,318,,08,68,238,31*4E
$GPGSV,2,2,06,11,21,195,30,23,39,239,30*72
$GPRMC,040602.000,V,,,,,,,310517,,,N*4C
$GPVTG,,,,,,,,,N*30
$GPZDA,040602.000,31,05,2017,00,00*55
$GPTXT,01,01,01,ANTENNA OK*35
$GPGGA,040603.000,,,,,0,00,25.5,,,,,,*65
$GPGLL,,,,,040603.000,V,N*7B
$GPGSA,A,1,,,,,,,,,,,,,25.5,25.5,25.5*02
$GPGSV,2,1,06,01,00,189,30,04,,,27,07,23,318,,08,68,238,31*4E
$GPGSV,2,2,06,11,21,195,30,23,39,239,30*72
$GPRMC,040603.000,V,,,,,,,310517,,,N*4D
$GPVTG,,,,,,,,,N*30
$GPZDA,040603.000,31,05,2017,00,00*54
$GPTXT,01,01,01,ANTENNA OK*35
$GPGGA,040604.000,,,,,0,00,25.5,,,,,,*62
$GPGLL,,,,,040604.000,V,N*7C
$GPGSA,A,1,,,,,,,,,,,,,25.5,25.5,25.5*02
$GPGSV,2,1,06,01,00,189,30,04,,,27,07,23,318,,08,68,238,31*4E
$GPGSV,2,2,06,11,21,195,30,23,39,239,30*72
$GPRMC,040604.000,V,,,,,,,310517,,,N*4A
$GPVTG,,,,,,,,,N*30
$GPZDA,040604.000,31,05,2017,00,00*53
$GPTXT,01,01,01,ANTENNA OK*35
$GPGGA,040605.000,,,,,0,00,25.5,,,,,,*63
$GPGLL,,,,,040605.000,V,N*7D
$GPGSA,A,1,,,,,,,,,,,,,25.5,25.5,25.5*02
$GPGSV,2,1,06,01,00,189,30,04,,,26,07,23,318,,08,68,238,31*4F
$GPGSV,2,2,06,11,21,195,30,23,39,239,31*73
$GPRMC,040605.000,V,,,,,,,310517,,,N*4B
$GPVTG,,,,,,,,,N*30
$GPZDA,040605.000,31,05,2017,00,00*52
$GPTXT,01,01,01,ANTENNA OK*35
$GPGGA,040606.000,,,,,0,00,25.5,,,,,,*60
$GPGLL,,,,,040606.000,V,N*7E
$GPGSA,A,1,,,,,,,,,,,,,25.5,25.5,25.5*02
$GPGSV,2,1,06,01,00,189,30,04,,,26,07,24,318,,08,68,238,32*4B
$GPGSV,2,2,06,11,21,195,31,23,39,239,31*72
$GPRMC,040606.000,V,,,,,,,310517,,,N*48
$GPVTG,,,,,,,,,N*30
$GPZDA,040606.000,31,05,2017,00,00*51
$GPTXT,01,01,01,ANTENNA OK*35
$GPGGA,040607.000,,,,,0,00,25.5,,,,,,*61
$GPGLL,,,,,040607.000,V,N*7F
$GPGSA,A,1,,,,,,,,,,,,,25.5,25.5,25.5*02
$GPGSV,2,1,06,01,00,189,30,04,,,26,07,24,318,,08,68,238,32*4B
$GPGSV,2,2,06,11,21,195,31,23,39,239,31*72
$GPRMC,040607.000,V,,,,,,,310517,,,N*49
$GPVTG,,,,,,,,,N*30
$GPZDA,040607.000,31,05,2017,00,00*50
$GPTXT,01,01,01,ANTENNA OK*35
$GPGGA,040608.000,,,,,0,00,25.5,,,,,,*6E
$GPGLL,,,,,040608.000,V,N*70
$GPGSA,A,1,,,,,,,,,,,,,25.5,25.5,25.5*02
$GPGSV,2,1,06,01,00,189,30,04,,,26,07,24,318,,08,68,238,32*4B
$GPGSV,2,2,06,11,21,195,31,23,39,239,31*72
$GPRMC,040608.000,V,,,,,,,310517,,,N*46
$GPVTG,,,,,,,,,N*30
$GPZDA,040608.000,31,05,2017,00,00*5F
$GPTXT,01,01,01,ANTENNA OK*35
$GPGGA,040609.000,,,,,0,00,25.5,,,,,,*6F
$GPGLL,,,,,040609.000,V,N*71
$GPGSA,A,1,,,,,,,,,,,,,25.5,25.5,25.5*02
$GPGSV,2,1,06,01,00,189,28,04,,,26,07,24,318,,08,68,238,32*42
$GPGSV,2,2,06,11,21,195,29,23,39,239,31*7B
$GPRMC,040609.000,V,,,,,,,310517,,,N*47
$GPVTG,,,,,,,,,N*30
$GPZDA,040609.000,31,05,2017,00,00*5E
$GPTXT,01,01,01,ANTENNA OK*35
$GPGGA,040610.000,,,,,0,00,25.5,,,,,,*67
$GPGLL,,,,,040610.000,V,N*79
$GPGSA,A,1,,,,,,,,,,,,,25.5,25.5,25.5*02
$GPGSV,2,1,06,01,00,189,28,04,,,26,07,24,318,,08,68,238,32*42
$GPGSV,2,2,06,11,21,195,29,23,39,239,31*7B
$GPRMC,040610.000,V,,,,,,,310517,,,N*4F
$GPVTG,,,,,,,,,N*30
$GPZDA,040610.000,31,05,2017,00,00*56
$GPTXT,01,01,01,ANTENNA OK*35
$GPGGA,040611.000,,,,,0,00,25.5,,,,,,*66
$GPGLL,,,,,040611.000,V,N*78
$GPGSA,A,1,,,,,,,,,,,,,25.5,25.5,25.5*02
$GPGSV,2,1,06,01,00,189,23,04,,,26,07,24,318,,08,68,238,32*49
$GPGSV,2,2,06,11,21,195,20,23,39,239,31*72
$GPRMC,040611.000,V,,,,,,,310517,,,N*4E
$GPVTG,,,,,,,,,N*30
$GPZDA,040611.000,31,05,2017,00,00*57
$GPTXT,01,01,01,ANTENNA OK*35
$GPGGA,040612.000,,,,,0,00,25.5,,,,,,*65
$GPGLL,,,,,040612.000,V,N*7B
$GPGSA,A,1,,,,,,,,,,,,,25.5,25.5,25.5*02
$GPGSV,2,1,06,01,00,189,23,04,,,27,07,24,318,,08,68,238,32*48
$GPGSV,2,2,06,11,21,195,20,23,39,239,30*73
$GPRMC,040612.000,V,,,,,,,310517,,,N*4D
$GPVTG,,,,,,,,,N*30
$GPZDA,040612.000,31,05,2017,00,00*54
$GPTXT,01,01,01,ANTENNA OK*35
$GPGGA,040613.000,,,,,0,00,25.5,,,,,,*64
$GPGLL,,,,,040613.000,V,N*7A
$GPGSA,A,1,,,,,,,,,,,,,25.5,25.5,25.5*02
$GPGSV,2,1,06,01,00,189,23,04,,,27,07,24,318,,08,68,238,32*48
$GPGSV,2,2,06,11,21,195,20,23,39,239,30*73
$GPRMC,040613.000,V,,,,,,,310517,,,N*4C
$GPVTG,,,,,,,,,N*30
$GPZDA,040613.000,31,05,2017,00,00*55
$GPTXT,01,01,01,ANTENNA OK*35
$GPGGA,040614.000,,,,,0,00,25.5,,,,,,*63
$GPGLL,,,,,040614.000,V,N*7D
$GPGSA,A,1,,,,,,,,,,,,,25.5,25.5,25.5*02
$GPGSV,2,1,06,01,00,189,23,04,,,27,07,24,318,,08,68,238,31*4B
$GPGSV,2,2,06,11,21,195,20,23,39,238,30*72
$GPRMC,040614.000,V,,,,,,,310517,,,N*4B
$GPVTG,,,,,,,,,N*30
$GPZDA,040614.000,31,05,2017,00,00*52
$GPTXT,01,01,01,ANTENNA OK*35
$GPGGA,040615.000,,,,,0,00,25.5,,,,,,*62
$GPGLL,,,,,040615.000,V,N*7C
$GPGSA,A,1,,,,,,,,,,,,,25.5,25.5,25.5*02
$GPGSV,2,1,06,01,00,189,23,04,,,27,07,24,318,,08,68,238,31*4B
$GPGSV,2,2,06,11,21,195,20,23,39,238,30*72
$GPRMC,040615.000,V,,,,,,,310517,,,N*4A
$GPVTG,,,,,,,,,N*30
$GPZDA,040615.000,31,05,2017,00,00*53
$GPTXT,01,01,01,ANTENNA OK*35
$GPGGA,040616.000,,,,,0,00,25.5,,,,,,*61
$GPGLL,,,,,040616.000,V,N*7F
$GPGSA,A,1,,,,,,,,,,,,,25.5,25.5,25.5*02
$GPGSV,2,1,06,01,00,189,23,04,,,27,07,24,318,,08,68,238,31*4B
$GPGSV,2,2,06,11,21,195,20,23,39,238,30*72
$GPRMC,040616.000,V,,,,,,,310517,,,N*49
$GPVTG,,,,,,,,,N*30
$GPZDA,040616.000,31,05,2017,00,00*50
$GPTXT,01,01,01,ANTENNA OK*35
$GPGGA,040617.000,,,,,0,00,25.5,,,,,,*60
$GPGLL,,,,,040617.000,V,N*7E
$GPGSA,A,1,,,,,,,,,,,,,25.5,25.5,25.5*02
$GPGSV,2,1,06,01,00,189,23,04,,,27,07,24,318,,08,68,238,31*4B
$GPGSV,2,2,06,11,21,195,20,23,39,238,30*72
$GPRMC,040617.000,V,,,,,,,310517,,,N*48
$GPVTG,,,,,,,,,N*30
$GPZDA,040617.000,31,05,2017,00,00*51
$GPTXT,01,01,01,ANTENNA OK*35
$GPGGA,040618.000,,,,,0,00,25.5,,,,,,*6F
$GPGLL,,,,,040618.000,V,N*71
$GPGSA,A,1,,,,,,,,,,,,,25.5,25.5,25.5*02
$GPGSV,2,1,06,01,00,189,22,04,,,26,07,24,318,,08,68,238,32*48
$GPGSV,2,2,06,11,21,195,20,23,39,238,30*72
$GPRMC,040618.000,V,,,,,,,310517,,,N*47
$GPVTG,,,,,,,,,N*30
$GPZDA,040618.000,31,05,2017,00,00*5E
$GPTXT,01,01,01,ANTENNA OK*35
$GPGGA,040619.000,,,,,0,00,25.5,,,,,,*6E
$GPGLL,,,,,040619.000,V,N*70
$GPGSA,A,1,,,,,,,,,,,,,25.5,25.5,25.5*02
$GPGSV,2,1,06,01,00,189,22,04,,,26,07,24,318,,08,68,238,32*48
$GPGSV,2,2,06,11,21,195,20,23,39,238,27*74
$GPRMC,040619.000,V,,,,,,,310517,,,N*46
$GPVTG,,,,,,,,,N*30
$GPZDA,040619.000,31,05,2017,00,00*5F
$GPTXT,01,01,01,ANTENNA OK*35
$GPGGA,040620.000,,,,,0,00,25.5,,,,,,*64
$GPGLL,,,,,040620.000,V,N*7A
$GPGSA,A,1,,,,,,,,,,,,,25.5,25.5,25.5*02
$GPGSV,2,1,06,01,00,189,22,04,,,26,07,24,318,,08,68,238,32*48
$GPGSV,2,2,06,11,21,195,20,23,39,238,27*74
$GPRMC,040620.000,V,,,,,,,310517,,,N*4C
$GPVTG,,,,,,,,,N*30
$GPZDA,040620.000,31,05,2017,00,00*55
$GPTXT,01,01,01,ANTENNA OK*35
$GPGGA,040621.000,,,,,0,00,25.5,,,,,,*65
$GPGLL,,,,,040621.000,V,N*7B
$GPGSA,A,1,,,,,,,,,,,,,25.5,25.5,25.5*02
$GPGSV,2,1,06,01,00,189,22,04,,,26,07,24,318,,08,68,238,33*49
$GPGSV,2,2,06,11,21,195,21,23,39,238,29*7B
$GPRMC,040621.000,V,,,,,,,310517,,,N*4D
$GPVTG,,,,,,,,,N*30
$GPZDA,040621.000,31,05,2017,00,00*54
$GPTXT,01,01,01,ANTENNA OK*35
$GPGGA,040622.000,,,,,0,00,25.5,,,,,,*66
$GPGLL,,,,,040622.000,V,N*78
$GPGSA,A,1,,,,,,,,,,,,,25.5,25.5,25.5*02
$GPGSV,2,1,06,01,00,189,22,04,,,26,07,24,318,,08,68,238,33*49
$GPGSV,2,2,06,11,21,195,21,23,39,238,29*7B
$GPRMC,040622.000,V,,,,,,,310517,,,N*4E
$GPVTG,,,,,,,,,N*30
$GPZDA,040622.000,31,05,2017,00,00*57
$GPTXT,01,01,01,ANTENNA OK*35
$GPGGA,040623.000,,,,,0,00,25.5,,,,,,*67
$GPGLL,,,,,040623.000,V,N*79
$GPGSA,A,1,,,,,,,,,,,,,25.5,25.5,25.5*02
$GPGSV,2,1,06,01,00,189,22,04,,,26,07,24,318,,08,68,238,33*49
$GPGSV,2,2,06,11,21,195,21,23,39,238,29*7B
$GPRMC,040623.000,V,,,,,,,310517,,,N*4F
$GPVTG,,,,,,,,,N*30
$GPZDA,040623.000,31,05,2017,00,00*56
$GPTXT,01,01,01,ANTENNA OK*35
$GPGGA,040624.000,,,,,0,00,25.5,,,,,,*60
$GPGLL,,,,,040624.000,V,N*7E
$GPGSA,A,1,,,,,,,,,,,,,25.5,25.5,25.5*02
$GPGSV,2,1,06,01,00,189,22,04,,,26,07,24,318,,08,68,238,33*49
$GPGSV,2,2,06,11,21,195,21,23,39,238,29*7B
$GPRMC,040624.000,V,,,,,,,310517,,,N*48
$GPVTG,,,,,,,,,N*30
$GPZDA,040624.000,31,05,2017,00,00*51
$GPTXT,01,01,01,ANTENNA OK*35
$GPGGA,040625.000,,,,,0,00,25.5,,,,,,*61
$GPGLL,,,,,040625.000,V,N*7F
$GPGSA,A,1,,,,,,,,,,,,,25.5,25.5,25.5*02
$GPGSV,2,1,06,01,00,189,22,04,,,26,07,24,318,,08,68,238,34*4E
$GPGSV,2,2,06,11,21,195,21,23,39,238,29*7B
$GPRMC,040625.000,V,,,,,,,310517,,,N*49
$GPVTG,,,,,,,,,N*30
$GPZDA,040625.000,31,05,2017,00,00*50
$GPTXT,01,01,01,ANTENNA OK*35
$GPGGA,040626.000,,,,,0,00,25.5,,,,,,*62
$GPGLL,,,,,040626.000,V,N*7C
$GPGSA,A,1,,,,,,,,,,,,,25.5,25.5,25.5*02
$GPGSV,2,1,06,01,00,189,22,04,,,26,07,24,318,,08,68,238,34*4E
$GPGSV,2,2,06,11,21,195,23,23,39,238,29*79
$GPRMC,040626.000,V,,,,,,,310517,,,N*4A
$GPVTG,,,,,,,,,N*30
$GPZDA,040626.000,31,05,2017,00,00*53
$GPTXT,01,01,01,ANTENNA OK*35
$GPGGA,040627.000,,,,,0,00,25.5,,,,,,*63
$GPGLL,,,,,040627.000,V,N*7D
$GPGSA,A,1,,,,,,,,,,,,,25.5,25.5,25.5*02
$GPGSV,2,1,06,01,00,189,22,04,,,26,07,24,318,,08,68,238,34*4E
$GPGSV,2,2,06,11,21,195,23,23,39,238,29*79
$GPRMC,040627.000,V,,,,,,,310517,,,N*4B
$GPVTG,,,,,,,,,N*30
$GPZDA,040627.000,31,05,2017,00,00*52
$GPTXT,01,01,01,ANTENNA OK*35
$GPGGA,040628.000,,,,,0,00,25.5,,,,,,*6C
$GPGLL,,,,,040628.000,V,N*72
$GPGSA,A,1,,,,,,,,,,,,,25.5,25.5,25.5*02
$GPGSV,2,1,06,01,00,189,22,04,,,26,07,24,318,,08,68,238,34*4E
$GPGSV,2,2,06,11,21,195,23,23,39,238,29*79
$GPRMC,040628.000,V,,,,,,,310517,,,N*44
$GPVTG,,,,,,,,,N*30
$GPZDA,040628.000,31,05,2017,00,00*5D
$GPTXT,01,01,01,ANTENNA OK*35
$GPGGA,040629.000,,,,,0,00,25.5,,,,,,*6D
$GPGLL,,,,,040629.000,V,N*73
$GPGSA,A,1,,,,,,,,,,,,,25.5,25.5,25.5*02
$GPGSV,2,1,06,01,00,189,22,04,,,26,07,24,318,,08,68,238,34*4E
$GPGSV,2,2,06,11,21,195,23,23,39,238,29*79
$GPRMC,040629.000,V,,,,,,,310517,,,N*45
$GPVTG,,,,,,,,,N*30
$GPZDA,040629.000,31,05,2017,00,00*5C
$GPTXT,01,01,01,ANTENNA OK*35
$GPGGA,040630.000,,,,,0,00,25.5,,,,,,*65
$GPGLL,,,,,040630.000,V,N*7B
$GPGSA,A,1,,,,,,,,,,,,,25.5,25.5,25.5*02
$GPGSV,2,1,06,01,00,189,22,04,,,26,07,24,318,,08,68,238,34*4E
$GPGSV,2,2,06,11,21,195,23,23,39,238,29*79
$GPRMC,040630.000,V,,,,,,,310517,,,N*4D
$GPVTG,,,,,,,,,N*30
$GPZDA,040630.000,31,05,2017,00,00*54
$GPTXT,01,01,01,ANTENNA OK*35
$GPGGA,040631.000,,,,,0,00,25.5,,,,,,*64
$GPGLL,,,,,040631.000,V,N*7A
$GPGSA,A,1,,,,,,,,,,,,,25.5,25.5,25.5*02
$GPGSV,2,1,06,01,00,189,21,04,,,26,07,24,318,,08,68,238,34*4D
$GPGSV,2,2,06,11,21,195,23,23,39,238,29*79
$GPRMC,040631.000,V,,,,,,,310517,,,N*4C
$GPVTG,,,,,,,,,N*30
$GPZDA,040631.000,31,05,2017,00,00*55
$GPTXT,01,01,01,ANTENNA OK*35
$GPGGA,040632.000,,,,,0,00,25.5,,,,,,*67
$GPGLL,,,,,040632.000,V,N*79
$GPGSA,A,1,,,,,,,,,,,,,25.5,25.5,25.5*02
$GPGSV,2,1,06,01,00,189,21,04,,,26,07,24,318,,08,68,238,34*4D
$GPGSV,2,2,06,11,21,195,23,23,39,238,28*78
$GPRMC,040632.000,V,,,,,,,310517,,,N*4F
$GPVTG,,,,,,,,,N*30
$GPZDA,040632.000,31,05,2017,00,00*56
$GPTXT,01,01,01,ANTENNA OK*35
$GPGGA,040633.000,,,,,0,00,25.5,,,,,,*66
$GPGLL,,,,,040633.000,V,N*78
$GPGSA,A,1,,,,,,,,,,,,,25.5,25.5,25.5*02
$GPGSV,2,1,06,01,00,189,21,04,,,26,07,24,318,,08,68,238,34*4D
$GPGSV,2,2,06,11,21,195,23,23,39,238,28*78
$GPRMC,040633.000,V,,,,,,,310517,,,N*4E
$GPVTG,,,,,,,,,N*30
$GPZDA,040633.000,31,05,2017,00,00*57
$GPTXT,01,01,01,ANTENNA OK*35
$GPGGA,040634.000,,,,,0,00,25.5,,,,,,*61
$GPGLL,,,,,040634.000,V,N*7F
$GPGSA,A,1,,,,,,,,,,,,,25.5,25.5,25.5*02
$GPGSV,2,1,06,01,00,189,21,04,,,26,07,24,318,,08,68,238,34*4D
$GPGSV,2,2,06,11,21,195,23,23,39,238,28*78
$GPRMC,040634.000,V,,,,,,,310517,,,N*49
$GPVTG,,,,,,,,,N*30
$GPZDA,040634.000,31,05,2017,00,00*50
$GPTXT,01,01,01,ANTENNA OK*35
$GPGGA,040635.000,,,,,0,00,25.5,,,,,,*60
$GPGLL,,,,,040635.000,V,N*7E
$GPGSA,A,1,,,,,,,,,,,,,25.5,25.5,25.5*02
$GPGSV,2,1,06,01,00,189,21,04,,,26,07,24,318,,08,68,238,34*4D
$GPGSV,2,2,06,11,21,195,24,23,39,238,28*7F
$GPRMC,040635.000,V,,,,,,,310517,,,N*48
$GPVTG,,,,,,,,,N*30
$GPZDA,040635.000,31,05,2017,00,00*51
$GPTXT,01,01,01,ANTENNA OK*35
$GPGGA,040636.000,,,,,0,00,25.5,,,,,,*63
$GPGLL,,,,,040636.000,V,N*7D
$GPGSA,A,1,,,,,,,,,,,,,25.5,25.5,25.5*02
$GPGSV,2,1,06,01,00,189,21,04,,,26,07,24,318,,08,68,238,34*4D
$GPGSV,2,2,06,11,21,195,24,23,39,238,28*7F
$GPRMC,040636.000,V,,,,,,,310517,,,N*4B
$GPVTG,,,,,,,,,N*30
$GPZDA,040636.000,31,05,2017,00,00*52
$GPTXT,01,01,01,ANTENNA OK*35
$GPGGA,040637.000,,,,,0,00,25.5,,,,,,*62
$GPGLL,,,,,040637.000,V,N*7C
$GPGSA,A,1,,,,,,,,,,,,,25.5,25.5,25.5*02
$GPGSV,2,1,06,01,00,189,21,04,,,24,07,24,318,,08,68,238,33*48
$GPGSV,2,2,06,11,21,195,24,23,39,238,29*7E
$GPRMC,040637.000,V,,,,,,,310517,,,N*4A
$GPVTG,,,,,,,,,N*30
$GPZDA,040637.000,31,05,2017,00,00*53
$GPTXT,01,01,01,ANTENNA OK*35
$GPGGA,040638.000,,,,,0,00,25.5,,,,,,*6D
$GPGLL,,,,,040638.000,V,N*73
$GPGSA,A,1,,,,,,,,,,,,,25.5,25.5,25.5*02
$GPGSV,2,1,06,01,00,189,21,04,,,24,07,24,318,,08,68,238,31*4A
$GPGSV,2,2,06,11,21,195,24,23,39,238,29*7E
$GPRMC,040638.000,V,,,,,,,310517,,,N*45
$GPVTG,,,,,,,,,N*30
$GPZDA,040638.000,31,05,2017,00,00*5C
$GPTXT,01,01,01,ANTENNA OK*35
$GPGGA,040639.000,,,,,0,00,25.5,,,,,,*6C
$GPGLL,,,,,040639.000,V,N*72
$GPGSA,A,1,,,,,,,,,,,,,25.5,25.5,25.5*02
$GPGSV,2,1,06,01,00,189,23,04,,,24,07,24,318,,08,68,238,31*48
$GPGSV,2,2,06,11,21,195,24,23,39,238,29*7E
$GPRMC,040639.000,V,,,,,,,310517,,,N*44
$GPVTG,,,,,,,,,N*30
$GPZDA,040639.000,31,05,2017,00,00*5D
$GPTXT,01,01,01,ANTENNA OK*35
$GPGGA,040640.000,,,,,0,00,25.5,,,,,,*62
$GPGLL,,,,,040640.000,V,N*7C
$GPGSA,A,1,,,,,,,,,,,,,25.5,25.5,25.5*02
$GPGSV,2,1,06,01,00,189,23,04,,,24,07,24,318,,08,68,238,31*48
$GPGSV,2,2,06,11,21,195,24,23,39,238,29*7E
$GPRMC,040640.000,V,,,,,,,310517,,,N*4A
$GPVTG,,,,,,,,,N*30
$GPZDA,040640.000,31,05,2017,00,00*53
$GPTXT,01,01,01,ANTENNA OK*35
$GPGGA,040641.000,,,,,0,00,25.5,,,,,,*63
$GPGLL,,,,,040641.000,V,N*7D
$GPGSA,A,1,,,,,,,,,,,,,25.5,25.5,25.5*02
$GPGSV,2,1,06,01,00,189,23,04,,,24,07,24,318,,08,68,238,31*48
$GPGSV,2,2,06,11,21,195,24,23,39,238,29*7E
$GPRMC,040641.000,V,,,,,,,310517,,,N*4B
$GPVTG,,,,,,,,,N*30
$GPZDA,040641.000,31,05,2017,00,00*52
$GPTXT,01,01,01,ANTENNA OK*35
$GPGGA,040642.000,,,,,0,00,25.5,,,,,,*60
$GPGLL,,,,,040642.000,V,N*7E
$GPGSA,A,1,,,,,,,,,,,,,25.5,25.5,25.5*02
$GPGSV,2,1,06,01,00,189,23,04,,,24,07,24,318,,08,68,238,31*48
$GPGSV,2,2,06,11,21,195,24,23,39,238,29*7E
$GPRMC,040642.000,V,,,,,,,310517,,,N*48
$GPVTG,,,,,,,,,N*30
$GPZDA,040642.000,31,05,2017,00,00*51
$GPTXT,01,01,01,ANTENNA OK*35
$GPGGA,040643.000,,,,,0,00,25.5,,,,,,*61
$GPGLL,,,,,040643.000,V,N*7F
$GPGSA,A,1,,,,,,,,,,,,,25.5,25.5,25.5*02
$GPGSV,2,1,06,01,00,189,23,04,,,24,07,24,318,,08,68,238,30*49
$GPGSV,2,2,06,11,21,195,24,23,39,238,29*7E
$GPRMC,040643.000,V,,,,,,,310517,,,N*49
$GPVTG,,,,,,,,,N*30
$GPZDA,040643.000,31,05,2017,00,00*50
$GPTXT,01,01,01,ANTENNA OK*35
$GPGGA,040644.000,,,,,0,00,25.5,,,,,,*66
$GPGLL,,,,,040644.000,V,N*78
$GPGSA,A,1,,,,,,,,,,,,,25.5,25.5,25.5*02
$GPGSV,2,1,08,01,00,189,21,04,,,24,07,24,318,,08,68,238,30*45
$GPGSV,2,2,08,09,33,280,,11,21,195,24,23,39,238,29,31,08,132,*79
$GPRMC,040644.000,V,,,,,,,310517,,,N*4E
$GPVTG,,,,,,,,,N*30
$GPZDA,040644.000,31,05,2017,00,00*57
$GPTXT,01,01,01,ANTENNA OK*35
$GPGGA,040645.000,,,,,0,00,25.5,,,,,,*67
$GPGLL,,,,,040645.000,V,N*79
$GPGSA,A,1,,,,,,,,,,,,,25.5,25.5,25.5*02
$GPGSV,2,1,08,01,00,189,21,04,,,24,07,24,318,,08,68,238,30*45
$GPGSV,2,2,08,09,33,280,,11,21,195,24,23,39,238,29,31,08,132,*79
$GPRMC,040645.000,V,,,,,,,310517,,,N*4F
$GPVTG,,,,,,,,,N*30
$GPZDA,040645.000,31,05,2017,00,00*56
$GPTXT,01,01,01,ANTENNA OK*35
$GPGGA,040646.000,,,,,0,00,25.5,,,,,,*64
$GPGLL,,,,,040646.000,V,N*7A
$GPGSA,A,1,,,,,,,,,,,,,25.5,25.5,25.5*02
$GPGSV,2,1,08,01,00,189,21,04,,,24,07,24,318,,08,68,238,30*45
$GPGSV,2,2,08,09,33,280,,11,21,195,24,23,39,238,30,31,08,132,*71
$GPRMC,040646.000,V,,,,,,,310517,,,N*4C
$GPVTG,,,,,,,,,N*30
$GPZDA,040646.000,31,05,2017,00,00*55
$GPTXT,01,01,01,ANTENNA OK*35
$GPGGA,040647.000,,,,,0,00,25.5,,,,,,*65
$GPGLL,,,,,040647.000,V,N*7B
$GPGSA,A,1,,,,,,,,,,,,,25.5,25.5,25.5*02
$GPGSV,2,1,08,01,00,189,21,04,,,24,07,24,318,,08,68,238,30*45
$GPGSV,2,2,08,09,33,280,,11,21,195,24,23,39,238,30,31,08,132,*71
$GPRMC,040647.000,V,,,,,,,310517,,,N*4D
$GPVTG,,,,,,,,,N*30
$GPZDA,040647.000,31,05,2017,00,00*54
$GPTXT,01,01,01,ANTENNA OK*35
$GPGGA,040648.000,,,,,0,00,25.5,,,,,,*6A
$GPGLL,,,,,040648.000,V,N*74
$GPGSA,A,1,,,,,,,,,,,,,25.5,25.5,25.5*02
$GPGSV,2,1,08,01,00,189,21,04,,,24,07,24,318,,08,68,238,30*45
$GPGSV,2,2,08,09,33,280,,11,21,195,24,23,39,238,30,31,08,132,*71
$GPRMC,040648.000,V,,,,,,,310517,,,N*42
$GPVTG,,,,,,,,,N*30
$GPZDA,040648.000,31,05,2017,00,00*5B
$GPTXT,01,01,01,ANTENNA OK*35
$GPGGA,040649.000,,,,,0,00,25.5,,,,,,*6B
$GPGLL,,,,,040649.000,V,N*75
$GPGSA,A,1,,,,,,,,,,,,,25.5,25.5,25.5*02
$GPGSV,2,1,08,01,00,189,21,04,,,24,07,24,318,,08,68,238,32*47
$GPGSV,2,2,08,09,33,280,,11,21,195,24,23,39,238,30,31,08,132,*71
$GPRMC,040649.000,V,,,,,,,310517,,,N*43
$GPVTG,,,,,,,,,N*30
$GPZDA,040649.000,31,05,2017,00,00*5A
$GPTXT,01,01,01,ANTENNA OK*35
$GPGGA,040650.000,,,,,0,00,25.5,,,,,,*63
$GPGLL,,,,,040650.000,V,N*7D
$GPGSA,A,1,,,,,,,,,,,,,25.5,25.5,25.5*02
$GPGSV,2,1,08,01,00,189,23,04,,,24,07,24,318,,08,68,238,32*45
$GPGSV,2,2,08,09,33,280,,11,21,195,24,23,39,238,30,31,08,132,*71
$GPRMC,040650.000,V,,,,,,,310517,,,N*4B
$GPVTG,,,,,,,,,N*30
$GPZDA,040650.000,31,05,2017,00,00*52
$GPTXT,01,01,01,ANTENNA OK*35
$GPGGA,040651.000,,,,,0,00,25.5,,,,,,*62
$GPGLL,,,,,040651.000,V,N*7C
$GPGSA,A,1,,,,,,,,,,,,,25.5,25.5,25.5*02
$GPGSV,2,1,08,01,00,189,23,04,,,24,07,24,318,,08,68,238,32*45
$GPGSV,2,2,08,09,33,280,,11,21,195,24,23,39,238,30,31,08,132,*71
$GPRMC,040651.000,V,,,,,,,310517,,,N*4A
$GPVTG,,,,,,,,,N*30
$GPZDA,040651.000,31,05,2017,00,00*53
$GPTXT,01,01,01,ANTENNA OK*35
$GPGGA,040652.000,,,,,0,00,25.5,,,,,,*61
$GPGLL,,,,,040652.000,V,N*7F
$GPGSA,A,1,,,,,,,,,,,,,25.5,25.5,25.5*02
$GPGSV,2,1,08,01,00,189,23,04,,,24,07,24,318,,08,68,238,31*46
$GPGSV,2,2,08,09,33,280,,11,21,195,24,23,39,238,30,31,08,132,*71
$GPRMC,040652.000,V,,,,,,,310517,,,N*49
$GPVTG,,,,,,,,,N*30
$GPZDA,040652.000,31,05,2017,00,00*50
$GPTXT,01,01,01,ANTENNA OK*35
$GPGGA,040653.000,,,,,0,00,25.5,,,,,,*60
$GPGLL,,,,,040653.000,V,N*7E
$GPGSA,A,1,,,,,,,,,,,,,25.5,25.5,25.5*02
$GPGSV,2,1,08,01,00,189,23,04,,,24,07,24,318,,08,68,238,31*46
$GPGSV,2,2,08,09,33,280,,11,21,195,25,23,39,238,30,31,08,132,*70
$GPRMC,040653.000,V,,,,,,,310517,,,N*48
$GPVTG,,,,,,,,,N*30
$GPZDA,040653.000,31,05,2017,00,00*51
$GPTXT,01,01,01,ANTENNA OK*35
$GPGGA,040654.000,,,,,0,00,25.5,,,,,,*67
$GPGLL,,,,,040654.000,V,N*79
$GPGSA,A,1,,,,,,,,,,,,,25.5,25.5,25.5*02
$GPGSV,2,1,08,01,00,189,23,04,,,24,07,24,318,,08,68,238,31*46
$GPGSV,2,2,08,09,33,280,,11,21,195,25,23,39,238,30,31,08,132,*70
$GPRMC,040654.000,V,,,,,,,310517,,,N*4F
$GPVTG,,,,,,,,,N*30
$GPZDA,040654.000,31,05,2017,00,00*56
$GPTXT,01,01,01,ANTENNA OK*35
$GPGGA,040655.000,,,,,0,00,25.5,,,,,,*66
$GPGLL,,,,,040655.000,V,N*78
$GPGSA,A,1,,,,,,,,,,,,,25.5,25.5,25.5*02
$GPGSV,2,1,08,01,00,189,19,04,,,24,07,24,318,,08,68,239,31*4E
$GPGSV,2,2,08,09,33,280,,11,21,195,25,23,39,238,29,31,08,132,*78
$GPRMC,040655.000,V,,,,,,,310517,,,N*4E
$GPVTG,,,,,,,,,N*30
$GPZDA,040655.000,31,05,2017,00,00*57
$GPTXT,01,01,01,ANTENNA OK*35
$GPGGA,040656.000,,,,,0,00,25.5,,,,,,*65
$GPGLL,,,,,040656.000,V,N*7B
$GPGSA,A,1,,,,,,,,,,,,,25.5,25.5,25.5*02
$GPGSV,2,1,08,01,00,189,19,04,,,24,07,24,318,,08,68,239,31*4E
$GPGSV,2,2,08,09,33,280,,11,21,195,25,23,39,238,29,31,08,132,*78
$GPRMC,040656.000,V,,,,,,,310517,,,N*4D
$GPVTG,,,,,,,,,N*30
$GPZDA,040656.000,31,05,2017,00,00*54
$GPTXT,01,01,01,ANTENNA OK*35
$GPGGA,040657.000,,,,,0,00,25.5,,,,,,*64
$GPGLL,,,,,040657.000,V,N*7A
$GPGSA,A,1,,,,,,,,,,,,,25.5,25.5,25.5*02
$GPGSV,2,1,08,01,00,189,19,04,,,24,07,24,318,,08,68,239,31*4E
$GPGSV,2,2,08,09,33,280,,11,21,195,25,23,39,238,29,31,08,132,*78
$GPRMC,040657.000,V,,,,,,,310517,,,N*4C
$GPVTG,,,,,,,,,N*30
$GPZDA,040657.000,31,05,2017,00,00*55
$GPTXT,01,01,01,ANTENNA OK*35
$GPGGA,040658.000,,,,,0,00,25.5,,,,,,*6B
$GPGLL,,,,,040658.000,V,N*75
$GPGSA,A,1,,,,,,,,,,,,,25.5,25.5,25.5*02
$GPGSV,2,1,08,01,00,189,19,04,,,24,07,24,318,,08,68,239,26*48
$GPGSV,2,2,08,09,33,280,,11,21,195,25,23,39,238,28,31,08,132,*79
$GPRMC,040658.000,V,,,,,,,310517,,,N*43
$GPVTG,,,,,,,,,N*30
$GPZDA,040658.000,31,05,2017,00,00*5A
$GPTXT,01,01,01,ANTENNA OK*35
$GPGGA,040659.000,,,,,0,00,25.5,,,,,,*6A
$GPGLL,,,,,040659.000,V,N*74
$GPGSA,A,1,,,,,,,,,,,,,25.5,25.5,25.5*02
$GPGSV,2,1,08,01,00,189,19,04,,,24,07,24,318,,08,68,239,29*47
$GPGSV,2,2,08,09,33,280,,11,21,195,23,23,39,238,28,31,08,132,*7F
$GPRMC,040659.000,V,,,,,,,310517,,,N*42
$GPVTG,,,,,,,,,N*30
$GPZDA,040659.000,31,05,2017,00,00*5B
$GPTXT,01,01,01,ANTENNA OK*35
$GPGGA,040700.000,,,,,0,00,25.5,,,,,,*67
$GPGLL,,,,,040700.000,V,N*79
$GPGSA,A,1,,,,,,,,,,,,,25.5,25.5,25.5*02
$GPGSV,2,1,08,01,00,189,19,04,,,24,07,24,318,,08,68,239,29*47
$GPGSV,2,2,08,09,33,280,,11,21,195,23,23,39,238,28,31,08,132,*7F
$GPRMC,040700.000,V,,,,,,,310517,,,N*4F
$GPVTG,,,,,,,,,N*30
$GPZDA,040700.000,31,05,2017,00,00*56
$GPTXT,01,01,01,ANTENNA OK*35
$GPGGA,040701.000,,,,,0,00,25.5,,,,,,*66
$GPGLL,,,,,040701.000,V,N*78
$GPGSA,A,1,,,,,,,,,,,,,25.5,25.5,25.5*02
$GPGSV,2,1,08,01,00,189,19,04,,,22,07,24,318,,08,68,239,29*41
$GPGSV,2,2,08,09,33,280,,11,21,195,23,23,39,238,28,31,08,132,*7F
$GPRMC,040701.000,V,,,,,,,310517,,,N*4E
$GPVTG,,,,,,,,,N*30
$GPZDA,040701.000,31,05,2017,00,00*57
$GPTXT,01,01,01,ANTENNA OK*35
$GPGGA,040702.000,,,,,0,00,25.5,,,,,,*65
$GPGLL,,,,,040702.000,V,N*7B
$GPGSA,A,1,,,,,,,,,,,,,25.5,25.5,25.5*02
$GPGSV,2,1,08,01,00,189,19,04,,,22,07,24,318,,08,68,239,29*41
$GPGSV,2,2,08,09,33,280,,11,21,195,23,23,39,238,28,31,07,132,*70
$GPRMC,040702.000,V,,,,,,,310517,,,N*4D
$GPVTG,,,,,,,,,N*30
$GPZDA,040702.000,31,05,2017,00,00*54
$GPTXT,01,01,01,ANTENNA OK*35
$GPGGA,040703.000,,,,,0,00,25.5,,,,,,*64
$GPGLL,,,,,040703.000,V,N*7A
$GPGSA,A,1,,,,,,,,,,,,,25.5,25.5,25.5*02
$GPGSV,2,1,08,01,00,189,19,04,,,22,07,24,318,,08,68,239,29*41
$GPGSV,2,2,08,09,33,280,,11,21,195,23,23,39,238,28,31,07,132,*70
$GPRMC,040703.000,V,,,,,,,310517,,,N*4C
$GPVTG,,,,,,,,,N*30
$GPZDA,040703.000,31,05,2017,00,00*55
$GPTXT,01,01,01,ANTENNA OK*35
$GPGGA,040704.000,,,,,0,00,25.5,,,,,,*63
$GPGLL,,,,,040704.000,V,N*7D
$GPGSA,A,1,,,,,,,,,,,,,25.5,25.5,25.5*02
$GPGSV,2,1,08,01,00,189,19,04,,,22,07,24,318,,08,68,239,29*41
$GPGSV,2,2,08,09,33,280,,11,21,195,23,23,39,238,28,31,07,132,*70
$GPRMC,040704.000,V,,,,,,,310517,,,N*4B
$GPVTG,,,,,,,,,N*30
$GPZDA,040704.000,31,05,2017,00,00*52
$GPTXT,01,01,01,ANTENNA OK*35
$GPGGA,040705.000,,,,,0,00,25.5,,,,,,*62
$GPGLL,,,,,040705.000,V,N*7C
$GPGSA,A,1,,,,,,,,,,,,,25.5,25.5,25.5*02
$GPGSV,2,1,08,01,00,189,19,04,,,22,07,24,318,,08,68,239,28*40
$GPGSV,2,2,08,09,33,280,,11,21,195,23,23,39,238,28,31,07,132,*70
$GPRMC,040705.000,V,,,,,,,310517,,,N*4A
$GPVTG,,,,,,,,,N*30
$GPZDA,040705.000,31,05,2017,00,00*53
$GPTXT,01,01,01,ANTENNA OK*35
$GPGGA,040706.000,,,,,0,00,25.5,,,,,,*61
$GPGLL,,,,,040706.000,V,N*7F
$GPGSA,A,1,,,,,,,,,,,,,25.5,25.5,25.5*02
$GPGSV,2,1,08,01,00,189,17,04,,,22,07,24,318,,08,68,239,28*4E
$GPGSV,2,2,08,09,33,280,,11,21,195,23,23,39,238,28,31,07,132,*70
$GPRMC,040706.000,V,,,,,,,310517,,,N*49
$GPVTG,,,,,,,,,N*30
$GPZDA,040706.000,31,05,2017,00,00*50
$GPTXT,01,01,01,ANTENNA OK*35
$GPGGA,040707.000,,,,,0,00,25.5,,,,,,*60
$GPGLL,,,,,040707.000,V,N*7E
$GPGSA,A,1,,,,,,,,,,,,,25.5,25.5,25.5*02
$GPGSV,2,1,08,01,00,189,17,04,,,22,07,24,318,,08,68,239,28*4E
$GPGSV,2,2,08,09,33,280,,11,21,195,22,23,39,238,28,31,07,132,*71
$GPRMC,040707.000,V,,,,,,,310517,,,N*48
$GPVTG,,,,,,,,,N*30
$GPZDA,040707.000,31,05,2017,00,00*51
$GPTXT,01,01,01,ANTENNA OK*35
$GPGGA,040708.000,,,,,0,00,25.5,,,,,,*6F
$GPGLL,,,,,040708.000,V,N*71
$GPGSA,A,1,,,,,,,,,,,,,25.5,25.5,25.5*02
$GPGSV,2,1,08,01,00,189,17,04,,,22,07,24,318,,08,68,239,28*4E
$GPGSV,2,2,08,09,33,280,,11,21,195,22,23,39,238,28,31,07,132,*71
$GPRMC,040708.000,V,,,,,,,310517,,,N*47
$GPVTG,,,,,,,,,N*30
$GPZDA,040708.000,31,05,2017,00,00*5E
$GPTXT,01,01,01,ANTENNA OK*35
$GPGGA,040709.000,,,,,0,00,25.5,,,,,,*6E
$GPGLL,,,,,040709.000,V,N*70
$GPGSA,A,1,,,,,,,,,,,,,25.5,25.5,25.5*02
$GPGSV,2,1,08,01,00,189,17,04,,,22,07,24,318,,08,68,239,29*4F
$GPGSV,2,2,08,09,33,280,,11,21,195,22,23,39,238,28,31,07,132,*71
$GPRMC,040709.000,V,,,,,,,310517,,,N*46
$GPVTG,,,,,,,,,N*30
$GPZDA,040709.000,31,05,2017,00,00*5F
$GPTXT,01,01,01,ANTENNA OK*35
$GPGGA,040710.000,,,,,0,00,25.5,,,,,,*66
$GPGLL,,,,,040710.000,V,N*78
$GPGSA,A,1,,,,,,,,,,,,,25.5,25.5,25.5*02
$GPGSV,2,1,08,01,00,189,17,04,,,22,07,24,318,,08,68,239,32*45
$GPGSV,2,2,08,09,33,280,,11,21,195,22,23,39,238,28,31,07,132,*71
$GPRMC,040710.000,V,,,,,,,310517,,,N*4E
$GPVTG,,,,,,,,,N*30
$GPZDA,040710.000,31,05,2017,00,00*57
$GPTXT,01,01,01,ANTENNA OK*35
$GPGGA,040711.000,,,,,0,00,25.5,,,,,,*67
$GPGLL,,,,,040711.000,V,N*79
$GPGSA,A,1,,,,,,,,,,,,,25.5,25.5,25.5*02
$GPGSV,2,1,08,01,00,189,17,04,,,22,07,24,318,,08,68,239,32*45
$GPGSV,2,2,08,09,33,280,,11,21,195,22,23,39,238,28,31,07,132,*71
$GPRMC,040711.000,V,,,,,,,310517,,,N*4F
$GPVTG,,,,,,,,,N*30
$GPZDA,040711.000,31,05,2017,00,00*56
$GPTXT,01,01,01,ANTENNA OK*35
$GPGGA,040712.000,,,,,0,00,25.5,,,,,,*64
$GPGLL,,,,,040712.000,V,N*7A
$GPGSA,A,1,,,,,,,,,,,,,25.5,25.5,25.5*02
$GPGSV,2,1,08,01,00,189,17,04,,,23,07,24,318,,08,68,239,32*44
$GPGSV,2,2,08,09,33,280,,11,21,195,22,23,39,238,28,31,07,132,*71
$GPRMC,040712.000,V,,,,,,,310517,,,N*4C
$GPVTG,,,,,,,,,N*30
$GPZDA,040712.000,31,05,2017,00,00*55
$GPTXT,01,01,01,ANTENNA OK*35
$GPGGA,040713.000,,,,,0,00,25.5,,,,,,*65
$GPGLL,,,,,040713.000,V,N*7B
$GPGSA,A,1,,,,,,,,,,,,,25.5,25.5,25.5*02
$GPGSV,2,1,08,01,00,189,19,04,,,23,07,24,318,,08,68,239,32*4A
$GPGSV,2,2,08,09,33,280,,11,21,195,24,23,39,238,28,31,07,132,*77
$GPRMC,040713.000,V,,,,,,,310517,,,N*4D
$GPVTG,,,,,,,,,N*30
$GPZDA,040713.000,31,05,2017,00,00*54
$GPTXT,01,01,01,ANTENNA OK*35
$GPGGA,040714.000,,,,,0,00,25.5,,,,,,*62
$GPGLL,,,,,040714.000,V,N*7C
$GPGSA,A,1,,,,,,,,,,,,,25.5,25.5,25.5*02
$GPGSV,2,1,08,01,00,189,19,04,,,23,07,24,318,,08,68,239,32*4A
$GPGSV,2,2,08,09,33,280,,11,21,195,24,23,39,238,29,31,07,132,*76
$GPRMC,040714.000,V,,,,,,,310517,,,N*4A
$GPVTG,,,,,,,,,N*30
$GPZDA,040714.000,31,05,2017,00,00*53
$GPTXT,01,01,01,ANTENNA OK*35
$GPGGA,040715.000,,,,,0,00,25.5,,,,,,*63
$GPGLL,,,,,040715.000,V,N*7D
$GPGSA,A,1,,,,,,,,,,,,,25.5,25.5,25.5*02
$GPGSV,2,1,08,01,00,189,19,04,,,23,07,24,318,,08,68,239,32*4A
$GPGSV,2,2,08,09,33,280,,11,21,195,24,23,39,238,29,31,07,132,*76
$GPRMC,040715.000,V,,,,,,,310517,,,N*4B
$GPVTG,,,,,,,,,N*30
$GPZDA,040715.000,31,05,2017,00,00*52
$GPTXT,01,01,01,ANTENNA OK*35
$GPGGA,040716.000,,,,,0,00,25.5,,,,,,*60
$GPGLL,,,,,040716.000,V,N*7E
$GPGSA,A,1,,,,,,,,,,,,,25.5,25.5,25.5*02
$GPGSV,2,1,08,01,00,189,19,04,,,23,07,24,318,,08,68,239,32*4A
$GPGSV,2,2,08,09,33,280,,11,21,195,24,23,39,238,29,31,07,132,*76
$GPRMC,040716.000,V,,,,,,,310517,,,N*48
$GPVTG,,,,,,,,,N*30
$GPZDA,040716.000,31,05,2017,00,00*51
$GPTXT,01,01,01,ANTENNA OK*35
$GPGGA,040717.000,,,,,0,00,25.5,,,,,,*61
$GPGLL,,,,,040717.000,V,N*7F
$GPGSA,A,1,,,,,,,,,,,,,25.5,25.5,25.5*02
$GPGSV,2,1,08,01,00,189,19,04,,,23,07,24,318,,08,68,239,31*49
$GPGSV,2,2,08,09,33,280,,11,21,195,24,23,39,238,29,31,07,132,*76
$GPRMC,040717.000,V,,,,,,,310517,,,N*49
$GPVTG,,,,,,,,,N*30
$GPZDA,040717.000,31,05,2017,00,00*50
$GPTXT,01,01,01,ANTENNA OK*35
$GPGGA,040718.000,,,,,0,00,25.5,,,,,,*6E
$GPGLL,,,,,040718.000,V,N*70
$GPGSA,A,1,,,,,,,,,,,,,25.5,25.5,25.5*02
$GPGSV,2,1,08,01,00,189,19,04,,,23,07,24,318,,08,68,239,31*49
$GPGSV,2,2,08,09,33,280,,11,21,195,24,23,39,238,29,31,07,132,*76
$GPRMC,040718.000,V,,,,,,,310517,,,N*46
$GPVTG,,,,,,,,,N*30
$GPZDA,040718.000,31,05,2017,00,00*5F
$GPTXT,01,01,01,ANTENNA OK*35
$GPGGA,040719.000,,,,,0,00,25.5,,,,,,*6F
$GPGLL,,,,,040719.000,V,N*71
$GPGSA,A,1,,,,,,,,,,,,,25.5,25.5,25.5*02
$GPGSV,2,1,08,01,00,189,19,04,,,23,07,24,318,,08,68,239,31*49
$GPGSV,2,2,08,09,33,280,,11,21,195,24,23,39,238,29,31,07,132,25*71
$GPRMC,040719.000,V,,,,,,,310517,,,N*47
$GPVTG,,,,,,,,,N*30
$GPZDA,040719.000,31,05,2017,00,00*5E
$GPTXT,01,01,01,ANTENNA OK*35
$GPGGA,040720.000,,,,,0,00,25.5,,,,,,*65
$GPGLL,,,,,040720.000,V,N*7B
$GPGSA,A,1,,,,,,,,,,,,,25.5,25.5,25.5*02
$GPGSV,2,1,08,01,00,189,19,04,,,23,07,24,318,,08,68,239,31*49
$GPGSV,2,2,08,09,33,280,,11,21,195,24,23,39,238,29,31,07,132,25*71
$GPRMC,040720.000,V,,,,,,,310517,,,N*4D
$GPVTG,,,,,,,,,N*30
$GPZDA,040720.000,31,05,2017,00,00*54
$GPTXT,01,01,01,ANTENNA OK*35
$GPGGA,040721.000,,,,,0,00,25.5,,,,,,*64
$GPGLL,,,,,040721.000,V,N*7A
$GPGSA,A,1,,,,,,,,,,,,,25.5,25.5,25.5*02
$GPGSV,2,1,08,01,00,189,19,04,,,23,07,24,318,,08,68,239,32*4A
$GPGSV,2,2,08,09,33,280,,11,21,195,23,23,39,238,29,31,07,132,25*76
$GPRMC,040721.000,V,,,,,,,310517,,,N*4C
$GPVTG,,,,,,,,,N*30
$GPZDA,040721.000,31,05,2017,00,00*55
$GPTXT,01,01,01,ANTENNA OK*35
$GPGGA,040722.000,,,,,0,00,25.5,,,,,,*67
$GPGLL,,,,,040722.000,V,N*79
$GPGSA,A,1,,,,,,,,,,,,,25.5,25.5,25.5*02
$GPGSV,2,1,08,01,00,189,19,04,,,23,07,24,318,,08,68,239,32*4A
$GPGSV,2,2,08,09,33,280,,11,21,195,23,23,39,238,29,31,07,132,25*76
$GPRMC,040722.000,V,,,,,,,310517,,,N*4F
$GPVTG,,,,,,,,,N*30
$GPZDA,040722.000,31,05,2017,00,00*56
$GPTXT,01,01,01,ANTENNA OK*35
$GPGGA,040723.000,,,,,0,00,25.5,,,,,,*66
$GPGLL,,,,,040723.000,V,N*78
$GPGSA,A,1,,,,,,,,,,,,,25.5,25.5,25.5*02
$GPGSV,2,1,08,01,00,189,17,04,,,23,07,24,318,,08,68,239,32*44
$GPGSV,2,2,08,09,33,280,,11,21,195,23,23,39,238,29,31,07,132,25*76
$GPRMC,040723.000,V,,,,,,,310517,,,N*4E
$GPVTG,,,,,,,,,N*30
$GPZDA,040723.000,31,05,2017,00,00*57
$GPTXT,01,01,01,ANTENNA OK*35
$GPGGA,040724.000,,,,,0,00,25.5,,,,,,*61
$GPGLL,,,,,040724.000,V,N*7F
$GPGSA,A,1,,,,,,,,,,,,,25.5,25.5,25.5*02
$GPGSV,2,1,08,01,00,189,17,04,,,23,07,24,318,,08,68,239,32*44
$GPGSV,2,2,08,09,33,280,,11,21,195,23,23,39,238,29,31,07,132,27*74
$GPRMC,040724.000,V,,,,,,,310517,,,N*49
$GPVTG,,,,,,,,,N*30
$GPZDA,040724.000,31,05,2017,00,00*50
$GPTXT,01,01,01,ANTENNA OK*35
$GPGGA,040725.000,,,,,0,00,25.5,,,,,,*60
$GPGLL,,,,,040725.000,V,N*7E
$GPGSA,A,1,,,,,,,,,,,,,25.5,25.5,25.5*02
$GPGSV,2,1,08,01,00,189,17,04,,,23,07,24,318,,08,68,239,32*44
$GPGSV,2,2,08,09,33,280,,11,21,195,23,23,39,238,29,31,07,132,27*74
$GPRMC,040725.000,V,,,,,,,310517,,,N*48
$GPVTG,,,,,,,,,N*30
$GPZDA,040725.000,31,05,2017,00,00*51
$GPTXT,01,01,01,ANTENNA OK*35
$GPGGA,040726.000,,,,,0,00,25.5,,,,,,*63
$GPGLL,,,,,040726.000,V,N*7D
$GPGSA,A,1,,,,,,,,,,,,,25.5,25.5,25.5*02
$GPGSV,2,1,08,01,00,189,17,04,,,23,07,24,318,,08,68,239,32*44
$GPGSV,2,2,08,09,33,280,,11,21,195,23,23,39,238,29,31,07,132,27*74
$GPRMC,040726.000,V,,,,,,,310517,,,N*4B
$GPVTG,,,,,,,,,N*30
$GPZDA,040726.000,31,05,2017,00,00*52
$GPTXT,01,01,01,ANTENNA OK*35
$GPGGA,040727.000,,,,,0,00,25.5,,,,,,*62
$GPGLL,,,,,040727.000,V,N*7C
$GPGSA,A,1,,,,,,,,,,,,,25.5,25.5,25.5*02
$GPGSV,2,1,08,01,00,189,17,04,,,23,07,24,318,,08,68,239,32*44
$GPGSV,2,2,08,09,33,280,,11,21,195,23,23,39,238,29,31,07,132,27*74
$GPRMC,040727.000,V,,,,,,,310517,,,N*4A
$GPVTG,,,,,,,,,N*30
$GPZDA,040727.000,31,05,2017,00,00*53
$GPTXT,01,01,01,ANTENNA OK*35
$GPGGA,040728.000,,,,,0,00,25.5,,,,,,*6D
$GPGLL,,,,,040728.000,V,N*73
$GPGSA,A,1,,,,,,,,,,,,,25.5,25.5,25.5*02
$GPGSV,2,1,08,01,00,189,17,04,,,23,07,24,318,,08,68,239,32*44
$GPGSV,2,2,08,09,33,280,,11,21,195,23,23,39,238,29,31,07,132,27*74
$GPRMC,040728.000,V,,,,,,,310517,,,N*45
$GPVTG,,,,,,,,,N*30
$GPZDA,040728.000,31,05,2017,00,00*5C
$GPTXT,01,01,01,ANTENNA OK*35
$GPGGA,040729.000,,,,,0,00,25.5,,,,,,*6C
$GPGLL,,,,,040729.000,V,N*72
$GPGSA,A,1,,,,,,,,,,,,,25.5,25.5,25.5*02
$GPGSV,2,1,08,01,00,189,17,04,,,23,07,24,318,,08,68,239,32*44
$GPGSV,2,2,08,09,33,280,,11,21,195,23,23,39,238,30,31,07,132,27*7C
$GPRMC,040729.000,V,,,,,,,310517,,,N*44
$GPVTG,,,,,,,,,N*30
$GPZDA,040729.000,31,05,2017,00,00*5D
$GPTXT,01,01,01,ANTENNA OK*35
$GPGGA,040730.000,,,,,0,00,25.5,,,,,,*64
$GPGLL,,,,,040730.000,V,N*7A
$GPGSA,A,1,,,,,,,,,,,,,25.5,25.5,25.5*02
$GPGSV,2,1,08,01,00,189,17,04,,,23,07,24,318,,08,68,239,32*44
$GPGSV,2,2,08,09,33,280,,11,21,195,23,23,39,238,30,31,07,132,27*7C
$GPRMC,040730.000,V,,,,,,,310517,,,N*4C
$GPVTG,,,,,,,,,N*30
$GPZDA,040730.000,31,05,2017,00,00*55
$GPTXT,01,01,01,ANTENNA OK*35
$GPGGA,040731.000,,,,,0,00,25.5,,,,,,*65
$GPGLL,,,,,040731.000,V,N*7B
$GPGSA,A,1,,,,,,,,,,,,,25.5,25.5,25.5*02
$GPGSV,2,1,08,01,00,189,17,04,,,23,07,24,318,,08,68,239,32*44
$GPGSV,2,2,08,09,33,280,,11,21,195,22,23,39,238,30,31,07,132,27*7D
$GPRMC,040731.000,V,,,,,,,310517,,,N*4D
$GPVTG,,,,,,,,,N*30
$GPZDA,040731.000,31,05,2017,00,00*54
$GPTXT,01,01,01,ANTENNA OK*35
$GPGGA,040732.000,,,,,0,00,25.5,,,,,,*66
$GPGLL,,,,,040732.000,V,N*78
$GPGSA,A,1,,,,,,,,,,,,,25.5,25.5,25.5*02
$GPGSV,2,1,08,01,00,189,17,04,,,23,07,24,318,,08,68,239,32*44
$GPGSV,2,2,08,09,33,280,,11,21,195,22,23,39,238,30,31,07,132,27*7D
$GPRMC,040732.000,V,,,,,,,310517,,,N*4E
$GPVTG,,,,,,,,,N*30
$GPZDA,040732.000,31,05,2017,00,00*57
$GPTXT,01,01,01,ANTENNA OK*35
$GPGGA,040733.000,,,,,0,00,25.5,,,,,,*67
$GPGLL,,,,,040733.000,V,N*79
$GPGSA,A,1,,,,,,,,,,,,,25.5,25.5,25.5*02
$GPGSV,2,1,08,01,00,189,17,04,,,23,07,24,318,,08,68,239,32*44
$GPGSV,2,2,08,09,33,280,,11,21,195,22,23,39,238,31,31,07,132,27*7C
$GPRMC,040733.000,V,,,,,,,310517,,,N*4F
$GPVTG,,,,,,,,,N*30
$GPZDA,040733.000,31,05,2017,00,00*56
$GPTXT,01,01,01,ANTENNA OK*35
$GPGGA,040734.000,,,,,0,00,25.5,,,,,,*60
$GPGLL,,,,,040734.000,V,N*7E
$GPGSA,A,1,,,,,,,,,,,,,25.5,25.5,25.5*02
$GPGSV,2,1,08,01,00,189,17,04,,,23,07,24,318,,08,68,239,32*44
$GPGSV,2,2,08,09,33,280,,11,21,195,22,23,39,238,31,31,07,132,27*7C
$GPRMC,040734.000,V,,,,,,,310517,,,N*48
$GPVTG,,,,,,,,,N*30
$GPZDA,040734.000,31,05,2017,00,00*51
$GPTXT,01,01,01,ANTENNA OK*35
$GPGGA,040735.000,,,,,0,00,25.5,,,,,,*61
$GPGLL,,,,,040735.000,V,N*7F
$GPGSA,A,1,,,,,,,,,,,,,25.5,25.5,25.5*02
$GPGSV,2,1,08,01,00,189,17,04,,,25,07,24,318,,08,68,239,32*42
$GPGSV,2,2,08,09,33,280,,11,21,195,22,23,39,238,31,31,07,132,27*7C
$GPRMC,040735.000,V,,,,,,,310517,,,N*49
$GPVTG,,,,,,,,,N*30
$GPZDA,040735.000,31,05,2017,00,00*50
$GPTXT,01,01,01,ANTENNA OK*35
$GPGGA,040736.000,,,,,0,00,25.5,,,,,,*62
$GPGLL,,,,,040736.000,V,N*7C
$GPGSA,A,1,,,,,,,,,,,,,25.5,25.5,25.5*02
$GPGSV,2,1,08,01,00,189,17,04,,,25,07,24,318,,08,68,239,32*42
$GPGSV,2,2,08,09,33,280,,11,21,195,22,23,39,238,31,31,07,132,27*7C
$GPRMC,040736.000,V,,,,,,,310517,,,N*4A
$GPVTG,,,,,,,,,N*30
$GPZDA,040736.000,31,05,2017,00,00*53
$GPTXT,01,01,01,ANTENNA OK*35
$GPGGA,040737.000,,,,,0,00,25.5,,,,,,*63
$GPGLL,,,,,040737.000,V,N*7D
$GPGSA,A,1,,,,,,,,,,,,,25.5,25.5,25.5*02
$GPGSV,2,1,08,01,00,189,16,04,,,25,07,24,318,,08,68,239,33*42
$GPGSV,2,2,08,09,33,280,,11,21,195,19,23,39,238,32,31,07,132,27*77
$GPRMC,040737.000,V,,,,,,,310517,,,N*4B
$GPVTG,,,,,,,,,N*30
$GPZDA,040737.000,31,05,2017,00,00*52
$GPTXT,01,01,01,ANTENNA OK*35
$GPGGA,040738.000,,,,,0,00,25.5,,,,,,*6C
$GPGLL,,,,,040738.000,V,N*72
$GPGSA,A,1,,,,,,,,,,,,,25.5,25.5,25.5*02
$GPGSV,2,1,08,01,00,189,16,04,,,25,07,24,318,,08,68,239,33*42
$GPGSV,2,2,08,09,33,280,,11,21,195,19,23,39,238,32,31,07,132,27*77
$GPRMC,040738.000,V,,,,,,,310517,,,N*44
$GPVTG,,,,,,,,,N*30
$GPZDA,040738.000,31,05,2017,00,00*5D
$GPTXT,01,01,01,ANTENNA OK*35
$GPGGA,040739.000,,,,,0,00,25.5,,,,,,*6D
$GPGLL,,,,,040739.000,V,N*73
$GPGSA,A,1,,,,,,,,,,,,,25.5,25.5,25.5*02
$GPGSV,2,1,08,01,00,189,16,04,,,25,07,24,318,,08,68,239,33*42
$GPGSV,2,2,08,09,33,280,,11,21,195,19,23,39,238,32,31,07,132,27*77
$GPRMC,040739.000,V,,,,,,,310517,,,N*45
$GPVTG,,,,,,,,,N*30
$GPZDA,040739.000,31,05,2017,00,00*5C
$GPTXT,01,01,01,ANTENNA OK*35
$GPGGA,040740.000,,,,,0,00,25.5,,,,,,*63
$GPGLL,,,,,040740.000,V,N*7D
$GPGSA,A,1,,,,,,,,,,,,,25.5,25.5,25.5*02
$GPGSV,2,1,08,01,00,189,16,04,,,25,07,24,318,,08,68,239,33*42
$GPGSV,2,2,08,09,33,280,,11,21,195,19,23,39,238,32,31,07,132,27*77
$GPRMC,040740.000,V,,,,,,,310517,,,N*4B
$GPVTG,,,,,,,,,N*30
$GPZDA,040740.000,31,05,2017,00,00*52
$GPTXT,01,01,01,ANTENNA OK*35
$GPGGA,040741.000,,,,,0,00,25.5,,,,,,*62
$GPGLL,,,,,040741.000,V,N*7C
$GPGSA,A,1,,,,,,,,,,,,,25.5,25.5,25.5*02
$GPGSV,2,1,08,01,00,189,16,04,,,25,07,24,318,,08,68,239,33*42
$GPGSV,2,2,08,09,33,280,,11,21,195,19,23,39,238,32,31,07,132,27*77
$GPRMC,040741.000,V,,,,,,,310517,,,N*4A
$GPVTG,,,,,,,,,N*30
$GPZDA,040741.000,31,05,2017,00,00*53
$GPTXT,01,01,01,ANTENNA OK*35
$GPGGA,040742.000,,,,,0,00,25.5,,,,,,*61
$GPGLL,,,,,040742.000,V,N*7F
$GPGSA,A,1,,,,,,,,,,,,,25.5,25.5,25.5*02
$GPGSV,2,1,08,01,01,189,16,04,,,25,07,24,318,,08,68,239,33*43
$GPGSV,2,2,08,09,33,280,,11,21,195,19,23,39,238,32,31,07,132,27*77
$GPRMC,040742.000,V,,,,,,,310517,,,N*49
$GPVTG,,,,,,,,,N*30
$GPZDA,040742.000,31,05,2017,00,00*50
$GPTXT,01,01,01,ANTENNA OK*35
$GPGGA,040743.000,,,,,0,00,25.5,,,,,,*60
$GPGLL,,,,,040743.000,V,N*7E
$GPGSA,A,1,,,,,,,,,,,,,25.5,25.5,25.5*02
$GPGSV,2,1,08,01,01,189,16,04,,,25,07,24,318,,08,68,239,32*42
$GPGSV,2,2,08,09,33,280,,11,21,195,19,23,39,238,32,31,07,132,26*76
$GPRMC,040743.000,V,,,,,,,310517,,,N*48
$GPVTG,,,,,,,,,N*30
$GPZDA,040743.000,31,05,2017,00,00*51
$GPTXT,01,01,01,ANTENNA OK*35
$GPGGA,040744.000,,,,,0,00,25.5,,,,,,*67
$GPGLL,,,,,040744.000,V,N*79
$GPGSA,A,1,,,,,,,,,,,,,25.5,25.5,25.5*02
$GPGSV,2,1,08,01,01,189,16,04,,,24,07,24,318,,08,68,239,35*44
$GPGSV,2,2,08,09,33,280,,11,21,195,19,23,39,238,32,31,07,132,26*76
$GPRMC,040744.000,V,,,,,,,310517,,,N*4F
$GPVTG,,,,,,,,,N*30
$GPZDA,040744.000,31,05,2017,00,00*56
$GPTXT,01,01,01,ANTENNA OK*35
$GPGGA,040745.000,,,,,0,00,25.5,,,,,,*66
$GPGLL,,,,,040745.000,V,N*78
$GPGSA,A,1,,,,,,,,,,,,,25.5,25.5,25.5*02
$GPGSV,2,1,08,01,01,189,12,04,,,24,07,24,318,,08,68,239,35*40
$GPGSV,2,2,08,09,33,280,,11,21,195,21,23,39,238,32,31,07,132,26*7D
$GPRMC,040745.000,V,,,,,,,310517,,,N*4E
$GPVTG,,,,,,,,,N*30
$GPZDA,040745.000,31,05,2017,00,00*57
$GPTXT,01,01,01,ANTENNA OK*35
$GPGGA,040746.000,,,,,0,00,25.5,,,,,,*65
$GPGLL,,,,,040746.000,V,N*7B
$GPGSA,A,1,,,,,,,,,,,,,25.5,25.5,25.5*02
$GPGSV,2,1,08,01,01,189,12,04,,,24,07,24,318,,08,68,239,35*40
$GPGSV,2,2,08,09,33,280,,11,21,195,21,23,39,238,32,31,07,132,23*78
$GPRMC,040746.000,V,,,,,,,310517,,,N*4D
$GPVTG,,,,,,,,,N*30
$GPZDA,040746.000,31,05,2017,00,00*54
$GPTXT,01,01,01,ANTENNA OK*35
$GPGGA,040747.000,,,,,0,00,25.5,,,,,,*64
$GPGLL,,,,,040747.000,V,N*7A
$GPGSA,A,1,,,,,,,,,,,,,25.5,25.5,25.5*02
$GPGSV,2,1,08,01,01,189,12,04,,,24,07,24,318,,08,68,239,34*41
$GPGSV,2,2,08,09,33,280,,11,21,195,21,23,39,238,32,31,07,132,23*78
$GPRMC,040747.000,V,,,,,,,310517,,,N*4C
$GPVTG,,,,,,,,,N*30
$GPZDA,040747.000,31,05,2017,00,00*55
$GPTXT,01,01,01,ANTENNA OK*35
$GPGGA,040748.000,,,,,0,00,25.5,,,,,,*6B
$GPGLL,,,,,040748.000,V,N*75
$GPGSA,A,1,,,,,,,,,,,,,25.5,25.5,25.5*02
$GPGSV,2,1,08,01,01,189,12,04,,,19,07,24,318,,08,68,239,34*4F
$GPGSV,2,2,08,09,33,280,,11,21,195,21,23,39,238,31,31,07,132,23*7B
$GPRMC,040748.000,V,,,,,,,310517,,,N*43
$GPVTG,,,,,,,,,N*30
$GPZDA,040748.000,31,05,2017,00,00*5A
$GPTXT,01,01,01,ANTENNA OK*35
$GPGGA,040749.000,,,,,0,00,25.5,,,,,,*6A
$GPGLL,,,,,040749.000,V,N*74
$GPGSA,A,1,,,,,,,,,,,,,25.5,25.5,25.5*02
$GPGSV,2,1,08,01,01,189,12,04,,,19,07,24,318,,08,68,239,34*4F
$GPGSV,2,2,08,09,33,280,,11,21,195,21,23,39,238,31,31,07,132,23*7B
$GPRMC,040749.000,V,,,,,,,310517,,,N*42
$GPVTG,,,,,,,,,N*30
$GPZDA,040749.000,31,05,2017,00,00*5B
$GPTXT,01,01,01,ANTENNA OK*35
$GPGGA,040750.000,,,,,0,00,25.5,,,,,,*62
$GPGLL,,,,,040750.000,V,N*7C
$GPGSA,A,1,,,,,,,,,,,,,25.5,25.5,25.5*02
$GPGSV,2,1,08,01,01,189,12,04,,,19,07,24,318,,08,68,239,34*4F
$GPGSV,2,2,08,09,33,280,,11,21,195,21,23,39,238,31,31,07,132,23*7B
$GPRMC,040750.000,V,,,,,,,310517,,,N*4A
$GPVTG,,,,,,,,,N*30
$GPZDA,040750.000,31,05,2017,00,00*53
$GPTXT,01,01,01,ANTENNA OK*35
$GPGGA,040751.000,,,,,0,00,25.5,,,,,,*63
$GPGLL,,,,,040751.000,V,N*7D
$GPGSA,A,1,,,,,,,,,,,,,25.5,25.5,25.5*02
$GPGSV,2,1,08,01,01,189,12,04,,,19,07,24,318,,08,68,239,35*4E
$GPGSV,2,2,08,09,33,280,,11,21,195,21,23,39,238,31,31,07,132,23*7B
$GPRMC,040751.000,V,,,,,,,310517,,,N*4B
$GPVTG,,,,,,,,,N*30
$GPZDA,040751.000,31,05,2017,00,00*52
$GPTXT,01,01,01,ANTENNA OK*35
$GPGGA,040752.000,,,,,0,00,25.5,,,,,,*60
$GPGLL,,,,,040752.000,V,N*7E
$GPGSA,A,1,,,,,,,,,,,,,25.5,25.5,25.5*02
$GPGSV,2,1,08,01,01,189,12,04,,,19,07,24,318,,08,68,239,35*4E
$GPGSV,2,2,08,09,33,280,,11,21,195,21,23,39,238,30,31,07,132,23*7A
$GPRMC,040752.000,V,,,,,,,310517,,,N*48
$GPVTG,,,,,,,,,N*30
$GPZDA,040752.000,31,05,2017,00,00*51
$GPTXT,01,01,01,ANTENNA OK*35
$GPGGA,040753.000,,,,,0,00,25.5,,,,,,*61
$GPGLL,,,,,040753.000,V,N*7F
$GPGSA,A,1,,,,,,,,,,,,,25.5,25.5,25.5*02
$GPGSV,2,1,08,01,01,189,12,04,,,19,07,24,318,,08,68,239,33*48
$GPGSV,2,2,08,09,33,280,,11,21,195,21,23,39,238,30,31,07,132,23*7A
$GPRMC,040753.000,V,,,,,,,310517,,,N*49
$GPVTG,,,,,,,,,N*30
$GPZDA,040753.000,31,05,2017,00,00*50
$GPTXT,01,01,01,ANTENNA OK*35
$GPGGA,040754.000,,,,,0,00,25.5,,,,,,*66
$GPGLL,,,,,040754.000,V,N*78
$GPGSA,A,1,,,,,,,,,,,,,25.5,25.5,25.5*02
$GPGSV,2,1,08,01,01,189,12,04,,,19,07,24,318,,08,68,239,31*4A
$GPGSV,2,2,08,09,33,280,,11,21,195,21,23,39,238,30,31,07,132,23*7A
$GPRMC,040754.000,V,,,,,,,310517,,,N*4E
$GPVTG,,,,,,,,,N*30
$GPZDA,040754.000,31,05,2017,00,00*57
$GPTXT,01,01,01,ANTENNA OK*35
$GPGGA,040755.000,,,,,0,00,25.5,,,,,,*67
$GPGLL,,,,,040755.000,V,N*79
$GPGSA,A,1,,,,,,,,,,,,,25.5,25.5,25.5*02
$GPGSV,2,1,08,01,01,189,12,04,,,19,07,24,318,,08,68,239,34*4F
$GPGSV,2,2,08,09,33,280,,11,21,195,21,23,39,238,30,31,07,132,23*7A
$GPRMC,040755.000,V,,,,,,,310517,,,N*4F
$GPVTG,,,,,,,,,N*30
$GPZDA,040755.000,31,05,2017,00,00*56
$GPTXT,01,01,01,ANTENNA OK*35
$GPGGA,040756.000,,,,,0,00,25.5,,,,,,*64
$GPGLL,,,,,040756.000,V,N*7A
$GPGSA,A,1,,,,,,,,,,,,,25.5,25.5,25.5*02
$GPGSV,2,1,07,04,,,19,07,24,318,,08,68,239,34,09,33,280,*40
$GPGSV,2,2,07,11,21,195,21,23,39,238,30,31,07,132,23*46
$GPRMC,040756.000,V,,,,,,,310517,,,N*4C
$GPVTG,,,,,,,,,N*30
$GPZDA,040756.000,31,05,2017,00,00*55
$GPTXT,01,01,01,ANTENNA OK*35
$GPGGA,040757.000,,,,,0,00,25.5,,,,,,*65
$GPGLL,,,,,040757.000,V,N*7B
$GPGSA,A,1,,,,,,,,,,,,,25.5,25.5,25.5*02
$GPGSV,2,1,07,04,,,16,07,24,318,,08,68,239,34,09,33,280,*4F
$GPGSV,2,2,07,11,21,195,21,23,39,238,30,31,07,132,23*46
$GPRMC,040757.000,V,,,,,,,310517,,,N*4D
$GPVTG,,,,,,,,,N*30
$GPZDA,040757.000,31,05,2017,00,00*54
$GPTXT,01,01,01,ANTENNA OK*35
$GPGGA,040758.000,,,,,0,00,25.5,,,,,,*6A
$GPGLL,,,,,040758.000,V,N*74
$GPGSA,A,1,,,,,,,,,,,,,25.5,25.5,25.5*02
$GPGSV,2,1,07,04,,,16,07,24,318,,08,69,240,33,09,33,279,*41
$GPGSV,2,2,07,11,21,195,20,23,39,238,30,31,07,132,22*46
$GPRMC,040758.000,V,,,,,,,310517,,,N*42
$GPVTG,,,,,,,,,N*30
$GPZDA,040758.000,31,05,2017,00,00*5B
$GPTXT,01,01,01,ANTENNA OK*35
$GPGGA,040759.000,,,,,0,00,25.5,,,,,,*6B
$GPGLL,,,,,040759.000,V,N*75
$GPGSA,A,1,,,,,,,,,,,,,25.5,25.5,25.5*02
$GPGSV,2,1,07,04,,,16,07,24,318,,08,69,240,33,09,33,279,*41
$GPGSV,2,2,07,11,21,195,20,23,39,238,30,31,07,132,22*46
$GPRMC,040759.000,V,,,,,,,310517,,,N*43
$GPVTG,,,,,,,,,N*30
$GPZDA,040759.000,31,05,2017,00,00*5A
$GPTXT,01,01,01,ANTENNA OK*35
$GPGGA,040800.000,,,,,0,00,25.5,,,,,,*68
$GPGLL,,,,,040800.000,V,N*76
$GPGSA,A,1,,,,,,,,,,,,,25.5,25.5,25.5*02
$GPGSV,2,1,07,04,,,16,07,24,318,,08,69,240,33,09,33,279,*41
$GPGSV,2,2,07,11,21,195,20,23,39,238,30,31,07,132,22*46
$GPRMC,040800.000,V,,,,,,,310517,,,N*40
$GPVTG,,,,,,,,,N*30
$GPZDA,040800.000,31,05,2017,00,00*59
$GPTXT,01,01,01,ANTENNA OK*35
$GPGGA,040801.000,,,,,0,00,25.5,,,,,,*69
$GPGLL,,,,,040801.000,V,N*77
$GPGSA,A,1,,,,,,,,,,,,,25.5,25.5,25.5*02
$GPGSV,2,1,07,04,,,16,07,24,318,,08,69,240,32,09,33,279,*40
$GPGSV,2,2,07,11,21,195,20,23,39,238,29,31,07,132,22*4E
$GPRMC,040801.000,V,,,,,,,310517,,,N*41
$GPVTG,,,,,,,,,N*30
$GPZDA,040801.000,31,05,2017,00,00*58
$GPTXT,01,01,01,ANTENNA OK*35
$GPGGA,040802.000,,,,,0,00,25.5,,,,,,*6A
$GPGLL,,,,,040802.000,V,N*74
$GPGSA,A,1,,,,,,,,,,,,,25.5,25.5,25.5*02
$GPGSV,2,1,07,04,,,16,07,24,318,,08,69,240,32,09,33,279,*40
$GPGSV,2,2,07,11,21,195,20,23,38,238,29,31,07,132,22*4F
$GPRMC,040802.000,V,,,,,,,310517,,,N*42
$GPVTG,,,,,,,,,N*30
$GPZDA,040802.000,31,05,2017,00,00*5B
$GPTXT,01,01,01,ANTENNA OK*35
$GPGGA,040803.000,,,,,0,00,25.5,,,,,,*6B
$GPGLL,,,,,040803.000,V,N*75
$GPGSA,A,1,,,,,,,,,,,,,25.5,25.5,25.5*02
$GPGSV,2,1,07,04,,,16,07,24,318,,08,69,240,32,09,33,279,*40
$GPGSV,2,2,07,11,21,195,20,23,38,238,31,31,07,132,22*46
$GPRMC,040803.000,V,,,,,,,310517,,,N*43
$GPVTG,,,,,,,,,N*30
$GPZDA,040803.000,31,05,2017,00,00*5A
$GPTXT,01,01,01,ANTENNA OK*35
$GPGGA,040804.000,,,,,0,00,25.5,,,,,,*6C
$GPGLL,,,,,040804.000,V,N*72
$GPGSA,A,1,,,,,,,,,,,,,25.5,25.5,25.5*02
$GPGSV,2,1,07,04,,,16,07,24,318,,08,69,240,32,09,33,279,*40
$GPGSV,2,2,07,11,21,195,20,23,38,238,31,31,07,132,22*46
$GPRMC,040804.000,V,,,,,,,310517,,,N*44
$GPVTG,,,,,,,,,N*30
$GPZDA,040804.000,31,05,2017,00,00*5D
$GPTXT,01,01,01,ANTENNA OK*35
$GPGGA,040805.000,,,,,0,00,25.5,,,,,,*6D
$GPGLL,,,,,040805.000,V,N*73
$GPGSA,A,1,,,,,,,,,,,,,25.5,25.5,25.5*02
$GPGSV,2,1,07,04,,,16,07,24,318,,08,69,240,32,09,33,279,*40
$GPGSV,2,2,07,11,21,195,20,23,38,238,31,31,07,132,22*46
$GPRMC,040805.000,V,,,,,,,310517,,,N*45
$GPVTG,,,,,,,,,N*30
$GPZDA,040805.000,31,05,2017,00,00*5C
$GPTXT,01,01,01,ANTENNA OK*35
$GPGGA,040806.000,,,,,0,00,25.5,,,,,,*6E
$GPGLL,,,,,040806.000,V,N*70
$GPGSA,A,1,,,,,,,,,,,,,25.5,25.5,25.5*02
$GPGSV,2,1,07,04,,,16,07,24,318,,08,69,240,32,09,33,279,*40
$GPGSV,2,2,07,11,21,195,20,23,38,238,31,31,07,132,22*46
$GPRMC,040806.000,V,,,,,,,310517,,,N*46
$GPVTG,,,,,,,,,N*30
$GPZDA,040806.000,31,05,2017,00,00*5F
$GPTXT,01,01,01,ANTENNA OK*35
$GPGGA,040807.000,,,,,0,00,25.5,,,,,,*6F
$GPGLL,,,,,040807.000,V,N*71
$GPGSA,A,1,,,,,,,,,,,,,25.5,25.5,25.5*02
$GPGSV,2,1,07,04,,,16,07,24,318,,08,69,240,34,09,33,279,*46
$GPGSV,2,2,07,11,21,195,21,23,38,238,30,31,07,132,22*46
$GPRMC,040807.000,V,,,,,,,310517,,,N*47
$GPVTG,,,,,,,,,N*30
$GPZDA,040807.000,31,05,2017,00,00*5E
$GPTXT,01,01,01,ANTENNA OK*35
$GPGGA,040808.000,,,,,0,00,25.5,,,,,,*60
$GPGLL,,,,,040808.000,V,N*7E
$GPGSA,A,1,,,,,,,,,,,,,25.5,25.5,25.5*02
$GPGSV,2,1,07,04,,,16,07,24,318,,08,69,240,34,09,33,279,*46
$GPGSV,2,2,07,11,21,195,21,23,38,238,30,31,07,132,22*46
$GPRMC,040808.000,V,,,,,,,310517,,,N*48
$GPVTG,,,,,,,,,N*30
$GPZDA,040808.000,31,05,2017,00,00*51
$GPTXT,01,01,01,ANTENNA OK*35
$GPGGA,040809.000,,,,,0,00,25.5,,,,,,*61
$GPGLL,,,,,040809.000,V,N*7F
$GPGSA,A,1,,,,,,,,,,,,,25.5,25.5,25.5*02
$GPGSV,2,1,07,04,,,16,07,24,318,,08,69,240,34,09,33,279,*46
$GPGSV,2,2,07,11,21,195,21,23,38,237,32,31,07,132,23*4A
$GPRMC,040809.000,V,,,,,,,310517,,,N*49
$GPVTG,,,,,,,,,N*30
$GPZDA,040809.000,31,05,2017,00,00*50
$GPTXT,01,01,01,ANTENNA OK*35
$GPGGA,040810.000,,,,,0,00,25.5,,,,,,*69
$GPGLL,,,,,040810.000,V,N*77
$GPGSA,A,1,,,,,,,,,,,,,25.5,25.5,25.5*02
$GPGSV,2,1,07,04,,,16,07,24,318,,08,69,240,35,09,33,279,*47
$GPGSV,2,2,07,11,21,195,24,23,38,237,32,31,07,132,23*4F
$GPRMC,040810.000,V,,,,,,,310517,,,N*41
$GPVTG,,,,,,,,,N*30
$GPZDA,040810.000,31,05,2017,00,00*58
$GPTXT,01,01,01,ANTENNA OK*35
$GPGGA,040811.000,,,,,0,00,25.5,,,,,,*68
$GPGLL,,,,,040811.000,V,N*76
$GPGSA,A,1,,,,,,,,,,,,,25.5,25.5,25.5*02
$GPGSV,2,1,07,04,,,16,07,24,318,,08,69,240,35,09,33,279,*47
$GPGSV,2,2,07,11,21,195,24,23,38,237,32,31,07,132,23*4F
$GPRMC,040811.000,V,,,,,,,310517,,,N*40
$GPVTG,,,,,,,,,N*30
$GPZDA,040811.000,31,05,2017,00,00*59
$GPTXT,01,01,01,ANTENNA OK*35
$GPGGA,040812.000,,,,,0,00,25.5,,,,,,*6B
$GPGLL,,,,,040812.000,V,N*75
$GPGSA,A,1,,,,,,,,,,,,,25.5,25.5,25.5*02
$GPGSV,2,1,07,04,,,16,07,24,318,,08,69,240,33,09,33,279,*41
$GPGSV,2,2,07,11,21,195,24,23,38,237,32,31,07,132,23*4F
$GPRMC,040812.000,V,,,,,,,310517,,,N*43
$GPVTG,,,,,,,,,N*30
$GPZDA,040812.000,31,05,2017,00,00*5A
$GPTXT,01,01,01,ANTENNA OK*35
$GPGGA,040813.000,,,,,0,00,25.5,,,,,,*6A
$GPGLL,,,,,040813.000,V,N*74
$GPGSA,A,1,,,,,,,,,,,,,25.5,25.5,25.5*02
$GPGSV,2,1,07,04,,,16,07,24,318,,08,69,240,33,09,33,279,*41
$GPGSV,2,2,07,11,21,195,24,23,38,237,31,31,07,132,23*4C
$GPRMC,040813.000,V,,,,,,,310517,,,N*42
$GPVTG,,,,,,,,,N*30
$GPZDA,040813.000,31,05,2017,00,00*5B
$GPTXT,01,01,01,ANTENNA OK*35
$GPGGA,040814.000,,,,,0,00,25.5,,,,,,*6D
$GPGLL,,,,,040814.000,V,N*73
$GPGSA,A,1,,,,,,,,,,,,,25.5,25.5,25.5*02
$GPGSV,2,1,07,04,,,16,07,24,318,,08,69,240,33,09,33,279,*41
$GPGSV,2,2,07,11,21,195,24,23,38,237,31,31,07,132,23*4C
$GPRMC,040814.000,V,,,,,,,310517,,,N*45
$GPVTG,,,,,,,,,N*30
$GPZDA,040814.000,31,05,2017,00,00*5C
$GPTXT,01,01,01,ANTENNA OK*35
$GPGGA,040815.000,,,,,0,00,25.5,,,,,,*6C
$GPGLL,,,,,040815.000,V,N*72
$GPGSA,A,1,,,,,,,,,,,,,25.5,25.5,25.5*02
$GPGSV,2,1,07,04,,,16,07,24,318,,08,69,240,33,09,33,279,*41
$GPGSV,2,2,07,11,21,195,24,23,38,237,31,31,07,132,23*4C
$GPRMC,040815.000,V,,,,,,,310517,,,N*44
$GPVTG,,,,,,,,,N*30
$GPZDA,040815.000,31,05,2017,00,00*5D
$GPTXT,01,01,01,ANTENNA OK*35
$GPGGA,040816.000,,,,,0,00,25.5,,,,,,*6F
$GPGLL,,,,,040816.000,V,N*71
$GPGSA,A,1,,,,,,,,,,,,,25.5,25.5,25.5*02
$GPGSV,2,1,07,04,,,17,07,24,318,,08,69,240,33,09,33,279,*40
$GPGSV,2,2,07,11,21,195,24,23,38,237,31,31,07,132,23*4C
$GPRMC,040816.000,V,,,,,,,310517,,,N*47
$GPVTG,,,,,,,,,N*30
$GPZDA,040816.000,31,05,2017,00,00*5E
$GPTXT,01,01,01,ANTENNA OK*35
$GPGGA,040817.000,,,,,0,00,25.5,,,,,,*6E
$GPGLL,,,,,040817.000,V,N*70
$GPGSA,A,1,,,,,,,,,,,,,25.5,25.5,25.5*02
$GPGSV,2,1,07,04,,,26,07,24,318,,08,69,240,33,09,33,279,*42
$GPGSV,2,2,07,11,21,195,25,23,38,237,31,31,07,132,23*4D
$GPRMC,040817.000,V,,,,,,,310517,,,N*46
$GPVTG,,,,,,,,,N*30
$GPZDA,040817.000,31,05,2017,00,00*5F
$GPTXT,01,01,01,ANTENNA OK*35
$GPGGA,040818.000,,,,,0,00,25.5,,,,,,*61
$GPGLL,,,,,040818.000,V,N*7F
$GPGSA,A,1,,,,,,,,,,,,,25.5,25.5,25.5*02
$GPGSV,2,1,07,04,,,26,07,24,318,,08,69,240,33,09,33,279,*42
$GPGSV,2,2,07,11,21,195,29,23,38,237,31,31,07,132,23*41
$GPRMC,040818.000,V,,,,,,,310517,,,N*49
$GPVTG,,,,,,,,,N*30
$GPZDA,040818.000,31,05,2017,00,00*50
$GPTXT,01,01,01,ANTENNA OK*35
$GPGGA,040819.000,,,,,0,00,25.5,,,,,,*60
$GPGLL,,,,,040819.000,V,N*7E
$GPGSA,A,1,,,,,,,,,,,,,25.5,25.5,25.5*02
$GPGSV,2,1,07,04,,,26,07,24,318,,08,69,240,32,09,33,279,*43
$GPGSV,2,2,07,11,21,195,29,23,38,237,31,31,07,132,23*41
$GPRMC,040819.000,V,,,,,,,310517,,,N*48
$GPVTG,,,,,,,,,N*30
$GPZDA,040819.000,31,05,2017,00,00*51
$GPTXT,01,01,01,ANTENNA OK*35
$GPGGA,040820.000,,,,,0,00,25.5,,,,,,*6A
$GPGLL,,,,,040820.000,V,N*74
$GPGSA,A,1,,,,,,,,,,,,,25.5,25.5,25.5*02
$GPGSV,2,1,07,04,,,22,07,24,318,,08,69,240,32,09,33,279,*47
$GPGSV,2,2,07,11,21,195,26,23,38,237,29,31,07,132,23*47
$GPRMC,040820.000,V,,,,,,,310517,,,N*42
$GPVTG,,,,,,,,,N*30
$GPZDA,040820.000,31,05,2017,00,00*5B
$GPTXT,01,01,01,ANTENNA OK*35
$GPGGA,040821.000,,,,,0,00,25.5,,,,,,*6B
$GPGLL,,,,,040821.000,V,N*75
$GPGSA,A,1,,,,,,,,,,,,,25.5,25.5,25.5*02
$GPGSV,2,1,07,04,,,22,07,24,318,,08,69,240,28,09,33,279,*4C
$GPGSV,2,2,07,11,21,195,26,23,38,237,29,31,07,132,23*47
$GPRMC,040821.000,V,,,,,,,310517,,,N*43
$GPVTG,,,,,,,,,N*30
$GPZDA,040821.000,31,05,2017,00,00*5A
$GPTXT,01,01,01,ANTENNA OK*35
$GPGGA,040822.000,,,,,0,00,25.5,,,,,,*68
$GPGLL,,,,,040822.000,V,N*76
$GPGSA,A,1,,,,,,,,,,,,,25.5,25.5,25.5*02
$GPGSV,2,1,08,04,,,22,07,24,318,,08,69,240,28,09,33,279,*43
$GPGSV,2,2,08,11,21,195,26,22,,,26,23,38,237,29,31,07,132,23*4C
$GPRMC,040822.000,V,,,,,,,310517,,,N*40
$GPVTG,,,,,,,,,N*30
$GPZDA,040822.000,31,05,2017,00,00*59
$GPTXT,01,01,01,ANTENNA OK*35
$GPGGA,040823.000,,,,,0,00,25.5,,,,,,*69
$GPGLL,,,,,040823.000,V,N*77
$GPGSA,A,1,,,,,,,,,,,,,25.5,25.5,25.5*02
$GPGSV,2,1,08,04,,,22,07,24,318,,08,69,240,30,09,33,279,*4A
$GPGSV,2,2,08,11,21,195,28,22,,,26,23,38,237,29,31,07,132,23*42
$GPRMC,040823.000,V,,,,,,,310517,,,N*41
$GPVTG,,,,,,,,,N*30
$GPZDA,040823.000,31,05,2017,00,00*58
$GPTXT,01,01,01,ANTENNA OK*35
$GPGGA,040824.000,,,,,0,00,25.5,,,,,,*6E
$GPGLL,,,,,040824.000,V,N*70
$GPGSA,A,1,,,,,,,,,,,,,25.5,25.5,25.5*02
$GPGSV,2,1,08,04,,,22,07,24,318,,08,69,240,33,09,33,279,*49
$GPGSV,2,2,08,11,21,195,32,22,,,29,23,38,237,30,31,07,132,23*4E
$GPRMC,040824.000,V,,,,,,,310517,,,N*46
$GPVTG,,,,,,,,,N*30
$GPZDA,040824.000,31,05,2017,00,00*5F
$GPTXT,01,01,01,ANTENNA OK*35
$GPGGA,040825.000,,,,,0,00,25.5,,,,,,*6F
$GPGLL,,,,,040825.000,V,N*71
$GPGSA,A,1,,,,,,,,,,,,,25.5,25.5,25.5*02
$GPGSV,2,1,08,04,,,19,07,24,318,,08,69,240,33,09,33,279,*41
$GPGSV,2,2,08,11,22,195,32,22,,,29,23,38,237,30,31,07,132,23*4D
$GPRMC,040825.000,V,,,,,,,310517,,,N*47
$GPVTG,,,,,,,,,N*30
$GPZDA,040825.000,31,05,2017,00,00*5E
$GPTXT,01,01,01,ANTENNA OK*35
$GPGGA,040826.000,,,,,0,00,25.5,,,,,,*6C
$GPGLL,,,,,040826.000,V,N*72
$GPGSA,A,1,,,,,,,,,,,,,25.5,25.5,25.5*02
$GPGSV,2,1,08,04,,,19,07,24,318,,08,69,240,33,09,33,279,*41
$GPGSV,2,2,08,11,22,195,32,22,,,29,23,38,237,30,31,07,132,23*4D
$GPRMC,040826.000,V,,,,,,,310517,,,N*44
$GPVTG,,,,,,,,,N*30
$GPZDA,040826.000,31,05,2017,00,00*5D
$GPTXT,01,01,01,ANTENNA OK*35
$GPGGA,040827.000,,,,,0,00,25.5,,,,,,*6D
$GPGLL,,,,,040827.000,V,N*73
$GPGSA,A,1,,,,,,,,,,,,,25.5,25.5,25.5*02
$GPGSV,3,1,09,04,,,19,07,24,318,,08,69,240,34,09,33,279,*46
$GPGSV,3,2,09,11,22,195,32,22,,,31,23,38,237,30,27,,,26*71
$GPGSV,3,3,09,31,07,132,23*44
$GPRMC,040827.000,V,,,,,,,310517,,,N*45
$GPVTG,,,,,,,,,N*30
$GPZDA,040827.000,31,05,2017,00,00*5C
$GPTXT,01,01,01,ANTENNA OK*35
$GPGGA,040828.000,,,,,0,00,25.5,,,,,,*62
$GPGLL,,,,,040828.000,V,N*7C
$GPGSA,A,1,,,,,,,,,,,,,25.5,25.5,25.5*02
$GPGSV,3,1,09,04,,,19,07,24,318,,08,69,240,34,09,33,279,*46
$GPGSV,3,2,09,11,22,195,33,22,,,31,23,38,237,30,27,,,26*70
$GPGSV,3,3,09,31,07,132,23*44
$GPRMC,040828.000,V,,,,,,,310517,,,N*4A
$GPVTG,,,,,,,,,N*30
$GPZDA,040828.000,31,05,2017,00,00*53
$GPTXT,01,01,01,ANTENNA OK*35
$GPGGA,040829.000,,,,,0,00,25.5,,,,,,*63
$GPGLL,,,,,040829.000,V,N*7D
$GPGSA,A,1,,,,,,,,,,,,,25.5,25.5,25.5*02
$GPGSV,3,1,09,04,,,19,07,24,318,,08,69,240,34,09,33,279,*46
$GPGSV,3,2,09,11,22,195,31,22,,,31,23,38,237,29,27,,,26*7A
$GPGSV,3,3,09,31,07,132,24*43
$GPRMC,040829.000,V,,,,,,,310517,,,N*4B
$GPVTG,,,,,,,,,N*30
$GPZDA,040829.000,31,05,2017,00,00*52
$GPTXT,01,01,01,ANTENNA OK*35
$GPGGA,040830.000,,,,,0,00,25.5,,,,,,*6B
$GPGLL,,,,,040830.000,V,N*75
$GPGSA,A,1,,,,,,,,,,,,,25.5,25.5,25.5*02
$GPGSV,3,1,09,04,,,19,07,24,318,,08,69,240,33,09,33,279,*41
$GPGSV,3,2,09,11,22,195,31,22,,,31,23,38,237,29,27,,,26*7A
$GPGSV,3,3,09,31,07,132,24*43
$GPRMC,040830.000,V,,,,,,,310517,,,N*43
$GPVTG,,,,,,,,,N*30
$GPZDA,040830.000,31,05,2017,00,00*5A
$GPTXT,01,01,01,ANTENNA OK*35
$GPGGA,040831.000,,,,,0,00,25.5,,,,,,*6A
$GPGLL,,,,,040831.000,V,N*74
$GPGSA,A,1,,,,,,,,,,,,,25.5,25.5,25.5*02
$GPGSV,3,1,09,04,,,19,07,24,318,,08,69,240,33,09,33,279,*41
$GPGSV,3,2,09,11,22,195,31,22,,,31,23,38,237,29,27,,,24*78
$GPGSV,3,3,09,31,07,132,24*43
$GPRMC,040831.000,V,,,,,,,310517,,,N*42
$GPVTG,,,,,,,,,N*30
$GPZDA,040831.000,31,05,2017,00,00*5B
$GPTXT,01,01,01,ANTENNA OK*35
$GPGGA,040832.000,,,,,0,00,25.5,,,,,,*69
$GPGLL,,,,,040832.000,V,N*77
$GPGSA,A,1,,,,,,,,,,,,,25.5,25.5,25.5*02
$GPGSV,3,1,09,04,,,19,07,24,318,,08,69,240,32,09,33,279,*40
$GPGSV,3,2,09,11,22,195,31,22,,,29,23,38,237,29,27,,,24*71
$GPGSV,3,3,09,31,07,132,24*43
$GPRMC,040832.000,V,,,,,,,310517,,,N*41
$GPVTG,,,,,,,,,N*30
$GPZDA,040832.000,31,05,2017,00,00*58
$GPTXT,01,01,01,ANTENNA OK*35
$GPGGA,040833.000,,,,,0,00,25.5,,,,,,*68
$GPGLL,,,,,040833.000,V,N*76
$GPGSA,A,1,,,,,,,,,,,,,25.5,25.5,25.5*02
$GPGSV,3,1,09,04,,,19,07,24,318,,08,69,240,32,09,33,279,*40
$GPGSV,3,2,09,11,22,195,30,22,,,29,23,38,237,29,27,,,24*70
$GPGSV,3,3,09,31,07,132,24*43
$GPRMC,040833.000,V,,,,,,,310517,,,N*40
$GPVTG,,,,,,,,,N*30
$GPZDA,040833.000,31,05,2017,00,00*59
$GPTXT,01,01,01,ANTENNA OK*35
$GPGGA,040834.000,,,,,0,00,25.5,,,,,,*6F
$GPGLL,,,,,040834.000,V,N*71
$GPGSA,A,1,,,,,,,,,,,,,25.5,25.5,25.5*02
$GPGSV,3,1,09,04,,,19,07,24,318,,08,69,240,32,09,33,279,*40
$GPGSV,3,2,09,11,22,195,30,22,,,27,23,38,237,29,27,,,24*7E
$GPGSV,3,3,09,31,07,132,24*43
$GPRMC,040834.000,V,,,,,,,310517,,,N*47
$GPVTG,,,,,,,,,N*30
$GPZDA,040834.000,31,05,2017,00,00*5E
$GPTXT,01,01,01,ANTENNA OK*35
$GPGGA,040835.000,,,,,0,00,25.5,,,,,,*6E
$GPGLL,,,,,040835.000,V,N*70
$GPGSA,A,1,,,,,,,,,,,,,25.5,25.5,25.5*02
$GPGSV,3,1,09,04,,,19,07,24,318,,08,69,240,32,09,33,279,*40
$GPGSV,3,2,09,11,22,195,30,22,,,27,23,38,237,28,27,,,24*7F
$GPGSV,3,3,09,31,07,132,24*43
$GPRMC,040835.000,V,,,,,,,310517,,,N*46
$GPVTG,,,,,,,,,N*30
$GPZDA,040835.000,31,05,2017,00,00*5F
$GPTXT,01,01,01,ANTENNA OK*35
$GPGGA,040836.000,,,,,0,00,25.5,,,,,,*6D
$GPGLL,,,,,040836.000,V,N*73
$GPGSA,A,1,,,,,,,,,,,,,25.5,25.5,25.5*02
$GPGSV,3,1,09,04,,,19,07,24,318,,08,69,240,32,09,33,279,*40
$GPGSV,3,2,09,11,22,195,30,22,,,27,23,38,237,28,27,,,24*7F
$GPGSV,3,3,09,31,07,133,24*42
$GPRMC,040836.000,V,,,,,,,310517,,,N*45
$GPVTG,,,,,,,,,N*30
$GPZDA,040836.000,31,05,2017,00,00*5C
$GPTXT,01,01,01,ANTENNA OK*35
$GPGGA,040837.000,,,,,0,00,25.5,,,,,,*6C
$GPGLL,,,,,040837.000,V,N*72
$GPGSA,A,1,,,,,,,,,,,,,25.5,25.5,25.5*02
$GPGSV,3,1,09,04,,,19,07,24,318,,08,69,240,32,09,33,279,*40
$GPGSV,3,2,09,11,22,195,31,22,,,27,23,38,237,28,27,,,24*7E
$GPGSV,3,3,09,31,07,133,24*42
$GPRMC,040837.000,V,,,,,,,310517,,,N*44
$GPVTG,,,,,,,,,N*30
$GPZDA,040837.000,31,05,2017,00,00*5D
$GPTXT,01,01,01,ANTENNA OK*35
$GPGGA,040838.000,,,,,0,00,25.5,,,,,,*63
$GPGLL,,,,,040838.000,V,N*7D
$GPGSA,A,1,,,,,,,,,,,,,25.5,25.5,25.5*02
$GPGSV,3,1,09,04,,,19,07,24,318,,08,69,240,32,09,33,279,*40
$GPGSV,3,2,09,11,22,195,31,22,,,27,23,38,237,26,27,,,24*70
$GPGSV,3,3,09,31,07,133,24*42
$GPRMC,040838.000,V,,,,,,,310517,,,N*4B
$GPVTG,,,,,,,,,N*30
$GPZDA,040838.000,31,05,2017,00,00*52
$GPTXT,01,01,01,ANTENNA OK*35
$GPGGA,040839.000,,,,,0,00,25.5,,,,,,*62
$GPGLL,,,,,040839.000,V,N*7C
$GPGSA,A,1,,,,,,,,,,,,,25.5,25.5,25.5*02
$GPGSV,3,1,09,04,,,19,07,24,318,,08,69,240,32,09,33,279,*40
$GPGSV,3,2,09,11,22,195,31,22,,,27,23,38,237,26,27,,,22*76
$GPGSV,3,3,09,31,07,133,24*42
$GPRMC,040839.000,V,,,,,,,310517,,,N*4A
$GPVTG,,,,,,,,,N*30
$GPZDA,040839.000,31,05,2017,00,00*53
$GPTXT,01,01,01,ANTENNA OK*35
$GPGGA,040840.000,,,,,0,00,25.5,,,,,,*6C
$GPGLL,,,,,040840.000,V,N*72
$GPGSA,A,1,,,,,,,,,,,,,25.5,25.5,25.5*02
$GPGSV,3,1,09,04,,,19,07,24,318,,08,69,240,32,09,33,279,*40
$GPGSV,3,2,09,11,22,195,29,22,,,27,23,38,237,26,27,,,22*7F
$GPGSV,3,3,09,31,07,133,24*42
$GPRMC,040840.000,V,,,,,,,310517,,,N*44
$GPVTG,,,,,,,,,N*30
$GPZDA,040840.000,31,05,2017,00,00*5D
$GPTXT,01,01,01,ANTENNA OK*35
$GPGGA,040841.000,,,,,0,00,25.5,,,,,,*6D
$GPGLL,,,,,040841.000,V,N*73
$GPGSA,A,1,,,,,,,,,,,,,25.5,25.5,25.5*02
$GPGSV,3,1,09,04,,,18,07,24,318,,08,69,240,32,09,33,279,*41
$GPGSV,3,2,09,11,22,195,29,22,,,27,23,38,237,26,27,,,22*7F
$GPGSV,3,3,09,31,07,133,24*42
$GPRMC,040841.000,V,,,,,,,310517,,,N*45
$GPVTG,,,,,,,,,N*30
$GPZDA,040841.000,31,05,2017,00,00*5C
$GPTXT,01,01,01,ANTENNA OK*35
$GPGGA,040842.000,,,,,0,00,25.5,,,,,,*6E
$GPGLL,,,,,040842.000,V,N*70
$GPGSA,A,1,,,,,,,,,,,,,25.5,25.5,25.5*02
$GPGSV,3,1,09,04,,,18,07,25,318,,08,69,240,32,09,33,279,*40
$GPGSV,3,2,09,11,22,195,29,22,,,27,23,38,237,26,27,,,22*7F
$GPGSV,3,3,09,31,07,133,24*42
$GPRMC,040842.000,V,,,,,,,310517,,,N*46
$GPVTG,,,,,,,,,N*30
$GPZDA,040842.000,31,05,2017,00,00*5F
$GPTXT,01,01,01,ANTENNA OK*35
$GPGGA,040843.000,,,,,0,00,25.5,,,,,,*6F
$GPGLL,,,,,040843.000,V,N*71
$GPGSA,A,1,,,,,,,,,,,,,25.5,25.5,25.5*02
$GPGSV,3,1,09,04,,,18,07,25,318,,08,69,240,32,09,33,279,*40
$GPGSV,3,2,09,11,22,195,29,22,,,27,23,38,237,26,27,,,22*7F
$GPGSV,3,3,09,31,07,133,24*42
$GPRMC,040843.000,V,,,,,,,310517,,,N*47
$GPVTG,,,,,,,,,N*30
$GPZDA,040843.000,31,05,2017,00,00*5E
$GPTXT,01,01,01,ANTENNA OK*35
$GPGGA,040844.000,,,,,0,00,25.5,,,,,,*68
$GPGLL,,,,,040844.000,V,N*76
$GPGSA,A,1,,,,,,,,,,,,,25.5,25.5,25.5*02
$GPGSV,3,1,09,04,,,18,07,25,318,,08,69,240,32,09,33,279,*40
$GPGSV,3,2,09,11,22,195,29,22,,,27,23,38,237,26,27,,,22*7F
$GPGSV,3,3,09,31,07,133,24*42
$GPRMC,040844.000,V,,,,,,,310517,,,N*40
$GPVTG,,,,,,,,,N*30
$GPZDA,040844.000,31,05,2017,00,00*59
$GPTXT,01,01,01,ANTENNA OK*35
$GPGGA,040845.000,,,,,0,00,25.5,,,,,,*69
$GPGLL,,,,,040845.000,V,N*77
$GPGSA,A,1,,,,,,,,,,,,,25.5,25.5,25.5*02
$GPGSV,3,1,09,04,,,11,07,25,318,,08,69,240,32,09,33,279,*49
$GPGSV,3,2,09,11,22,195,29,22,,,27,23,38,237,26,27,,,22*7F
$GPGSV,3,3,09,31,07,133,24*42
$GPRMC,040845.000,V,,,,,,,310517,,,N*41
$GPVTG,,,,,,,,,N*30
$GPZDA,040845.000,31,05,2017,00,00*58
$GPTXT,01,01,01,ANTENNA OK*35
$GPGGA,040846.000,,,,,0,00,25.5,,,,,,*6A
$GPGLL,,,,,040846.000,V,N*74
$GPGSA,A,1,,,,,,,,,,,,,25.5,25.5,25.5*02
$GPGSV,3,1,09,04,,,11,07,25,318,,08,69,240,32,09,33,279,*49
$GPGSV,3,2,09,11,22,195,29,22,,,27,23,38,237,26,27,,,22*7F
$GPGSV,3,3,09,31,07,133,24*42
$GPRMC,040846.000,V,,,,,,,310517,,,N*42
$GPVTG,,,,,,,,,N*30
$GPZDA,040846.000,31,05,2017,00,00*5B
$GPTXT,01,01,01,ANTENNA OK*35
$GPGGA,040847.000,,,,,0,00,25.5,,,,,,*6B
$GPGLL,,,,,040847.000,V,N*75
$GPGSA,A,1,,,,,,,,,,,,,25.5,25.5,25.5*02
$GPGSV,3,1,09,04,,,11,07,25,318,,08,69,240,32,09,33,279,*49
$GPGSV,3,2,09,11,22,195,29,22,,,27,23,38,237,26,27,,,22*7F
$GPGSV,3,3,09,31,07,133,24*42
$GPRMC,040847.000,V,,,,,,,310517,,,N*43
$GPVTG,,,,,,,,,N*30
$GPZDA,040847.000,31,05,2017,00,00*5A
$GPTXT,01,01,01,ANTENNA OK*35
$GPGGA,040848.000,,,,,0,00,25.5,,,,,,*64
$GPGLL,,,,,040848.000,V,N*7A
$GPGSA,A,1,,,,,,,,,,,,,25.5,25.5,25.5*02
$GPGSV,3,1,09,04,,,11,07,25,318,,08,69,240,32,09,33,279,*49
$GPGSV,3,2,09,11,22,195,29,22,,,27,23,38,237,28,27,,,22*71
$GPGSV,3,3,09,31,07,133,24*42
$GPRMC,040848.000,V,,,,,,,310517,,,N*4C
$GPVTG,,,,,,,,,N*30
$GPZDA,040848.000,31,05,2017,00,00*55
$GPTXT,01,01,01,ANTENNA OK*35
$GPGGA,040849.000,,,,,0,00,25.5,,,,,,*65
$GPGLL,,,,,040849.000,V,N*7B
$GPGSA,A,1,,,,,,,,,,,,,25.5,25.5,25.5*02
$GPGSV,3,1,09,04,,,17,07,25,318,,08,69,240,32,09,33,279,*4F
$GPGSV,3,2,09,11,22,195,30,22,,,29,23,38,237,28,27,,,22*77
$GPGSV,3,3,09,31,07,133,24*42
$GPRMC,040849.000,V,,,,,,,310517,,,N*4D
$GPVTG,,,,,,,,,N*30
$GPZDA,040849.000,31,05,2017,00,00*54
$GPTXT,01,01,01,ANTENNA OK*35
$GPGGA,040850.000,,,,,0,00,25.5,,,,,,*6D
$GPGLL,,,,,040850.000,V,N*73
$GPGSA,A,1,,,,,,,,,,,,,25.5,25.5,25.5*02
$GPGSV,3,1,09,04,,,17,07,25,318,,08,69,240,32,09,33,279,*4F
$GPGSV,3,2,09,11,22,195,30,22,,,29,23,38,237,28,27,,,22*77
$GPGSV,3,3,09,31,07,133,24*42
$GPRMC,040850.000,V,,,,,,,310517,,,N*45
$GPVTG,,,,,,,,,N*30
$GPZDA,040850.000,31,05,2017,00,00*5C
$GPTXT,01,01,01,ANTENNA OK*35
$GPGGA,040851.000,,,,,0,00,25.5,,,,,,*6C
$GPGLL,,,,,040851.000,V,N*72
$GPGSA,A,1,,,,,,,,,,,,,25.5,25.5,25.5*02
$GPGSV,3,1,09,04,,,17,07,25,318,,08,69,240,32,09,33,279,*4F
$GPGSV,3,2,09,11,22,195,30,22,,,29,23,38,237,28,27,,,22*77
$GPGSV,3,3,09,31,07,133,24*42
$GPRMC,040851.000,V,,,,,,,310517,,,N*44
$GPVTG,,,,,,,,,N*30
$GPZDA,040851.000,31,05,2017,00,00*5D
$GPTXT,01,01,01,ANTENNA OK*35
$GPGGA,040852.000,,,,,0,00,25.5,,,,,,*6F
$GPGLL,,,,,040852.000,V,N*71
$GPGSA,A,1,,,,,,,,,,,,,25.5,25.5,25.5*02
$GPGSV,2,1,08,04,,,17,07,25,318,,08,69,240,32,09,33,279,*4F
$GPGSV,2,2,08,11,22,195,30,22,,,29,23,38,237,29,31,07,133,24*41
$GPRMC,040852.000,V,,,,,,,310517,,,N*47
$GPVTG,,,,,,,,,N*30
$GPZDA,040852.000,31,05,2017,00,00*5E
$GPTXT,01,01,01,ANTENNA OK*35
$GPGGA,040853.000,,,,,0,00,25.5,,,,,,*6E
$GPGLL,,,,,040853.000,V,N*70
$GPGSA,A,1,,,,,,,,,,,,,25.5,25.5,25.5*02
$GPGSV,2,1,08,04,,,17,07,25,318,,08,69,240,32,09,33,279,*4F
$GPGSV,2,2,08,11,22,195,30,22,,,29,23,38,237,29,31,07,133,24*41
$GPRMC,040853.000,V,,,,,,,310517,,,N*46
$GPVTG,,,,,,,,,N*30
$GPZDA,040853.000,31,05,2017,00,00*5F
$GPTXT,01,01,01,ANTENNA OK*35
$GPGGA,040854.000,,,,,0,00,25.5,,,,,,*69
$GPGLL,,,,,040854.000,V,N*77
$GPGSA,A,1,,,,,,,,,,,,,25.5,25.5,25.5*02
$GPGSV,2,1,08,04,,,17,07,25,318,,08,69,240,32,09,33,279,*4F
$GPGSV,2,2,08,11,22,195,30,22,,,29,23,38,237,29,31,07,133,24*41
$GPRMC,040854.000,V,,,,,,,310517,,,N*41
$GPVTG,,,,,,,,,N*30
$GPZDA,040854.000,31,05,2017,00,00*58
$GPTXT,01,01,01,ANTENNA OK*35
$GPGGA,040855.000,,,,,0,00,25.5,,,,,,*68
$GPGLL,,,,,040855.000,V,N*76
$GPGSA,A,1,,,,,,,,,,,,,25.5,25.5,25.5*02
$GPGSV,2,1,08,04,,,17,07,25,318,,08,69,240,31,09,33,279,*4C
$GPGSV,2,2,08,11,22,195,30,22,,,29,23,38,237,29,31,07,133,24*41
$GPRMC,040855.000,V,,,,,,,310517,,,N*40
$GPVTG,,,,,,,,,N*30
$GPZDA,040855.000,31,05,2017,00,00*59
$GPTXT,01,01,01,ANTENNA OK*35
$GPGGA,040856.000,,,,,0,00,25.5,,,,,,*6B
$GPGLL,,,,,040856.000,V,N*75
$GPGSA,A,1,,,,,,,,,,,,,25.5,25.5,25.5*02
$GPGSV,2,1,08,04,,,17,07,25,318,,08,69,240,31,09,33,279,*4C
$GPGSV,2,2,08,11,22,195,30,22,,,29,23,38,237,28,31,07,133,25*41
$GPRMC,040856.000,V,,,,,,,310517,,,N*43
$GPVTG,,,,,,,,,N*30
$GPZDA,040856.000,31,05,2017,00,00*5A
$GPTXT,01,01,01,ANTENNA OK*35
$GPGGA,040857.000,,,,,0,00,25.5,,,,,,*6A
$GPGLL,,,,,040857.000,V,N*74
$GPGSA,A,1,,,,,,,,,,,,,25.5,25.5,25.5*02
$GPGSV,2,1,08,04,,,17,07,25,318,,08,69,240,32,09,33,279,*4F
$GPGSV,2,2,08,11,22,195,30,22,,,29,23,38,237,28,31,07,133,25*41
$GPRMC,040857.000,V,,,,,,,310517,,,N*42
$GPVTG,,,,,,,,,N*30
$GPZDA,040857.000,31,05,2017,00,00*5B
$GPTXT,01,01,01,ANTENNA OK*35
$GPGGA,040858.000,,,,,0,00,25.5,,,,,,*65
$GPGLL,,,,,040858.000,V,N*7B
$GPGSA,A,1,,,,,,,,,,,,,25.5,25.5,25.5*02
$GPGSV,2,1,08,04,,,17,07,25,318,,08,69,241,32,09,33,279,*4E
$GPGSV,2,2,08,11,22,195,30,22,,,29,23,38,237,28,31,07,133,25*41
$GPRMC,040858.000,V,,,,,,,310517,,,N*4D
$GPVTG,,,,,,,,,N*30
$GPZDA,040858.000,31,05,2017,00,00*54
$GPTXT,01,01,01,ANTENNA OK*35
$GPGGA,040859.000,,,,,0,00,25.5,,,,,,*64
$GPGLL,,,,,040859.000,V,N*7A
$GPGSA,A,1,,,,,,,,,,,,,25.5,25.5,25.5*02
$GPGSV,2,1,08,04,,,17,07,25,318,,08,69,241,32,09,33,279,*4E
$GPGSV,2,2,08,11,22,195,30,22,,,29,23,38,237,26,31,07,133,25*4F
$GPRMC,040859.000,V,,,,,,,310517,,,N*4C
$GPVTG,,,,,,,,,N*30
$GPZDA,040859.000,31,05,2017,00,00*55
$GPTXT,01,01,01,ANTENNA OK*35
$GPGGA,040900.000,,,,,0,00,25.5,,,,,,*69
$GPGLL,,,,,040900.000,V,N*77
$GPGSA,A,1,,,,,,,,,,,,,25.5,25.5,25.5*02
$GPGSV,2,1,08,04,,,17,07,25,318,,08,69,241,32,09,33,279,*4E
$GPGSV,2,2,08,11,22,195,30,22,,,29,23,38,237,26,31,07,133,25*4F
$GPRMC,040900.000,V,,,,,,,310517,,,N*41
$GPVTG,,,,,,,,,N*30
$GPZDA,040900.000,31,05,2017,00,00*58
$GPTXT,01,01,01,ANTENNA OK*35
$GPGGA,040901.000,,,,,0,00,25.5,,,,,,*68
$GPGLL,,,,,040901.000,V,N*76
$GPGSA,A,1,,,,,,,,,,,,,25.5,25.5,25.5*02
$GPGSV,2,1,08,04,,,17,07,25,318,,08,69,241,32,09,33,279,*4E
$GPGSV,2,2,08,11,22,195,30,22,,,29,23,38,237,26,31,07,133,25*4F
$GPRMC,040901.000,V,,,,,,,310517,,,N*40
$GPVTG,,,,,,,,,N*30
$GPZDA,040901.000,31,05,2017,00,00*59
$GPTXT,01,01,01,ANTENNA OK*35
$GPGGA,040902.000,,,,,0,00,25.5,,,,,,*6B
$GPGLL,,,,,040902.000,V,N*75
$GPGSA,A,1,,,,,,,,,,,,,25.5,25.5,25.5*02
$GPGSV,2,1,08,04,,,17,07,25,318,,08,69,241,32,09,33,279,*4E
$GPGSV,2,2,08,11,22,195,30,22,00,188,29,23,38,237,26,31,07,133,25*7E
$GPRMC,040902.000,V,,,,,,,310517,,,N*43
$GPVTG,,,,,,,,,N*30
$GPZDA,040902.000,31,05,2017,00,00*5A
$GPTXT,01,01,01,ANTENNA OK*35
$GPGGA,040903.000,,,,,0,00,25.5,,,,,,*6A
$GPGLL,,,,,040903.000,V,N*74
$GPGSA,A,1,,,,,,,,,,,,,25.5,25.5,25.5*02
$GPGSV,2,1,08,04,,,17,07,25,318,,08,69,241,32,09,33,279,*4E
$GPGSV,2,2,08,11,22,195,30,22,00,188,29,23,38,237,26,31,07,133,24*7F
$GPRMC,040903.000,V,,,,,,,310517,,,N*42
$GPVTG,,,,,,,,,N*30
$GPZDA,040903.000,31,05,2017,00,00*5B
$GPTXT,01,01,01,ANTENNA OK*35
$GPGGA,040904.000,,,,,0,00,25.5,,,,,,*6D
$GPGLL,,,,,040904.000,V,N*73
$GPGSA,A,1,,,,,,,,,,,,,25.5,25.5,25.5*02
$GPGSV,2,1,08,04,,,17,07,25,318,,08,69,241,32,09,33,279,*4E
$GPGSV,2,2,08,11,22,195,30,22,00,188,29,23,38,237,26,31,07,133,24*7F
$GPRMC,040904.000,V,,,,,,,310517,,,N*45
$GPVTG,,,,,,,,,N*30
$GPZDA,040904.000,31,05,2017,00,00*5C
$GPTXT,01,01,01,ANTENNA OK*35
$GPGGA,040905.000,,,,,0,00,25.5,,,,,,*6C
$GPGLL,,,,,040905.000,V,N*72
$GPGSA,A,1,,,,,,,,,,,,,25.5,25.5,25.5*02
$GPGSV,2,1,08,04,,,17,07,25,318,,08,69,241,32,09,33,279,*4E
$GPGSV,2,2,08,11,22,195,30,22,00,188,29,23,38,237,26,31,07,133,24*7F
$GPRMC,040905.000,V,,,,,,,310517,,,N*44
$GPVTG,,,,,,,,,N*30
$GPZDA,040905.000,31,05,2017,00,00*5D
$GPTXT,01,01,01,ANTENNA OK*35
$GPGGA,040906.000,,,,,0,00,25.5,,,,,,*6F
$GPGLL,,,,,040906.000,V,N*71
$GPGSA,A,1,,,,,,,,,,,,,25.5,25.5,25.5*02
$GPGSV,2,1,08,04,,,17,07,25,318,,08,69,241,32,09,33,279,*4E
$GPGSV,2,2,08,11,22,195,29,22,00,188,29,23,38,237,27,31,07,133,24*76
$GPRMC,040906.000,V,,,,,,,310517,,,N*47
$GPVTG,,,,,,,,,N*30
$GPZDA,040906.000,31,05,2017,00,00*5E
$GPTXT,01,01,01,ANTENNA OK*35
$GPGGA,040907.000,,,,,0,00,25.5,,,,,,*6E
$GPGLL,,,,,040907.000,V,N*70
$GPGSA,A,1,,,,,,,,,,,,,25.5,25.5,25.5*02
$GPGSV,2,1,08,04,,,17,07,25,318,,08,69,241,30,09,33,279,*4C
$GPGSV,2,2,08,11,22,195,29,22,00,188,28,23,38,237,27,31,07,133,24*77
$GPRMC,040907.000,V,,,,,,,310517,,,N*46
$GPVTG,,,,,,,,,N*30
$GPZDA,040907.000,31,05,2017,00,00*5F
$GPTXT,01,01,01,ANTENNA OK*35
$GPGGA,040908.000,,,,,0,00,25.5,,,,,,*61
$GPGLL,,,,,040908.000,V,N*7F
$GPGSA,A,1,,,,,,,,,,,,,25.5,25.5,25.5*02
$GPGSV,2,1,08,04,,,17,07,25,318,,08,69,241,30,09,33,279,*4C
$GPGSV,2,2,08,11,22,195,29,22,00,188,28,23,38,237,27,31,07,133,24*77
$GPRMC,040908.000,V,,,,,,,310517,,,N*49
$GPVTG,,,,,,,,,N*30
$GPZDA,040908.000,31,05,2017,00,00*50
$GPTXT,01,01,01,ANTENNA OK*35
$GPGGA,040909.000,,,,,0,00,25.5,,,,,,*60
$GPGLL,,,,,040909.000,V,N*7E
$GPGSA,A,1,,,,,,,,,,,,,25.5,25.5,25.5*02
$GPGSV,2,1,08,04,,,17,07,25,318,,08,69,241,30,09,33,279,*4C
$GPGSV,2,2,08,11,22,195,29,22,00,188,25,23,38,237,27,31,07,133,24*7A
$GPRMC,040909.000,V,,,,,,,310517,,,N*48
$GPVTG,,,,,,,,,N*30
$GPZDA,040909.000,31,05,2017,00,00*51
$GPTXT,01,01,01,ANTENNA OK*35
$GPGGA,040910.000,,,,,0,00,25.5,,,,,,*68
$GPGLL,,,,,040910.000,V,N*76
$GPGSA,A,1,,,,,,,,,,,,,25.5,25.5,25.5*02
$GPGSV,2,1,08,04,,,17,07,25,318,,08,69,241,30,09,33,279,*4C
$GPGSV,2,2,08,11,22,195,29,22,00,188,25,23,38,237,27,31,07,133,24*7A
$GPRMC,040910.000,V,,,,,,,310517,,,N*40
$GPVTG,,,,,,,,,N*30
$GPZDA,040910.000,31,05,2017,00,00*59
$GPTXT,01,01,01,ANTENNA OK*35
$GPGGA,040911.000,,,,,0,00,25.5,,,,,,*69
$GPGLL,,,,,040911.000,V,N*77
$GPGSA,A,1,,,,,,,,,,,,,25.5,25.5,25.5*02
$GPGSV,2,1,08,04,,,17,07,25,318,,08,69,241,30,09,33,279,*4C
$GPGSV,2,2,08,11,22,195,29,22,00,188,27,23,38,237,27,31,07,133,24*78
$GPRMC,040911.000,V,,,,,,,310517,,,N*41
$GPVTG,,,,,,,,,N*30
$GPZDA,040911.000,31,05,2017,00,00*58
$GPTXT,01,01,01,ANTENNA OK*35
$GPGGA,040912.000,,,,,0,00,25.5,,,,,,*6A
$GPGLL,,,,,040912.000,V,N*74
$GPGSA,A,1,,,,,,,,,,,,,25.5,25.5,25.5*02
$GPGSV,2,1,08,04,,,17,07,25,318,,08,69,241,31,09,33,279,*4D
$GPGSV,2,2,08,11,22,195,29,22,00,188,27,23,38,237,27,31,07,133,24*78
$GPRMC,040912.000,V,,,,,,,310517,,,N*42
$GPVTG,,,,,,,,,N*30
$GPZDA,040912.000,31,05,2017,00,00*5B
$GPTXT,01,01,01,ANTENNA OK*35
$GPGGA,040913.000,,,,,0,00,25.5,,,,,,*6B
$GPGLL,,,,,040913.000,V,N*75
$GPGSA,A,1,,,,,,,,,,,,,25.5,25.5,25.5*02
$GPGSV,2,1,08,04,,,16,07,25,318,,08,69,241,31,09,33,279,*4C
$GPGSV,2,2,08,11,22,195,29,22,00,188,27,23,38,237,27,31,07,133,23*7F
$GPRMC,040913.000,V,,,,,,,310517,,,N*43
$GPVTG,,,,,,,,,N*30
$GPZDA,040913.000,31,05,2017,00,00*5A
$GPTXT,01,01,01,ANTENNA OK*35
$GPGGA,040914.000,,,,,0,00,25.5,,,,,,*6C
$GPGLL,,,,,040914.000,V,N*72
$GPGSA,A,1,,,,,,,,,,,,,25.5,25.5,25.5*02
$GPGSV,2,1,08,04,,,16,07,25,318,,08,69,241,32,09,33,279,*4F
$GPGSV,2,2,08,11,22,195,30,22,00,188,28,23,38,237,29,31,07,133,23*76
$GPRMC,040914.000,V,,,,,,,310517,,,N*44
$GPVTG,,,,,,,,,N*30
$GPZDA,040914.000,31,05,2017,00,00*5D
$GPTXT,01,01,01,ANTENNA OK*35
$GPGGA,040915.000,,,,,0,00,25.5,,,,,,*6D
$GPGLL,,,,,040915.000,V,N*73
$GPGSA,A,1,,,,,,,,,,,,,25.5,25.5,25.5*02
$GPGSV,2,1,08,04,,,16,07,25,318,,08,69,241,32,09,33,279,*4F
$GPGSV,2,2,08,11,22,195,30,22,00,188,28,23,38,237,29,31,07,133,23*76
$GPRMC,040915.000,V,,,,,,,310517,,,N*45
$GPVTG,,,,,,,,,N*30
$GPZDA,040915.000,31,05,2017,00,00*5C
$GPTXT,01,01,01,ANTENNA OK*35
$GPGGA,040916.000,,,,,0,00,25.5,,,,,,*6E
$GPGLL,,,,,040916.000,V,N*70
$GPGSA,A,1,,,,,,,,,,,,,25.5,25.5,25.5*02
$GPGSV,2,1,08,04,,,16,07,25,318,,08,69,241,32,09,33,279,*4F
$GPGSV,2,2,08,11,22,195,30,22,00,188,28,23,38,237,29,31,07,133,23*76
$GPRMC,040916.000,V,,,,,,,310517,,,N*46
$GPVTG,,,,,,,,,N*30
$GPZDA,040916.000,31,05,2017,00,00*5F
$GPTXT,01,01,01,ANTENNA OK*35
$GPGGA,040917.000,,,,,0,00,25.5,,,,,,*6F
$GPGLL,,,,,040917.000,V,N*71
$GPGSA,A,1,,,,,,,,,,,,,25.5,25.5,25.5*02
$GPGSV,2,1,08,04,,,16,07,25,318,,08,69,241,32,09,33,279,*4F
$GPGSV,2,2,08,11,22,195,30,22,00,188,28,23,38,237,29,31,07,133,23*76
$GPRMC,040917.000,V,,,,,,,310517,,,N*47
$GPVTG,,,,,,,,,N*30
$GPZDA,040917.000,31,05,2017,00,00*5E
$GPTXT,01,01,01,ANTENNA OK*35
$GPGGA,040918.000,,,,,0,00,25.5,,,,,,*60
$GPGLL,,,,,040918.000,V,N*7E
$GPGSA,A,1,,,,,,,,,,,,,25.5,25.5,25.5*02
$GPGSV,2,1,08,04,,,16,07,25,318,,08,69,241,32,09,33,279,*4F
$GPGSV,2,2,08,11,22,195,30,22,00,188,28,23,38,237,28,31,07,133,23*77
$GPRMC,040918.000,V,,,,,,,310517,,,N*48
$GPVTG,,,,,,,,,N*30
$GPZDA,040918.000,31,05,2017,00,00*51
$GPTXT,01,01,01,ANTENNA OK*35
$GPGGA,040919.000,,,,,0,00,25.5,,,,,,*61
$GPGLL,,,,,040919.000,V,N*7F
$GPGSA,A,1,,,,,,,,,,,,,25.5,25.5,25.5*02
$GPGSV,2,1,08,04,,,16,07,25,318,,08,69,241,32,09,33,279,*4F
$GPGSV,2,2,08,11,22,195,29,22,00,188,28,23,38,237,28,31,07,133,23*7F
$GPRMC,040919.000,V,,,,,,,310517,,,N*49
$GPVTG,,,,,,,,,N*30
$GPZDA,040919.000,31,05,2017,00,00*50
$GPTXT,01,01,01,ANTENNA OK*35
$GPGGA,040920.000,,,,,0,00,25.5,,,,,,*6B
$GPGLL,,,,,040920.000,V,N*75
$GPGSA,A,1,,,,,,,,,,,,,25.5,25.5,25.5*02
$GPGSV,2,1,08,04,,,16,07,25,318,,08,69,241,33,09,33,279,*4E
$GPGSV,2,2,08,11,22,195,31,22,00,188,28,23,38,237,28,31,07,133,23*76
$GPRMC,040920.000,V,,,,,,,310517,,,N*43
$GPVTG,,,,,,,,,N*30
$GPZDA,040920.000,31,05,2017,00,00*5A
$GPTXT,01,01,01,ANTENNA OK*35
$GPGGA,040921.000,,,,,0,00,25.5,,,,,,*6A
$GPGLL,,,,,040921.000,V,N*74
$GPGSA,A,1,,,,,,,,,,,,,25.5,25.5,25.5*02
$GPGSV,2,1,08,04,,,16,07,25,318,,08,69,241,33,09,33,279,*4E
$GPGSV,2,2,08,11,22,195,31,22,00,188,28,23,38,237,28,31,07,133,23*76
$GPRMC,040921.000,V,,,,,,,310517,,,N*42
$GPVTG,,,,,,,,,N*30
$GPZDA,040921.000,31,05,2017,00,00*5B
$GPTXT,01,01,01,ANTENNA OK*35
$GPGGA,040922.000,,,,,0,00,25.5,,,,,,*69
$GPGLL,,,,,040922.000,V,N*77
$GPGSA,A,1,,,,,,,,,,,,,25.5,25.5,25.5*02
$GPGSV,2,1,08,04,,,16,07,25,318,,08,69,241,33,09,33,279,*4E
$GPGSV,2,2,08,11,22,195,31,22,00,188,28,23,38,237,28,31,07,133,23*76
$GPRMC,040922.000,V,,,,,,,310517,,,N*41
$GPVTG,,,,,,,,,N*30
$GPZDA,040922.000,31,05,2017,00,00*58
$GPTXT,01,01,01,ANTENNA OK*35
$GPGGA,040923.000,,,,,0,00,25.5,,,,,,*68
$GPGLL,,,,,040923.000,V,N*76
$GPGSA,A,1,,,,,,,,,,,,,25.5,25.5,25.5*02
$GPGSV,2,1,08,04,,,16,07,25,318,,08,69,241,33,09,33,279,*4E
$GPGSV,2,2,08,11,22,195,29,22,00,188,28,23,38,237,28,31,07,133,23*7F
$GPRMC,040923.000,V,,,,,,,310517,,,N*40
$GPVTG,,,,,,,,,N*30
$GPZDA,040923.000,31,05,2017,00,00*59
$GPTXT,01,01,01,ANTENNA OK*35
$GPGGA,040924.000,,,,,0,00,25.5,,,,,,*6F
$GPGLL,,,,,040924.000,V,N*71
$GPGSA,A,1,,,,,,,,,,,,,25.5,25.5,25.5*02
$GPGSV,2,1,08,04,,,16,07,25,318,,08,69,241,33,09,33,279,*4E
$GPGSV,2,2,08,11,22,195,29,22,00,188,28,23,38,237,29,31,07,133,23*7E
$GPRMC,040924.000,V,,,,,,,310517,,,N*47
$GPVTG,,,,,,,,,N*30
$GPZDA,040924.000,31,05,2017,00,00*5E
$GPTXT,01,01,01,ANTENNA OK*35
$GPGGA,040925.000,,,,,0,00,25.5,,,,,,*6E
$GPGLL,,,,,040925.000,V,N*70
$GPGSA,A,1,,,,,,,,,,,,,25.5,25.5,25.5*02
$GPGSV,2,1,08,04,,,18,07,25,318,,08,69,241,33,09,33,279,*40
$GPGSV,2,2,08,11,22,195,29,22,00,188,29,23,38,237,29,31,07,133,23*7F
$GPRMC,040925.000,V,,,,,,,310517,,,N*46
$GPVTG,,,,,,,,,N*30
$GPZDA,040925.000,31,05,2017,00,00*5F
$GPTXT,01,01,01,ANTENNA OK*35
$GPGGA,040926.000,,,,,0,00,25.5,,,,,,*6D
$GPGLL,,,,,040926.000,V,N*73
$GPGSA,A,1,,,,,,,,,,,,,25.5,25.5,25.5*02
$GPGSV,2,1,08,04,,,18,07,25,318,,08,69,241,33,09,33,279,*40
$GPGSV,2,2,08,11,22,195,29,22,00,188,29,23,38,237,29,31,07,133,23*7F
$GPRMC,040926.000,V,,,,,,,310517,,,N*45
$GPVTG,,,,,,,,,N*30
$GPZDA,040926.000,31,05,2017,00,00*5C
$GPTXT,01,01,01,ANTENNA OK*35
$GPGGA,040927.000,,,,,0,00,25.5,,,,,,*6C
$GPGLL,,,,,040927.000,V,N*72
$GPGSA,A,1,,,,,,,,,,,,,25.5,25.5,25.5*02
$GPGSV,2,1,08,04,,,22,07,25,318,,08,69,241,33,09,33,279,*49
$GPGSV,2,2,08,11,22,195,29,22,00,188,29,23,38,237,27,31,07,133,23*71
$GPRMC,040927.000,V,,,,,,,310517,,,N*44
$GPVTG,,,,,,,,,N*30
$GPZDA,040927.000,31,05,2017,00,00*5D
$GPTXT,01,01,01,ANTENNA OK*35
$GPGGA,040928.000,,,,,0,00,25.5,,,,,,*63
$GPGLL,,,,,040928.000,V,N*7D
$GPGSA,A,1,,,,,,,,,,,,,25.5,25.5,25.5*02
$GPGSV,2,1,08,04,,,22,07,25,318,,08,69,241,33,09,33,279,*49
$GPGSV,2,2,08,11,22,195,28,22,00,188,29,23,38,237,27,31,07,133,23*70
$GPRMC,040928.000,V,,,,,,,310517,,,N*4B
$GPVTG,,,,,,,,,N*30
$GPZDA,040928.000,31,05,2017,00,00*52
$GPTXT,01,01,01,ANTENNA OK*35
$GPGGA,040929.000,,,,,0,00,25.5,,,,,,*62
$GPGLL,,,,,040929.000,V,N*7C
$GPGSA,A,1,,,,,,,,,,,,,25.5,25.5,25.5*02
$GPGSV,2,1,08,04,,,22,07,25,318,,08,69,241,33,09,33,279,*49
$GPGSV,2,2,08,11,22,195,28,22,00,188,29,23,38,237,27,31,07,133,23*70
$GPRMC,040929.000,V,,,,,,,310517,,,N*4A
$GPVTG,,,,,,,,,N*30
$GPZDA,040929.000,31,05,2017,00,00*53
$GPTXT,01,01,01,ANTENNA OK*35
$GPGGA,040930.000,,,,,0,00,25.5,,,,,,*6A
$GPGLL,,,,,040930.000,V,N*74
$GPGSA,A,1,,,,,,,,,,,,,25.5,25.5,25.5*02
$GPGSV,2,1,08,04,,,22,07,25,318,,08,69,241,33,09,33,279,*49
$GPGSV,2,2,08,11,22,195,28,22,00,188,29,23,38,237,27,31,07,133,23*70
$GPRMC,040930.000,V,,,,,,,310517,,,N*42
$GPVTG,,,,,,,,,N*30
$GPZDA,040930.000,31,05,2017,00,00*5B
$GPTXT,01,01,01,ANTENNA OK*35
$GPGGA,040931.000,,,,,0,00,25.5,,,,,,*6B
$GPGLL,,,,,040931.000,V,N*75
$GPGSA,A,1,,,,,,,,,,,,,25.5,25.5,25.5*02
$GPGSV,2,1,08,04,,,22,07,25,318,,08,69,241,33,09,33,279,*49
$GPGSV,2,2,08,11,22,195,28,22,00,188,29,23,38,237,27,31,07,133,23*70
$GPRMC,040931.000,V,,,,,,,310517,,,N*43
$GPVTG,,,,,,,,,N*30
$GPZDA,040931.000,31,05,2017,00,00*5A
$GPTXT,01,01,01,ANTENNA OK*35
$GPGGA,040932.000,,,,,0,00,25.5,,,,,,*68
$GPGLL,,,,,040932.000,V,N*76
$GPGSA,A,1,,,,,,,,,,,,,25.5,25.5,25.5*02
$GPGSV,2,1,08,04,,,22,07,25,318,,08,69,241,33,09,33,279,*49
$GPGSV,2,2,08,11,22,195,28,22,00,188,29,23,38,237,27,31,07,133,23*70
$GPRMC,040932.000,V,,,,,,,310517,,,N*40
$GPVTG,,,,,,,,,N*30
$GPZDA,040932.000,31,05,2017,00,00*59
$GPTXT,01,01,01,ANTENNA OK*35
$GPGGA,040933.000,,,,,0,00,25.5,,,,,,*69
$GPGLL,,,,,040933.000,V,N*77
$GPGSA,A,1,,,,,,,,,,,,,25.5,25.5,25.5*02
$GPGSV,2,1,08,04,,,22,07,25,318,,08,69,241,33,09,33,279,*49
$GPGSV,2,2,08,11,22,195,28,22,00,188,29,23,38,237,27,31,07,133,23*70
$GPRMC,040933.000,V,,,,,,,310517,,,N*41
$GPVTG,,,,,,,,,N*30
$GPZDA,040933.000,31,05,2017,00,00*58
$GPTXT,01,01,01,ANTENNA OK*35
$GPGGA,040934.000,,,,,0,00,25.5,,,,,,*6E
$GPGLL,,,,,040934.000,V,N*70
$GPGSA,A,1,,,,,,,,,,,,,25.5,25.5,25.5*02
$GPGSV,2,1,08,04,,,22,07,25,318,,08,69,241,33,09,33,279,*49
$GPGSV,2,2,08,11,22,195,27,22,00,188,29,23,38,237,27,31,07,133,23*7F
$GPRMC,040934.000,V,,,,,,,310517,,,N*46
$GPVTG,,,,,,,,,N*30
$GPZDA,040934.000,31,05,2017,00,00*5F
$GPTXT,01,01,01,ANTENNA OK*35
$GPGGA,040935.000,,,,,0,00,25.5,,,,,,*6F
$GPGLL,,,,,040935.000,V,N*71
$GPGSA,A,1,,,,,,,,,,,,,25.5,25.5,25.5*02
$GPGSV,2,1,08,04,,,22,07,25,318,,08,69,241,33,09,33,279,*49
$GPGSV,2,2,08,11,22,195,27,22,00,188,29,23,38,237,27,31,07,133,22*7E
$GPRMC,040935.000,V,,,,,,,310517,,,N*47
$GPVTG,,,,,,,,,N*30
$GPZDA,040935.000,31,05,2017,00,00*5E
$GPTXT,01,01,01,ANTENNA OK*35
$GPGGA,040936.000,,,,,0,00,25.5,,,,,,*6C
$GPGLL,,,,,040936.000,V,N*72
$GPGSA,A,1,,,,,,,,,,,,,25.5,25.5,25.5*02
$GPGSV,2,1,08,04,,,22,07,25,318,,08,69,241,33,09,33,279,*49
$GPGSV,2,2,08,11,22,195,27,22,00,188,29,23,38,237,27,31,07,133,22*7E
$GPRMC,040936.000,V,,,,,,,310517,,,N*44
$GPVTG,,,,,,,,,N*30
$GPZDA,040936.000,31,05,2017,00,00*5D
$GPTXT,01,01,01,ANTENNA OK*35
$GPGGA,040937.000,,,,,0,00,25.5,,,,,,*6D
$GPGLL,,,,,040937.000,V,N*73
$GPGSA,A,1,,,,,,,,,,,,,25.5,25.5,25.5*02
$GPGSV,2,1,08,04,,,22,07,25,318,,08,69,241,33,09,33,279,*49
$GPGSV,2,2,08,11,22,195,28,22,00,188,29,23,38,237,27,31,07,133,22*71
$GPRMC,040937.000,V,,,,,,,310517,,,N*45
$GPVTG,,,,,,,,,N*30
$GPZDA,040937.000,31,05,2017,00,00*5C
$GPTXT,01,01,01,ANTENNA OK*35
$GPGGA,040938.000,,,,,0,00,25.5,,,,,,*62
$GPGLL,,,,,040938.000,V,N*7C
$GPGSA,A,1,,,,,,,,,,,,,25.5,25.5,25.5*02
$GPGSV,2,1,08,04,,,22,07,25,318,,08,69,241,33,09,33,279,*49
$GPGSV,2,2,08,11,22,195,28,22,00,188,30,23,38,237,28,31,07,133,22*76
$GPRMC,040938.000,V,,,,,,,310517,,,N*4A
$GPVTG,,,,,,,,,N*30
$GPZDA,040938.000,31,05,2017,00,00*53
$GPTXT,01,01,01,ANTENNA OK*35
$GPGGA,040939.000,,,,,0,00,25.5,,,,,,*63
$GPGLL,,,,,040939.000,V,N*7D
$GPGSA,A,1,,,,,,,,,,,,,25.5,25.5,25.5*02
$GPGSV,2,1,08,04,,,22,07,25,318,,08,69,241,33,09,33,279,*49
$GPGSV,2,2,08,11,22,195,28,22,00,188,30,23,38,237,28,31,07,133,22*76
$GPRMC,040939.000,V,,,,,,,310517,,,N*4B
$GPVTG,,,,,,,,,N*30
$GPZDA,040939.000,31,05,2017,00,00*52
$GPTXT,01,01,01,ANTENNA OK*35
$GPGGA,040940.000,,,,,0,00,25.5,,,,,,*6D
$GPGLL,,,,,040940.000,V,N*73
$GPGSA,A,1,,,,,,,,,,,,,25.5,25.5,25.5*02
$GPGSV,2,1,08,04,,,22,07,25,318,,08,69,241,33,09,33,279,*49
$GPGSV,2,2,08,11,22,195,30,22,00,188,30,23,38,237,28,31,07,133,22*7F
$GPRMC,040940.000,V,,,,,,,310517,,,N*45
$GPVTG,,,,,,,,,N*30
$GPZDA,040940.000,31,05,2017,00,00*5C
$GPTXT,01,01,01,ANTENNA OK*35
$GPGGA,040941.000,,,,,0,00,25.5,,,,,,*6C
$GPGLL,,,,,040941.000,V,N*72
$GPGSA,A,1,,,,,,,,,,,,,25.5,25.5,25.5*02
$GPGSV,2,1,08,04,,,22,07,25,318,,08,69,241,33,09,33,279,*49
$GPGSV,2,2,08,11,22,195,30,22,00,188,30,23,38,237,28,31,07,133,22*7F
$GPRMC,040941.000,V,,,,,,,310517,,,N*44
$GPVTG,,,,,,,,,N*30
$GPZDA,040941.000,31,05,2017,00,00*5D
$GPTXT,01,01,01,ANTENNA OK*35
$GPGGA,040942.000,,,,,0,00,25.5,,,,,,*6F
$GPGLL,,,,,040942.000,V,N*71
$GPGSA,A,1,,,,,,,,,,,,,25.5,25.5,25.5*02
$GPGSV,2,1,08,04,,,22,07,25,318,,08,69,241,34,09,33,279,*4E
$GPGSV,2,2,08,11,22,195,30,22,00,188,30,23,38,237,28,31,07,133,22*7F
$GPRMC,040942.000,V,,,,,,,310517,,,N*47
$GPVTG,,,,,,,,,N*30
$GPZDA,040942.000,31,05,2017,00,00*5E
$GPTXT,01,01,01,ANTENNA OK*35
$GPGGA,040943.000,,,,,0,00,25.5,,,,,,*6E
$GPGLL,,,,,040943.000,V,N*70
$GPGSA,A,1,,,,,,,,,,,,,25.5,25.5,25.5*02
$GPGSV,2,1,08,04,,,22,07,25,318,,08,69,241,34,09,33,279,*4E
$GPGSV,2,2,08,11,22,195,30,22,00,188,31,23,38,237,29,31,07,133,22*7F
$GPRMC,040943.000,V,,,,,,,310517,,,N*46
$GPVTG,,,,,,,,,N*30
$GPZDA,040943.000,31,05,2017,00,00*5F
$GPTXT,01,01,01,ANTENNA OK*35
$GPGGA,040944.000,,,,,0,00,25.5,,,,,,*69
$GPGLL,,,,,040944.000,V,N*77
$GPGSA,A,1,,,,,,,,,,,,,25.5,25.5,25.5*02
$GPGSV,2,1,08,04,,,22,07,25,318,,08,69,241,34,09,33,279,*4E
$GPGSV,2,2,08,11,22,195,30,22,00,188,31,23,38,237,29,31,07,133,22*7F
$GPRMC,040944.000,V,,,,,,,310517,,,N*41
$GPVTG,,,,,,,,,N*30
$GPZDA,040944.000,31,05,2017,00,00*58
$GPTXT,01,01,01,ANTENNA OK*35
$GPGGA,040945.000,,,,,0,00,25.5,,,,,,*68
$GPGLL,,,,,040945.000,V,N*76
$GPGSA,A,1,,,,,,,,,,,,,25.5,25.5,25.5*02
$GPGSV,2,1,08,04,,,22,07,25,318,,08,69,241,34,09,33,278,*4F
$GPGSV,2,2,08,11,22,195,30,22,00,188,31,23,38,237,29,31,07,133,22*7F
$GPRMC,040945.000,V,,,,,,,310517,,,N*40
$GPVTG,,,,,,,,,N*30
$GPZDA,040945.000,31,05,2017,00,00*59
$GPTXT,01,01,01,ANTENNA OK*35
$GPGGA,040946.000,,,,,0,00,25.5,,,,,,*6B
$GPGLL,,,,,040946.000,V,N*75
$GPGSA,A,1,,,,,,,,,,,,,25.5,25.5,25.5*02
$GPGSV,2,1,08,04,,,22,07,25,318,,08,69,241,33,09,33,278,*48
$GPGSV,2,2,08,11,22,195,30,22,00,188,30,23,38,237,29,31,07,133,22*7E
$GPRMC,040946.000,V,,,,,,,310517,,,N*43
$GPVTG,,,,,,,,,N*30
$GPZDA,040946.000,31,05,2017,00,00*5A
$GPTXT,01,01,01,ANTENNA OK*35
$GPGGA,040947.000,,,,,0,00,25.5,,,,,,*6A
$GPGLL,,,,,040947.000,V,N*74
$GPGSA,A,1,,,,,,,,,,,,,25.5,25.5,25.5*02
$GPGSV,2,1,08,04,,,22,07,25,318,,08,69,241,33,09,33,278,*48
$GPGSV,2,2,08,11,22,195,28,22,00,188,30,23,38,237,29,31,07,133,22*77
$GPRMC,040947.000,V,,,,,,,310517,,,N*42
$GPVTG,,,,,,,,,N*30
$GPZDA,040947.000,31,05,2017,00,00*5B
$GPTXT,01,01,01,ANTENNA OK*35
$GPGGA,040948.000,,,,,0,00,25.5,,,,,,*65
$GPGLL,,,,,040948.000,V,N*7B
$GPGSA,A,1,,,,,,,,,,,,,25.5,25.5,25.5*02
$GPGSV,2,1,08,04,,,20,07,25,318,,08,69,241,35,09,33,278,*4C
$GPGSV,2,2,08,11,22,195,28,22,00,188,30,23,38,237,29,31,07,133,22*77
$GPRMC,040948.000,V,,,,,,,310517,,,N*4D
$GPVTG,,,,,,,,,N*30
$GPZDA,040948.000,31,05,2017,00,00*54
$GPTXT,01,01,01,ANTENNA OK*35
$GPGGA,040949.000,,,,,0,00,25.5,,,,,,*64
$GPGLL,,,,,040949.000,V,N*7A
$GPGSA,A,1,,,,,,,,,,,,,25.5,25.5,25.5*02
$GPGSV,2,1,08,04,,,20,07,25,318,,08,69,241,35,09,33,278,*4C
$GPGSV,2,2,08,11,22,195,28,22,00,188,28,23,38,237,29,31,07,133,22*7E
$GPRMC,040949.000,V,,,,,,,310517,,,N*4C
$GPVTG,,,,,,,,,N*30
$GPZDA,040949.000,31,05,2017,00,00*55
$GPTXT,01,01,01,ANTENNA OK*35
$GPGGA,040950.000,,,,,0,00,25.5,,,,,,*6C
$GPGLL,,,,,040950.000,V,N*72
$GPGSA,A,1,,,,,,,,,,,,,25.5,25.5,25.5*02
$GPGSV,2,1,08,04,,,20,07,25,318,,08,69,241,35,09,33,278,*4C
$GPGSV,2,2,08,11,22,195,28,22,00,188,28,23,38,237,29,31,07,133,22*7E
$GPRMC,040950.000,V,,,,,,,310517,,,N*44
$GPVTG,,,,,,,,,N*30
$GPZDA,040950.000,31,05,2017,00,00*5D
$GPTXT,01,01,01,ANTENNA OK*35
$GPGGA,040951.000,,,,,0,00,25.5,,,,,,*6D
$GPGLL,,,,,040951.000,V,N*73
$GPGSA,A,1,,,,,,,,,,,,,25.5,25.5,25.5*02
$GPGSV,2,1,08,04,,,20,07,25,318,,08,69,241,36,09,33,278,*4F
$GPGSV,2,2,08,11,22,195,28,22,00,188,28,23,38,237,29,31,07,133,22*7E
$GPRMC,040951.000,V,,,,,,,310517,,,N*45
$GPVTG,,,,,,,,,N*30
$GPZDA,040951.000,31,05,2017,00,00*5C
$GPTXT,01,01,01,ANTENNA OK*35
$GPGGA,040952.000,,,,,0,00,25.5,,,,,,*6E
$GPGLL,,,,,040952.000,V,N*70
$GPGSA,A,1,,,,,,,,,,,,,25.5,25.5,25.5*02
$GPGSV,2,1,08,04,,,20,07,25,318,,08,69,241,36,09,33,278,*4F
$GPGSV,2,2,08,11,22,195,28,22,00,188,28,23,38,237,30,31,07,133,18*7F
$GPRMC,040952.000,V,,,,,,,310517,,,N*46
$GPVTG,,,,,,,,,N*30
$GPZDA,040952.000,31,05,2017,00,00*5F
$GPTXT,01,01,01,ANTENNA OK*35
$GPGGA,040953.000,,,,,0,00,25.5,,,,,,*6F
$GPGLL,,,,,040953.000,V,N*71
$GPGSA,A,1,,,,,,,,,,,,,25.5,25.5,25.5*02
$GPGSV,2,1,08,04,,,10,07,25,318,,08,69,241,36,09,33,278,*4C
$GPGSV,2,2,08,11,22,195,28,22,00,188,29,23,38,237,30,31,07,133,18*7E
$GPRMC,040953.000,V,,,,,,,310517,,,N*47
$GPVTG,,,,,,,,,N*30
$GPZDA,040953.000,31,05,2017,00,00*5E
$GPTXT,01,01,01,ANTENNA OK*35
$GPGGA,040954.000,,,,,0,00,25.5,,,,,,*68
$GPGLL,,,,,040954.000,V,N*76
$GPGSA,A,1,,,,,,,,,,,,,25.5,25.5,25.5*02
$GPGSV,2,1,08,04,,,10,07,25,318,,08,69,241,36,09,33,278,*4C
$GPGSV,2,2,08,11,22,195,28,22,00,188,29,23,38,237,30,31,07,133,18*7E
$GPRMC,040954.000,V,,,,,,,310517,,,N*40
$GPVTG,,,,,,,,,N*30
$GPZDA,040954.000,31,05,2017,00,00*59
$GPTXT,01,01,01,ANTENNA OK*35
$GPGGA,040955.000,,,,,0,00,25.5,,,,,,*69
$GPGLL,,,,,040955.000,V,N*77
$GPGSA,A,1,,,,,,,,,,,,,25.5,25.5,25.5*02
$GPGSV,2,1,08,04,,,10,07,25,318,,08,69,241,36,09,33,278,*4C
$GPGSV,2,2,08,11,22,195,28,22,00,188,29,23,38,237,31,31,07,133,18*7F
$GPRMC,040955.000,V,,,,,,,310517,,,N*41
$GPVTG,,,,,,,,,N*30
$GPZDA,040955.000,31,05,2017,00,00*58
$GPTXT,01,01,01,ANTENNA OK*35
$GPGGA,040956.000,,,,,0,00,25.5,,,,,,*6A
$GPGLL,,,,,040956.000,V,N*74
$GPGSA,A,1,,,,,,,,,,,,,25.5,25.5,25.5*02
$GPGSV,2,1,08,04,,,10,07,25,318,,08,69,241,36,09,33,278,*4C
$GPGSV,2,2,08,11,22,195,28,22,00,188,29,23,38,237,31,31,07,133,18*7F
$GPRMC,040956.000,V,,,,,,,310517,,,N*42
$GPVTG,,,,,,,,,N*30
$GPZDA,040956.000,31,05,2017,00,00*5B
$GPTXT,01,01,01,ANTENNA OK*35
$GPGGA,040957.000,,,,,0,00,25.5,,,,,,*6B
$GPGLL,,,,,040957.000,V,N*75
$GPGSA,A,1,,,,,,,,,,,,,25.5,25.5,25.5*02
$GPGSV,3,1,09,03,,,28,04,,,17,07,25,318,,08,69,242,36*75
$GPGSV,3,2,09,09,33,278,,11,22,195,28,22,00,188,29,23,38,237,31*76
$GPGSV,3,3,09,31,06,133,18*4C
$GPRMC,040957.000,V,,,,,,,310517,,,N*43
$GPVTG,,,,,,,,,N*30
$GPZDA,040957.000,31,05,2017,00,00*5A
$GPTXT,01,01,01,ANTENNA OK*35
$GPGGA,040958.000,,,,,0,00,25.5,,,,,,*64
$GPGLL,,,,,040958.000,V,N*7A
$GPGSA,A,1,,,,,,,,,,,,,25.5,25.5,25.5*02
$GPGSV,3,1,09,03,,,28,04,,,17,07,25,318,,08,69,242,36*75
$GPGSV,3,2,09,09,33,278,,11,22,195,27,22,00,188,30,23,38,237,31*71
$GPGSV,3,3,09,31,06,133,18*4C
$GPRMC,040958.000,V,,,,,,,310517,,,N*4C
$GPVTG,,,,,,,,,N*30
$GPZDA,040958.000,31,05,2017,00,00*55
$GPTXT,01,01,01,ANTENNA OK*35
$GPGGA,040959.000,,,,,0,00,25.5,,,,,,*65
$GPGLL,,,,,040959.000,V,N*7B
$GPGSA,A,1,,,,,,,,,,,,,25.5,25.5,25.5*02
$GPGSV,3,1,09,03,,,28,04,,,17,07,25,318,,08,69,242,36*75
$GPGSV,3,2,09,09,33,278,,11,22,195,27,22,00,188,30,23,38,237,31*71
$GPGSV,3,3,09,31,06,133,18*4C
$GPRMC,040959.000,V,,,,,,,310517,,,N*4D
$GPVTG,,,,,,,,,N*30
$GPZDA,040959.000,31,05,2017,00,00*54
$GPTXT,01,01,01,ANTENNA OK*35
$GPGGA,041000.000,,,,,0,00,25.5,,,,,,*61
$GPGLL,,,,,041000.000,V,N*7F
$GPGSA,A,1,,,,,,,,,,,,,25.5,25.5,25.5*02
$GPGSV,3,1,09,03,,,28,04,,,17,07,25,318,,08,69,242,35*76
$GPGSV,3,2,09,09,33,278,,11,22,195,27,22,00,188,30,23,38,237,31*71
$GPGSV,3,3,09,31,06,133,18*4C
$GPRMC,041000.000,V,,,,,,,310517,,,N*49
$GPVTG,,,,,,,,,N*30
$GPZDA,041000.000,31,05,2017,00,00*50
$GPTXT,01,01,01,ANTENNA OK*35
$GPGGA,041001.000,,,,,0,00,25.5,,,,,,*60
$GPGLL,,,,,041001.000,V,N*7E
$GPGSA,A,1,,,,,,,,,,,,,25.5,25.5,25.5*02
$GPGSV,3,1,09,03,,,28,04,,,17,07,25,318,,08,69,242,35*76
$GPGSV,3,2,09,09,33,278,,11,22,195,27,22,00,188,28,23,38,237,31*78
$GPGSV,3,3,09,31,06,133,18*4C
$GPRMC,041001.000,V,,,,,,,310517,,,N*48
$GPVTG,,,,,,,,,N*30
$GPZDA,041001.000,31,05,2017,00,00*51
$GPTXT,01,01,01,ANTENNA OK*35
$GPGGA,041002.000,,,,,0,00,25.5,,,,,,*63
$GPGLL,,,,,041002.000,V,N*7D
$GPGSA,A,1,,,,,,,,,,,,,25.5,25.5,25.5*02
$GPGSV,3,1,09,03,,,28,04,,,17,07,25,318,,08,69,242,36*75
$GPGSV,3,2,09,09,33,278,,11,22,195,27,22,00,188,28,23,38,237,31*78
$GPGSV,3,3,09,31,06,133,18*4C
$GPRMC,041002.000,V,,,,,,,310517,,,N*4B
$GPVTG,,,,,,,,,N*30
$GPZDA,041002.000,31,05,2017,00,00*52
$GPTXT,01,01,01,ANTENNA OK*35
$GPGGA,041003.000,,,,,0,00,25.5,,,,,,*62
$GPGLL,,,,,041003.000,V,N*7C
$GPGSA,A,1,,,,,,,,,,,,,25.5,25.5,25.5*02
$GPGSV,3,1,09,03,,,28,04,,,17,07,25,318,,08,69,242,36*75
$GPGSV,3,2,09,09,33,278,,11,22,195,27,22,00,188,28,23,38,237,31*78
$GPGSV,3,3,09,31,06,133,18*4C
$GPRMC,041003.000,V,,,,,,,310517,,,N*4A
$GPVTG,,,,,,,,,N*30
$GPZDA,041003.000,31,05,2017,00,00*53
$GPTXT,01,01,01,ANTENNA OK*35
$GPGGA,041004.000,,,,,0,00,25.5,,,,,,*65
$GPGLL,,,,,041004.000,V,N*7B
$GPGSA,A,1,,,,,,,,,,,,,25.5,25.5,25.5*02
$GPGSV,3,1,09,03,,,28,04,,,17,07,25,318,,08,69,242,36*75
$GPGSV,3,2,09,09,33,278,,11,22,195,27,22,00,188,28,23,38,237,30*79
$GPGSV,3,3,09,31,06,133,18*4C
$GPRMC,041004.000,V,,,,,,,310517,,,N*4D
$GPVTG,,,,,,,,,N*30
$GPZDA,041004.000,31,05,2017,00,00*54
$GPTXT,01,01,01,ANTENNA OK*35
$GPGGA,041005.000,,,,,0,00,25.5,,,,,,*64
$GPGLL,,,,,041005.000,V,N*7A
$GPGSA,A,1,,,,,,,,,,,,,25.5,25.5,25.5*02
$GPGSV,3,1,09,03,,,28,04,,,17,07,25,318,,08,69,242,36*75
$GPGSV,3,2,09,09,33,278,,11,22,195,27,22,00,188,28,23,38,237,30*79
$GPGSV,3,3,09,31,06,133,18*4C
$GPRMC,041005.000,V,,,,,,,310517,,,N*4C
$GPVTG,,,,,,,,,N*30
$GPZDA,041005.000,31,05,2017,00,00*55
$GPTXT,01,01,01,ANTENNA OK*35
$GPGGA,041006.000,,,,,0,00,25.5,,,,,,*67
$GPGLL,,,,,041006.000,V,N*79
$GPGSA,A,1,,,,,,,,,,,,,25.5,25.5,25.5*02
$GPGSV,3,1,09,03,,,28,04,,,17,07,25,318,,08,69,242,36*75
$GPGSV,3,2,09,09,33,278,,11,22,195,27,22,00,188,28,23,38,237,30*79
$GPGSV,3,3,09,31,06,133,18*4C
$GPRMC,041006.000,V,,,,,,,310517,,,N*4F
$GPVTG,,,,,,,,,N*30
$GPZDA,041006.000,31,05,2017,00,00*56
$GPTXT,01,01,01,ANTENNA OK*35
$GPGGA,041007.000,,,,,0,00,25.5,,,,,,*66
$GPGLL,,,,,041007.000,V,N*78
$GPGSA,A,1,,,,,,,,,,,,,25.5,25.5,25.5*02
$GPGSV,3,1,09,03,,,28,04,,,17,07,25,318,,08,69,242,36*75
$GPGSV,3,2,09,09,33,278,,11,22,195,27,22,00,188,28,23,38,236,30*78
$GPGSV,3,3,09,31,06,133,18*4C
$GPRMC,041007.000,V,,,,,,,310517,,,N*4E
$GPVTG,,,,,,,,,N*30
$GPZDA,041007.000,31,05,2017,00,00*57
$GPTXT,01,01,01,ANTENNA OK*35
$GPGGA,041008.000,,,,,0,00,25.5,,,,,,*69
$GPGLL,,,,,041008.000,V,N*77
$GPGSA,A,1,,,,,,,,,,,,,25.5,25.5,25.5*02
$GPGSV,3,1,09,03,,,28,04,,,17,07,25,318,,08,69,242,35*76
$GPGSV,3,2,09,09,33,278,,11,22,195,24,22,00,188,28,23,38,236,31*7A
$GPGSV,3,3,09,31,06,133,18*4C
$GPRMC,041008.000,V,,,,,,,310517,,,N*41
$GPVTG,,,,,,,,,N*30
$GPZDA,041008.000,31,05,2017,00,00*58
$GPTXT,01,01,01,ANTENNA OK*35
$GPGGA,041009.000,,,,,0,00,25.5,,,,,,*68
$GPGLL,,,,,041009.000,V,N*76
$GPGSA,A,1,,,,,,,,,,,,,25.5,25.5,25.5*02
$GPGSV,3,1,09,03,,,25,04,,,17,07,25,318,,08,69,242,35*7B
$GPGSV,3,2,09,09,33,278,,11,22,195,24,22,00,188,28,23,38,236,31*7A
$GPGSV,3,3,09,31,06,133,18*4C
$GPRMC,041009.000,V,,,,,,,310517,,,N*40
$GPVTG,,,,,,,,,N*30
$GPZDA,041009.000,31,05,2017,00,00*59
$GPTXT,01,01,01,ANTENNA OK*35
$GPGGA,041010.000,,,,,0,00,25.5,,,,,,*60
$GPGLL,,,,,041010.000,V,N*7E
$GPGSA,A,1,,,,,,,,,,,,,25.5,25.5,25.5*02
$GPGSV,3,1,09,03,,,25,04,,,17,07,25,318,,08,69,242,33*7D
$GPGSV,3,2,09,09,33,278,,11,22,195,24,22,00,188,28,23,38,236,28*72
$GPGSV,3,3,09,31,06,133,18*4C
$GPRMC,041010.000,V,,,,,,,310517,,,N*48
$GPVTG,,,,,,,,,N*30
$GPZDA,041010.000,31,05,2017,00,00*51
$GPTXT,01,01,01,ANTENNA OK*35
$GPGGA,041011.000,,,,,0,00,25.5,,,,,,*61
$GPGLL,,,,,041011.000,V,N*7F
$GPGSA,A,1,,,,,,,,,,,,,25.5,25.5,25.5*02
$GPGSV,3,1,09,03,,,25,04,,,17,07,25,318,,08,69,242,33*7D
$GPGSV,3,2,09,09,33,278,,11,22,195,24,22,00,188,28,23,38,236,28*72
$GPGSV,3,3,09,31,06,133,17*43
$GPRMC,041011.000,V,,,,,,,310517,,,N*49
$GPVTG,,,,,,,,,N*30
$GPZDA,041011.000,31,05,2017,00,00*50
$GPTXT,01,01,01,ANTENNA OK*35
$GPGGA,041012.000,,,,,0,00,25.5,,,,,,*62
$GPGLL,,,,,041012.000,V,N*7C
$GPGSA,A,1,,,,,,,,,,,,,25.5,25.5,25.5*02
$GPGSV,3,1,09,03,,,25,04,,,17,07,25,318,,08,69,242,33*7D
$GPGSV,3,2,09,09,33,278,,11,22,195,24,22,00,188,28,23,38,236,28*72
$GPGSV,3,3,09,31,06,133,17*43
$GPRMC,041012.000,V,,,,,,,310517,,,N*4A
$GPVTG,,,,,,,,,N*30
$GPZDA,041012.000,31,05,2017,00,00*53
$GPTXT,01,01,01,ANTENNA OK*35
$GPGGA,041013.000,,,,,0,00,25.5,,,,,,*63
$GPGLL,,,,,041013.000,V,N*7D
$GPGSA,A,1,,,,,,,,,,,,,25.5,25.5,25.5*02
$GPGSV,3,1,09,03,,,25,04,,,17,07,25,318,,08,69,242,33*7D
$GPGSV,3,2,09,09,33,278,,11,22,195,21,22,00,188,28,23,38,236,28*77
$GPGSV,3,3,09,31,06,133,17*43
$GPRMC,041013.000,V,,,,,,,310517,,,N*4B
$GPVTG,,,,,,,,,N*30
$GPZDA,041013.000,31,05,2017,00,00*52
$GPTXT,01,01,01,ANTENNA OK*35
$GPGGA,041014.000,,,,,0,00,25.5,,,,,,*64
$GPGLL,,,,,041014.000,V,N*7A
$GPGSA,A,1,,,,,,,,,,,,,25.5,25.5,25.5*02
$GPGSV,3,1,10,03,,,25,04,,,17,07,25,318,,08,69,242,33*75
$GPGSV,3,2,10,09,33,278,,11,22,195,21,16,42,046,,22,00,187,28*74
$GPGSV,3,3,10,23,38,236,28,31,06,133,17*7C
$GPRMC,041014.000,V,,,,,,,310517,,,N*4C
$GPVTG,,,,,,,,,N*30
$GPZDA,041014.000,31,05,2017,00,00*55
$GPTXT,01,01,01,ANTENNA OK*35
$GPGGA,041015.000,,,,,0,00,25.5,,,,,,*65
$GPGLL,,,,,041015.000,V,N*7B
$GPGSA,A,1,,,,,,,,,,,,,25.5,25.5,25.5*02
$GPGSV,3,1,10,03,,,24,04,,,17,07,25,318,,08,69,242,35*72
$GPGSV,3,2,10,09,33,278,,11,22,195,21,16,42,046,,22,00,187,28*74
$GPGSV,3,3,10,23,38,236,29,31,06,133,17*7D
$GPRMC,041015.000,V,,,,,,,310517,,,N*4D
$GPVTG,,,,,,,,,N*30
$GPZDA,041015.000,31,05,2017,00,00*54
$GPTXT,01,01,01,ANTENNA OK*35
$GPGGA,041016.000,,,,,0,00,25.5,,,,,,*66
$GPGLL,,,,,041016.000,V,N*78
$GPGSA,A,1,,,,,,,,,,,,,25.5,25.5,25.5*02
$GPGSV,3,1,10,03,,,24,04,,,17,07,25,318,,08,69,242,35*72
$GPGSV,3,2,10,09,33,278,,11,22,195,24,16,42,046,,22,00,187,28*71
$GPGSV,3,3,10,23,38,236,29,31,06,133,17*7D
$GPRMC,041016.000,V,,,,,,,310517,,,N*4E
$GPVTG,,,,,,,,,N*30
$GPZDA,041016.000,31,05,2017,00,00*57
$GPTXT,01,01,01,ANTENNA OK*35
$GPGGA,041017.000,,,,,0,00,25.5,,,,,,*67
$GPGLL,,,,,041017.000,V,N*79
$GPGSA,A,1,,,,,,,,,,,,,25.5,25.5,25.5*02
$GPGSV,3,1,10,03,,,24,04,,,17,07,25,318,,08,69,242,35*72
$GPGSV,3,2,10,09,33,278,,11,22,195,24,16,42,046,,22,00,187,29*70
$GPGSV,3,3,10,23,38,236,29,31,06,133,17*7D
$GPRMC,041017.000,V,,,,,,,310517,,,N*4F
$GPVTG,,,,,,,,,N*30
$GPZDA,041017.000,31,05,2017,00,00*56
$GPTXT,01,01,01,ANTENNA OK*35
$GPGGA,041018.000,,,,,0,00,25.5,,,,,,*68
$GPGLL,,,,,041018.000,V,N*76
$GPGSA,A,1,,,,,,,,,,,,,25.5,25.5,25.5*02
$GPGSV,3,1,10,03,,,24,04,,,17,07,25,318,,08,69,242,35*72
$GPGSV,3,2,10,09,33,278,,11,22,195,24,16,42,046,,22,00,187,29*70
$GPGSV,3,3,10,23,38,236,29,31,06,133,17*7D
$GPRMC,041018.000,V,,,,,,,310517,,,N*40
$GPVTG,,,,,,,,,N*30
$GPZDA,041018.000,31,05,2017,00,00*59
$GPTXT,01,01,01,ANTENNA OK*35
$GPGGA,041019.000,,,,,0,00,25.5,,,,,,*69
$GPGLL,,,,,041019.000,V,N*77
$GPGSA,A,1,,,,,,,,,,,,,25.5,25.5,25.5*02
$GPGSV,3,1,10,03,,,24,04,,,17,07,25,318,,08,69,242,34*73
$GPGSV,3,2,10,09,33,278,,11,22,195,24,16,42,046,,22,00,187,29*70
$GPGSV,3,3,10,23,38,236,29,31,06,133,17*7D
$GPRMC,041019.000,V,,,,,,,310517,,,N*41
$GPVTG,,,,,,,,,N*30
$GPZDA,041019.000,31,05,2017,00,00*58
$GPTXT,01,01,01,ANTENNA OK*35
$GPGGA,041020.000,,,,,0,00,25.5,,,,,,*63
$GPGLL,,,,,041020.000,V,N*7D
$GPGSA,A,1,,,,,,,,,,,,,25.5,25.5,25.5*02
$GPGSV,3,1,10,03,,,25,04,,,17,07,25,318,,08,69,242,34*72
$GPGSV,3,2,10,09,33,278,,11,22,195,24,16,42,046,,22,00,187,29*70
$GPGSV,3,3,10,23,38,236,30,31,06,133,17*75
$GPRMC,041020.000,V,,,,,,,310517,,,N*4B
$GPVTG,,,,,,,,,N*30
$GPZDA,041020.000,31,05,2017,00,00*52
$GPTXT,01,01,01,ANTENNA OK*35
$GPGGA,041021.000,,,,,0,00,25.5,,,,,,*62
$GPGLL,,,,,041021.000,V,N*7C
$GPGSA,A,1,,,,,,,,,,,,,25.5,25.5,25.5*02
$GPGSV,3,1,10,03,,,25,04,,,15,07,25,318,,08,69,242,36*72
$GPGSV,3,2,10,09,33,278,,11,22,195,24,16,42,046,,22,00,187,29*70
$GPGSV,3,3,10,23,38,236,30,31,06,133,17*75
$GPRMC,041021.000,V,,,,,,,310517,,,N*4A
$GPVTG,,,,,,,,,N*30
$GPZDA,041021.000,31,05,2017,00,00*53
$GPTXT,01,01,01,ANTENNA OK*35
$GPGGA,041022.000,,,,,0,00,25.5,,,,,,*61
$GPGLL,,,,,041022.000,V,N*7F
$GPGSA,A,1,,,,,,,,,,,,,25.5,25.5,25.5*02
$GPGSV,3,1,10,03,,,25,04,,,15,07,25,318,,08,69,242,36*72
$GPGSV,3,2,10,09,33,278,,11,22,195,24,16,42,046,,22,00,187,29*70
$GPGSV,3,3,10,23,38,236,30,31,06,133,17*75
$GPRMC,041022.000,V,,,,,,,310517,,,N*49
$GPVTG,,,,,,,,,N*30
$GPZDA,041022.000,31,05,2017,00,00*50
$GPTXT,01,01,01,ANTENNA OK*35
$GPGGA,041023.000,,,,,0,00,25.5,,,,,,*60
$GPGLL,,,,,041023.000,V,N*7E
$GPGSA,A,1,,,,,,,,,,,,,25.5,25.5,25.5*02
$GPGSV,3,1,10,03,,,25,04,,,15,07,25,318,,08,69,242,35*71
$GPGSV,3,2,10,09,33,278,,11,22,195,24,16,42,046,,22,00,187,29*70
$GPGSV,3,3,10,23,38,236,30,31,06,133,15*77
$GPRMC,041023.000,V,,,,,,,310517,,,N*48
$GPVTG,,,,,,,,,N*30
$GPZDA,041023.000,31,05,2017,00,00*51
$GPTXT,01,01,01,ANTENNA OK*35
$GPGGA,041024.000,,,,,0,00,25.5,,,,,,*67
$GPGLL,,,,,041024.000,V,N*79
$GPGSA,A,1,,,,,,,,,,,,,25.5,25.5,25.5*02
$GPGSV,3,1,10,03,,,25,04,,,15,07,25,318,,08,69,242,35*71
$GPGSV,3,2,10,09,33,278,,11,22,195,24,16,42,046,,22,00,187,26*7F
$GPGSV,3,3,10,23,38,236,30,31,06,133,15*77
$GPRMC,041024.000,V,,,,,,,310517,,,N*4F
$GPVTG,,,,,,,,,N*30
$GPZDA,041024.000,31,05,2017,00,00*56
$GPTXT,01,01,01,ANTENNA OK*35
$GPGGA,041025.000,,,,,0,00,25.5,,,,,,*66
$GPGLL,,,,,041025.000,V,N*78
$GPGSA,A,1,,,,,,,,,,,,,25.5,25.5,25.5*02
$GPGSV,3,1,09,03,,,25,07,25,318,,08,69,242,33,09,33,278,*4B
$GPGSV,3,2,09,11,22,195,24,16,42,046,,22,00,187,26,23,38,236,30*7D
$GPGSV,3,3,09,31,06,133,15*41
$GPRMC,041025.000,V,,,,,,,310517,,,N*4E
$GPVTG,,,,,,,,,N*30
$GPZDA,041025.000,31,05,2017,00,00*57
$GPTXT,01,01,01,ANTENNA OK*35
$GPGGA,041026.000,,,,,0,00,25.5,,,,,,*65
$GPGLL,,,,,041026.000,V,N*7B
$GPGSA,A,1,,,,,,,,,,,,,25.5,25.5,25.5*02
$GPGSV,3,1,09,03,,,25,07,25,318,,08,69,242,33,09,33,278,*4B
$GPGSV,3,2,09,11,22,195,23,16,42,046,,22,00,187,26,23,38,236,30*7A
$GPGSV,3,3,09,31,06,133,15*41
$GPRMC,041026.000,V,,,,,,,310517,,,N*4D
$GPVTG,,,,,,,,,N*30
$GPZDA,041026.000,31,05,2017,00,00*54
$GPTXT,01,01,01,ANTENNA OK*35
$GPGGA,041027.000,,,,,0,00,25.5,,,,,,*64
$GPGLL,,,,,041027.000,V,N*7A
$GPGSA,A,1,,,,,,,,,,,,,25.5,25.5,25.5*02
$GPGSV,3,1,09,03,,,24,07,25,318,,08,69,242,33,09,33,278,*4A
$GPGSV,3,2,09,11,22,195,23,16,42,047,,22,00,187,26,23,38,236,30*7B
$GPGSV,3,3,09,31,06,133,15*41
$GPRMC,041027.000,V,,,,,,,310517,,,N*4C
$GPVTG,,,,,,,,,N*30
$GPZDA,041027.000,31,05,2017,00,00*55
$GPTXT,01,01,01,ANTENNA OK*35
$GPGGA,041028.000,,,,,0,00,25.5,,,,,,*6B
$GPGLL,,,,,041028.000,V,N*75
$GPGSA,A,1,,,,,,,,,,,,,25.5,25.5,25.5*02
$GPGSV,3,1,09,03,,,24,07,25,318,,08,69,242,33,09,33,278,*4A
$GPGSV,3,2,09,11,22,195,23,16,42,047,,22,00,187,26,23,38,236,30*7B
$GPGSV,3,3,09,31,06,133,15*41
$GPRMC,041028.000,V,,,,,,,310517,,,N*43
$GPVTG,,,,,,,,,N*30
$GPZDA,041028.000,31,05,2017,00,00*5A
$GPTXT,01,01,01,ANTENNA OK*35
$GPGGA,041029.000,,,,,0,00,25.5,,,,,,*6A
$GPGLL,,,,,041029.000,V,N*74
$GPGSA,A,1,,,,,,,,,,,,,25.5,25.5,25.5*02
$GPGSV,3,1,09,03,,,24,07,25,318,,08,69,242,34,09,33,278,*4D
$GPGSV,3,2,09,11,22,195,23,16,42,047,,22,00,187,26,23,38,236,30*7B
$GPGSV,3,3,09,31,06,133,15*41
$GPRMC,041029.000,V,,,,,,,310517,,,N*42
$GPVTG,,,,,,,,,N*30
$GPZDA,041029.000,31,05,2017,00,00*5B
$GPTXT,01,01,01,ANTENNA OK*35
$GPGGA,041030.000,,,,,0,00,25.5,,,,,,*62
$GPGLL,,,,,041030.000,V,N*7C
$GPGSA,A,1,,,,,,,,,,,,,25.5,25.5,25.5*02
$GPGSV,3,1,09,03,,,24,07,25,318,,08,69,242,34,09,33,278,*4D
$GPGSV,3,2,09,11,22,195,23,16,42,047,,22,00,187,27,23,38,236,30*7A
$GPGSV,3,3,09,31,06,133,15*41
$GPRMC,041030.000,V,,,,,,,310517,,,N*4A
$GPVTG,,,,,,,,,N*30
$GPZDA,041030.000,31,05,2017,00,00*53
$GPTXT,01,01,01,ANTENNA OK*35
$GPGGA,041031.000,,,,,0,00,25.5,,,,,,*63
$GPGLL,,,,,041031.000,V,N*7D
$GPGSA,A,1,,,,,,,,,,,,,25.5,25.5,25.5*02
$GPGSV,3,1,09,03,,,24,07,25,318,,08,69,242,34,09,33,278,*4D
$GPGSV,3,2,09,11,22,195,23,16,42,047,,22,00,187,27,23,38,236,30*7A
$GPGSV,3,3,09,31,06,133,15*41
$GPRMC,041031.000,V,,,,,,,310517,,,N*4B
$GPVTG,,,,,,,,,N*30
$GPZDA,041031.000,31,05,2017,00,00*52
$GPTXT,01,01,01,ANTENNA OK*35
$GPGGA,041032.000,,,,,0,00,25.5,,,,,,*60
$GPGLL,,,,,041032.000,V,N*7E
$GPGSA,A,1,,,,,,,,,,,,,25.5,25.5,25.5*02
$GPGSV,3,1,09,03,,,24,07,25,318,,08,69,242,33,09,33,278,*4A
$GPGSV,3,2,09,11,22,195,23,16,42,047,,22,00,187,27,23,38,236,26*7D
$GPGSV,3,3,09,31,06,133,15*41
$GPRMC,041032.000,V,,,,,,,310517,,,N*48
$GPVTG,,,,,,,,,N*30
$GPZDA,041032.000,31,05,2017,00,00*51
$GPTXT,01,01,01,ANTENNA OK*35
$GPGGA,041033.000,,,,,0,00,25.5,,,,,,*61
$GPGLL,,,,,041033.000,V,N*7F
$GPGSA,A,1,,,,,,,,,,,,,25.5,25.5,25.5*02
$GPGSV,3,1,09,03,,,24,07,25,318,,08,69,242,33,09,33,278,*4A
$GPGSV,3,2,09,11,22,195,23,16,42,047,,22,00,187,27,23,38,236,26*7D
$GPGSV,3,3,09,31,06,133,15*41
$GPRMC,041033.000,V,,,,,,,310517,,,N*49
$GPVTG,,,,,,,,,N*30
$GPZDA,041033.000,31,05,2017,00,00*50
$GPTXT,01,01,01,ANTENNA OK*35
$GPGGA,041034.000,,,,,0,00,25.5,,,,,,*66
$GPGLL,,,,,041034.000,V,N*78
$GPGSA,A,1,,,,,,,,,,,,,25.5,25.5,25.5*02
$GPGSV,3,1,09,03,,,24,07,25,319,,08,69,242,33,09,33,278,*4B
$GPGSV,3,2,09,11,22,195,23,16,42,047,,22,00,187,28,23,38,236,26*72
$GPGSV,3,3,09,31,06,133,17*43
$GPRMC,041034.000,V,,,,,,,310517,,,N*4E
$GPVTG,,,,,,,,,N*30
$GPZDA,041034.000,31,05,2017,00,00*57
$GPTXT,01,01,01,ANTENNA OK*35
$GPGGA,041035.000,,,,,0,00,25.5,,,,,,*67
$GPGLL,,,,,041035.000,V,N*79
$GPGSA,A,1,,,,,,,,,,,,,25.5,25.5,25.5*02
$GPGSV,3,1,09,03,,,23,07,25,319,,08,69,242,33,09,33,278,*4C
$GPGSV,3,2,09,11,22,195,23,16,41,047,,22,00,187,28,23,38,236,26*71
$GPGSV,3,3,09,31,06,133,17*43
$GPRMC,041035.000,V,,,,,,,310517,,,N*4F
$GPVTG,,,,,,,,,N*30
$GPZDA,041035.000,31,05,2017,00,00*56
$GPTXT,01,01,01,ANTENNA OK*35
$GPGGA,041036.000,,,,,0,00,25.5,,,,,,*64
$GPGLL,,,,,041036.000,V,N*7A
$GPGSA,A,1,,,,,,,,,,,,,25.5,25.5,25.5*02
$GPGSV,3,1,09,03,,,23,07,25,319,,08,69,242,33,09,33,278,*4C
$GPGSV,3,2,09,11,22,195,23,16,41,047,,22,00,187,28,23,38,236,26*71
$GPGSV,3,3,09,31,06,133,17*43
$GPRMC,041036.000,V,,,,,,,310517,,,N*4C
$GPVTG,,,,,,,,,N*30
$GPZDA,041036.000,31,05,2017,00,00*55
$GPTXT,01,01,01,ANTENNA OK*35
$GPGGA,041037.000,,,,,0,00,25.5,,,,,,*65
$GPGLL,,,,,041037.000,V,N*7B
$GPGSA,A,1,,,,,,,,,,,,,25.5,25.5,25.5*02
$GPGSV,3,1,09,03,,,23,07,25,319,,08,70,242,33,09,33,278,*44
$GPGSV,3,2,09,11,22,195,22,16,41,047,,22,00,187,28,23,38,236,26*70
$GPGSV,3,3,09,31,06,133,17*43
$GPRMC,041037.000,V,,,,,,,310517,,,N*4D
$GPVTG,,,,,,,,,N*30
$GPZDA,041037.000,31,05,2017,00,00*54
$GPTXT,01,01,01,ANTENNA OK*35
$GPGGA,041038.000,,,,,0,00,25.5,,,,,,*6A
$GPGLL,,,,,041038.000,V,N*74
$GPGSA,A,1,,,,,,,,,,,,,25.5,25.5,25.5*02
$GPGSV,3,1,09,03,,,23,07,25,319,,08,70,242,33,09,33,278,*44
$GPGSV,3,2,09,11,22,195,22,16,41,047,,22,00,187,28,23,38,236,27*71
$GPGSV,3,3,09,31,06,133,17*43
$GPRMC,041038.000,V,,,,,,,310517,,,N*42
$GPVTG,,,,,,,,,N*30
$GPZDA,041038.000,31,05,2017,00,00*5B
$GPTXT,01,01,01,ANTENNA OK*35
$GPGGA,041039.000,,,,,0,00,25.5,,,,,,*6B
$GPGLL,,,,,041039.000,V,N*75
$GPGSA,A,1,,,,,,,,,,,,,25.5,25.5,25.5*02
$GPGSV,3,1,09,03,,,23,07,25,319,,08,70,242,33,09,33,278,*44
$GPGSV,3,2,09,11,22,195,22,16,41,047,,22,00,187,29,23,38,236,27*70
$GPGSV,3,3,09,31,06,133,17*43
$GPRMC,041039.000,V,,,,,,,310517,,,N*43
$GPVTG,,,,,,,,,N*30
$GPZDA,041039.000,31,05,2017,00,00*5A
$GPTXT,01,01,01,ANTENNA OK*35
$GPGGA,041040.000,,,,,0,00,25.5,,,,,,*65
$GPGLL,,,,,041040.000,V,N*7B
$GPGSA,A,1,,,,,,,,,,,,,25.5,25.5,25.5*02
$GPGSV,3,1,09,03,,,23,07,25,319,,08,70,242,33,09,33,278,*44
$GPGSV,3,2,09,11,22,195,22,16,41,047,,22,00,187,29,23,38,236,27*70
$GPGSV,3,3,09,31,06,133,17*43
$GPRMC,041040.000,V,,,,,,,310517,,,N*4D
$GPVTG,,,,,,,,,N*30
$GPZDA,041040.000,31,05,2017,00,00*54
$GPTXT,01,01,01,ANTENNA OK*35
$GPGGA,041041.000,,,,,0,00,25.5,,,,,,*64
$GPGLL,,,,,041041.000,V,N*7A
$GPGSA,A,1,,,,,,,,,,,,,25.5,25.5,25.5*02
$GPGSV,3,1,09,03,,,23,07,25,319,,08,70,242,33,09,33,278,*44
$GPGSV,3,2,09,11,22,195,22,16,41,047,,22,00,187,29,23,38,236,27*70
$GPGSV,3,3,09,31,06,133,17*43
$GPRMC,041041.000,V,,,,,,,310517,,,N*4C
$GPVTG,,,,,,,,,N*30
$GPZDA,041041.000,31,05,2017,00,00*55
$GPTXT,01,01,01,ANTENNA OK*35
$GPGGA,041042.000,,,,,0,00,25.5,,,,,,*67
$GPGLL,,,,,041042.000,V,N*79
$GPGSA,A,1,,,,,,,,,,,,,25.5,25.5,25.5*02
$GPGSV,3,1,09,03,,,23,07,25,319,,08,70,242,33,09,33,278,*44
$GPGSV,3,2,09,11,22,195,22,16,41,047,,22,00,187,29,23,38,236,27*70
$GPGSV,3,3,09,31,06,133,17*43
$GPRMC,041042.000,V,,,,,,,310517,,,N*4F
$GPVTG,,,,,,,,,N*30
$GPZDA,041042.000,31,05,2017,00,00*56
$GPTXT,01,01,01,ANTENNA OK*35
$GPGGA,041043.000,,,,,0,00,25.5,,,,,,*66
$GPGLL,,,,,041043.000,V,N*78
$GPGSA,A,1,,,,,,,,,,,,,25.5,25.5,25.5*02
$GPGSV,3,1,09,03,,,23,07,25,319,,08,70,242,33,09,33,278,*44
$GPGSV,3,2,09,11,22,195,22,16,41,047,,22,00,187,28,23,38,236,27*71
$GPGSV,3,3,09,31,06,133,17*43
$GPRMC,041043.000,V,,,,,,,310517,,,N*4E
$GPVTG,,,,,,,,,N*30
$GPZDA,041043.000,31,05,2017,00,00*57
$GPTXT,01,01,01,ANTENNA OK*35
$GPGGA,041044.000,,,,,0,00,25.5,,,,,,*61
$GPGLL,,,,,041044.000,V,N*7F
$GPGSA,A,1,,,,,,,,,,,,,25.5,25.5,25.5*02
$GPGSV,3,1,09,03,,,23,07,25,319,,08,70,242,33,09,33,278,*44
$GPGSV,3,2,09,11,22,195,22,16,41,047,,22,00,187,28,23,38,236,26*70
$GPGSV,3,3,09,31,06,133,17*43
$GPRMC,041044.000,V,,,,,,,310517,,,N*49
$GPVTG,,,,,,,,,N*30
$GPZDA,041044.000,31,05,2017,00,00*50
$GPTXT,01,01,01,ANTENNA OK*35
$GPGGA,041045.000,,,,,0,00,25.5,,,,,,*60
$GPGLL,,,,,041045.000,V,N*7E
$GPGSA,A,1,,,,,,,,,,,,,25.5,25.5,25.5*02
$GPGSV,3,1,09,03,,,23,07,25,319,,08,70,242,33,09,33,278,*44
$GPGSV,3,2,09,11,22,195,22,16,41,047,,22,00,187,28,23,38,236,26*70
$GPGSV,3,3,09,31,06,133,17*43
$GPRMC,041045.000,V,,,,,,,310517,,,N*48
$GPVTG,,,,,,,,,N*30
$GPZDA,041045.000,31,05,2017,00,00*51
$GPTXT,01,01,01,ANTENNA OK*35
$GPGGA,041046.000,,,,,0,00,25.5,,,,,,*63
$GPGLL,,,,,041046.000,V,N*7D
$GPGSA,A,1,,,,,,,,,,,,,25.5,25.5,25.5*02
$GPGSV,3,1,09,03,,,23,07,25,319,,08,70,242,33,09,33,278,*44
$GPGSV,3,2,09,11,22,195,22,16,41,047,,22,00,187,28,23,38,236,26*70
$GPGSV,3,3,09,31,06,133,17*43
$GPRMC,041046.000,V,,,,,,,310517,,,N*4B
$GPVTG,,,,,,,,,N*30
$GPZDA,041046.000,31,05,2017,00,00*52
$GPTXT,01,01,01,ANTENNA OK*35
$GPGGA,041047.000,,,,,0,00,25.5,,,,,,*62
$GPGLL,,,,,041047.000,V,N*7C
$GPGSA,A,1,,,,,,,,,,,,,25.5,25.5,25.5*02
$GPGSV,3,1,09,03,,,23,07,25,319,,08,70,242,32,09,33,278,*45
$GPGSV,3,2,09,11,22,195,22,16,41,047,,22,00,187,28,23,38,236,26*70
$GPGSV,3,3,09,31,06,133,17*43
$GPRMC,041047.000,V,,,,,,,310517,,,N*4A
$GPVTG,,,,,,,,,N*30
$GPZDA,041047.000,31,05,2017,00,00*53
$GPTXT,01,01,01,ANTENNA OK*35
$GPGGA,041048.000,,,,,0,00,25.5,,,,,,*6D
$GPGLL,,,,,041048.000,V,N*73
$GPGSA,A,1,,,,,,,,,,,,,25.5,25.5,25.5*02
$GPGSV,3,1,09,03,,,23,07,25,319,,08,70,242,32,09,33,278,*45
$GPGSV,3,2,09,11,22,195,22,16,41,047,,22,00,187,28,23,38,236,26*70
$GPGSV,3,3,09,31,06,133,17*43
$GPRMC,041048.000,V,,,,,,,310517,,,N*45
$GPVTG,,,,,,,,,N*30
$GPZDA,041048.000,31,05,2017,00,00*5C
$GPTXT,01,01,01,ANTENNA OK*35
$GPGGA,041049.000,,,,,0,00,25.5,,,,,,*6C
$GPGLL,,,,,041049.000,V,N*72
$GPGSA,A,1,,,,,,,,,,,,,25.5,25.5,25.5*02
$GPGSV,3,1,09,03,,,23,07,25,319,,08,70,242,33,09,33,278,*44
$GPGSV,3,2,09,11,22,195,22,16,41,047,,22,00,187,28,23,38,236,26*70
$GPGSV,3,3,09,31,06,133,17*43
$GPRMC,041049.000,V,,,,,,,310517,,,N*44
$GPVTG,,,,,,,,,N*30
$GPZDA,041049.000,31,05,2017,00,00*5D
$GPTXT,01,01,01,ANTENNA OK*35
$GPGGA,041050.000,,,,,0,00,25.5,,,,,,*64
$GPGLL,,,,,041050.000,V,N*7A
$GPGSA,A,1,,,,,,,,,,,,,25.5,25.5,25.5*02
$GPGSV,3,1,09,03,,,23,07,25,319,,08,70,242,33,09,33,278,*44
$GPGSV,3,2,09,11,22,195,22,16,41,047,,22,00,187,28,23,38,236,26*70
$GPGSV,3,3,09,31,06,133,16*42
$GPRMC,041050.000,V,,,,,,,310517,,,N*4C
$GPVTG,,,,,,,,,N*30
$GPZDA,041050.000,31,05,2017,00,00*55
$GPTXT,01,01,01,ANTENNA OK*35
$GPGGA,041051.000,,,,,0,00,25.5,,,,,,*65
$GPGLL,,,,,041051.000,V,N*7B
$GPGSA,A,1,,,,,,,,,,,,,25.5,25.5,25.5*02
$GPGSV,3,1,09,03,,,23,07,25,319,,08,70,242,33,09,33,278,*44
$GPGSV,3,2,09,11,23,195,21,16,41,047,,22,00,187,28,23,38,236,26*72
$GPGSV,3,3,09,31,06,133,16*42
$GPRMC,041051.000,V,,,,,,,310517,,,N*4D
$GPVTG,,,,,,,,,N*30
$GPZDA,041051.000,31,05,2017,00,00*54
$GPTXT,01,01,01,ANTENNA OK*35
$GPGGA,041052.000,,,,,0,00,25.5,,,,,,*66
$GPGLL,,,,,041052.000,V,N*78
$GPGSA,A,1,,,,,,,,,,,,,25.5,25.5,25.5*02
$GPGSV,3,1,09,03,,,23,07,25,319,,08,70,242,33,09,33,278,*44
$GPGSV,3,2,09,11,23,195,21,16,41,047,,22,00,187,28,23,38,236,26*72
$GPGSV,3,3,09,31,06,133,16*42
$GPRMC,041052.000,V,,,,,,,310517,,,N*4E
$GPVTG,,,,,,,,,N*30
$GPZDA,041052.000,31,05,2017,00,00*57
$GPTXT,01,01,01,ANTENNA OK*35
$GPGGA,041053.000,,,,,0,00,25.5,,,,,,*67
$GPGLL,,,,,041053.000,V,N*79
$GPGSA,A,1,,,,,,,,,,,,,25.5,25.5,25.5*02
$GPGSV,3,1,09,03,,,24,07,25,319,,08,70,242,33,09,33,278,*43
$GPGSV,3,2,09,11,23,195,21,16,41,047,,22,00,187,28,23,38,236,26*72
$GPGSV,3,3,09,31,06,133,16*42
$GPRMC,041053.000,V,,,,,,,310517,,,N*4F
$GPVTG,,,,,,,,,N*30
$GPZDA,041053.000,31,05,2017,00,00*56
$GPTXT,01,01,01,ANTENNA OK*35
$GPGGA,041054.000,,,,,0,00,25.5,,,,,,*60
$GPGLL,,,,,041054.000,V,N*7E
$GPGSA,A,1,,,,,,,,,,,,,25.5,25.5,25.5*02
$GPGSV,3,1,09,03,,,24,07,25,319,,08,70,243,33,09,33,278,*42
$GPGSV,3,2,09,11,23,195,21,16,41,047,,22,00,187,28,23,38,236,26*72
$GPGSV,3,3,09,31,06,133,16*42
$GPRMC,041054.000,V,,,,,,,310517,,,N*48
$GPVTG,,,,,,,,,N*30
$GPZDA,041054.000,31,05,2017,00,00*51
$GPTXT,01,01,01,ANTENNA OK*35
$GPGGA,041055.000,,,,,0,00,25.5,,,,,,*61
$GPGLL,,,,,041055.000,V,N*7F
$GPGSA,A,1,,,,,,,,,,,,,25.5,25.5,25.5*02
$GPGSV,3,1,09,03,,,24,07,25,319,,08,70,243,33,09,33,278,*42
$GPGSV,3,2,09,11,23,195,21,16,41,047,,22,00,187,28,23,38,236,26*72
$GPGSV,3,3,09,31,06,133,16*42
$GPRMC,041055.000,V,,,,,,,310517,,,N*49
$GPVTG,,,,,,,,,N*30
$GPZDA,041055.000,31,05,2017,00,00*50
$GPTXT,01,01,01,ANTENNA OK*35
$GPGGA,041056.000,,,,,0,00,25.5,,,,,,*62
$GPGLL,,,,,041056.000,V,N*7C
$GPGSA,A,1,,,,,,,,,,,,,25.5,25.5,25.5*02
$GPGSV,3,1,09,03,,,24,07,25,319,,08,70,243,33,09,33,278,*42
$GPGSV,3,2,09,11,23,195,17,16,41,047,,22,00,187,28,23,38,236,27*76
$GPGSV,3,3,09,31,06,133,16*42
$GPRMC,041056.000,V,,,,,,,310517,,,N*4A
$GPVTG,,,,,,,,,N*30
$GPZDA,041056.000,31,05,2017,00,00*53
$GPTXT,01,01,01,ANTENNA OK*35
$GPGGA,041057.000,,,,,0,00,25.5,,,,,,*63
$GPGLL,,,,,041057.000,V,N*7D
$GPGSA,A,1,,,,,,,,,,,,,25.5,25.5,25.5*02
$GPGSV,3,1,09,03,,,24,07,25,319,,08,70,243,32,09,33,278,*43
$GPGSV,3,2,09,11,23,195,17,16,41,047,,22,00,187,28,23,38,236,27*76
$GPGSV,3,3,09,31,06,133,16*42
$GPRMC,041057.000,V,,,,,,,310517,,,N*4B
$GPVTG,,,,,,,,,N*30
$GPZDA,041057.000,31,05,2017,00,00*52
$GPTXT,01,01,01,ANTENNA OK*35
$GPGGA,041058.000,,,,,0,00,25.5,,,,,,*6C
$GPGLL,,,,,041058.000,V,N*72
$GPGSA,A,1,,,,,,,,,,,,,25.5,25.5,25.5*02
$GPGSV,3,1,09,03,,,21,07,25,319,,08,70,243,32,09,33,278,*46
$GPGSV,3,2,09,11,23,195,17,16,41,047,,22,00,187,28,23,38,236,27*76
$GPGSV,3,3,09,31,06,133,16*42
$GPRMC,041058.000,V,,,,,,,310517,,,N*44
$GPVTG,,,,,,,,,N*30
$GPZDA,041058.000,31,05,2017,00,00*5D
$GPTXT,01,01,01,ANTENNA OK*35
$GPGGA,041059.000,,,,,0,00,25.5,,,,,,*6D
$GPGLL,,,,,041059.000,V,N*73
$GPGSA,A,1,,,,,,,,,,,,,25.5,25.5,25.5*02
$GPGSV,3,1,09,03,,,25,07,25,319,,08,70,243,32,09,33,278,*42
$GPGSV,3,2,09,11,23,195,21,16,41,047,,22,00,187,28,23,38,236,27*73
$GPGSV,3,3,09,31,06,133,16*42
$GPRMC,041059.000,V,,,,,,,310517,,,N*45
$GPVTG,,,,,,,,,N*30
$GPZDA,041059.000,31,05,2017,00,00*5C
$GPTXT,01,01,01,ANTENNA OK*35
$GPGGA,041100.000,,,,,0,00,25.5,,,,,,*60
$GPGLL,,,,,041100.000,V,N*7E
$GPGSA,A,1,,,,,,,,,,,,,25.5,25.5,25.5*02
$GPGSV,3,1,09,03,,,25,07,25,319,,08,70,243,32,09,33,278,*42
$GPGSV,3,2,09,11,23,195,21,16,41,047,,22,00,187,27,23,38,236,28*73
$GPGSV,3,3,09,31,06,133,16*42
$GPRMC,041100.000,V,,,,,,,310517,,,N*48
$GPVTG,,,,,,,,,N*30
$GPZDA,041100.000,31,05,2017,00,00*51
$GPTXT,01,01,01,ANTENNA OK*35
$GPGGA,041101.000,,,,,0,00,25.5,,,,,,*61
$GPGLL,,,,,041101.000,V,N*7F
$GPGSA,A,1,,,,,,,,,,,,,25.5,25.5,25.5*02
$GPGSV,3,1,09,03,,,25,07,25,319,,08,70,243,32,09,33,278,*42
$GPGSV,3,2,09,11,23,195,21,16,41,047,,22,00,187,27,23,38,236,28*73
$GPGSV,3,3,09,31,06,133,16*42
$GPRMC,041101.000,V,,,,,,,310517,,,N*49
$GPVTG,,,,,,,,,N*30
$GPZDA,041101.000,31,05,2017,00,00*50
$GPTXT,01,01,01,ANTENNA OK*35
$GPGGA,041102.000,,,,,0,00,25.5,,,,,,*62
$GPGLL,,,,,041102.000,V,N*7C
$GPGSA,A,1,,,,,,,,,,,,,25.5,25.5,25.5*02
$GPGSV,3,1,09,03,,,25,07,25,319,,08,70,243,32,09,33,278,*42
$GPGSV,3,2,09,11,23,195,21,16,41,047,,22,00,187,27,23,38,236,28*73
$GPGSV,3,3,09,31,06,133,16*42
$GPRMC,041102.000,V,,,,,,,310517,,,N*4A
$GPVTG,,,,,,,,,N*30
$GPZDA,041102.000,31,05,2017,00,00*53
$GPTXT,01,01,01,ANTENNA OK*35
$GPGGA,041103.000,,,,,0,00,25.5,,,,,,*63
$GPGLL,,,,,041103.000,V,N*7D
$GPGSA,A,1,,,,,,,,,,,,,25.5,25.5,25.5*02
$GPGSV,3,1,09,03,,,25,07,25,319,,08,70,243,32,09,33,278,*42
$GPGSV,3,2,09,11,23,195,21,16,41,047,,22,00,187,27,23,38,236,28*73
$GPGSV,3,3,09,31,06,133,16*42
$GPRMC,041103.000,V,,,,,,,310517,,,N*4B
$GPVTG,,,,,,,,,N*30
$GPZDA,041103.000,31,05,2017,00,00*52
$GPTXT,01,01,01,ANTENNA OK*35
$GPGGA,041104.000,,,,,0,00,25.5,,,,,,*64
$GPGLL,,,,,041104.000,V,N*7A
$GPGSA,A,1,,,,,,,,,,,,,25.5,25.5,25.5*02
$GPGSV,3,1,09,03,,,23,07,25,319,,08,70,243,32,09,33,278,*44
$GPGSV,3,2,09,11,23,195,21,16,41,047,,22,00,187,27,23,38,236,28*73
$GPGSV,3,3,09,31,06,133,14*40
$GPRMC,041104.000,V,,,,,,,310517,,,N*4C
$GPVTG,,,,,,,,,N*30
$GPZDA,041104.000,31,05,2017,00,00*55
$GPTXT,01,01,01,ANTENNA OK*35
$GPGGA,041105.000,,,,,0,00,25.5,,,,,,*65
$GPGLL,,,,,041105.000,V,N*7B
$GPGSA,A,1,,,,,,,,,,,,,25.5,25.5,25.5*02
$GPGSV,3,1,09,03,,,23,07,25,319,,08,70,243,32,09,33,278,*44
$GPGSV,3,2,09,11,23,195,21,16,41,047,,22,00,187,27,23,38,236,28*73
$GPGSV,3,3,09,31,06,133,14*40
$GPRMC,041105.000,V,,,,,,,310517,,,N*4D
$GPVTG,,,,,,,,,N*30
$GPZDA,041105.000,31,05,2017,00,00*54
$GPTXT,01,01,01,ANTENNA OK*35
$GPGGA,041106.000,,,,,0,00,25.5,,,,,,*66
$GPGLL,,,,,041106.000,V,N*78
$GPGSA,A,1,,,,,,,,,,,,,25.5,25.5,25.5*02
$GPGSV,3,1,09,03,,,23,07,25,319,,08,70,243,35,09,33,278,*43
$GPGSV,3,2,09,11,23,195,21,16,41,047,,22,00,187,27,23,38,236,28*73
$GPGSV,3,3,09,31,06,133,14*40
$GPRMC,041106.000,V,,,,,,,310517,,,N*4E
$GPVTG,,,,,,,,,N*30
$GPZDA,041106.000,31,05,2017,00,00*57
$GPTXT,01,01,01,ANTENNA OK*35
$GPGGA,041107.000,,,,,0,00,25.5,,,,,,*67
$GPGLL,,,,,041107.000,V,N*79
$GPGSA,A,1,,,,,,,,,,,,,25.5,25.5,25.5*02
$GPGSV,3,1,09,03,,,23,07,25,319,,08,70,243,32,09,33,278,*44
$GPGSV,3,2,09,11,23,195,19,16,41,047,,22,00,187,27,23,38,236,28*78
$GPGSV,3,3,09,31,06,133,14*40
$GPRMC,041107.000,V,,,,,,,310517,,,N*4F
$GPVTG,,,,,,,,,N*30
$GPZDA,041107.000,31,05,2017,00,00*56
$GPTXT,01,01,01,ANTENNA OK*35
$GPGGA,041108.000,,,,,0,00,25.5,,,,,,*68
$GPGLL,,,,,041108.000,V,N*76
$GPGSA,A,1,,,,,,,,,,,,,25.5,25.5,25.5*02
$GPGSV,3,1,09,03,,,23,07,25,319,,08,70,243,32,09,33,278,*44
$GPGSV,3,2,09,11,23,195,19,16,41,047,,22,00,187,27,23,38,236,28*78
$GPGSV,3,3,09,31,06,133,14*40
$GPRMC,041108.000,V,,,,,,,310517,,,N*40
$GPVTG,,,,,,,,,N*30
$GPZDA,041108.000,31,05,2017,00,00*59
$GPTXT,01,01,01,ANTENNA OK*35
$GPGGA,041109.000,,,,,0,00,25.5,,,,,,*69
$GPGLL,,,,,041109.000,V,N*77
$GPGSA,A,1,,,,,,,,,,,,,25.5,25.5,25.5*02
$GPGSV,3,1,09,03,,,20,07,25,319,,08,70,243,32,09,33,278,*47
$GPGSV,3,2,09,11,23,195,19,16,41,047,,22,00,187,27,23,38,236,28*78
$GPGSV,3,3,09,31,06,133,14*40
$GPRMC,041109.000,V,,,,,,,310517,,,N*41
$GPVTG,,,,,,,,,N*30
$GPZDA,041109.000,31,05,2017,00,00*58
$GPTXT,01,01,01,ANTENNA OK*35
$GPGGA,041110.000,,,,,0,00,25.5,,,,,,*61
$GPGLL,,,,,041110.000,V,N*7F
$GPGSA,A,1,,,,,,,,,,,,,25.5,25.5,25.5*02
$GPGSV,3,1,09,03,,,20,07,25,319,,08,70,243,32,09,33,278,*47
$GPGSV,3,2,09,11,23,195,19,16,41,047,,22,00,187,27,23,38,236,29*79
$GPGSV,3,3,09,31,06,133,14*40
$GPRMC,041110.000,V,,,,,,,310517,,,N*49
$GPVTG,,,,,,,,,N*30
$GPZDA,041110.000,31,05,2017,00,00*50
$GPTXT,01,01,01,ANTENNA OK*35
$GPGGA,041111.000,,,,,0,00,25.5,,,,,,*60
$GPGLL,,,,,041111.000,V,N*7E
$GPGSA,A,1,,,,,,,,,,,,,25.5,25.5,25.5*02
$GPGSV,3,1,09,03,,,20,07,25,319,,08,70,243,32,09,33,278,*47
$GPGSV,3,2,09,11,23,195,11,16,41,047,,22,00,187,27,23,38,236,29*71
$GPGSV,3,3,09,31,06,133,14*40
$GPRMC,041111.000,V,,,,,,,310517,,,N*48
$GPVTG,,,,,,,,,N*30
$GPZDA,041111.000,31,05,2017,00,00*51
$GPTXT,01,01,01,ANTENNA OK*35
$GPGGA,041112.000,,,,,0,00,25.5,,,,,,*63
$GPGLL,,,,,041112.000,V,N*7D
$GPGSA,A,1,,,,,,,,,,,,,25.5,25.5,25.5*02
$GPGSV,3,1,09,03,,,20,07,25,319,,08,70,243,32,09,33,278,*47
$GPGSV,3,2,09,11,23,195,11,16,41,047,,22,00,187,27,23,38,236,29*71
$GPGSV,3,3,09,31,06,133,14*40
$GPRMC,041112.000,V,,,,,,,310517,,,N*4B
$GPVTG,,,,,,,,,N*30
$GPZDA,041112.000,31,05,2017,00,00*52
$GPTXT,01,01,01,ANTENNA OK*35
$GPGGA,041113.000,,,,,0,00,25.5,,,,,,*62
$GPGLL,,,,,041113.000,V,N*7C
$GPGSA,A,1,,,,,,,,,,,,,25.5,25.5,25.5*02
$GPGSV,3,1,09,03,,,20,07,25,319,,08,70,243,32,09,33,278,*47
$GPGSV,3,2,09,11,23,195,11,16,41,047,,22,00,187,26,23,38,236,29*70
$GPGSV,3,3,09,31,06,133,14*40
$GPRMC,041113.000,V,,,,,,,310517,,,N*4A
$GPVTG,,,,,,,,,N*30
$GPZDA,041113.000,31,05,2017,00,00*53
$GPTXT,01,01,01,ANTENNA OK*35
$GPGGA,041113.000,,,,,0,00,25.5,,,,,,*62
$GPGLL,,,,,041113.000,V,N*7C
$GPGSA,A,1,,,,,,,,,,,,,25.5,25.5,25.5*02
$GPGSV,3,1,09,03,,,20,07,25,319,,08,70,243,33,09,33,278,*46
$GPGSV,3,2,09,11,23,195,11,16,41,047,,22,00,187,26,23,38,236,29*70
$GPGSV,3,3,09,31,06,133,14*40
$GPRMC,041113.000,V,,,,,,,310517,,,N*4A
$GPVTG,,,,,,,,,N*30
$GPZDA,041113.000,31,05,2017,00,00*53
$GPTXT,01,01,01,ANTENNA OK*35
$GPGGA,041114.000,,,,,0,00,25.5,,,,,,*65
$GPGLL,,,,,041114.000,V,N*7B
$GPGSA,A,1,,,,,,,,,,,,,25.5,25.5,25.5*02
$GPGSV,3,1,09,03,,,20,07,25,319,,08,70,243,35,09,33,278,*40
$GPGSV,3,2,09,11,23,195,11,16,41,047,,22,00,187,26,23,38,236,29*70
$GPGSV,3,3,09,31,06,133,14*40
$GPRMC,041114.000,V,,,,,,,310517,,,N*4D
$GPVTG,,,,,,,,,N*30
$GPZDA,041114.000,31,05,2017,00,00*54
$GPTXT,01,01,01,ANTENNA OK*35
$GPGGA,041115.000,,,,,0,00,25.5,,,,,,*64
$GPGLL,,,,,041115.000,V,N*7A
$GPGSA,A,1,,,,,,,,,,,,,25.5,25.5,25.5*02
$GPGSV,3,1,09,03,,,20,07,26,319,,08,70,243,35,09,33,278,*43
$GPGSV,3,2,09,11,23,195,11,16,41,047,,22,00,187,26,23,38,236,29*70
$GPGSV,3,3,09,31,06,133,14*40
$GPRMC,041115.000,V,,,,,,,310517,,,N*4C
$GPVTG,,,,,,,,,N*30
$GPZDA,041115.000,31,05,2017,00,00*55
$GPTXT,01,01,01,ANTENNA OK*35
$GPGGA,041116.000,,,,,0,00,25.5,,,,,,*67
$GPGLL,,,,,041116.000,V,N*79
$GPGSA,A,1,,,,,,,,,,,,,25.5,25.5,25.5*02
$GPGSV,3,1,09,03,,,20,07,26,319,,08,70,243,35,09,33,278,*43
$GPGSV,3,2,09,11,23,195,11,16,41,047,,22,00,187,26,23,38,236,29*70
$GPGSV,3,3,09,31,06,133,14*40
$GPRMC,041116.000,V,,,,,,,310517,,,N*4F
$GPVTG,,,,,,,,,N*30
$GPZDA,041116.000,31,05,2017,00,00*56
$GPTXT,01,01,01,ANTENNA OK*35
$GPGGA,041117.000,,,,,0,00,25.5,,,,,,*66
$GPGLL,,,,,041117.000,V,N*78
$GPGSA,A,1,,,,,,,,,,,,,25.5,25.5,25.5*02
$GPGSV,3,1,09,03,,,20,07,26,319,,08,70,243,35,09,33,278,*43
$GPGSV,3,2,09,11,23,195,11,16,41,047,,22,00,187,26,23,38,236,29*70
$GPGSV,3,3,09,31,06,133,14*40
$GPRMC,041117.000,V,,,,,,,310517,,,N*4E
$GPVTG,,,,,,,,,N*30
$GPZDA,041117.000,31,05,2017,00,00*57
$GPTXT,01,01,01,ANTENNA OK*35
$GPGGA,041118.000,,,,,0,00,25.5,,,,,,*69
$GPGLL,,,,,041118.000,V,N*77
$GPGSA,A,1,,,,,,,,,,,,,25.5,25.5,25.5*02
$GPGSV,3,1,09,03,,,20,07,26,319,,08,70,243,34,09,33,278,*42
$GPGSV,3,2,09,11,23,195,11,16,41,047,,22,00,187,26,23,38,236,29*70
$GPGSV,3,3,09,31,06,133,14*40
$GPRMC,041118.000,V,,,,,,,310517,,,N*41
$GPVTG,,,,,,,,,N*30
$GPZDA,041118.000,31,05,2017,00,00*58
$GPTXT,01,01,01,ANTENNA OK*35
$GPGGA,041119.000,,,,,0,00,25.5,,,,,,*68
$GPGLL,,,,,041119.000,V,N*76
$GPGSA,A,1,,,,,,,,,,,,,25.5,25.5,25.5*02
$GPGSV,3,1,09,03,,,20,07,26,319,,08,70,243,34,09,33,278,*42
$GPGSV,3,2,09,11,23,195,11,16,41,047,,22,00,187,26,23,38,236,29*70
$GPGSV,3,3,09,31,06,133,14*40
$GPRMC,041119.000,V,,,,,,,310517,,,N*40
$GPVTG,,,,,,,,,N*30
$GPZDA,041119.000,31,05,2017,00,00*59
$GPTXT,01,01,01,ANTENNA OK*35
$GPGGA,041120.000,,,,,0,00,25.5,,,,,,*62
$GPGLL,,,,,041120.000,V,N*7C
$GPGSA,A,1,,,,,,,,,,,,,25.5,25.5,25.5*02
$GPGSV,3,1,09,03,,,20,07,26,319,,08,70,243,34,09,33,278,*42
$GPGSV,3,2,09,11,23,195,11,16,41,047,,22,00,187,26,23,38,236,30*78
$GPGSV,3,3,09,31,06,133,14*40
$GPRMC,041120.000,V,,,,,,,310517,,,N*4A
$GPVTG,,,,,,,,,N*30
$GPZDA,041120.000,31,05,2017,00,00*53
$GPTXT,01,01,01,ANTENNA OK*35
$GPGGA,041121.000,,,,,0,00,25.5,,,,,,*63
$GPGLL,,,,,041121.000,V,N*7D
$GPGSA,A,1,,,,,,,,,,,,,25.5,25.5,25.5*02
$GPGSV,3,1,09,03,,,20,07,26,319,,08,70,243,34,09,33,278,*42
$GPGSV,3,2,09,11,23,195,11,16,41,047,,22,00,187,26,23,38,236,30*78
$GPGSV,3,3,09,31,06,133,14*40
$GPRMC,041121.000,V,,,,,,,310517,,,N*4B
$GPVTG,,,,,,,,,N*30
$GPZDA,041121.000,31,05,2017,00,00*52
$GPTXT,01,01,01,ANTENNA OK*35
$GPGGA,041122.000,,,,,0,00,25.5,,,,,,*60
$GPGLL,,,,,041122.000,V,N*7E
$GPGSA,A,1,,,,,,,,,,,,,25.5,25.5,25.5*02
$GPGSV,3,1,09,03,,,20,07,26,319,,08,70,243,34,09,33,278,*42
$GPGSV,3,2,09,11,23,195,11,16,41,047,,22,00,187,26,23,38,236,30*78
$GPGSV,3,3,09,31,06,133,14*40
$GPRMC,041122.000,V,,,,,,,310517,,,N*48
$GPVTG,,,,,,,,,N*30
$GPZDA,041122.000,31,05,2017,00,00*51
$GPTXT,01,01,01,ANTENNA OK*35
$GPGGA,041123.000,,,,,0,00,25.5,,,,,,*61
$GPGLL,,,,,041123.000,V,N*7F
$GPGSA,A,1,,,,,,,,,,,,,25.5,25.5,25.5*02
$GPGSV,3,1,09,03,,,21,07,26,319,,08,70,243,34,09,33,278,*43
$GPGSV,3,2,09,11,23,195,11,16,41,047,,22,00,187,26,23,38,236,30*78
$GPGSV,3,3,09,31,06,133,14*40
$GPRMC,041123.000,V,,,,,,,310517,,,N*49
$GPVTG,,,,,,,,,N*30
$GPZDA,041123.000,31,05,2017,00,00*50
$GPTXT,01,01,01,ANTENNA OK*35
$GPGGA,041124.000,,,,,0,00,25.5,,,,,,*66
$GPGLL,,,,,041124.000,V,N*78
$GPGSA,A,1,,,,,,,,,,,,,25.5,25.5,25.5*02
$GPGSV,3,1,09,03,,,21,07,26,319,,08,70,243,34,09,33,278,*43
$GPGSV,3,2,09,11,23,195,11,16,41,047,,22,00,187,24,23,38,236,30*7A
$GPGSV,3,3,09,31,06,133,14*40
$GPRMC,041124.000,V,,,,,,,310517,,,N*4E
$GPVTG,,,,,,,,,N*30
$GPZDA,041124.000,31,05,2017,00,00*57
$GPTXT,01,01,01,ANTENNA OK*35
$GPGGA,041125.000,,,,,0,00,25.5,,,,,,*67
$GPGLL,,,,,041125.000,V,N*79
$GPGSA,A,1,,,,,,,,,,,,,25.5,25.5,25.5*02
$GPGSV,3,1,09,03,,,21,07,26,319,,08,70,243,34,09,33,278,*43
$GPGSV,3,2,09,11,23,195,11,16,41,047,,22,00,187,24,23,37,236,30*75
$GPGSV,3,3,09,31,06,133,12*46
$GPRMC,041125.000,V,,,,,,,310517,,,N*4F
$GPVTG,,,,,,,,,N*30
$GPZDA,041125.000,31,05,2017,00,00*56
$GPTXT,01,01,01,ANTENNA OK*35
$GPGGA,041126.000,,,,,0,00,25.5,,,,,,*64
$GPGLL,,,,,041126.000,V,N*7A
$GPGSA,A,1,,,,,,,,,,,,,25.5,25.5,25.5*02
$GPGSV,3,1,09,03,,,21,07,26,319,,08,70,243,33,09,33,278,*44
$GPGSV,3,2,09,11,23,195,11,16,41,047,,22,00,187,24,23,37,236,30*75
$GPGSV,3,3,09,31,06,133,12*46
$GPRMC,041126.000,V,,,,,,,310517,,,N*4C
$GPVTG,,,,,,,,,N*30
$GPZDA,041126.000,31,05,2017,00,00*55
$GPTXT,01,01,01,ANTENNA OK*35
$GPGGA,041127.000,,,,,0,00,25.5,,,,,,*65
$GPGLL,,,,,041127.000,V,N*7B
$GPGSA,A,1,,,,,,,,,,,,,25.5,25.5,25.5*02
$GPGSV,3,1,09,03,,,21,07,26,319,,08,70,243,33,09,33,278,*44
$GPGSV,3,2,09,11,23,195,11,16,41,047,,22,00,187,24,23,37,236,30*75
$GPGSV,3,3,09,31,06,133,12*46
$GPRMC,041127.000,V,,,,,,,310517,,,N*4D
$GPVTG,,,,,,,,,N*30
$GPZDA,041127.000,31,05,2017,00,00*54
$GPTXT,01,01,01,ANTENNA OK*35
$GPGGA,041128.000,,,,,0,00,25.5,,,,,,*6A
$GPGLL,,,,,041128.000,V,N*74
$GPGSA,A,1,,,,,,,,,,,,,25.5,25.5,25.5*02
$GPGSV,3,1,09,03,,,21,07,26,319,,08,70,243,33,09,33,278,*44
$GPGSV,3,2,09,11,23,195,11,16,41,047,,22,00,187,26,23,37,236,30*77
$GPGSV,3,3,09,31,06,133,12*46
$GPRMC,041128.000,V,,,,,,,310517,,,N*42
$GPVTG,,,,,,,,,N*30
$GPZDA,041128.000,31,05,2017,00,00*5B
$GPTXT,01,01,01,ANTENNA OK*35
$GPGGA,041129.000,,,,,0,00,25.5,,,,,,*6B
$GPGLL,,,,,041129.000,V,N*75
$GPGSA,A,1,,,,,,,,,,,,,25.5,25.5,25.5*02
$GPGSV,3,1,09,03,,,21,07,26,319,,08,70,243,33,09,33,278,*44
$GPGSV,3,2,09,11,23,195,11,16,41,047,,22,00,187,26,23,37,236,30*77
$GPGSV,3,3,09,31,06,133,12*46
$GPRMC,041129.000,V,,,,,,,310517,,,N*43
$GPVTG,,,,,,,,,N*30
$GPZDA,041129.000,31,05,2017,00,00*5A
$GPTXT,01,01,01,ANTENNA OK*35
$GPGGA,041130.000,,,,,0,00,25.5,,,,,,*63
$GPGLL,,,,,041130.000,V,N*7D
$GPGSA,A,1,,,,,,,,,,,,,25.5,25.5,25.5*02
$GPGSV,3,1,09,03,,,21,07,26,319,,08,70,243,33,09,33,278,*44
$GPGSV,3,2,09,11,23,195,11,16,41,047,,22,00,187,26,23,37,236,30*77
$GPGSV,3,3,09,31,06,133,12*46
$GPRMC,041130.000,V,,,,,,,310517,,,N*4B
$GPVTG,,,,,,,,,N*30
$GPZDA,041130.000,31,05,2017,00,00*52
$GPTXT,01,01,01,ANTENNA OK*35
$GPGGA,041131.000,,,,,0,00,25.5,,,,,,*62
$GPGLL,,,,,041131.000,V,N*7C
$GPGSA,A,1,,,,,,,,,,,,,25.5,25.5,25.5*02
$GPGSV,3,1,09,03,,,21,07,26,319,,08,70,243,33,09,33,277,*4B
$GPGSV,3,2,09,11,23,195,11,16,41,047,,22,00,187,26,23,37,236,30*77
$GPGSV,3,3,09,31,06,133,12*46
$GPRMC,041131.000,V,,,,,,,310517,,,N*4A
$GPVTG,,,,,,,,,N*30
$GPZDA,041131.000,31,05,2017,00,00*53
$GPTXT,01,01,01,ANTENNA OK*35
$GPGGA,041132.000,,,,,0,00,25.5,,,,,,*61
$GPGLL,,,,,041132.000,V,N*7F
$GPGSA,A,1,,,,,,,,,,,,,25.5,25.5,25.5*02
$GPGSV,3,1,09,03,,,21,07,26,319,,08,70,243,33,09,33,277,*4B
$GPGSV,3,2,09,11,23,195,11,16,41,047,,22,00,187,26,23,37,236,30*77
$GPGSV,3,3,09,31,06,133,12*46
$GPRMC,041132.000,V,,,,,,,310517,,,N*49
$GPVTG,,,,,,,,,N*30
$GPZDA,041132.000,31,05,2017,00,00*50
$GPTXT,01,01,01,ANTENNA OK*35
$GPGGA,041133.000,,,,,0,00,25.5,,,,,,*60
$GPGLL,,,,,041133.000,V,N*7E
$GPGSA,A,1,,,,,,,,,,,,,25.5,25.5,25.5*02
$GPGSV,3,1,09,03,,,21,07,26,319,,08,70,243,33,09,33,277,*4B
$GPGSV,3,2,09,11,23,195,11,16,41,047,,22,00,187,26,23,37,236,30*77
$GPGSV,3,3,09,31,06,133,12*46
$GPRMC,041133.000,V,,,,,,,310517,,,N*48
$GPVTG,,,,,,,,,N*30
$GPZDA,041133.000,31,05,2017,00,00*51
$GPTXT,01,01,01,ANTENNA OK*35
$GPGGA,041134.000,,,,,0,00,25.5,,,,,,*67
$GPGLL,,,,,041134.000,V,N*79
$GPGSA,A,1,,,,,,,,,,,,,25.5,25.5,25.5*02
$GPGSV,3,1,09,03,,,21,07,26,319,,08,70,243,33,09,33,277,*4B
$GPGSV,3,2,09,11,23,195,12,16,41,047,,22,00,187,26,23,37,236,29*7C
$GPGSV,3,3,09,31,06,133,12*46
$GPRMC,041134.000,V,,,,,,,310517,,,N*4F
$GPVTG,,,,,,,,,N*30
$GPZDA,041134.000,31,05,2017,00,00*56
$GPTXT,01,01,01,ANTENNA OK*35
$GPGGA,041135.000,,,,,0,00,25.5,,,,,,*66
$GPGLL,,,,,041135.000,V,N*78
$GPGSA,A,1,,,,,,,,,,,,,25.5,25.5,25.5*02
$GPGSV,3,1,09,03,,,22,07,26,319,,08,70,243,33,09,33,277,*48
$GPGSV,3,2,09,11,23,195,12,16,41,047,,22,00,187,26,23,37,236,29*7C
$GPGSV,3,3,09,31,06,133,12*46
$GPRMC,041135.000,V,,,,,,,310517,,,N*4E
$GPVTG,,,,,,,,,N*30
$GPZDA,041135.000,31,05,2017,00,00*57
$GPTXT,01,01,01,ANTENNA OK*35
$GPGGA,041136.000,,,,,0,00,25.5,,,,,,*65
$GPGLL,,,,,041136.000,V,N*7B
$GPGSA,A,1,,,,,,,,,,,,,25.5,25.5,25.5*02
$GPGSV,3,1,09,03,,,22,07,26,319,,08,70,243,33,09,33,277,*48
$GPGSV,3,2,09,11,23,195,12,16,41,047,,22,00,187,29,23,37,236,29*73
$GPGSV,3,3,09,31,06,133,12*46
$GPRMC,041136.000,V,,,,,,,310517,,,N*4D
$GPVTG,,,,,,,,,N*30
$GPZDA,041136.000,31,05,2017,00,00*54
$GPTXT,01,01,01,ANTENNA OK*35
$GPGGA,041137.000,,,,,0,00,25.5,,,,,,*64
$GPGLL,,,,,041137.000,V,N*7A
$GPGSA,A,1,,,,,,,,,,,,,25.5,25.5,25.5*02
$GPGSV,3,1,09,03,,,22,07,26,319,,08,70,243,33,09,33,277,*48
$GPGSV,3,2,09,11,23,195,12,16,41,047,,22,00,187,29,23,37,236,29*73
$GPGSV,3,3,09,31,06,133,12*46
$GPRMC,041137.000,V,,,,,,,310517,,,N*4C
$GPVTG,,,,,,,,,N*30
$GPZDA,041137.000,31,05,2017,00,00*55
$GPTXT,01,01,01,ANTENNA OK*35
$GPGGA,041138.000,,,,,0,00,25.5,,,,,,*6B
$GPGLL,,,,,041138.000,V,N*75
$GPGSA,A,1,,,,,,,,,,,,,25.5,25.5,25.5*02
$GPGSV,3,1,09,03,,,22,07,26,319,,08,70,243,33,09,33,277,*48
$GPGSV,3,2,09,11,23,195,12,16,41,047,,22,00,187,29,23,37,236,29*73
$GPGSV,3,3,09,31,06,133,12*46
$GPRMC,041138.000,V,,,,,,,310517,,,N*43
$GPVTG,,,,,,,,,N*30
$GPZDA,041138.000,31,05,2017,00,00*5A
$GPTXT,01,01,01,ANTENNA OK*35
$GPGGA,041139.000,,,,,0,00,25.5,,,,,,*6A
$GPGLL,,,,,041139.000,V,N*74
$GPGSA,A,1,,,,,,,,,,,,,25.5,25.5,25.5*02
$GPGSV,3,1,09,03,,,24,07,26,319,,08,70,243,33,09,33,277,*4E
$GPGSV,3,2,09,11,23,195,12,16,41,047,,22,00,187,29,23,37,236,29*73
$GPGSV,3,3,09,31,06,133,14*40
$GPRMC,041139.000,V,,,,,,,310517,,,N*42
$GPVTG,,,,,,,,,N*30
$GPZDA,041139.000,31,05,2017,00,00*5B
$GPTXT,01,01,01,ANTENNA OK*35
$GPGGA,041140.000,,,,,0,00,25.5,,,,,,*64
$GPGLL,,,,,041140.000,V,N*7A
$GPGSA,A,1,,,,,,,,,,,,,25.5,25.5,25.5*02
$GPGSV,3,1,09,03,,,24,07,26,319,,08,70,243,33,09,33,277,*4E
$GPGSV,3,2,09,11,23,195,12,16,41,047,,22,00,187,29,23,37,236,29*73
$GPGSV,3,3,09,31,06,133,14*40
$GPRMC,041140.000,V,,,,,,,310517,,,N*4C
$GPVTG,,,,,,,,,N*30
$GPZDA,041140.000,31,05,2017,00,00*55
$GPTXT,01,01,01,ANTENNA OK*35
$GPGGA,041141.000,,,,,0,00,25.5,,,,,,*65
$GPGLL,,,,,041141.000,V,N*7B
$GPGSA,A,1,,,,,,,,,,,,,25.5,25.5,25.5*02
$GPGSV,3,1,09,03,,,24,07,26,319,,08,70,243,32,09,33,277,*4F
$GPGSV,3,2,09,11,23,195,12,16,41,047,,22,00,187,29,23,37,236,29*73
$GPGSV,3,3,09,31,06,133,14*40
$GPRMC,041141.000,V,,,,,,,310517,,,N*4D
$GPVTG,,,,,,,,,N*30
$GPZDA,041141.000,31,05,2017,00,00*54
$GPTXT,01,01,01,ANTENNA OK*35
$GPGGA,041142.000,,,,,0,00,25.5,,,,,,*66
$GPGLL,,,,,041142.000,V,N*78
$GPGSA,A,1,,,,,,,,,,,,,25.5,25.5,25.5*02
$GPGSV,3,1,09,03,,,24,07,26,319,,08,70,243,32,09,33,277,*4F
$GPGSV,3,2,09,11,23,195,12,16,41,047,,22,00,187,28,23,37,236,29*72
$GPGSV,3,3,09,31,06,133,19*4D
$GPRMC,041142.000,V,,,,,,,310517,,,N*4E
$GPVTG,,,,,,,,,N*30
$GPZDA,041142.000,31,05,2017,00,00*57
$GPTXT,01,01,01,ANTENNA OK*35
$GPGGA,041143.000,,,,,0,00,25.5,,,,,,*67
$GPGLL,,,,,041143.000,V,N*79
$GPGSA,A,1,,,,,,,,,,,,,25.5,25.5,25.5*02
$GPGSV,3,1,09,03,,,24,07,26,319,,08,70,243,32,09,33,277,*4F
$GPGSV,3,2,09,11,23,195,15,16,41,047,,22,00,187,28,23,37,236,29*75
$GPGSV,3,3,09,31,06,133,19*4D
$GPRMC,041143.000,V,,,,,,,310517,,,N*4F
$GPVTG,,,,,,,,,N*30
$GPZDA,041143.000,31,05,2017,00,00*56
$GPTXT,01,01,01,ANTENNA OK*35
$GPGGA,041144.000,,,,,0,00,25.5,,,,,,*60
$GPGLL,,,,,041144.000,V,N*7E
$GPGSA,A,1,,,,,,,,,,,,,25.5,25.5,25.5*02
$GPGSV,3,1,09,03,,,24,07,26,319,,08,70,243,33,09,33,277,*4E
$GPGSV,3,2,09,11,23,195,15,16,41,047,,22,00,187,28,23,37,236,30*7D
$GPGSV,3,3,09,31,06,133,19*4D
$GPRMC,041144.000,V,,,,,,,310517,,,N*48
$GPVTG,,,,,,,,,N*30
$GPZDA,041144.000,31,05,2017,00,00*51
$GPTXT,01,01,01,ANTENNA OK*35
$GPGGA,041145.000,,,,,0,00,25.5,,,,,,*61
$GPGLL,,,,,041145.000,V,N*7F
$GPGSA,A,1,,,,,,,,,,,,,25.5,25.5,25.5*02
$GPGSV,3,1,09,03,,,26,07,26,319,,08,70,243,33,09,33,277,*4C
$GPGSV,3,2,09,11,23,195,15,16,41,047,,22,00,187,28,23,37,236,30*7D
$GPGSV,3,3,09,31,06,133,19*4D
$GPRMC,041145.000,V,,,,,,,310517,,,N*49
$GPVTG,,,,,,,,,N*30
$GPZDA,041145.000,31,05,2017,00,00*50
$GPTXT,01,01,01,ANTENNA OK*35
$GPGGA,041146.000,,,,,0,00,25.5,,,,,,*62
$GPGLL,,,,,041146.000,V,N*7C
$GPGSA,A,1,,,,,,,,,,,,,25.5,25.5,25.5*02
$GPGSV,3,1,09,03,,,26,07,26,319,,08,70,243,33,09,33,277,*4C
$GPGSV,3,2,09,11,23,195,20,16,41,047,,22,00,187,28,23,37,236,28*72
$GPGSV,3,3,09,31,06,133,19*4D
$GPRMC,041146.000,V,,,,,,,310517,,,N*4A
$GPVTG,,,,,,,,,N*30
$GPZDA,041146.000,31,05,2017,00,00*53
$GPTXT,01,01,01,ANTENNA OK*35
$GPGGA,041147.000,,,,,0,00,25.5,,,,,,*63
$GPGLL,,,,,041147.000,V,N*7D
$GPGSA,A,1,,,,,,,,,,,,,25.5,25.5,25.5*02
$GPGSV,3,1,09,03,,,28,07,26,319,,08,70,243,33,09,33,277,*42
$GPGSV,3,2,09,11,23,195,20,16,41,047,,22,00,187,28,23,37,236,28*72
$GPGSV,3,3,09,31,06,133,19*4D
$GPRMC,041147.000,V,,,,,,,310517,,,N*4B
$GPVTG,,,,,,,,,N*30
$GPZDA,041147.000,31,05,2017,00,00*52
$GPTXT,01,01,01,ANTENNA OK*35
$GPGGA,041148.000,,,,,0,00,25.5,,,,,,*6C
$GPGLL,,,,,041148.000,V,N*72
$GPGSA,A,1,,,,,,,,,,,,,25.5,25.5,25.5*02
$GPGSV,3,1,09,03,,,28,07,26,319,,08,70,244,33,09,33,277,*45
$GPGSV,3,2,09,11,23,195,20,16,41,047,,22,00,187,28,23,37,236,28*72
$GPGSV,3,3,09,31,06,133,19*4D
$GPRMC,041148.000,V,,,,,,,310517,,,N*44
$GPVTG,,,,,,,,,N*30
$GPZDA,041148.000,31,05,2017,00,00*5D
$GPTXT,01,01,01,ANTENNA OK*35
$GPGGA,041149.000,,,,,0,00,25.5,,,,,,*6D
$GPGLL,,,,,041149.000,V,N*73
$GPGSA,A,1,,,,,,,,,,,,,25.5,25.5,25.5*02
$GPGSV,3,1,09,03,,,28,07,26,319,,08,70,244,33,09,33,277,*45
$GPGSV,3,2,09,11,23,195,20,16,41,047,,22,00,187,28,23,37,236,28*72
$GPGSV,3,3,09,31,06,133,15*41
$GPRMC,041149.000,V,,,,,,,310517,,,N*45
$GPVTG,,,,,,,,,N*30
$GPZDA,041149.000,31,05,2017,00,00*5C
$GPTXT,01,01,01,ANTENNA OK*35
$GPGGA,041150.000,,,,,0,00,25.5,,,,,,*65
$GPGLL,,,,,041150.000,V,N*7B
$GPGSA,A,1,,,,,,,,,,,,,25.5,25.5,25.5*02
$GPGSV,3,1,09,03,,,25,07,26,319,,08,70,244,30,09,33,277,*4B
$GPGSV,3,2,09,11,23,195,20,16,41,047,,22,00,187,28,23,37,236,27*7D
$GPGSV,3,3,09,31,06,133,15*41
$GPRMC,041150.000,V,,,,,,,310517,,,N*4D
$GPVTG,,,,,,,,,N*30
$GPZDA,041150.000,31,05,2017,00,00*54
$GPTXT,01,01,01,ANTENNA OK*35
$GPGGA,041151.000,,,,,0,00,25.5,,,,,,*64
$GPGLL,,,,,041151.000,V,N*7A
$GPGSA,A,1,,,,,,,,,,,,,25.5,25.5,25.5*02
$GPGSV,3,1,09,03,,,25,07,26,319,,08,70,244,30,09,33,277,*4B
$GPGSV,3,2,09,11,23,195,20,16,41,047,,22,00,187,27,23,37,236,27*72
$GPGSV,3,3,09,31,06,133,15*41
$GPRMC,041151.000,V,,,,,,,310517,,,N*4C
$GPVTG,,,,,,,,,N*30
$GPZDA,041151.000,31,05,2017,00,00*55
$GPTXT,01,01,01,ANTENNA OK*35
$GPGGA,041152.000,,,,,0,00,25.5,,,,,,*67
$GPGLL,,,,,041152.000,V,N*79
$GPGSA,A,1,,,,,,,,,,,,,25.5,25.5,25.5*02
$GPGSV,3,1,09,03,,,25,07,26,319,,08,70,244,30,09,33,277,*4B
$GPGSV,3,2,09,11,23,195,20,16,41,047,,22,00,187,27,23,37,236,27*72
$GPGSV,3,3,09,31,06,133,15*41
$GPRMC,041152.000,V,,,,,,,310517,,,N*4F
$GPVTG,,,,,,,,,N*30
$GPZDA,041152.000,31,05,2017,00,00*56
$GPTXT,01,01,01,ANTENNA OK*35
$GPGGA,041153.000,,,,,0,00,25.5,,,,,,*66
$GPGLL,,,,,041153.000,V,N*78
$GPGSA,A,1,,,,,,,,,,,,,25.5,25.5,25.5*02
$GPGSV,3,1,09,03,,,25,07,26,319,,08,70,244,30,09,33,277,*4B
$GPGSV,3,2,09,11,23,195,17,16,41,047,,22,00,187,27,23,37,236,27*76
$GPGSV,3,3,09,31,06,133,15*41
$GPRMC,041153.000,V,,,,,,,310517,,,N*4E
$GPVTG,,,,,,,,,N*30
$GPZDA,041153.000,31,05,2017,00,00*57
$GPTXT,01,01,01,ANTENNA OK*35
$GPGGA,041154.000,,,,,0,00,25.5,,,,,,*61
$GPGLL,,,,,041154.000,V,N*7F
$GPGSA,A,1,,,,,,,,,,,,,25.5,25.5,25.5*02
$GPGSV,3,1,09,03,,,18,07,26,319,,08,70,244,30,09,33,277,*45
$GPGSV,3,2,09,11,23,195,17,16,41,047,,22,00,187,27,23,37,236,28*79
$GPGSV,3,3,09,31,06,133,15*41
$GPRMC,041154.000,V,,,,,,,310517,,,N*49
$GPVTG,,,,,,,,,N*30
$GPZDA,041154.000,31,05,2017,00,00*50
$GPTXT,01,01,01,ANTENNA OK*35
$GPGGA,041155.000,,,,,0,00,25.5,,,,,,*60
$GPGLL,,,,,041155.000,V,N*7E
$GPGSA,A,1,,,,,,,,,,,,,25.5,25.5,25.5*02
$GPGSV,3,1,09,03,,,18,07,26,319,,08,70,244,30,09,33,277,*45
$GPGSV,3,2,09,11,23,195,17,16,41,047,,22,00,187,27,23,37,236,28*79
$GPGSV,3,3,09,31,06,133,15*41
$GPRMC,041155.000,V,,,,,,,310517,,,N*48
$GPVTG,,,,,,,,,N*30
$GPZDA,041155.000,31,05,2017,00,00*51
$GPTXT,01,01,01,ANTENNA OK*35
$GPGGA,041156.000,,,,,0,00,25.5,,,,,,*63
$GPGLL,,,,,041156.000,V,N*7D
$GPGSA,A,1,,,,,,,,,,,,,25.5,25.5,25.5*02
$GPGSV,3,1,09,03,,,18,07,26,319,,08,70,244,30,09,33,277,*45
$GPGSV,3,2,09,11,23,195,17,16,41,047,,22,00,187,27,23,37,236,28*79
$GPGSV,3,3,09,31,06,133,15*41
$GPRMC,041156.000,V,,,,,,,310517,,,N*4B
$GPVTG,,,,,,,,,N*30
$GPZDA,041156.000,31,05,2017,00,00*52
$GPTXT,01,01,01,ANTENNA OK*35
$GPGGA,041157.000,,,,,0,00,25.5,,,,,,*62
$GPGLL,,,,,041157.000,V,N*7C
$GPGSA,A,1,,,,,,,,,,,,,25.5,25.5,25.5*02
$GPGSV,3,1,09,03,,,18,07,26,319,,08,70,244,30,09,33,277,*45
$GPGSV,3,2,09,11,23,195,17,16,41,047,,22,00,187,27,23,37,236,28*79
$GPGSV,3,3,09,31,06,133,15*41
$GPRMC,041157.000,V,,,,,,,310517,,,N*4A
$GPVTG,,,,,,,,,N*30
$GPZDA,041157.000,31,05,2017,00,00*53
$GPTXT,01,01,01,ANTENNA OK*35
$GPGGA,041158.000,,,,,0,00,25.5,,,,,,*6D
$GPGLL,,,,,041158.000,V,N*73
$GPGSA,A,1,,,,,,,,,,,,,25.5,25.5,25.5*02
$GPGSV,3,1,09,03,,,18,07,26,319,,08,70,244,30,09,33,277,*45
$GPGSV,3,2,09,11,23,195,17,16,41,047,,22,00,187,26,23,37,236,28*78
$GPGSV,3,3,09,31,06,133,15*41
$GPRMC,041158.000,V,,,,,,,310517,,,N*45
$GPVTG,,,,,,,,,N*30
$GPZDA,041158.000,31,05,2017,00,00*5C
$GPTXT,01,01,01,ANTENNA OK*35
$GPGGA,041159.000,,,,,0,00,25.5,,,,,,*6C
$GPGLL,,,,,041159.000,V,N*72
$GPGSA,A,1,,,,,,,,,,,,,25.5,25.5,25.5*02
$GPGSV,3,1,09,03,,,18,07,26,319,,08,70,244,30,09,33,277,*45
$GPGSV,3,2,09,11,23,195,13,16,41,047,,22,00,187,26,23,37,236,28*7C
$GPGSV,3,3,09,31,06,133,15*41
$GPRMC,041159.000,V,,,,,,,310517,,,N*44
$GPVTG,,,,,,,,,N*30
$GPZDA,041159.000,31,05,2017,00,00*5D
$GPTXT,01,01,01,ANTENNA OK*35
$GPGGA,041200.000,,,,,0,00,25.5,,,,,,*63
$GPGLL,,,,,041200.000,V,N*7D
$GPGSA,A,1,,,,,,,,,,,,,25.5,25.5,25.5*02
$GPGSV,3,1,09,03,,,18,07,26,319,,08,70,244,29,09,33,277,*4D
$GPGSV,3,2,09,11,23,195,13,16,41,047,,22,00,187,26,23,37,236,28*7C
$GPGSV,3,3,09,31,06,133,17*43
$GPRMC,041200.000,V,,,,,,,310517,,,N*4B
$GPVTG,,,,,,,,,N*30
$GPZDA,041200.000,31,05,2017,00,00*52
$GPTXT,01,01,01,ANTENNA OK*35
$GPGGA,041201.000,,,,,0,00,25.5,,,,,,*62
$GPGLL,,,,,041201.000,V,N*7C
$GPGSA,A,1,,,,,,,,,,,,,25.5,25.5,25.5*02
$GPGSV,3,1,09,03,,,18,07,26,319,,08,70,244,29,09,33,277,*4D
$GPGSV,3,2,09,11,23,195,13,16,41,047,,22,00,187,26,23,37,236,28*7C
$GPGSV,3,3,09,31,06,133,17*43
$GPRMC,041201.000,V,,,,,,,310517,,,N*4A
$GPVTG,,,,,,,,,N*30
$GPZDA,041201.000,31,05,2017,00,00*53
$GPTXT,01,01,01,ANTENNA OK*35
$GPGGA,041202.000,,,,,0,00,25.5,,,,,,*61
$GPGLL,,,,,041202.000,V,N*7F
$GPGSA,A,1,,,,,,,,,,,,,25.5,25.5,25.5*02
$GPGSV,3,1,09,03,,,20,07,26,319,,08,70,244,31,09,33,277,*4F
$GPGSV,3,2,09,11,23,195,13,16,41,047,,22,00,187,26,23,37,236,30*75
$GPGSV,3,3,09,31,06,133,17*43
$GPRMC,041202.000,V,,,,,,,310517,,,N*49
$GPVTG,,,,,,,,,N*30
$GPZDA,041202.000,31,05,2017,00,00*50
$GPTXT,01,01,01,ANTENNA OK*35
$GPGGA,041203.000,,,,,0,00,25.5,,,,,,*60
$GPGLL,,,,,041203.000,V,N*7E
$GPGSA,A,1,,,,,,,,,,,,,25.5,25.5,25.5*02
$GPGSV,3,1,09,03,,,27,07,26,319,,08,70,244,34,09,33,277,*4D
$GPGSV,3,2,09,11,23,195,13,16,41,047,,22,00,187,27,23,37,236,30*74
$GPGSV,3,3,09,31,06,133,17*43
$GPRMC,041203.000,V,,,,,,,310517,,,N*48
$GPVTG,,,,,,,,,N*30
$GPZDA,041203.000,31,05,2017,00,00*51
$GPTXT,01,01,01,ANTENNA OK*35
$GPGGA,041204.000,,,,,0,00,25.5,,,,,,*67
$GPGLL,,,,,041204.000,V,N*79
$GPGSA,A,1,,,,,,,,,,,,,25.5,25.5,25.5*02
$GPGSV,3,1,09,03,,,27,07,26,319,,08,70,244,34,09,33,277,*4D
$GPGSV,3,2,09,11,23,195,13,16,41,047,,22,00,187,27,23,37,236,32*76
$GPGSV,3,3,09,31,06,133,17*43
$GPRMC,041204.000,V,,,,,,,310517,,,N*4F
$GPVTG,,,,,,,,,N*30
$GPZDA,041204.000,31,05,2017,00,00*56
$GPTXT,01,01,01,ANTENNA OK*35
$GPGGA,041205.000,,,,,0,00,25.5,,,,,,*66
$GPGLL,,,,,041205.000,V,N*78
$GPGSA,A,1,,,,,,,,,,,,,25.5,25.5,25.5*02
$GPGSV,3,1,09,03,,,27,07,26,319,,08,70,244,35,09,33,277,*4C
$GPGSV,3,2,09,11,23,195,13,16,41,047,,22,00,187,30,23,37,235,32*73
$GPGSV,3,3,09,31,06,133,17*43
$GPRMC,041205.000,V,,,,,,,310517,,,N*4E
$GPVTG,,,,,,,,,N*30
$GPZDA,041205.000,31,05,2017,00,00*57
$GPTXT,01,01,01,ANTENNA OK*35
$GPGGA,041206.000,,,,,0,00,25.5,,,,,,*65
$GPGLL,,,,,041206.000,V,N*7B
$GPGSA,A,1,,,,,,,,,,,,,25.5,25.5,25.5*02
$GPGSV,3,1,09,03,,,27,07,26,319,,08,70,244,35,09,33,277,*4C
$GPGSV,3,2,09,11,23,195,13,16,41,047,,22,00,187,30,23,37,235,32*73
$GPGSV,3,3,09,31,06,133,17*43
$GPRMC,041206.000,V,,,,,,,310517,,,N*4D
$GPVTG,,,,,,,,,N*30
$GPZDA,041206.000,31,05,2017,00,00*54
$GPTXT,01,01,01,ANTENNA OK*35
$GPGGA,041207.000,,,,,0,00,25.5,,,,,,*64
$GPGLL,,,,,041207.000,V,N*7A
$GPGSA,A,1,,,,,,,,,,,,,25.5,25.5,25.5*02
$GPGSV,3,1,09,03,,,28,07,26,319,,08,70,244,35,09,33,277,*43
$GPGSV,3,2,09,11,23,195,13,16,41,047,,22,00,187,30,23,37,235,32*73
$GPGSV,3,3,09,31,06,133,17*43
$GPRMC,041207.000,V,,,,,,,310517,,,N*4C
$GPVTG,,,,,,,,,N*30
$GPZDA,041207.000,31,05,2017,00,00*55
$GPTXT,01,01,01,ANTENNA OK*35
$GPGGA,041208.000,,,,,0,00,25.5,,,,,,*6B
$GPGLL,,,,,041208.000,V,N*75
$GPGSA,A,1,,,,,,,,,,,,,25.5,25.5,25.5*02
$GPGSV,3,1,09,03,,,28,07,26,319,,08,70,244,35,09,33,277,*43
$GPGSV,3,2,09,11,23,195,13,16,41,047,,22,00,187,30,23,37,235,31*70
$GPGSV,3,3,09,31,06,133,17*43
$GPRMC,041208.000,V,,,,,,,310517,,,N*43
$GPVTG,,,,,,,,,N*30
$GPZDA,041208.000,31,05,2017,00,00*5A
$GPTXT,01,01,01,ANTENNA OK*35
$GPGGA,041209.000,,,,,0,00,25.5,,,,,,*6A
$GPGLL,,,,,041209.000,V,N*74
$GPGSA,A,1,,,,,,,,,,,,,25.5,25.5,25.5*02
$GPGSV,3,1,09,03,,,28,07,26,319,,08,70,244,35,09,33,277,*43
$GPGSV,3,2,09,11,23,195,13,16,41,047,,22,00,187,29,23,37,235,31*78
$GPGSV,3,3,09,31,06,133,17*43
$GPRMC,041209.000,V,,,,,,,310517,,,N*42
$GPVTG,,,,,,,,,N*30
$GPZDA,041209.000,31,05,2017,00,00*5B
$GPTXT,01,01,01,ANTENNA OK*35
$GPGGA,041210.000,,,,,0,00,25.5,,,,,,*62
$GPGLL,,,,,041210.000,V,N*7C
$GPGSA,A,1,,,,,,,,,,,,,25.5,25.5,25.5*02
$GPGSV,3,1,09,03,,,28,07,26,319,,08,70,244,35,09,33,277,*43
$GPGSV,3,2,09,11,23,195,13,16,41,047,,22,00,187,29,23,37,235,31*78
$GPGSV,3,3,09,31,06,133,17*43
$GPRMC,041210.000,V,,,,,,,310517,,,N*4A
$GPVTG,,,,,,,,,N*30
$GPZDA,041210.000,31,05,2017,00,00*53
$GPTXT,01,01,01,ANTENNA OK*35
$GPGGA,041211.000,,,,,0,00,25.5,,,,,,*63
$GPGLL,,,,,041211.000,V,N*7D
$GPGSA,A,1,,,,,,,,,,,,,25.5,25.5,25.5*02
$GPGSV,3,1,09,03,,,26,07,26,319,,08,70,244,33,09,33,277,*4B
$GPGSV,3,2,09,11,23,195,13,16,41,047,,22,00,187,29,23,37,235,31*78
$GPGSV,3,3,09,31,06,133,17*43
$GPRMC,041211.000,V,,,,,,,310517,,,N*4B
$GPVTG,,,,,,,,,N*30
$GPZDA,041211.000,31,05,2017,00,00*52
$GPTXT,01,01,01,ANTENNA OK*35
$GPGGA,041212.000,,,,,0,00,25.5,,,,,,*60
$GPGLL,,,,,041212.000,V,N*7E
$GPGSA,A,1,,,,,,,,,,,,,25.5,25.5,25.5*02
$GPGSV,3,1,09,03,,,26,07,26,319,,08,70,244,33,09,33,277,*4B
$GPGSV,3,2,09,11,23,195,13,16,41,047,,22,00,187,29,23,37,235,31*78
$GPGSV,3,3,09,31,06,133,17*43
$GPRMC,041212.000,V,,,,,,,310517,,,N*48
$GPVTG,,,,,,,,,N*30
$GPZDA,041212.000,31,05,2017,00,00*51
$GPTXT,01,01,01,ANTENNA OK*35
$GPGGA,041213.000,,,,,0,00,25.5,,,,,,*61
$GPGLL,,,,,041213.000,V,N*7F
$GPGSA,A,1,,,,,,,,,,,,,25.5,25.5,25.5*02
$GPGSV,3,1,09,03,,,26,07,26,319,,08,70,244,31,09,33,277,*49
$GPGSV,3,2,09,11,23,195,13,16,41,047,,22,00,187,27,23,37,235,30*77
$GPGSV,3,3,09,31,06,133,17*43
$GPRMC,041213.000,V,,,,,,,310517,,,N*49
$GPVTG,,,,,,,,,N*30
$GPZDA,041213.000,31,05,2017,00,00*50
$GPTXT,01,01,01,ANTENNA OK*35
$GPGGA,041214.000,,,,,0,00,25.5,,,,,,*66
$GPGLL,,,,,041214.000,V,N*78
$GPGSA,A,1,,,,,,,,,,,,,25.5,25.5,25.5*02
$GPGSV,3,1,09,03,,,26,07,26,319,,08,70,244,31,09,33,277,*49
$GPGSV,3,2,09,11,23,195,13,16,41,047,,22,00,187,27,23,37,235,30*77
$GPGSV,3,3,09,31,06,133,17*43
$GPRMC,041214.000,V,,,,,,,310517,,,N*4E
$GPVTG,,,,,,,,,N*30
$GPZDA,041214.000,31,05,2017,00,00*57
$GPTXT,01,01,01,ANTENNA OK*35
$GPGGA,041215.000,,,,,0,00,25.5,,,,,,*67
$GPGLL,,,,,041215.000,V,N*79
$GPGSA,A,1,,,,,,,,,,,,,25.5,25.5,25.5*02
$GPGSV,3,1,09,03,,,21,07,26,319,,08,70,244,31,09,33,277,*4E
$GPGSV,3,2,09,11,23,195,13,16,41,047,,22,00,187,27,23,37,235,30*77
$GPGSV,3,3,09,31,06,133,17*43
$GPRMC,041215.000,V,,,,,,,310517,,,N*4F
$GPVTG,,,,,,,,,N*30
$GPZDA,041215.000,31,05,2017,00,00*56
$GPTXT,01,01,01,ANTENNA OK*35
$GPGGA,041216.000,,,,,0,00,25.5,,,,,,*64
$GPGLL,,,,,041216.000,V,N*7A
$GPGSA,A,1,,,,,,,,,,,,,25.5,25.5,25.5*02
$GPGSV,3,1,09,03,,,21,07,26,319,,08,70,244,31,09,33,277,*4E
$GPGSV,3,2,09,11,23,195,13,16,41,047,,22,00,187,27,23,37,235,30*77
$GPGSV,3,3,09,31,06,133,17*43
$GPRMC,041216.000,V,,,,,,,310517,,,N*4C
$GPVTG,,,,,,,,,N*30
$GPZDA,041216.000,31,05,2017,00,00*55
$GPTXT,01,01,01,ANTENNA OK*35
$GPGGA,041217.000,,,,,0,00,25.5,,,,,,*65
$GPGLL,,,,,041217.000,V,N*7B
$GPGSA,A,1,,,,,,,,,,,,,25.5,25.5,25.5*02
$GPGSV,3,1,09,03,,,21,07,26,319,,08,70,244,31,09,33,277,*4E
$GPGSV,3,2,09,11,23,195,13,16,41,047,,22,00,187,27,23,37,235,30*77
$GPGSV,3,3,09,31,06,133,17*43
$GPRMC,041217.000,V,,,,,,,310517,,,N*4D
$GPVTG,,,,,,,,,N*30
$GPZDA,041217.000,31,05,2017,00,00*54
$GPTXT,01,01,01,ANTENNA OK*35
$GPGGA,041218.000,,,,,0,00,25.5,,,,,,*6A
$GPGLL,,,,,041218.000,V,N*74
$GPGSA,A,1,,,,,,,,,,,,,25.5,25.5,25.5*02
$GPGSV,3,1,09,03,,,21,07,26,319,,08,70,244,31,09,33,277,*4E
$GPGSV,3,2,09,11,23,195,13,16,41,047,,22,00,187,27,23,37,235,30*77
$GPGSV,3,3,09,31,06,133,17*43
$GPRMC,041218.000,V,,,,,,,310517,,,N*42
$GPVTG,,,,,,,,,N*30
$GPZDA,041218.000,31,05,2017,00,00*5B
$GPTXT,01,01,01,ANTENNA OK*35
$GPGGA,041219.000,,,,,0,00,25.5,,,,,,*6B
$GPGLL,,,,,041219.000,V,N*75
$GPGSA,A,1,,,,,,,,,,,,,25.5,25.5,25.5*02
$GPGSV,3,1,09,03,,,21,07,26,319,,08,70,244,31,09,33,277,*4E
$GPGSV,3,2,09,11,23,195,13,16,41,047,,22,00,187,27,23,37,235,30*77
$GPGSV,3,3,09,31,06,133,17*43
$GPRMC,041219.000,V,,,,,,,310517,,,N*43
$GPVTG,,,,,,,,,N*30
$GPZDA,041219.000,31,05,2017,00,00*5A
$GPTXT,01,01,01,ANTENNA OK*35
$GPGGA,041220.000,,,,,0,00,25.5,,,,,,*61
$GPGLL,,,,,041220.000,V,N*7F
$GPGSA,A,1,,,,,,,,,,,,,25.5,25.5,25.5*02
$GPGSV,3,1,09,03,,,21,07,26,319,,08,70,244,31,09,33,277,*4E
$GPGSV,3,2,09,11,23,195,13,16,41,047,,22,00,187,27,23,37,235,30*77
$GPGSV,3,3,09,31,06,133,18*4C
$GPRMC,041220.000,V,,,,,,,310517,,,N*49
$GPVTG,,,,,,,,,N*30
$GPZDA,041220.000,31,05,2017,00,00*50
$GPTXT,01,01,01,ANTENNA OK*35
$GPGGA,041221.000,,,,,0,00,25.5,,,,,,*60
$GPGLL,,,,,041221.000,V,N*7E
$GPGSA,A,1,,,,,,,,,,,,,25.5,25.5,25.5*02
$GPGSV,3,1,09,03,,,21,07,26,319,,08,70,244,31,09,33,277,*4E
$GPGSV,3,2,09,11,23,195,13,16,41,048,,22,00,187,27,23,37,235,30*78
$GPGSV,3,3,09,31,06,133,18*4C
$GPRMC,041221.000,V,,,,,,,310517,,,N*48
$GPVTG,,,,,,,,,N*30
$GPZDA,041221.000,31,05,2017,00,00*51
$GPTXT,01,01,01,ANTENNA OK*35
$GPGGA,041222.000,,,,,0,00,25.5,,,,,,*63
$GPGLL,,,,,041222.000,V,N*7D
$GPGSA,A,1,,,,,,,,,,,,,25.5,25.5,25.5*02
$GPGSV,3,1,09,03,,,22,07,26,319,,08,70,244,31,09,33,277,*4D
$GPGSV,3,2,09,11,23,195,13,16,41,048,,22,00,187,29,23,37,235,30*76
$GPGSV,3,3,09,31,06,133,18*4C
$GPRMC,041222.000,V,,,,,,,310517,,,N*4B
$GPVTG,,,,,,,,,N*30
$GPZDA,041222.000,31,05,2017,00,00*52
$GPTXT,01,01,01,ANTENNA OK*35
$GPGGA,041223.000,,,,,0,00,25.5,,,,,,*62
$GPGLL,,,,,041223.000,V,N*7C
$GPGSA,A,1,,,,,,,,,,,,,25.5,25.5,25.5*02
$GPGSV,3,1,09,03,,,22,07,26,319,,08,70,244,31,09,33,277,*4D
$GPGSV,3,2,09,11,23,195,13,16,41,048,,22,00,187,29,23,37,235,30*76
$GPGSV,3,3,09,31,06,133,18*4C
$GPRMC,041223.000,V,,,,,,,310517,,,N*4A
$GPVTG,,,,,,,,,N*30
$GPZDA,041223.000,31,05,2017,00,00*53
$GPTXT,01,01,01,ANTENNA OK*35
$GPGGA,041224.000,,,,,0,00,25.5,,,,,,*65
$GPGLL,,,,,041224.000,V,N*7B
$GPGSA,A,1,,,,,,,,,,,,,25.5,25.5,25.5*02
$GPGSV,3,1,09,03,,,22,07,26,319,,08,70,244,31,09,33,277,*4D
$GPGSV,3,2,09,11,23,195,13,16,41,048,,22,00,187,29,23,37,235,30*76
$GPGSV,3,3,09,31,06,133,18*4C
$GPRMC,041224.000,V,,,,,,,310517,,,N*4D
$GPVTG,,,,,,,,,N*30
$GPZDA,041224.000,31,05,2017,00,00*54
$GPTXT,01,01,01,ANTENNA OK*35
$GPGGA,041225.000,,,,,0,00,25.5,,,,,,*64
$GPGLL,,,,,041225.000,V,N*7A
$GPGSA,A,1,,,,,,,,,,,,,25.5,25.5,25.5*02
$GPGSV,3,1,09,03,,,22,07,26,319,,08,70,244,30,09,33,277,*4C
$GPGSV,3,2,09,11,23,195,13,16,41,048,,22,00,187,29,23,37,235,30*76
$GPGSV,3,3,09,31,06,133,18*4C
$GPRMC,041225.000,V,,,,,,,310517,,,N*4C
$GPVTG,,,,,,,,,N*30
$GPZDA,041225.000,31,05,2017,00,00*55
$GPTXT,01,01,01,ANTENNA OK*35
$GPGGA,041226.000,,,,,0,00,25.5,,,,,,*67
$GPGLL,,,,,041226.000,V,N*79
$GPGSA,A,1,,,,,,,,,,,,,25.5,25.5,25.5*02
$GPGSV,3,1,09,03,,,22,07,26,319,,08,70,244,30,09,33,277,*4C
$GPGSV,3,2,09,11,23,195,14,16,41,048,,22,00,187,29,23,37,235,30*71
$GPGSV,3,3,09,31,06,133,18*4C
$GPRMC,041226.000,V,,,,,,,310517,,,N*4F
$GPVTG,,,,,,,,,N*30
$GPZDA,041226.000,31,05,2017,00,00*56
$GPTXT,01,01,01,ANTENNA OK*35
$GPGGA,041227.000,,,,,0,00,25.5,,,,,,*66
$GPGLL,,,,,041227.000,V,N*78
$GPGSA,A,1,,,,,,,,,,,,,25.5,25.5,25.5*02
$GPGSV,3,1,09,03,,,22,07,26,319,,08,70,244,30,09,33,277,*4C
$GPGSV,3,2,09,11,23,195,14,16,41,048,,22,00,187,29,23,37,235,30*71
$GPGSV,3,3,09,31,06,133,18*4C
$GPRMC,041227.000,V,,,,,,,310517,,,N*4E
$GPVTG,,,,,,,,,N*30
$GPZDA,041227.000,31,05,2017,00,00*57
$GPTXT,01,01,01,ANTENNA OK*35
$GPGGA,041228.000,,,,,0,00,25.5,,,,,,*69
$GPGLL,,,,,041228.000,V,N*77
$GPGSA,A,1,,,,,,,,,,,,,25.5,25.5,25.5*02
$GPGSV,3,1,09,03,,,22,07,26,319,,08,70,244,30,09,33,277,*4C
$GPGSV,3,2,09,11,23,195,14,16,41,048,,22,00,187,29,23,37,235,30*71
$GPGSV,3,3,09,31,06,133,18*4C
$GPRMC,041228.000,V,,,,,,,310517,,,N*41
$GPVTG,,,,,,,,,N*30
$GPZDA,041228.000,31,05,2017,00,00*58
$GPTXT,01,01,01,ANTENNA OK*35
$GPGGA,041229.000,,,,,0,00,25.5,,,,,,*68
$GPGLL,,,,,041229.000,V,N*76
$GPGSA,A,1,,,,,,,,,,,,,25.5,25.5,25.5*02
$GPGSV,3,1,09,03,,,22,07,26,319,,08,70,244,30,09,33,277,*4C
$GPGSV,3,2,09,11,23,195,20,16,41,048,,22,00,187,29,23,37,235,30*76
$GPGSV,3,3,09,31,06,133,18*4C
$GPRMC,041229.000,V,,,,,,,310517,,,N*40
$GPVTG,,,,,,,,,N*30
$GPZDA,041229.000,31,05,2017,00,00*59
$GPTXT,01,01,01,ANTENNA OK*35
$GPGGA,041230.000,,,,,0,00,25.5,,,,,,*60
$GPGLL,,,,,041230.000,V,N*7E
$GPGSA,A,1,,,,,,,,,,,,,25.5,25.5,25.5*02
$GPGSV,3,1,09,03,,,22,07,26,319,,08,70,244,30,09,33,277,*4C
$GPGSV,3,2,09,11,23,195,20,16,41,048,,22,00,187,29,23,37,235,30*76
$GPGSV,3,3,09,31,06,133,18*4C
$GPRMC,041230.000,V,,,,,,,310517,,,N*48
$GPVTG,,,,,,,,,N*30
$GPZDA,041230.000,31,05,2017,00,00*51
$GPTXT,01,01,01,ANTENNA OK*35
$GPGGA,041231.000,,,,,0,00,25.5,,,,,,*61
$GPGLL,,,,,041231.000,V,N*7F
$GPGSA,A,1,,,,,,,,,,,,,25.5,25.5,25.5*02
$GPGSV,3,1,09,03,,,22,07,26,319,,08,70,244,30,09,33,277,*4C
$GPGSV,3,2,09,11,23,195,20,16,41,048,,22,00,187,29,23,37,235,30*76
$GPGSV,3,3,09,31,06,133,18*4C
$GPRMC,041231.000,V,,,,,,,310517,,,N*49
$GPVTG,,,,,,,,,N*30
$GPZDA,041231.000,31,05,2017,00,00*50
$GPTXT,01,01,01,ANTENNA OK*35
$GPGGA,041232.000,,,,,0,00,25.5,,,,,,*62
$GPGLL,,,,,041232.000,V,N*7C
$GPGSA,A,1,,,,,,,,,,,,,25.5,25.5,25.5*02
$GPGSV,3,1,09,03,,,21,07,26,319,,08,70,244,29,09,33,277,*47
$GPGSV,3,2,09,11,23,195,20,16,41,048,,22,00,187,29,23,37,235,30*76
$GPGSV,3,3,09,31,06,133,18*4C
$GPRMC,041232.000,V,,,,,,,310517,,,N*4A
$GPVTG,,,,,,,,,N*30
$GPZDA,041232.000,31,05,2017,00,00*53
$GPTXT,01,01,01,ANTENNA OK*35
$GPGGA,041233.000,,,,,0,00,25.5,,,,,,*63
$GPGLL,,,,,041233.000,V,N*7D
$GPGSA,A,1,,,,,,,,,,,,,25.5,25.5,25.5*02
$GPGSV,3,1,09,03,,,21,07,26,319,,08,70,244,29,09,33,277,*47
$GPGSV,3,2,09,11,23,195,20,16,41,048,,22,00,187,29,23,37,235,30*76
$GPGSV,3,3,09,31,06,133,18*4C
$GPRMC,041233.000,V,,,,,,,310517,,,N*4B
$GPVTG,,,,,,,,,N*30
$GPZDA,041233.000,31,05,2017,00,00*52
$GPTXT,01,01,01,ANTENNA OK*35
$GPGGA,041234.000,,,,,0,00,25.5,,,,,,*64
$GPGLL,,,,,041234.000,V,N*7A
$GPGSA,A,1,,,,,,,,,,,,,25.5,25.5,25.5*02
$GPGSV,3,1,09,03,,,21,07,26,319,,08,70,244,29,09,33,277,*47
$GPGSV,3,2,09,11,23,195,20,16,41,048,,22,00,187,29,23,37,235,30*76
$GPGSV,3,3,09,31,06,133,18*4C
$GPRMC,041234.000,V,,,,,,,310517,,,N*4C
$GPVTG,,,,,,,,,N*30
$GPZDA,041234.000,31,05,2017,00,00*55
$GPTXT,01,01,01,ANTENNA OK*35
$GPGGA,041235.000,,,,,0,00,25.5,,,,,,*65
$GPGLL,,,,,041235.000,V,N*7B
$GPGSA,A,1,,,,,,,,,,,,,25.5,25.5,25.5*02
$GPGSV,3,1,09,03,,,21,07,26,319,,08,70,244,29,09,33,277,*47
$GPGSV,3,2,09,11,23,195,20,16,41,048,,22,00,187,27,23,37,235,29*70
$GPGSV,3,3,09,31,06,133,18*4C
$GPRMC,041235.000,V,,,,,,,310517,,,N*4D
$GPVTG,,,,,,,,,N*30
$GPZDA,041235.000,31,05,2017,00,00*54
$GPTXT,01,01,01,ANTENNA OK*35
$GPGGA,041236.000,,,,,0,00,25.5,,,,,,*66
$GPGLL,,,,,041236.000,V,N*78
$GPGSA,A,1,,,,,,,,,,,,,25.5,25.5,25.5*02
$GPGSV,3,1,09,03,,,21,07,26,319,,08,70,244,29,09,33,277,*47
$GPGSV,3,2,09,11,23,195,20,16,41,048,,22,00,187,27,23,37,235,29*70
$GPGSV,3,3,09,31,06,133,17*43
$GPRMC,041236.000,V,,,,,,,310517,,,N*4E
$GPVTG,,,,,,,,,N*30
$GPZDA,041236.000,31,05,2017,00,00*57
$GPTXT,01,01,01,ANTENNA OK*35
$GPGGA,041237.000,,,,,0,00,25.5,,,,,,*67
$GPGLL,,,,,041237.000,V,N*79
$GPGSA,A,1,,,,,,,,,,,,,25.5,25.5,25.5*02
$GPGSV,3,1,09,03,,,21,07,26,319,,08,70,244,30,09,33,277,*4F
$GPGSV,3,2,09,11,23,195,20,16,41,048,,22,00,187,29,23,37,235,29*7E
$GPGSV,3,3,09,31,06,133,17*43
$GPRMC,041237.000,V,,,,,,,310517,,,N*4F
$GPVTG,,,,,,,,,N*30
$GPZDA,041237.000,31,05,2017,00,00*56
$GPTXT,01,01,01,ANTENNA OK*35
$GPGGA,041238.000,,,,,0,00,25.5,,,,,,*68
$GPGLL,,,,,041238.000,V,N*76
$GPGSA,A,1,,,,,,,,,,,,,25.5,25.5,25.5*02
$GPGSV,3,1,09,03,,,21,07,26,319,,08,70,244,30,09,33,277,*4F
$GPGSV,3,2,09,11,23,195,20,16,41,048,,22,00,187,29,23,37,235,29*7E
$GPGSV,3,3,09,31,06,133,17*43
$GPRMC,041238.000,V,,,,,,,310517,,,N*40
$GPVTG,,,,,,,,,N*30
$GPZDA,041238.000,31,05,2017,00,00*59
$GPTXT,01,01,01,ANTENNA OK*35
$GPGGA,041239.000,,,,,0,00,25.5,,,,,,*69
$GPGLL,,,,,041239.000,V,N*77
$GPGSA,A,1,,,,,,,,,,,,,25.5,25.5,25.5*02
$GPGSV,3,1,09,03,,,21,07,26,319,,08,70,244,30,09,33,277,*4F
$GPGSV,3,2,09,11,23,195,20,16,41,048,,22,00,187,29,23,37,235,29*7E
$GPGSV,3,3,09,31,06,133,17*43
$GPRMC,041239.000,V,,,,,,,310517,,,N*41
$GPVTG,,,,,,,,,N*30
$GPZDA,041239.000,31,05,2017,00,00*58
$GPTXT,01,01,01,ANTENNA OK*35
$GPGGA,041240.000,,,,,0,00,25.5,,,,,,*67
$GPGLL,,,,,041240.000,V,N*79
$GPGSA,A,1,,,,,,,,,,,,,25.5,25.5,25.5*02
$GPGSV,3,1,09,03,,,21,07,26,319,,08,70,244,30,09,33,277,*4F
$GPGSV,3,2,09,11,23,195,20,16,41,048,,22,00,187,29,23,37,235,29*7E
$GPGSV,3,3,09,31,06,133,17*43
$GPRMC,041240.000,V,,,,,,,310517,,,N*4F
$GPVTG,,,,,,,,,N*30
$GPZDA,041240.000,31,05,2017,00,00*56
$GPTXT,01,01,01,ANTENNA OK*35
$GPGGA,041241.000,,,,,0,00,25.5,,,,,,*66
$GPGLL,,,,,041241.000,V,N*78
$GPGSA,A,1,,,,,,,,,,,,,25.5,25.5,25.5*02
$GPGSV,3,1,09,03,,,21,07,26,319,,08,70,244,31,09,33,277,*4E
$GPGSV,3,2,09,11,23,195,20,16,41,048,,22,00,187,29,23,37,235,29*7E
$GPGSV,3,3,09,31,06,133,17*43
$GPRMC,041241.000,V,,,,,,,310517,,,N*4E
$GPVTG,,,,,,,,,N*30
$GPZDA,041241.000,31,05,2017,00,00*57
$GPTXT,01,01,01,ANTENNA OK*35
$GPGGA,041242.000,,,,,0,00,25.5,,,,,,*65
$GPGLL,,,,,041242.000,V,N*7B
$GPGSA,A,1,,,,,,,,,,,,,25.5,25.5,25.5*02
$GPGSV,3,1,09,03,,,21,07,26,319,,08,70,245,31,09,33,277,*4F
$GPGSV,3,2,09,11,23,195,20,16,41,048,,22,00,187,29,23,37,235,29*7E
$GPGSV,3,3,09,31,06,133,17*43
$GPRMC,041242.000,V,,,,,,,310517,,,N*4D
$GPVTG,,,,,,,,,N*30
$GPZDA,041242.000,31,05,2017,00,00*54
$GPTXT,01,01,01,ANTENNA OK*35
$GPGGA,041243.000,,,,,0,00,25.5,,,,,,*64
$GPGLL,,,,,041243.000,V,N*7A
$GPGSA,A,1,,,,,,,,,,,,,25.5,25.5,25.5*02
$GPGSV,3,1,10,03,,,21,07,26,319,,08,70,245,31,09,33,277,*47
$GPGSV,3,2,10,11,23,195,20,16,41,048,,21,08,042,,22,00,187,29*71
$GPGSV,3,3,10,23,37,235,29,31,06,133,14*72
$GPRMC,041243.000,V,,,,,,,310517,,,N*4C
$GPVTG,,,,,,,,,N*30
$GPZDA,041243.000,31,05,2017,00,00*55
$GPTXT,01,01,01,ANTENNA OK*35
$GPGGA,041244.000,,,,,0,00,25.5,,,,,,*63
$GPGLL,,,,,041244.000,V,N*7D
$GPGSA,A,1,,,,,,,,,,,,,25.5,25.5,25.5*02
$GPGSV,3,1,10,03,,,21,07,26,319,,08,70,245,29,09,33,277,*4E
$GPGSV,3,2,10,11,23,195,20,16,41,048,,21,08,042,,22,00,187,29*71
$GPGSV,3,3,10,23,37,235,29,31,06,133,14*72
$GPRMC,041244.000,V,,,,,,,310517,,,N*4B
$GPVTG,,,,,,,,,N*30
$GPZDA,041244.000,31,05,2017,00,00*52
$GPTXT,01,01,01,ANTENNA OK*35
$GPGGA,041245.000,,,,,0,00,25.5,,,,,,*62
$GPGLL,,,,,041245.000,V,N*7C
$GPGSA,A,1,,,,,,,,,,,,,25.5,25.5,25.5*02
$GPGSV,3,1,10,03,,,21,07,26,319,,08,70,245,29,09,33,277,*4E
$GPGSV,3,2,10,11,23,195,20,16,41,048,,21,08,042,,22,00,187,25*7D
$GPGSV,3,3,10,23,37,235,29,31,06,133,14*72
$GPRMC,041245.000,V,,,,,,,310517,,,N*4A
$GPVTG,,,,,,,,,N*30
$GPZDA,041245.000,31,05,2017,00,00*53
$GPTXT,01,01,01,ANTENNA OK*35
$GPGGA,041246.000,,,,,0,00,25.5,,,,,,*61
$GPGLL,,,,,041246.000,V,N*7F
$GPGSA,A,1,,,,,,,,,,,,,25.5,25.5,25.5*02
$GPGSV,3,1,10,03,,,21,07,26,319,,08,70,245,29,09,33,277,*4E
$GPGSV,3,2,10,11,23,195,20,16,41,048,,21,08,042,,22,00,187,25*7D
$GPGSV,3,3,10,23,37,235,29,31,06,133,14*72
$GPRMC,041246.000,V,,,,,,,310517,,,N*49
$GPVTG,,,,,,,,,N*30
$GPZDA,041246.000,31,05,2017,00,00*50
$GPTXT,01,01,01,ANTENNA OK*35
$GPGGA,041247.000,,,,,0,00,25.5,,,,,,*60
$GPGLL,,,,,041247.000,V,N*7E
$GPGSA,A,1,,,,,,,,,,,,,25.5,25.5,25.5*02
$GPGSV,3,1,10,03,,,21,07,26,319,,08,70,245,29,09,33,277,*4E
$GPGSV,3,2,10,11,23,195,20,16,41,048,,21,08,042,,22,00,187,25*7D
$GPGSV,3,3,10,23,37,235,29,31,06,133,14*72
$GPRMC,041247.000,V,,,,,,,310517,,,N*48
$GPVTG,,,,,,,,,N*30
$GPZDA,041247.000,31,05,2017,00,00*51
$GPTXT,01,01,01,ANTENNA OK*35
$GPGGA,041248.000,,,,,0,00,25.5,,,,,,*6F
$GPGLL,,,,,041248.000,V,N*71
$GPGSA,A,1,,,,,,,,,,,,,25.5,25.5,25.5*02
$GPGSV,3,1,10,03,,,21,07,26,319,,08,70,245,29,09,33,277,*4E
$GPGSV,3,2,10,11,23,195,20,16,41,048,,21,08,042,,22,00,187,25*7D
$GPGSV,3,3,10,23,37,235,25,31,06,133,14*7E
$GPRMC,041248.000,V,,,,,,,310517,,,N*47
$GPVTG,,,,,,,,,N*30
$GPZDA,041248.000,31,05,2017,00,00*5E
$GPTXT,01,01,01,ANTENNA OK*35
$GPGGA,041249.000,,,,,0,00,25.5,,,,,,*6E
$GPGLL,,,,,041249.000,V,N*70
$GPGSA,A,1,,,,,,,,,,,,,25.5,25.5,25.5*02
$GPGSV,3,1,10,03,,,21,07,26,319,,08,70,245,29,09,33,277,*4E
$GPGSV,3,2,10,11,23,195,20,16,41,048,,21,08,042,,22,00,187,21*79
$GPGSV,3,3,10,23,37,235,25,31,06,133,14*7E
$GPRMC,041249.000,V,,,,,,,310517,,,N*46
$GPVTG,,,,,,,,,N*30
$GPZDA,041249.000,31,05,2017,00,00*5F
$GPTXT,01,01,01,ANTENNA OK*35
$GPGGA,041250.000,,,,,0,00,25.5,,,,,,*66
$GPGLL,,,,,041250.000,V,N*78
$GPGSA,A,1,,,,,,,,,,,,,25.5,25.5,25.5*02
$GPGSV,3,1,10,03,,,21,07,26,319,,08,70,245,29,09,33,277,*4E
$GPGSV,3,2,10,11,23,195,20,16,41,048,,21,08,042,,22,00,187,21*79
$GPGSV,3,3,10,23,37,235,25,31,05,133,14*7D
$GPRMC,041250.000,V,,,,,,,310517,,,N*4E
$GPVTG,,,,,,,,,N*30
$GPZDA,041250.000,31,05,2017,00,00*57
$GPTXT,01,01,01,ANTENNA OK*35
$GPGGA,041251.000,,,,,0,00,25.5,,,,,,*67
$GPGLL,,,,,041251.000,V,N*79
$GPGSA,A,1,,,,,,,,,,,,,25.5,25.5,25.5*02
$GPGSV,3,1,10,03,,,21,07,26,319,,08,70,245,24,09,33,277,*43
$GPGSV,3,2,10,11,23,195,20,16,41,048,,21,08,042,,22,00,187,21*79
$GPGSV,3,3,10,23,37,235,25,31,05,133,14*7D
$GPRMC,041251.000,V,,,,,,,310517,,,N*4F
$GPVTG,,,,,,,,,N*30
$GPZDA,041251.000,31,05,2017,00,00*56
$GPTXT,01,01,01,ANTENNA OK*35
$GPGGA,041252.000,,,,,0,00,25.5,,,,,,*64
$GPGLL,,,,,041252.000,V,N*7A
$GPGSA,A,1,,,,,,,,,,,,,25.5,25.5,25.5*02
$GPGSV,3,1,10,03,,,21,07,26,319,,08,70,245,24,09,33,277,*43
$GPGSV,3,2,10,11,23,195,20,16,41,048,,21,08,042,,22,00,187,21*79
$GPGSV,3,3,10,23,37,235,25,31,05,133,14*7D
$GPRMC,041252.000,V,,,,,,,310517,,,N*4C
$GPVTG,,,,,,,,,N*30
$GPZDA,041252.000,31,05,2017,00,00*55
$GPTXT,01,01,01,ANTENNA OK*35
$GPGGA,041253.000,,,,,0,00,25.5,,,,,,*65
$GPGLL,,,,,041253.000,V,N*7B
$GPGSA,A,1,,,,,,,,,,,,,25.5,25.5,25.5*02
$GPGSV,3,1,10,03,,,17,07,26,319,,08,70,245,24,09,33,277,*46
$GPGSV,3,2,10,11,23,195,20,16,41,048,,21,08,042,,22,00,187,21*79
$GPGSV,3,3,10,23,37,235,23,31,05,133,14*7B
$GPRMC,041253.000,V,,,,,,,310517,,,N*4D
$GPVTG,,,,,,,,,N*30
$GPZDA,041253.000,31,05,2017,00,00*54
$GPTXT,01,01,01,ANTENNA OK*35
$GPGGA,041254.000,,,,,0,00,25.5,,,,,,*62
$GPGLL,,,,,041254.000,V,N*7C
$GPGSA,A,1,,,,,,,,,,,,,25.5,25.5,25.5*02
$GPGSV,3,1,10,03,,,17,07,26,319,,08,70,245,24,09,33,277,*46
$GPGSV,3,2,10,11,23,195,20,16,41,048,,21,08,042,,22,00,187,21*79
$GPGSV,3,3,10,23,37,235,23,31,05,133,14*7B
$GPRMC,041254.000,V,,,,,,,310517,,,N*4A
$GPVTG,,,,,,,,,N*30
$GPZDA,041254.000,31,05,2017,00,00*53
$GPTXT,01,01,01,ANTENNA OK*35
$GPGGA,041255.000,,,,,0,00,25.5,,,,,,*63
$GPGLL,,,,,041255.000,V,N*7D
$GPGSA,A,1,,,,,,,,,,,,,25.5,25.5,25.5*02
$GPGSV,3,1,10,03,,,17,07,26,319,,08,70,245,24,09,33,277,*46
$GPGSV,3,2,10,11,23,195,20,16,41,048,,21,08,042,,22,00,187,21*79
$GPGSV,3,3,10,23,37,235,23,31,05,133,14*7B
$GPRMC,041255.000,V,,,,,,,310517,,,N*4B
$GPVTG,,,,,,,,,N*30
$GPZDA,041255.000,31,05,2017,00,00*52
$GPTXT,01,01,01,ANTENNA OK*35
$GPGGA,041256.000,,,,,0,00,25.5,,,,,,*60
$GPGLL,,,,,041256.000,V,N*7E
$GPGSA,A,1,,,,,,,,,,,,,25.5,25.5,25.5*02
$GPGSV,3,1,10,03,,,17,07,26,319,,08,70,245,24,09,33,277,*46
$GPGSV,3,2,10,11,23,195,20,16,41,048,,21,08,042,,22,00,187,21*79
$GPGSV,3,3,10,23,37,235,23,31,05,133,14*7B
$GPRMC,041256.000,V,,,,,,,310517,,,N*48
$GPVTG,,,,,,,,,N*30
$GPZDA,041256.000,31,05,2017,00,00*51
$GPTXT,01,01,01,ANTENNA OK*35
$GPGGA,041257.000,,,,,0,00,25.5,,,,,,*61
$GPGLL,,,,,041257.000,V,N*7F
$GPGSA,A,1,,,,,,,,,,,,,25.5,25.5,25.5*02
$GPGSV,3,1,10,03,,,17,07,26,319,,08,70,245,25,09,33,277,*47
$GPGSV,3,2,10,11,23,195,20,16,41,048,,21,08,042,,22,00,187,21*79
$GPGSV,3,3,10,23,37,235,23,31,05,134,14*7C
$GPRMC,041257.000,V,,,,,,,310517,,,N*49
$GPVTG,,,,,,,,,N*30
$GPZDA,041257.000,31,05,2017,00,00*50
$GPTXT,01,01,01,ANTENNA OK*35
$GPGGA,041258.000,,,,,0,00,25.5,,,,,,*6E
$GPGLL,,,,,041258.000,V,N*70
$GPGSA,A,1,,,,,,,,,,,,,25.5,25.5,25.5*02
$GPGSV,3,1,10,03,,,17,07,26,319,,08,70,245,31,09,33,277,*42
$GPGSV,3,2,10,11,23,195,20,16,41,048,,21,08,042,,22,00,187,21*79
$GPGSV,3,3,10,23,37,235,25,31,05,134,14*7A
$GPRMC,041258.000,V,,,,,,,310517,,,N*46
$GPVTG,,,,,,,,,N*30
$GPZDA,041258.000,31,05,2017,00,00*5F
$GPTXT,01,01,01,ANTENNA OK*35
$GPGGA,041259.000,,,,,0,00,25.5,,,,,,*6F
$GPGLL,,,,,041259.000,V,N*71
$GPGSA,A,1,,,,,,,,,,,,,25.5,25.5,25.5*02
$GPGSV,3,1,10,03,,,17,07,26,319,,08,70,245,31,09,33,277,*42
$GPGSV,3,2,10,11,23,195,20,16,41,048,,21,08,042,,22,00,187,22*7A
$GPGSV,3,3,10,23,37,235,30,31,05,134,14*7E
$GPRMC,041259.000,V,,,,,,,310517,,,N*47
$GPVTG,,,,,,,,,N*30
$GPZDA,041259.000,31,05,2017,00,00*5E
$GPTXT,01,01,01,ANTENNA OK*35
$GPGGA,041300.000,,,,,0,00,25.5,,,,,,*62
$GPGLL,,,,,041300.000,V,N*7C
$GPGSA,A,1,,,,,,,,,,,,,25.5,25.5,25.5*02
$GPGSV,3,1,10,03,,,19,07,26,319,,08,70,245,33,09,33,277,*4E
$GPGSV,3,2,10,11,23,195,20,16,41,048,,21,08,042,,22,00,186,22*7B
$GPGSV,3,3,10,23,37,235,30,31,05,134,14*7E
$GPRMC,041300.000,V,,,,,,,310517,,,N*4A
$GPVTG,,,,,,,,,N*30
$GPZDA,041300.000,31,05,2017,00,00*53
$GPTXT,01,01,01,ANTENNA OK*35
$GPGGA,041301.000,,,,,0,00,25.5,,,,,,*63
$GPGLL,,,,,041301.000,V,N*7D
$GPGSA,A,1,,,,,,,,,,,,,25.5,25.5,25.5*02
$GPGSV,3,1,10,03,,,19,07,26,319,,08,70,245,33,09,33,277,*4E
$GPGSV,3,2,10,11,23,195,20,16,41,048,,21,08,042,,22,00,186,22*7B
$GPGSV,3,3,10,23,37,235,30,31,05,134,14*7E
$GPRMC,041301.000,V,,,,,,,310517,,,N*4B
$GPVTG,,,,,,,,,N*30
$GPZDA,041301.000,31,05,2017,00,00*52
$GPTXT,01,01,01,ANTENNA OK*35
$GPGGA,041302.000,,,,,0,00,25.5,,,,,,*60
$GPGLL,,,,,041302.000,V,N*7E
$GPGSA,A,1,,,,,,,,,,,,,25.5,25.5,25.5*02
$GPGSV,3,1,10,03,,,19,07,26,319,,08,70,245,31,09,33,277,*4C
$GPGSV,3,2,10,11,23,195,20,16,41,048,,21,08,042,,22,00,186,22*7B
$GPGSV,3,3,10,23,37,235,28,31,05,134,14*77
$GPRMC,041302.000,V,,,,,,,310517,,,N*48
$GPVTG,,,,,,,,,N*30
$GPZDA,041302.000,31,05,2017,00,00*51
$GPTXT,01,01,01,ANTENNA OK*35
$GPGGA,041303.000,,,,,0,00,25.5,,,,,,*61
$GPGLL,,,,,041303.000,V,N*7F
$GPGSA,A,1,,,,,,,,,,,,,25.5,25.5,25.5*02
$GPGSV,3,1,10,03,,,23,07,26,319,,08,70,245,31,09,33,277,*45
$GPGSV,3,2,10,11,23,195,20,16,41,048,,21,08,042,,22,00,186,24*7D
$GPGSV,3,3,10,23,37,235,28,31,05,134,14*77
$GPRMC,041303.000,V,,,,,,,310517,,,N*49
$GPVTG,,,,,,,,,N*30
$GPZDA,041303.000,31,05,2017,00,00*50
$GPTXT,01,01,01,ANTENNA OK*35
$GPGGA,041304.000,,,,,0,00,25.5,,,,,,*66
$GPGLL,,,,,041304.000,V,N*78
$GPGSA,A,1,,,,,,,,,,,,,25.5,25.5,25.5*02
$GPGSV,3,1,10,03,,,23,07,26,319,,08,70,245,33,09,33,277,*47
$GPGSV,3,2,10,11,23,195,20,16,41,048,,21,08,042,,22,00,186,24*7D
$GPGSV,3,3,10,23,37,235,28,31,05,134,14*77
$GPRMC,041304.000,V,,,,,,,310517,,,N*4E
$GPVTG,,,,,,,,,N*30
$GPZDA,041304.000,31,05,2017,00,00*57
$GPTXT,01,01,01,ANTENNA OK*35
$GPGGA,041305.000,,,,,0,00,25.5,,,,,,*67
$GPGLL,,,,,041305.000,V,N*79
$GPGSA,A,1,,,,,,,,,,,,,25.5,25.5,25.5*02
$GPGSV,3,1,10,03,,,23,07,26,319,,08,70,245,33,09,33,277,*47
$GPGSV,3,2,10,11,23,195,20,16,41,048,,21,08,042,,22,00,186,24*7D
$GPGSV,3,3,10,23,37,235,28,31,05,134,*72
$GPRMC,041305.000,V,,,,,,,310517,,,N*4F
$GPVTG,,,,,,,,,N*30
$GPZDA,041305.000,31,05,2017,00,00*56
$GPTXT,01,01,01,ANTENNA OK*35
$GPGGA,041306.000,,,,,0,00,25.5,,,,,,*64
$GPGLL,,,,,041306.000,V,N*7A
$GPGSA,A,1,,,,,,,,,,,,,25.5,25.5,25.5*02
$GPGSV,3,1,10,03,,,23,07,26,319,,08,70,245,33,09,33,277,*47
$GPGSV,3,2,10,11,23,195,20,16,41,048,,21,08,042,,22,00,186,24*7D
$GPGSV,3,3,10,23,37,235,28,31,05,134,*72
$GPRMC,041306.000,V,,,,,,,310517,,,N*4C
$GPVTG,,,,,,,,,N*30
$GPZDA,041306.000,31,05,2017,00,00*55
$GPTXT,01,01,01,ANTENNA OK*35
$GPGGA,041307.000,,,,,0,00,25.5,,,,,,*65
$GPGLL,,,,,041307.000,V,N*7B
$GPGSA,A,1,,,,,,,,,,,,,25.5,25.5,25.5*02
$GPGSV,3,1,10,03,,,20,07,26,319,,08,70,245,32,09,33,277,*45
$GPGSV,3,2,10,11,23,195,20,16,41,048,,21,08,042,,22,00,186,24*7D
$GPGSV,3,3,10,23,37,235,28,31,05,134,*72
$GPRMC,041307.000,V,,,,,,,310517,,,N*4D
$GPVTG,,,,,,,,,N*30
$GPZDA,041307.000,31,05,2017,00,00*54
$GPTXT,01,01,01,ANTENNA OK*35
$GPGGA,041308.000,,,,,0,00,25.5,,,,,,*6A
$GPGLL,,,,,041308.000,V,N*74
$GPGSA,A,1,,,,,,,,,,,,,25.5,25.5,25.5*02
$GPGSV,3,1,10,03,,,20,07,26,319,,08,70,245,32,09,33,277,*45
$GPGSV,3,2,10,11,23,195,22,16,41,048,,21,08,042,,22,00,186,24*7F
$GPGSV,3,3,10,23,37,235,28,31,05,134,*72
$GPRMC,041308.000,V,,,,,,,310517,,,N*42
$GPVTG,,,,,,,,,N*30
$GPZDA,041308.000,31,05,2017,00,00*5B
$GPTXT,01,01,01,ANTENNA OK*35
$GPGGA,041309.000,,,,,0,00,25.5,,,,,,*6B
$GPGLL,,,,,041309.000,V,N*75
$GPGSA,A,1,,,,,,,,,,,,,25.5,25.5,25.5*02
$GPGSV,3,1,10,03,,,20,07,26,319,,08,70,245,32,09,33,277,*45
$GPGSV,3,2,10,11,23,195,22,16,41,048,,21,08,042,,22,00,186,24*7F
$GPGSV,3,3,10,23,37,235,28,31,05,134,*72
$GPRMC,041309.000,V,,,,,,,310517,,,N*43
$GPVTG,,,,,,,,,N*30
$GPZDA,041309.000,31,05,2017,00,00*5A
$GPTXT,01,01,01,ANTENNA OK*35
$GPGGA,041310.000,,,,,0,00,25.5,,,,,,*63
$GPGLL,,,,,041310.000,V,N*7D
$GPGSA,A,1,,,,,,,,,,,,,25.5,25.5,25.5*02
$GPGSV,3,1,10,03,,,20,07,26,319,,08,70,245,32,09,33,277,*45
$GPGSV,3,2,10,11,23,195,22,16,41,048,,21,08,042,,22,00,186,24*7F
$GPGSV,3,3,10,23,37,235,28,31,05,134,*72
$GPRMC,041310.000,V,,,,,,,310517,,,N*4B
$GPVTG,,,,,,,,,N*30
$GPZDA,041310.000,31,05,2017,00,00*52
$GPTXT,01,01,01,ANTENNA OK*35
$GPGGA,041311.000,,,,,0,00,25.5,,,,,,*62
$GPGLL,,,,,041311.000,V,N*7C
$GPGSA,A,1,,,,,,,,,,,,,25.5,25.5,25.5*02
$GPGSV,3,1,10,03,,,20,07,26,319,,08,70,245,32,09,33,277,*45
$GPGSV,3,2,10,11,23,195,22,16,41,048,,21,08,042,,22,00,186,24*7F
$GPGSV,3,3,10,23,37,235,27,31,05,134,*7D
$GPRMC,041311.000,V,,,,,,,310517,,,N*4A
$GPVTG,,,,,,,,,N*30
$GPZDA,041311.000,31,05,2017,00,00*53
$GPTXT,01,01,01,ANTENNA OK*35
$GPGGA,041312.000,,,,,0,00,25.5,,,,,,*61
$GPGLL,,,,,041312.000,V,N*7F
$GPGSA,A,1,,,,,,,,,,,,,25.5,25.5,25.5*02
$GPGSV,3,1,10,03,,,20,07,26,319,,08,70,245,32,09,33,277,*45
$GPGSV,3,2,10,11,23,195,22,16,41,048,,21,08,042,,22,00,186,24*7F
$GPGSV,3,3,10,23,37,235,27,31,05,134,*7D
$GPRMC,041312.000,V,,,,,,,310517,,,N*49
$GPVTG,,,,,,,,,N*30
$GPZDA,041312.000,31,05,2017,00,00*50
$GPTXT,01,01,01,ANTENNA OK*35
$GPGGA,041313.000,,,,,0,00,25.5,,,,,,*60
$GPGLL,,,,,041313.000,V,N*7E
$GPGSA,A,1,,,,,,,,,,,,,25.5,25.5,25.5*02
$GPGSV,3,1,10,03,,,20,07,26,319,,08,70,245,32,09,33,277,*45
$GPGSV,3,2,10,11,23,195,22,16,41,048,,21,08,042,,22,00,186,24*7F
$GPGSV,3,3,10,23,37,235,27,31,05,134,*7D
$GPRMC,041313.000,V,,,,,,,310517,,,N*48
$GPVTG,,,,,,,,,N*30
$GPZDA,041313.000,31,05,2017,00,00*51
$GPTXT,01,01,01,ANTENNA OK*35
$GPGGA,041314.000,,,,,0,00,25.5,,,,,,*67
$GPGLL,,,,,041314.000,V,N*79
$GPGSA,A,1,,,,,,,,,,,,,25.5,25.5,25.5*02
$GPGSV,3,1,10,03,,,22,07,26,319,,08,70,245,31,09,33,277,*44
$GPGSV,3,2,10,11,24,195,22,16,41,048,,21,08,042,,22,00,186,24*78
$GPGSV,3,3,10,23,37,235,27,31,05,134,*7D
$GPRMC,041314.000,V,,,,,,,310517,,,N*4F
$GPVTG,,,,,,,,,N*30
$GPZDA,041314.000,31,05,2017,00,00*56
$GPTXT,01,01,01,ANTENNA OK*35
$GPGGA,041315.000,,,,,0,00,25.5,,,,,,*66
$GPGLL,,,,,041315.000,V,N*78
$GPGSA,A,1,,,,,,,,,,,,,25.5,25.5,25.5*02
$GPGSV,3,1,10,03,,,26,07,26,319,,08,70,245,31,09,33,277,*40
$GPGSV,3,2,10,11,24,195,22,16,41,048,,21,08,042,,22,00,186,24*78
$GPGSV,3,3,10,23,37,235,28,31,05,134,*72
$GPRMC,041315.000,V,,,,,,,310517,,,N*4E
$GPVTG,,,,,,,,,N*30
$GPZDA,041315.000,31,05,2017,00,00*57
$GPTXT,01,01,01,ANTENNA OK*35
$GPGGA,041316.000,,,,,0,00,25.5,,,,,,*65
$GPGLL,,,,,041316.000,V,N*7B
$GPGSA,A,1,,,,,,,,,,,,,25.5,25.5,25.5*02
$GPGSV,3,1,10,03,,,26,07,26,319,,08,70,245,31,09,33,277,*40
$GPGSV,3,2,10,11,24,195,22,16,41,048,,21,08,042,,22,00,186,24*78
$GPGSV,3,3,10,23,37,235,28,31,05,134,*72
$GPRMC,041316.000,V,,,,,,,310517,,,N*4D
$GPVTG,,,,,,,,,N*30
$GPZDA,041316.000,31,05,2017,00,00*54
$GPTXT,01,01,01,ANTENNA OK*35
$GPGGA,041317.000,,,,,0,00,25.5,,,,,,*64
$GPGLL,,,,,041317.000,V,N*7A
$GPGSA,A,1,,,,,,,,,,,,,25.5,25.5,25.5*02
$GPGSV,3,1,10,03,,,26,07,26,319,,08,70,245,31,09,33,277,*40
$GPGSV,3,2,10,11,24,195,21,16,41,048,,21,08,042,,22,00,186,22*7D
$GPGSV,3,3,10,23,37,235,28,31,05,134,*72
$GPRMC,041317.000,V,,,,,,,310517,,,N*4C
$GPVTG,,,,,,,,,N*30
$GPZDA,041317.000,31,05,2017,00,00*55
$GPTXT,01,01,01,ANTENNA OK*35
$GPGGA,041318.000,,,,,0,00,25.5,,,,,,*6B
$GPGLL,,,,,041318.000,V,N*75
$GPGSA,A,1,,,,,,,,,,,,,25.5,25.5,25.5*02
$GPGSV,3,1,10,03,,,26,07,26,319,,08,70,245,31,09,33,277,*40
$GPGSV,3,2,10,11,24,195,21,16,41,048,,21,08,042,,22,00,186,22*7D
$GPGSV,3,3,10,23,37,235,25,31,05,134,*7F
$GPRMC,041318.000,V,,,,,,,310517,,,N*43
$GPVTG,,,,,,,,,N*30
$GPZDA,041318.000,31,05,2017,00,00*5A
$GPTXT,01,01,01,ANTENNA OK*35
$GPGGA,041319.000,,,,,0,00,25.5,,,,,,*6A
$GPGLL,,,,,041319.000,V,N*74
$GPGSA,A,1,,,,,,,,,,,,,25.5,25.5,25.5*02
$GPGSV,3,1,10,03,,,26,07,26,319,,08,70,245,31,09,33,276,*41
$GPGSV,3,2,10,11,24,195,21,16,41,048,,21,08,042,,22,00,186,22*7D
$GPGSV,3,3,10,23,37,235,25,31,05,134,*7F
$GPRMC,041319.000,V,,,,,,,310517,,,N*42
$GPVTG,,,,,,,,,N*30
$GPZDA,041319.000,31,05,2017,00,00*5B
$GPTXT,01,01,01,ANTENNA OK*35
$GPGGA,041320.000,,,,,0,00,25.5,,,,,,*60
$GPGLL,,,,,041320.000,V,N*7E
$GPGSA,A,1,,,,,,,,,,,,,25.5,25.5,25.5*02
$GPGSV,3,1,10,03,,,26,07,26,319,,08,70,245,31,09,33,276,*41
$GPGSV,3,2,10,11,24,195,21,16,41,048,,21,08,042,,22,00,186,22*7D
$GPGSV,3,3,10,23,37,235,25,31,05,134,*7F
$GPRMC,041320.000,V,,,,,,,310517,,,N*48
$GPVTG,,,,,,,,,N*30
$GPZDA,041320.000,31,05,2017,00,00*51
$GPTXT,01,01,01,ANTENNA OK*35
$GPGGA,041321.000,,,,,0,00,25.5,,,,,,*61
$GPGLL,,,,,041321.000,V,N*7F
$GPGSA,A,1,,,,,,,,,,,,,25.5,25.5,25.5*02
$GPGSV,3,1,10,03,,,24,07,26,319,,08,70,245,31,09,33,276,*43
$GPGSV,3,2,10,11,24,195,21,16,41,048,,21,08,042,,22,00,186,22*7D
$GPGSV,3,3,10,23,37,235,25,31,05,134,*7F
$GPRMC,041321.000,V,,,,,,,310517,,,N*49
$GPVTG,,,,,,,,,N*30
$GPZDA,041321.000,31,05,2017,00,00*50
$GPTXT,01,01,01,ANTENNA OK*35
$GPGGA,041322.000,,,,,0,00,25.5,,,,,,*62
$GPGLL,,,,,041322.000,V,N*7C
$GPGSA,A,1,,,,,,,,,,,,,25.5,25.5,25.5*02
$GPGSV,3,1,10,03,,,24,07,26,319,,08,71,245,30,09,33,276,*43
$GPGSV,3,2,10,11,24,195,21,16,41,048,,21,08,042,,22,00,186,18*74
$GPGSV,3,3,10,23,37,235,26,31,05,134,*7C
$GPRMC,041322.000,V,,,,,,,310517,,,N*4A
$GPVTG,,,,,,,,,N*30
$GPZDA,041322.000,31,05,2017,00,00*53
$GPTXT,01,01,01,ANTENNA OK*35
$GPGGA,041323.000,,,,,0,00,25.5,,,,,,*63
$GPGLL,,,,,041323.000,V,N*7D
$GPGSA,A,1,,,,,,,,,,,,,25.5,25.5,25.5*02
$GPGSV,3,1,10,03,,,24,07,26,319,,08,71,245,30,09,33,276,*43
$GPGSV,3,2,10,11,24,195,21,16,41,048,,21,08,042,,22,00,186,18*74
$GPGSV,3,3,10,23,37,235,26,31,05,134,*7C
$GPRMC,041323.000,V,,,,,,,310517,,,N*4B
$GPVTG,,,,,,,,,N*30
$GPZDA,041323.000,31,05,2017,00,00*52
$GPTXT,01,01,01,ANTENNA OK*35
$GPGGA,041324.000,,,,,0,00,25.5,,,,,,*64
$GPGLL,,,,,041324.000,V,N*7A
$GPGSA,A,1,,,,,,,,,,,,,25.5,25.5,25.5*02
$GPGSV,3,1,10,03,,,24,07,26,319,,08,71,245,32,09,33,276,*41
$GPGSV,3,2,10,11,24,195,21,16,41,048,,21,08,042,,22,00,186,23*7C
$GPGSV,3,3,10,23,37,235,26,31,05,134,*7C
$GPRMC,041324.000,V,,,,,,,310517,,,N*4C
$GPVTG,,,,,,,,,N*30
$GPZDA,041324.000,31,05,2017,00,00*55
$GPTXT,01,01,01,ANTENNA OK*35
$GPGGA,041325.000,,,,,0,00,25.5,,,,,,*65
$GPGLL,,,,,041325.000,V,N*7B
$GPGSA,A,1,,,,,,,,,,,,,25.5,25.5,25.5*02
$GPGSV,3,1,10,03,,,24,07,26,319,,08,71,245,32,09,33,276,*41
$GPGSV,3,2,10,11,24,195,21,16,41,048,,21,08,042,,22,00,186,23*7C
$GPGSV,3,3,10,23,37,235,28,31,05,134,*72
$GPRMC,041325.000,V,,,,,,,310517,,,N*4D
$GPVTG,,,,,,,,,N*30
$GPZDA,041325.000,31,05,2017,00,00*54
$GPTXT,01,01,01,ANTENNA OK*35
$GPGGA,041326.000,,,,,0,00,25.5,,,,,,*66
$GPGLL,,,,,041326.000,V,N*78
$GPGSA,A,1,,,,,,,,,,,,,25.5,25.5,25.5*02
$GPGSV,3,1,10,03,,,24,07,26,319,,08,71,245,30,09,33,276,*43
$GPGSV,3,2,10,11,24,195,21,16,41,048,,21,08,042,,22,00,186,27*78
$GPGSV,3,3,10,23,37,235,28,31,05,134,*72
$GPRMC,041326.000,V,,,,,,,310517,,,N*4E
$GPVTG,,,,,,,,,N*30
$GPZDA,041326.000,31,05,2017,00,00*57
$GPTXT,01,01,01,ANTENNA OK*35
$GPGGA,041327.000,,,,,0,00,25.5,,,,,,*67
$GPGLL,,,,,041327.000,V,N*79
$GPGSA,A,1,,,,,,,,,,,,,25.5,25.5,25.5*02
$GPGSV,3,1,10,03,,,24,07,26,319,,08,71,245,32,09,33,276,*41
$GPGSV,3,2,10,11,24,195,21,16,41,048,,21,08,042,,22,00,186,27*78
$GPGSV,3,3,10,23,37,235,28,31,05,134,*72
$GPRMC,041327.000,V,,,,,,,310517,,,N*4F
$GPVTG,,,,,,,,,N*30
$GPZDA,041327.000,31,05,2017,00,00*56
$GPTXT,01,01,01,ANTENNA OK*35
$GPGGA,041328.000,,,,,0,00,25.5,,,,,,*68
$GPGLL,,,,,041328.000,V,N*76
$GPGSA,A,1,,,,,,,,,,,,,25.5,25.5,25.5*02
$GPGSV,3,1,10,03,,,19,07,26,319,,08,71,245,32,09,33,276,*4F
$GPGSV,3,2,10,11,24,195,22,16,41,048,,21,08,042,,22,00,186,27*7B
$GPGSV,3,3,10,23,37,235,28,31,05,134,*72
$GPRMC,041328.000,V,,,,,,,310517,,,N*40
$GPVTG,,,,,,,,,N*30
$GPZDA,041328.000,31,05,2017,00,00*59
$GPTXT,01,01,01,ANTENNA OK*35
$GPGGA,041329.000,,,,,0,00,25.5,,,,,,*69
$GPGLL,,,,,041329.000,V,N*77
$GPGSA,A,1,,,,,,,,,,,,,25.5,25.5,25.5*02
$GPGSV,3,1,10,03,,,19,07,26,319,,08,71,245,32,09,33,276,*4F
$GPGSV,3,2,10,11,24,195,22,16,41,048,,21,08,042,,22,00,186,27*7B
$GPGSV,3,3,10,23,37,235,28,31,05,134,*72
$GPRMC,041329.000,V,,,,,,,310517,,,N*41
$GPVTG,,,,,,,,,N*30
$GPZDA,041329.000,31,05,2017,00,00*58
$GPTXT,01,01,01,ANTENNA OK*35
$GPGGA,041330.000,,,,,0,00,25.5,,,,,,*61
$GPGLL,,,,,041330.000,V,N*7F
$GPGSA,A,1,,,,,,,,,,,,,25.5,25.5,25.5*02
$GPGSV,3,1,10,03,,,19,07,26,319,,08,71,245,32,09,33,276,*4F
$GPGSV,3,2,10,11,24,195,25,16,41,048,,21,08,042,,22,00,186,27*7C
$GPGSV,3,3,10,23,37,235,29,31,05,134,*73
$GPRMC,041330.000,V,,,,,,,310517,,,N*49
$GPVTG,,,,,,,,,N*30
$GPZDA,041330.000,31,05,2017,00,00*50
$GPTXT,01,01,01,ANTENNA OK*35
$GPGGA,041331.000,,,,,0,00,25.5,,,,,,*60
$GPGLL,,,,,041331.000,V,N*7E
$GPGSA,A,1,,,,,,,,,,,,,25.5,25.5,25.5*02
$GPGSV,3,1,10,03,,,19,07,26,319,,08,71,245,31,09,33,276,*4C
$GPGSV,3,2,10,11,24,195,25,16,41,048,,21,08,042,,22,00,186,27*7C
$GPGSV,3,3,10,23,37,235,29,31,05,134,*73
$GPRMC,041331.000,V,,,,,,,310517,,,N*48
$GPVTG,,,,,,,,,N*30
$GPZDA,041331.000,31,05,2017,00,00*51
$GPTXT,01,01,01,ANTENNA OK*35
$GPGGA,041332.000,,,,,0,00,25.5,,,,,,*63
$GPGLL,,,,,041332.000,V,N*7D
$GPGSA,A,1,,,,,,,,,,,,,25.5,25.5,25.5*02
$GPGSV,3,1,10,03,,,08,07,26,319,,08,71,245,31,09,33,276,*4C
$GPGSV,3,2,10,11,24,195,25,16,41,048,,21,08,042,,22,00,186,27*7C
$GPGSV,3,3,10,23,37,235,29,31,05,134,*73
$GPRMC,041332.000,V,,,,,,,310517,,,N*4B
$GPVTG,,,,,,,,,N*30
$GPZDA,041332.000,31,05,2017,00,00*52
$GPTXT,01,01,01,ANTENNA OK*35
$GPGGA,041333.000,,,,,0,00,25.5,,,,,,*62
$GPGLL,,,,,041333.000,V,N*7C
$GPGSA,A,1,,,,,,,,,,,,,25.5,25.5,25.5*02
$GPGSV,3,1,10,03,,,08,07,26,319,,08,71,245,31,09,33,276,*4C
$GPGSV,3,2,10,11,24,195,25,16,41,048,,21,08,042,,22,00,186,26*7D
$GPGSV,3,3,10,23,37,235,29,31,05,134,*73
$GPRMC,041333.000,V,,,,,,,310517,,,N*4A
$GPVTG,,,,,,,,,N*30
$GPZDA,041333.000,31,05,2017,00,00*53
$GPTXT,01,01,01,ANTENNA OK*35
$GPGGA,041334.000,,,,,0,00,25.5,,,,,,*65
$GPGLL,,,,,041334.000,V,N*7B
$GPGSA,A,1,,,,,,,,,,,,,25.5,25.5,25.5*02
$GPGSV,3,1,10,03,,,08,07,26,319,,08,71,246,33,09,33,276,*4D
$GPGSV,3,2,10,11,24,195,25,16,41,048,,21,08,042,,22,00,186,26*7D
$GPGSV,3,3,10,23,37,235,29,31,05,134,*73
$GPRMC,041334.000,V,,,,,,,310517,,,N*4D
$GPVTG,,,,,,,,,N*30
$GPZDA,041334.000,31,05,2017,00,00*54
$GPTXT,01,01,01,ANTENNA OK*35
$GPGGA,041335.000,,,,,0,00,25.5,,,,,,*64
$GPGLL,,,,,041335.000,V,N*7A
$GPGSA,A,1,,,,,,,,,,,,,25.5,25.5,25.5*02
$GPGSV,3,1,10,03,,,08,07,26,319,,08,71,246,33,09,33,276,*4D
$GPGSV,3,2,10,11,24,195,25,16,41,048,,21,08,042,,22,00,186,26*7D
$GPGSV,3,3,10,23,37,235,29,31,05,134,*73
$GPRMC,041335.000,V,,,,,,,310517,,,N*4C
$GPVTG,,,,,,,,,N*30
$GPZDA,041335.000,31,05,2017,00,00*55
$GPTXT,01,01,01,ANTENNA OK*35
$GPGGA,041336.000,,,,,0,00,25.5,,,,,,*67
$GPGLL,,,,,041336.000,V,N*79
$GPGSA,A,1,,,,,,,,,,,,,25.5,25.5,25.5*02
$GPGSV,3,1,10,03,,,08,07,26,319,,08,71,246,33,09,33,276,*4D
$GPGSV,3,2,10,11,24,195,25,16,41,048,,21,08,042,,22,00,186,26*7D
$GPGSV,3,3,10,23,37,235,29,31,05,134,*73
$GPRMC,041336.000,V,,,,,,,310517,,,N*4F
$GPVTG,,,,,,,,,N*30
$GPZDA,041336.000,31,05,2017,00,00*56
$GPTXT,01,01,01,ANTENNA OK*35
$GPGGA,041337.000,,,,,0,00,25.5,,,,,,*66
$GPGLL,,,,,041337.000,V,N*78
$GPGSA,A,1,,,,,,,,,,,,,25.5,25.5,25.5*02
$GPGSV,3,1,10,03,,,08,07,26,319,,08,71,246,32,09,33,276,*4C
$GPGSV,3,2,10,11,24,195,25,16,41,048,,21,08,042,,22,00,186,24*7F
$GPGSV,3,3,10,23,37,235,29,31,05,134,*73
$GPRMC,041337.000,V,,,,,,,310517,,,N*4E
$GPVTG,,,,,,,,,N*30
$GPZDA,041337.000,31,05,2017,00,00*57
$GPTXT,01,01,01,ANTENNA OK*35
$GPGGA,041338.000,,,,,0,00,25.5,,,,,,*69
$GPGLL,,,,,041338.000,V,N*77
$GPGSA,A,1,,,,,,,,,,,,,25.5,25.5,25.5*02
$GPGSV,3,1,10,03,,,13,07,26,319,,08,71,246,32,09,33,276,*46
$GPGSV,3,2,10,11,24,195,25,16,41,048,,21,08,042,,22,00,186,24*7F
$GPGSV,3,3,10,23,37,235,29,31,05,134,*73
$GPRMC,041338.000,V,,,,,,,310517,,,N*41
$GPVTG,,,,,,,,,N*30
$GPZDA,041338.000,31,05,2017,00,00*58
$GPTXT,01,01,01,ANTENNA OK*35
$GPGGA,041339.000,,,,,0,00,25.5,,,,,,*68
$GPGLL,,,,,041339.000,V,N*76
$GPGSA,A,1,,,,,,,,,,,,,25.5,25.5,25.5*02
$GPGSV,3,1,10,03,,,13,07,26,319,,08,71,246,32,09,33,276,*46
$GPGSV,3,2,10,11,24,195,25,16,41,048,,21,08,042,,22,00,186,24*7F
$GPGSV,3,3,10,23,37,235,29,31,05,134,*73
$GPRMC,041339.000,V,,,,,,,310517,,,N*40
$GPVTG,,,,,,,,,N*30
$GPZDA,041339.000,31,05,2017,00,00*59
$GPTXT,01,01,01,ANTENNA OK*35
$GPGGA,041340.000,,,,,0,00,25.5,,,,,,*66
$GPGLL,,,,,041340.000,V,N*78
$GPGSA,A,1,,,,,,,,,,,,,25.5,25.5,25.5*02
$GPGSV,3,1,10,03,,,13,07,26,319,,08,71,246,32,09,33,276,*46
$GPGSV,3,2,10,11,24,195,25,16,41,048,,21,08,042,,22,00,186,24*7F
$GPGSV,3,3,10,23,37,235,30,31,05,134,*7B
$GPRMC,041340.000,V,,,,,,,310517,,,N*4E
$GPVTG,,,,,,,,,N*30
$GPZDA,041340.000,31,05,2017,00,00*57
$GPTXT,01,01,01,ANTENNA OK*35
$GPGGA,041341.000,,,,,0,00,25.5,,,,,,*67
$GPGLL,,,,,041341.000,V,N*79
$GPGSA,A,1,,,,,,,,,,,,,25.5,25.5,25.5*02
$GPGSV,3,1,10,03,,,13,07,26,319,,08,71,246,31,09,33,276,*45
$GPGSV,3,2,10,11,24,195,25,16,41,048,,21,08,042,,22,00,186,26*7D
$GPGSV,3,3,10,23,37,235,30,31,05,134,*7B
$GPRMC,041341.000,V,,,,,,,310517,,,N*4F
$GPVTG,,,,,,,,,N*30
$GPZDA,041341.000,31,05,2017,00,00*56
$GPTXT,01,01,01,ANTENNA OK*35
$GPGGA,041342.000,,,,,0,00,25.5,,,,,,*64
$GPGLL,,,,,041342.000,V,N*7A
$GPGSA,A,1,,,,,,,,,,,,,25.5,25.5,25.5*02
$GPGSV,3,1,10,03,,,13,07,26,319,,08,71,246,31,09,33,276,*45
$GPGSV,3,2,10,11,24,195,25,16,41,048,,21,08,042,,22,00,186,26*7D
$GPGSV,3,3,10,23,37,235,30,31,05,134,*7B
$GPRMC,041342.000,V,,,,,,,310517,,,N*4C
$GPVTG,,,,,,,,,N*30
$GPZDA,041342.000,31,05,2017,00,00*55
$GPTXT,01,01,01,ANTENNA OK*35
$GPGGA,041343.000,,,,,0,00,25.5,,,,,,*65
$GPGLL,,,,,041343.000,V,N*7B
$GPGSA,A,1,,,,,,,,,,,,,25.5,25.5,25.5*02
$GPGSV,3,1,10,03,,,13,07,26,319,,08,71,246,28,09,33,276,*4D
$GPGSV,3,2,10,11,24,195,27,16,41,048,,21,08,042,,22,00,186,26*7F
$GPGSV,3,3,10,23,37,235,30,31,05,134,*7B
$GPRMC,041343.000,V,,,,,,,310517,,,N*4D
$GPVTG,,,,,,,,,N*30
$GPZDA,041343.000,31,05,2017,00,00*54
$GPTXT,01,01,01,ANTENNA OK*35
$GPGGA,041344.000,,,,,0,00,25.5,,,,,,*62
$GPGLL,,,,,041344.000,V,N*7C
$GPGSA,A,1,,,,,,,,,,,,,25.5,25.5,25.5*02
$GPGSV,3,1,10,03,,,13,07,26,319,,08,71,246,28,09,33,276,*4D
$GPGSV,3,2,10,11,24,195,27,16,41,048,,21,08,042,,22,00,186,26*7F
$GPGSV,3,3,10,23,37,235,30,31,05,134,*7B
$GPRMC,041344.000,V,,,,,,,310517,,,N*4A
$GPVTG,,,,,,,,,N*30
$GPZDA,041344.000,31,05,2017,00,00*53
$GPTXT,01,01,01,ANTENNA OK*35
$GPGGA,041345.000,,,,,0,00,25.5,,,,,,*63
$GPGLL,,,,,041345.000,V,N*7D
$GPGSA,A,1,,,,,,,,,,,,,25.5,25.5,25.5*02
$GPGSV,3,1,10,03,,,16,07,26,319,,08,71,246,28,09,33,276,*48
$GPGSV,3,2,10,11,24,195,27,16,41,048,,21,08,042,,22,00,186,26*7F
$GPGSV,3,3,10,23,37,235,30,31,05,134,*7B
$GPRMC,041345.000,V,,,,,,,310517,,,N*4B
$GPVTG,,,,,,,,,N*30
$GPZDA,041345.000,31,05,2017,00,00*52
$GPTXT,01,01,01,ANTENNA OK*35
$GPGGA,041346.000,,,,,0,00,25.5,,,,,,*60
$GPGLL,,,,,041346.000,V,N*7E
$GPGSA,A,1,,,,,,,,,,,,,25.5,25.5,25.5*02
$GPGSV,3,1,10,03,,,16,07,26,319,,08,71,246,28,09,33,276,*48
$GPGSV,3,2,10,11,24,195,27,16,41,048,,21,08,042,,22,00,186,26*7F
$GPGSV,3,3,10,23,37,235,30,31,05,134,*7B
$GPRMC,041346.000,V,,,,,,,310517,,,N*48
$GPVTG,,,,,,,,,N*30
$GPZDA,041346.000,31,05,2017,00,00*51
$GPTXT,01,01,01,ANTENNA OK*35
$GPGGA,041347.000,,,,,0,00,25.5,,,,,,*61
$GPGLL,,,,,041347.000,V,N*7F
$GPGSA,A,1,,,,,,,,,,,,,25.5,25.5,25.5*02
$GPGSV,3,1,10,03,,,16,07,26,319,,08,71,246,28,09,33,276,*48
$GPGSV,3,2,10,11,24,195,27,16,41,048,,21,08,042,,22,00,186,26*7F
$GPGSV,3,3,10,23,37,235,30,31,05,134,*7B
$GPRMC,041347.000,V,,,,,,,310517,,,N*49
$GPVTG,,,,,,,,,N*30
$GPZDA,041347.000,31,05,2017,00,00*50
$GPTXT,01,01,01,ANTENNA OK*35
$GPGGA,041348.000,,,,,0,00,25.5,,,,,,*6E
$GPGLL,,,,,041348.000,V,N*70
$GPGSA,A,1,,,,,,,,,,,,,25.5,25.5,25.5*02
$GPGSV,3,1,10,03,,,16,07,26,319,,08,71,246,28,09,33,276,*48
$GPGSV,3,2,10,11,24,195,27,16,41,048,,21,08,042,,22,00,186,26*7F
$GPGSV,3,3,10,23,37,235,30,31,05,134,*7B
$GPRMC,041348.000,V,,,,,,,310517,,,N*46
$GPVTG,,,,,,,,,N*30
$GPZDA,041348.000,31,05,2017,00,00*5F
$GPTXT,01,01,01,ANTENNA OK*35
$GPGGA,041349.000,,,,,0,00,25.5,,,,,,*6F
$GPGLL,,,,,041349.000,V,N*71
$GPGSA,A,1,,,,,,,,,,,,,25.5,25.5,25.5*02
$GPGSV,3,1,10,03,,,16,07,27,319,,08,71,246,28,09,33,276,*49
$GPGSV,3,2,10,11,24,195,27,16,41,048,,21,08,042,,22,00,186,26*7F
$GPGSV,3,3,10,23,37,235,30,31,05,134,*7B
$GPRMC,041349.000,V,,,,,,,310517,,,N*47
$GPVTG,,,,,,,,,N*30
$GPZDA,041349.000,31,05,2017,00,00*5E
$GPTXT,01,01,01,ANTENNA OK*35
$GPGGA,041350.000,,,,,0,00,25.5,,,,,,*67
$GPGLL,,,,,041350.000,V,N*79
$GPGSA,A,1,,,,,,,,,,,,,25.5,25.5,25.5*02
$GPGSV,3,1,10,03,,,16,07,27,319,,08,71,246,28,09,33,276,*49
$GPGSV,3,2,10,11,24,195,27,16,41,048,,21,08,042,,22,00,186,26*7F
$GPGSV,3,3,10,23,37,235,30,31,05,134,*7B
$GPRMC,041350.000,V,,,,,,,310517,,,N*4F
$GPVTG,,,,,,,,,N*30
$GPZDA,041350.000,31,05,2017,00,00*56
$GPTXT,01,01,01,ANTENNA OK*35
$GPGGA,041351.000,,,,,0,00,25.5,,,,,,*66
$GPGLL,,,,,041351.000,V,N*78
$GPGSA,A,1,,,,,,,,,,,,,25.5,25.5,25.5*02
$GPGSV,3,1,10,03,,,16,07,27,319,,08,71,246,28,09,33,276,*49
$GPGSV,3,2,10,11,24,195,27,16,41,048,,21,08,042,,22,00,186,26*7F
$GPGSV,3,3,10,23,37,235,30,31,05,134,*7B
$GPRMC,041351.000,V,,,,,,,310517,,,N*4E
$GPVTG,,,,,,,,,N*30
$GPZDA,041351.000,31,05,2017,00,00*57
$GPTXT,01,01,01,ANTENNA OK*35
$GPGGA,041352.000,,,,,0,00,25.5,,,,,,*65
$GPGLL,,,,,041352.000,V,N*7B
$GPGSA,A,1,,,,,,,,,,,,,25.5,25.5,25.5*02
$GPGSV,3,1,10,03,,,16,07,27,319,,08,71,246,26,09,33,276,*47
$GPGSV,3,2,10,11,24,195,27,16,41,048,,21,08,042,,22,00,186,26*7F
$GPGSV,3,3,10,23,37,235,30,31,05,134,*7B
$GPRMC,041352.000,V,,,,,,,310517,,,N*4D
$GPVTG,,,,,,,,,N*30
$GPZDA,041352.000,31,05,2017,00,00*54
$GPTXT,01,01,01,ANTENNA OK*35
$GPGGA,041353.000,,,,,0,00,25.5,,,,,,*64
$GPGLL,,,,,041353.000,V,N*7A
$GPGSA,A,1,,,,,,,,,,,,,25.5,25.5,25.5*02
$GPGSV,3,1,10,03,,,16,07,27,319,,08,71,246,26,09,33,276,*47
$GPGSV,3,2,10,11,24,195,27,16,41,048,,21,08,042,,22,00,186,24*7D
$GPGSV,3,3,10,23,37,235,30,31,05,134,*7B
$GPRMC,041353.000,V,,,,,,,310517,,,N*4C
$GPVTG,,,,,,,,,N*30
$GPZDA,041353.000,31,05,2017,00,00*55
$GPTXT,01,01,01,ANTENNA OK*35
$GPGGA,041354.000,,,,,0,00,25.5,,,,,,*63
$GPGLL,,,,,041354.000,V,N*7D
$GPGSA,A,1,,,,,,,,,,,,,25.5,25.5,25.5*02
$GPGSV,3,1,10,03,,,16,07,27,319,,08,71,246,26,09,33,276,*47
$GPGSV,3,2,10,11,24,195,27,16,41,048,,21,08,042,,22,00,186,24*7D
$GPGSV,3,3,10,23,37,235,30,31,05,134,*7B
$GPRMC,041354.000,V,,,,,,,310517,,,N*4B
$GPVTG,,,,,,,,,N*30
$GPZDA,041354.000,31,05,2017,00,00*52
$GPTXT,01,01,01,ANTENNA OK*35
$GPGGA,041355.000,,,,,0,00,25.5,,,,,,*62
$GPGLL,,,,,041355.000,V,N*7C
$GPGSA,A,1,,,,,,,,,,,,,25.5,25.5,25.5*02
$GPGSV,3,1,10,03,,,13,07,27,319,,08,71,246,26,09,33,276,26*46
$GPGSV,3,2,10,11,24,195,26,16,41,048,,21,08,042,,22,00,186,24*7C
$GPGSV,3,3,10,23,37,235,30,31,05,134,*7B
$GPRMC,041355.000,V,,,,,,,310517,,,N*4A
$GPVTG,,,,,,,,,N*30
$GPZDA,041355.000,31,05,2017,00,00*53
$GPTXT,01,01,01,ANTENNA OK*35
$GPGGA,041356.000,,,,,0,00,25.5,,,,,,*61
$GPGLL,,,,,041356.000,V,N*7F
$GPGSA,A,1,,,,,,,,,,,,,25.5,25.5,25.5*02
$GPGSV,3,1,10,03,,,13,07,27,319,,08,71,246,26,09,33,276,26*46
$GPGSV,3,2,10,11,24,195,26,16,41,048,,21,08,042,,22,00,186,26*7E
$GPGSV,3,3,10,23,37,235,30,31,05,134,*7B
$GPRMC,041356.000,V,,,,,,,310517,,,N*49
$GPVTG,,,,,,,,,N*30
$GPZDA,041356.000,31,05,2017,00,00*50
$GPTXT,01,01,01,ANTENNA OK*35
$GPGGA,041357.000,,,,,0,00,25.5,,,,,,*60
$GPGLL,,,,,041357.000,V,N*7E
$GPGSA,A,1,,,,,,,,,,,,,25.5,25.5,25.5*02
$GPGSV,3,1,10,03,,,13,07,27,319,,08,71,246,26,09,33,276,26*46
$GPGSV,3,2,10,11,24,195,26,16,41,048,,21,08,042,,22,00,186,26*7E
$GPGSV,3,3,10,23,37,235,30,31,05,134,*7B
$GPRMC,041357.000,V,,,,,,,310517,,,N*48
$GPVTG,,,,,,,,,N*30
$GPZDA,041357.000,31,05,2017,00,00*51
$GPTXT,01,01,01,ANTENNA OK*35
$GPGGA,041358.000,,,,,0,00,25.5,,,,,,*6F
$GPGLL,,,,,041358.000,V,N*71
$GPGSA,A,1,,,,,,,,,,,,,25.5,25.5,25.5*02
$GPGSV,3,1,10,03,,,13,07,27,319,,08,71,246,26,09,33,276,26*46
$GPGSV,3,2,10,11,24,195,26,16,41,048,,21,08,042,,22,00,186,26*7E
$GPGSV,3,3,10,23,37,235,30,31,05,134,*7B
$GPRMC,041358.000,V,,,,,,,310517,,,N*47
$GPVTG,,,,,,,,,N*30
$GPZDA,041358.000,31,05,2017,00,00*5E
$GPTXT,01,01,01,ANTENNA OK*35
$GPGGA,041359.000,,,,,0,00,25.5,,,,,,*6E
$GPGLL,,,,,041359.000,V,N*70
$GPGSA,A,1,,,,,,,,,,,,,25.5,25.5,25.5*02
$GPGSV,3,1,10,03,,,13,07,27,319,,08,71,246,26,09,33,276,26*46
$GPGSV,3,2,10,11,24,195,26,16,41,048,,21,08,042,,22,00,186,26*7E
$GPGSV,3,3,10,23,37,235,30,31,05,134,*7B
$GPRMC,041359.000,V,,,,,,,310517,,,N*46
$GPVTG,,,,,,,,,N*30
$GPZDA,041359.000,31,05,2017,00,00*5F
$GPTXT,01,01,01,ANTENNA OK*35
$GPGGA,041400.000,,,,,0,00,25.5,,,,,,*65
$GPGLL,,,,,041400.000,V,N*7B
$GPGSA,A,1,,,,,,,,,,,,,25.5,25.5,25.5*02
$GPGSV,3,1,10,03,,,13,07,27,319,,08,71,246,26,09,33,276,26*46
$GPGSV,3,2,10,11,24,195,26,16,41,048,,21,08,042,,22,00,186,26*7E
$GPGSV,3,3,10,23,37,235,30,31,05,134,*7B
$GPRMC,041400.000,V,,,,,,,310517,,,N*4D
$GPVTG,,,,,,,,,N*30
$GPZDA,041400.000,31,05,2017,00,00*54
$GPTXT,01,01,01,ANTENNA OK*35
$GPGGA,041401.000,,,,,0,00,25.5,,,,,,*64
$GPGLL,,,,,041401.000,V,N*7A
$GPGSA,A,1,,,,,,,,,,,,,25.5,25.5,25.5*02
$GPGSV,3,1,10,03,,,13,07,27,319,,08,71,246,26,09,33,276,26*46
$GPGSV,3,2,10,11,24,195,26,16,41,048,,21,08,042,,22,00,186,26*7E
$GPGSV,3,3,10,23,37,235,30,31,05,134,*7B
$GPRMC,041401.000,V,,,,,,,310517,,,N*4C
$GPVTG,,,,,,,,,N*30
$GPZDA,041401.000,31,05,2017,00,00*55
$GPTXT,01,01,01,ANTENNA OK*35
$GPGGA,041402.000,,,,,0,00,25.5,,,,,,*67
$GPGLL,,,,,041402.000,V,N*79
$GPGSA,A,1,,,,,,,,,,,,,25.5,25.5,25.5*02
$GPGSV,3,1,10,03,,,13,07,27,319,,08,71,246,26,09,33,276,26*46
$GPGSV,3,2,10,11,24,195,26,16,41,048,,21,08,042,,22,00,186,26*7E
$GPGSV,3,3,10,23,37,235,30,31,05,134,*7B
$GPRMC,041402.000,V,,,,,,,310517,,,N*4F
$GPVTG,,,,,,,,,N*30
$GPZDA,041402.000,31,05,2017,00,00*56
$GPTXT,01,01,01,ANTENNA OK*35
$GPGGA,041403.000,,,,,0,00,25.5,,,,,,*66
$GPGLL,,,,,041403.000,V,N*78
$GPGSA,A,1,,,,,,,,,,,,,25.5,25.5,25.5*02
$GPGSV,3,1,10,03,,,13,07,27,319,,08,71,246,26,09,33,276,26*46
$GPGSV,3,2,10,11,24,195,25,16,41,048,,21,08,042,,22,00,186,26*7D
$GPGSV,3,3,10,23,37,235,30,31,05,134,*7B
$GPRMC,041403.000,V,,,,,,,310517,,,N*4E
$GPVTG,,,,,,,,,N*30
$GPZDA,041403.000,31,05,2017,00,00*57
$GPTXT,01,01,01,ANTENNA OK*35
$GPGGA,041404.000,,,,,0,00,25.5,,,,,,*61
$GPGLL,,,,,041404.000,V,N*7F
$GPGSA,A,1,,,,,,,,,,,,,25.5,25.5,25.5*02
$GPGSV,3,1,10,03,,,13,07,27,319,,08,71,246,26,09,33,276,27*47
$GPGSV,3,2,10,11,24,195,25,16,41,048,,21,08,042,,22,00,186,25*7E
$GPGSV,3,3,10,23,37,235,29,31,05,134,*73
$GPRMC,041404.000,V,,,,,,,310517,,,N*49
$GPVTG,,,,,,,,,N*30
$GPZDA,041404.000,31,05,2017,00,00*50
$GPTXT,01,01,01,ANTENNA OK*35
$GPGGA,041405.000,,,,,0,00,25.5,,,,,,*60
$GPGLL,,,,,041405.000,V,N*7E
$GPGSA,A,1,,,,,,,,,,,,,25.5,25.5,25.5*02
$GPGSV,3,1,10,03,,,13,07,27,319,,08,71,246,27,09,33,276,27*46
$GPGSV,3,2,10,11,24,195,25,16,41,048,,21,08,042,,22,00,186,25*7E
$GPGSV,3,3,10,23,37,235,29,31,05,134,*73
$GPRMC,041405.000,V,,,,,,,310517,,,N*48
$GPVTG,,,,,,,,,N*30
$GPZDA,041405.000,31,05,2017,00,00*51
$GPTXT,01,01,01,ANTENNA OK*35
$GPGGA,041406.000,,,,,0,00,25.5,,,,,,*63
$GPGLL,,,,,041406.000,V,N*7D
$GPGSA,A,1,,,,,,,,,,,,,25.5,25.5,25.5*02
$GPGSV,3,1,10,03,,,13,07,27,319,,08,71,246,27,09,33,276,27*46
$GPGSV,3,2,10,11,24,195,25,16,41,048,,21,08,042,,22,00,186,25*7E
$GPGSV,3,3,10,23,37,235,29,31,05,134,*73
$GPRMC,041406.000,V,,,,,,,310517,,,N*4B
$GPVTG,,,,,,,,,N*30
$GPZDA,041406.000,31,05,2017,00,00*52
$GPTXT,01,01,01,ANTENNA OK*35
$GPGGA,041407.000,,,,,0,00,25.5,,,,,,*62
$GPGLL,,,,,041407.000,V,N*7C
$GPGSA,A,1,,,,,,,,,,,,,25.5,25.5,25.5*02
$GPGSV,3,1,10,03,,,13,07,27,319,,08,71,246,27,09,33,276,27*46
$GPGSV,3,2,10,11,24,195,25,16,41,048,,21,08,042,,22,00,186,25*7E
$GPGSV,3,3,10,23,37,234,30,31,05,134,*7A
$GPRMC,041407.000,V,,,,,,,310517,,,N*4A
$GPVTG,,,,,,,,,N*30
$GPZDA,041407.000,31,05,2017,00,00*53
$GPTXT,01,01,01,ANTENNA OK*35
$GPGGA,041408.000,,,,,0,00,25.5,,,,,,*6D
$GPGLL,,,,,041408.000,V,N*73
$GPGSA,A,1,,,,,,,,,,,,,25.5,25.5,25.5*02
$GPGSV,3,1,10,03,,,13,07,27,319,,08,71,246,28,09,33,276,27*49
$GPGSV,3,2,10,11,24,195,25,16,41,048,,21,08,042,,22,00,186,27*7C
$GPGSV,3,3,10,23,37,234,30,31,05,134,*7A
$GPRMC,041408.000,V,,,,,,,310517,,,N*45
$GPVTG,,,,,,,,,N*30
$GPZDA,041408.000,31,05,2017,00,00*5C
$GPTXT,01,01,01,ANTENNA OK*35
$GPGGA,041409.000,,,,,0,00,25.5,,,,,,*6C
$GPGLL,,,,,041409.000,V,N*72
$GPGSA,A,1,,,,,,,,,,,,,25.5,25.5,25.5*02
$GPGSV,3,1,10,03,,,13,07,27,319,,08,71,246,28,09,33,276,27*49
$GPGSV,3,2,10,11,24,195,25,16,41,048,,21,08,042,,22,00,186,27*7C
$GPGSV,3,3,10,23,37,234,31,31,05,134,*7B
$GPRMC,041409.000,V,,,,,,,310517,,,N*44
$GPVTG,,,,,,,,,N*30
$GPZDA,041409.000,31,05,2017,00,00*5D
$GPTXT,01,01,01,ANTENNA OK*35
$GPGGA,041410.000,,,,,0,00,25.5,,,,,,*64
$GPGLL,,,,,041410.000,V,N*7A
$GPGSA,A,1,,,,,,,,,,,,,25.5,25.5,25.5*02
$GPGSV,3,1,10,03,,,13,07,27,319,,08,71,246,28,09,33,276,27*49
$GPGSV,3,2,10,11,24,195,25,16,41,048,,21,08,042,,22,00,186,27*7C
$GPGSV,3,3,10,23,37,234,31,31,05,134,*7B
$GPRMC,041410.000,V,,,,,,,310517,,,N*4C
$GPVTG,,,,,,,,,N*30
$GPZDA,041410.000,31,05,2017,00,00*55
$GPTXT,01,01,01,ANTENNA OK*35
$GPGGA,041411.000,,,,,0,00,25.5,,,,,,*65
$GPGLL,,,,,041411.000,V,N*7B
$GPGSA,A,1,,,,,,,,,,,,,25.5,25.5,25.5*02
$GPGSV,3,1,10,03,,,13,07,27,319,,08,71,246,28,09,33,276,28*46
$GPGSV,3,2,10,11,24,195,25,16,41,048,,21,08,042,,22,00,186,27*7C
$GPGSV,3,3,10,23,37,234,31,31,05,134,*7B
$GPRMC,041411.000,V,,,,,,,310517,,,N*4D
$GPVTG,,,,,,,,,N*30
$GPZDA,041411.000,31,05,2017,00,00*54
$GPTXT,01,01,01,ANTENNA OK*35
$GPGGA,041412.000,,,,,0,00,25.5,,,,,,*66
$GPGLL,,,,,041412.000,V,N*78
$GPGSA,A,1,,,,,,,,,,,,,25.5,25.5,25.5*02
$GPGSV,3,1,10,03,,,13,07,27,319,,08,71,246,28,09,33,276,28*46
$GPGSV,3,2,10,11,24,195,25,16,41,048,,21,08,042,,22,00,186,27*7C
$GPGSV,3,3,10,23,37,234,31,31,05,134,*7B
$GPRMC,041412.000,V,,,,,,,310517,,,N*4E
$GPVTG,,,,,,,,,N*30
$GPZDA,041412.000,31,05,2017,00,00*57
$GPTXT,01,01,01,ANTENNA OK*35
$GPGGA,041413.000,,,,,0,00,25.5,,,,,,*67
$GPGLL,,,,,041413.000,V,N*79
$GPGSA,A,1,,,,,,,,,,,,,25.5,25.5,25.5*02
$GPGSV,3,1,10,03,,,12,07,27,319,,08,71,246,28,09,33,276,28*47
$GPGSV,3,2,10,11,24,195,25,16,41,048,,21,08,042,,22,00,186,27*7C
$GPGSV,3,3,10,23,37,234,30,31,05,134,*7A
$GPRMC,041413.000,V,,,,,,,310517,,,N*4F
$GPVTG,,,,,,,,,N*30
$GPZDA,041413.000,31,05,2017,00,00*56
$GPTXT,01,01,01,ANTENNA OK*35
$GPGGA,041414.000,,,,,0,00,25.5,,,,,,*60
$GPGLL,,,,,041414.000,V,N*7E
$GPGSA,A,1,,,,,,,,,,,,,25.5,25.5,25.5*02
$GPGSV,3,1,10,03,,,12,07,27,319,,08,71,246,28,09,33,276,28*47
$GPGSV,3,2,10,11,24,195,25,16,41,048,,21,08,042,,22,00,186,27*7C
$GPGSV,3,3,10,23,37,234,30,31,05,134,*7A
$GPRMC,041414.000,V,,,,,,,310517,,,N*48
$GPVTG,,,,,,,,,N*30
$GPZDA,041414.000,31,05,2017,00,00*51
$GPTXT,01,01,01,ANTENNA OK*35
$GPGGA,041415.000,,,,,0,00,25.5,,,,,,*61
$GPGLL,,,,,041415.000,V,N*7F
$GPGSA,A,1,,,,,,,,,,,,,25.5,25.5,25.5*02
$GPGSV,3,1,10,03,,,12,07,27,319,,08,71,246,28,09,33,276,28*47
$GPGSV,3,2,10,11,24,195,25,16,41,048,,21,08,042,,22,00,186,27*7C
$GPGSV,3,3,10,23,37,234,30,31,05,134,*7A
$GPRMC,041415.000,V,,,,,,,310517,,,N*49
$GPVTG,,,,,,,,,N*30
$GPZDA,041415.000,31,05,2017,00,00*50
$GPTXT,01,01,01,ANTENNA OK*35
$GPGGA,041416.000,,,,,0,00,25.5,,,,,,*62
$GPGLL,,,,,041416.000,V,N*7C
$GPGSA,A,1,,,,,,,,,,,,,25.5,25.5,25.5*02
$GPGSV,3,1,10,03,,,12,07,27,319,,08,71,246,28,09,33,276,28*47
$GPGSV,3,2,10,11,24,195,25,16,41,049,,21,08,042,,22,00,186,27*7D
$GPGSV,3,3,10,23,37,234,30,31,05,134,*7A
$GPRMC,041416.000,V,,,,,,,310517,,,N*4A
$GPVTG,,,,,,,,,N*30
$GPZDA,041416.000,31,05,2017,00,00*53
$GPTXT,01,01,01,ANTENNA OK*35
$GPGGA,041417.000,,,,,0,00,25.5,,,,,,*63
$GPGLL,,,,,041417.000,V,N*7D
$GPGSA,A,1,,,,,,,,,,,,,25.5,25.5,25.5*02
$GPGSV,3,1,10,03,,,12,07,27,319,,08,71,246,28,09,33,276,28*47
$GPGSV,3,2,10,11,24,195,25,16,41,049,,21,08,042,,22,00,186,27*7D
$GPGSV,3,3,10,23,37,234,31,31,05,134,*7B
$GPRMC,041417.000,V,,,,,,,310517,,,N*4B
$GPVTG,,,,,,,,,N*30
$GPZDA,041417.000,31,05,2017,00,00*52
$GPTXT,01,01,01,ANTENNA OK*35
$GPGGA,041418.000,,,,,0,00,25.5,,,,,,*6C
$GPGLL,,,,,041418.000,V,N*72
$GPGSA,A,1,,,,,,,,,,,,,25.5,25.5,25.5*02
$GPGSV,3,1,10,03,,,12,07,27,319,,08,71,246,28,09,33,276,28*47
$GPGSV,3,2,10,11,24,195,25,16,41,049,,21,08,042,,22,00,186,27*7D
$GPGSV,3,3,10,23,37,234,31,31,05,134,*7B
$GPRMC,041418.000,V,,,,,,,310517,,,N*44
$GPVTG,,,,,,,,,N*30
$GPZDA,041418.000,31,05,2017,00,00*5D
$GPTXT,01,01,01,ANTENNA OK*35
$GPGGA,041419.000,,,,,0,00,25.5,,,,,,*6D
$GPGLL,,,,,041419.000,V,N*73
$GPGSA,A,1,,,,,,,,,,,,,25.5,25.5,25.5*02
$GPGSV,3,1,10,03,,,12,07,27,319,,08,71,246,28,09,33,276,27*48
$GPGSV,3,2,10,11,24,195,25,16,41,049,,21,08,042,,22,00,186,26*7C
$GPGSV,3,3,10,23,37,234,31,31,05,134,*7B
$GPRMC,041419.000,V,,,,,,,310517,,,N*45
$GPVTG,,,,,,,,,N*30
$GPZDA,041419.000,31,05,2017,00,00*5C
$GPTXT,01,01,01,ANTENNA OK*35
$GPGGA,041420.000,,,,,0,00,25.5,,,,,,*67
$GPGLL,,,,,041420.000,V,N*79
$GPGSA,A,1,,,,,,,,,,,,,25.5,25.5,25.5*02
$GPGSV,3,1,09,07,27,319,,08,71,246,28,09,33,276,27,11,24,195,25*7C
$GPGSV,3,2,09,16,41,049,,21,08,042,,22,00,186,26,23,37,234,31*7A
$GPGSV,3,3,09,31,05,134,*41
$GPRMC,041420.000,V,,,,,,,310517,,,N*4F
$GPVTG,,,,,,,,,N*30
$GPZDA,041420.000,31,05,2017,00,00*56
$GPTXT,01,01,01,ANTENNA OK*35
$GPGGA,041421.000,,,,,0,00,25.5,,,,,,*66
$GPGLL,,,,,041421.000,V,N*78
$GPGSA,A,1,,,,,,,,,,,,,25.5,25.5,25.5*02
$GPGSV,3,1,09,07,27,319,,08,71,246,28,09,33,276,27,11,24,195,25*7C
$GPGSV,3,2,09,16,41,049,,21,08,042,,22,00,186,26,23,37,234,31*7A
$GPGSV,3,3,09,31,05,134,*41
$GPRMC,041421.000,V,,,,,,,310517,,,N*4E
$GPVTG,,,,,,,,,N*30
$GPZDA,041421.000,31,05,2017,00,00*57
$GPTXT,01,01,01,ANTENNA OK*35
$GPGGA,041422.000,,,,,0,00,25.5,,,,,,*65
$GPGLL,,,,,041422.000,V,N*7B
$GPGSA,A,1,,,,,,,,,,,,,25.5,25.5,25.5*02
$GPGSV,3,1,09,07,27,319,,08,71,246,28,09,33,276,27,11,24,195,25*7C
$GPGSV,3,2,09,16,41,049,,21,08,042,,22,00,186,26,23,37,234,31*7A
$GPGSV,3,3,09,31,05,134,*41
$GPRMC,041422.000,V,,,,,,,310517,,,N*4D
$GPVTG,,,,,,,,,N*30
$GPZDA,041422.000,31,05,2017,00,00*54
$GPTXT,01,01,01,ANTENNA OK*35
$GPGGA,041423.000,,,,,0,00,25.5,,,,,,*64
$GPGLL,,,,,041423.000,V,N*7A
$GPGSA,A,1,,,,,,,,,,,,,25.5,25.5,25.5*02
$GPGSV,3,1,09,07,27,319,,08,71,246,28,09,33,276,25,11,24,195,25*7E
$GPGSV,3,2,09,16,41,049,,21,08,042,,22,00,186,26,23,37,234,31*7A
$GPGSV,3,3,09,31,05,134,*41
$GPRMC,041423.000,V,,,,,,,310517,,,N*4C
$GPVTG,,,,,,,,,N*30
$GPZDA,041423.000,31,05,2017,00,00*55
$GPTXT,01,01,01,ANTENNA OK*35
$GPGGA,041424.000,,,,,0,00,25.5,,,,,,*63
$GPGLL,,,,,041424.000,V,N*7D
$GPGSA,A,1,,,,,,,,,,,,,25.5,25.5,25.5*02
$GPGSV,3,1,09,07,27,319,,08,71,246,28,09,33,276,25,11,24,195,25*7E
$GPGSV,3,2,09,16,41,049,,21,08,042,,22,00,186,26,23,37,234,31*7A
$GPGSV,3,3,09,31,05,134,*41
$GPRMC,041424.000,V,,,,,,,310517,,,N*4B
$GPVTG,,,,,,,,,N*30
$GPZDA,041424.000,31,05,2017,00,00*52
$GPTXT,01,01,01,ANTENNA OK*35
$GPGGA,041425.000,,,,,0,00,25.5,,,,,,*62
$GPGLL,,,,,041425.000,V,N*7C
$GPGSA,A,1,,,,,,,,,,,,,25.5,25.5,25.5*02
$GPGSV,3,1,09,07,27,319,,08,71,247,28,09,33,276,25,11,24,195,25*7F
$GPGSV,3,2,09,16,41,049,,21,08,042,,22,00,186,26,23,37,234,31*7A
$GPGSV,3,3,09,31,05,134,*41
$GPRMC,041425.000,V,,,,,,,310517,,,N*4A
$GPVTG,,,,,,,,,N*30
$GPZDA,041425.000,31,05,2017,00,00*53
$GPTXT,01,01,01,ANTENNA OK*35
$GPGGA,041426.000,,,,,0,00,25.5,,,,,,*61
$GPGLL,,,,,041426.000,V,N*7F
$GPGSA,A,1,,,,,,,,,,,,,25.5,25.5,25.5*02
$GPGSV,3,1,09,07,27,319,,08,71,247,27,09,33,276,25,11,24,195,25*70
$GPGSV,3,2,09,16,41,049,,21,08,042,,22,00,186,26,23,37,234,30*7B
$GPGSV,3,3,09,31,05,134,*41
$GPRMC,041426.000,V,,,,,,,310517,,,N*49
$GPVTG,,,,,,,,,N*30
$GPZDA,041426.000,31,05,2017,00,00*50
$GPTXT,01,01,01,ANTENNA OK*35
$GPGGA,041427.000,,,,,0,00,25.5,,,,,,*60
$GPGLL,,,,,041427.000,V,N*7E
$GPGSA,A,1,,,,,,,,,,,,,25.5,25.5,25.5*02
$GPGSV,3,1,09,07,27,319,,08,71,247,27,09,33,276,25,11,24,195,25*70
$GPGSV,3,2,09,16,41,049,,21,08,042,,22,00,186,26,23,37,234,30*7B
$GPGSV,3,3,09,31,05,134,*41
$GPRMC,041427.000,V,,,,,,,310517,,,N*48
$GPVTG,,,,,,,,,N*30
$GPZDA,041427.000,31,05,2017,00,00*51
$GPTXT,01,01,01,ANTENNA OK*35
$GPGGA,041428.000,,,,,0,00,25.5,,,,,,*6F
$GPGLL,,,,,041428.000,V,N*71
$GPGSA,A,1,,,,,,,,,,,,,25.5,25.5,25.5*02
$GPGSV,3,1,09,07,27,319,,08,71,247,27,09,33,276,25,11,24,195,25*70
$GPGSV,3,2,09,16,41,049,,21,08,042,,22,00,186,26,23,37,234,30*7B
$GPGSV,3,3,09,31,05,134,*41
$GPRMC,041428.000,V,,,,,,,310517,,,N*47
$GPVTG,,,,,,,,,N*30
$GPZDA,041428.000,31,05,2017,00,00*5E
$GPTXT,01,01,01,ANTENNA OK*35
$GPGGA,041429.000,,,,,0,00,25.5,,,,,,*6E
$GPGLL,,,,,041429.000,V,N*70
$GPGSA,A,1,,,,,,,,,,,,,25.5,25.5,25.5*02
$GPGSV,3,1,09,07,27,319,,08,71,247,27,09,33,276,25,11,24,195,25*70
$GPGSV,3,2,09,16,41,049,,21,08,042,,22,00,186,26,23,37,234,30*7B
$GPGSV,3,3,09,31,05,134,*41
$GPRMC,041429.000,V,,,,,,,310517,,,N*46
$GPVTG,,,,,,,,,N*30
$GPZDA,041429.000,31,05,2017,00,00*5F
$GPTXT,01,01,01,ANTENNA OK*35
$GPGGA,041430.000,,,,,0,00,25.5,,,,,,*66
$GPGLL,,,,,041430.000,V,N*78
$GPGSA,A,1,,,,,,,,,,,,,25.5,25.5,25.5*02
$GPGSV,3,1,09,07,27,319,,08,71,247,27,09,33,276,26,11,24,195,25*73
$GPGSV,3,2,09,16,41,049,,21,08,042,,22,00,186,26,23,37,234,31*7A
$GPGSV,3,3,09,31,05,134,*41
$GPRMC,041430.000,V,,,,,,,310517,,,N*4E
$GPVTG,,,,,,,,,N*30
$GPZDA,041430.000,31,05,2017,00,00*57
$GPTXT,01,01,01,ANTENNA OK*35
$GPGGA,041431.000,,,,,0,00,25.5,,,,,,*67
$GPGLL,,,,,041431.000,V,N*79
$GPGSA,A,1,,,,,,,,,,,,,25.5,25.5,25.5*02
$GPGSV,3,1,09,07,27,319,,08,71,247,27,09,33,276,26,11,24,195,25*73
$GPGSV,3,2,09,16,41,049,,21,08,042,,22,00,186,26,23,37,234,31*7A
$GPGSV,3,3,09,31,05,134,*41
$GPRMC,041431.000,V,,,,,,,310517,,,N*4F
$GPVTG,,,,,,,,,N*30
$GPZDA,041431.000,31,05,2017,00,00*56
$GPTXT,01,01,01,ANTENNA OK*35
$GPGGA,041432.000,,,,,0,00,25.5,,,,,,*64
$GPGLL,,,,,041432.000,V,N*7A
$GPGSA,A,1,,,,,,,,,,,,,25.5,25.5,25.5*02
$GPGSV,3,1,09,07,27,319,,08,71,247,28,09,33,276,26,11,24,195,25*7C
$GPGSV,3,2,09,16,41,049,,21,08,042,,22,00,186,26,23,37,234,31*7A
$GPGSV,3,3,09,31,05,134,*41
$GPRMC,041432.000,V,,,,,,,310517,,,N*4C
$GPVTG,,,,,,,,,N*30
$GPZDA,041432.000,31,05,2017,00,00*55
$GPTXT,01,01,01,ANTENNA OK*35
$GPGGA,041433.000,,,,,0,00,25.5,,,,,,*65
$GPGLL,,,,,041433.000,V,N*7B
$GPGSA,A,1,,,,,,,,,,,,,25.5,25.5,25.5*02
$GPGSV,3,1,09,07,27,319,,08,71,247,28,09,33,276,26,11,24,195,25*7C
$GPGSV,3,2,09,16,41,049,,21,08,042,,22,00,186,26,23,37,234,31*7A
$GPGSV,3,3,09,31,05,134,*41
$GPRMC,041433.000,V,,,,,,,310517,,,N*4D
$GPVTG,,,,,,,,,N*30
$GPZDA,041433.000,31,05,2017,00,00*54
$GPTXT,01,01,01,ANTENNA OK*35
$GPGGA,041434.000,,,,,0,00,25.5,,,,,,*62
$GPGLL,,,,,041434.000,V,N*7C
$GPGSA,A,1,,,,,,,,,,,,,25.5,25.5,25.5*02
$GPGSV,3,1,09,07,27,319,,08,71,247,29,09,33,276,26,11,24,195,25*7D
$GPGSV,3,2,09,16,41,049,,21,08,042,,22,00,186,25,23,37,234,31*79
$GPGSV,3,3,09,31,05,134,*41
$GPRMC,041434.000,V,,,,,,,310517,,,N*4A
$GPVTG,,,,,,,,,N*30
$GPZDA,041434.000,31,05,2017,00,00*53
$GPTXT,01,01,01,ANTENNA OK*35
$GPGGA,041435.000,,,,,0,00,25.5,,,,,,*63
$GPGLL,,,,,041435.000,V,N*7D
$GPGSA,A,1,,,,,,,,,,,,,25.5,25.5,25.5*02
$GPGSV,3,1,09,07,27,319,,08,71,247,29,09,33,276,26,11,24,195,25*7D
$GPGSV,3,2,09,16,41,049,,21,08,042,,22,00,186,25,23,37,234,31*79
$GPGSV,3,3,09,31,05,134,*41
$GPRMC,041435.000,V,,,,,,,310517,,,N*4B
$GPVTG,,,,,,,,,N*30
$GPZDA,041435.000,31,05,2017,00,00*52
$GPTXT,01,01,01,ANTENNA OK*35
$GPGGA,041436.000,,,,,0,00,25.5,,,,,,*60
$GPGLL,,,,,041436.000,V,N*7E
$GPGSA,A,1,,,,,,,,,,,,,25.5,25.5,25.5*02
$GPGSV,3,1,09,07,27,319,,08,71,247,29,09,33,276,26,11,24,195,25*7D
$GPGSV,3,2,09,16,41,049,,21,08,042,,22,00,186,25,23,37,234,31*79
$GPGSV,3,3,09,31,05,134,*41
$GPRMC,041436.000,V,,,,,,,310517,,,N*48
$GPVTG,,,,,,,,,N*30
$GPZDA,041436.000,31,05,2017,00,00*51
$GPTXT,01,01,01,ANTENNA OK*35
$GPGGA,041437.000,,,,,0,00,25.5,,,,,,*61
$GPGLL,,,,,041437.000,V,N*7F
$GPGSA,A,1,,,,,,,,,,,,,25.5,25.5,25.5*02
$GPGSV,3,1,09,07,27,319,,08,71,247,29,09,33,276,26,11,24,195,25*7D
$GPGSV,3,2,09,16,41,049,,21,08,042,,22,00,186,25,23,37,234,31*79
$GPGSV,3,3,09,31,05,134,*41
$GPRMC,041437.000,V,,,,,,,310517,,,N*49
$GPVTG,,,,,,,,,N*30
$GPZDA,041437.000,31,05,2017,00,00*50
$GPTXT,01,01,01,ANTENNA OK*35
$GPGGA,041438.000,,,,,0,00,25.5,,,,,,*6E
$GPGLL,,,,,041438.000,V,N*70
$GPGSA,A,1,,,,,,,,,,,,,25.5,25.5,25.5*02
$GPGSV,3,1,09,07,27,319,,08,71,247,30,09,33,276,25,11,24,195,25*76
$GPGSV,3,2,09,16,41,049,,21,08,042,,22,00,186,25,23,37,234,31*79
$GPGSV,3,3,09,31,05,134,*41
$GPRMC,041438.000,V,,,,,,,310517,,,N*46
$GPVTG,,,,,,,,,N*30
$GPZDA,041438.000,31,05,2017,00,00*5F
$GPTXT,01,01,01,ANTENNA OK*35
$GPGGA,041439.000,,,,,0,00,25.5,,,,,,*6F
$GPGLL,,,,,041439.000,V,N*71
$GPGSA,A,1,,,,,,,,,,,,,25.5,25.5,25.5*02
$GPGSV,3,1,09,07,27,319,,08,71,247,30,09,33,276,25,11,24,195,25*76
$GPGSV,3,2,09,16,41,049,,21,08,042,,22,00,186,25,23,37,234,31*79
$GPGSV,3,3,09,31,05,134,*41
$GPRMC,041439.000,V,,,,,,,310517,,,N*47
$GPVTG,,,,,,,,,N*30
$GPZDA,041439.000,31,05,2017,00,00*5E
$GPTXT,01,01,01,ANTENNA OK*35
$GPGGA,041440.000,,,,,0,00,25.5,,,,,,*61
$GPGLL,,,,,041440.000,V,N*7F
$GPGSA,A,1,,,,,,,,,,,,,25.5,25.5,25.5*02
$GPGSV,3,1,09,07,27,319,,08,71,247,30,09,33,276,25,11,24,195,25*76
$GPGSV,3,2,09,16,41,049,,21,08,042,,22,00,186,25,23,37,234,31*79
$GPGSV,3,3,09,31,05,134,*41
$GPRMC,041440.000,V,,,,,,,310517,,,N*49
$GPVTG,,,,,,,,,N*30
$GPZDA,041440.000,31,05,2017,00,00*50
$GPTXT,01,01,01,ANTENNA OK*35
$GPGGA,041441.000,,,,,0,00,25.5,,,,,,*60
$GPGLL,,,,,041441.000,V,N*7E
$GPGSA,A,1,,,,,,,,,,,,,25.5,25.5,25.5*02
$GPGSV,3,1,09,07,27,319,,08,71,247,30,09,33,276,25,11,24,195,25*76
$GPGSV,3,2,09,16,41,049,,21,08,042,,22,00,186,25,23,37,234,31*79
$GPGSV,3,3,09,31,05,134,*41
$GPRMC,041441.000,V,,,,,,,310517,,,N*48
$GPVTG,,,,,,,,,N*30
$GPZDA,041441.000,31,05,2017,00,00*51
$GPTXT,01,01,01,ANTENNA OK*35
$GPGGA,041442.000,,,,,0,00,25.5,,,,,,*63
$GPGLL,,,,,041442.000,V,N*7D
$GPGSA,A,1,,,,,,,,,,,,,25.5,25.5,25.5*02
$GPGSV,3,1,09,07,27,319,,08,71,247,29,09,33,276,25,11,24,195,25*7E
$GPGSV,3,2,09,16,41,049,,21,08,042,,22,00,186,25,23,37,234,30*78
$GPGSV,3,3,09,31,05,134,*41
$GPRMC,041442.000,V,,,,,,,310517,,,N*4B
$GPVTG,,,,,,,,,N*30
$GPZDA,041442.000,31,05,2017,00,00*52
$GPTXT,01,01,01,ANTENNA OK*35
$GPGGA,041443.000,,,,,0,00,25.5,,,,,,*62
$GPGLL,,,,,041443.000,V,N*7C
$GPGSA,A,1,,,,,,,,,,,,,25.5,25.5,25.5*02
$GPGSV,3,1,09,07,27,319,,08,71,247,29,09,33,276,25,11,24,195,25*7E
$GPGSV,3,2,09,16,41,049,,21,08,042,,22,00,186,25,23,36,234,30*79
$GPGSV,3,3,09,31,05,134,*41
$GPRMC,041443.000,V,,,,,,,310517,,,N*4A
$GPVTG,,,,,,,,,N*30
$GPZDA,041443.000,31,05,2017,00,00*53
$GPTXT,01,01,01,ANTENNA OK*35
$GPGGA,041444.000,,,,,0,00,25.5,,,,,,*65
$GPGLL,,,,,041444.000,V,N*7B
$GPGSA,A,1,,,,,,,,,,,,,25.5,25.5,25.5*02
$GPGSV,3,1,09,07,27,319,,08,71,247,29,09,33,276,25,11,24,195,25*7E
$GPGSV,3,2,09,16,41,049,,21,08,042,,22,00,186,25,23,36,234,30*79
$GPGSV,3,3,09,31,05,134,*41
$GPRMC,041444.000,V,,,,,,,310517,,,N*4D
$GPVTG,,,,,,,,,N*30
$GPZDA,041444.000,31,05,2017,00,00*54
$GPTXT,01,01,01,ANTENNA OK*35
$GPGGA,041445.000,,,,,0,00,25.5,,,,,,*64
$GPGLL,,,,,041445.000,V,N*7A
$GPGSA,A,1,,,,,,,,,,,,,25.5,25.5,25.5*02
$GPGSV,3,1,09,07,27,319,,08,71,247,29,09,33,276,25,11,24,195,25*7E
$GPGSV,3,2,09,16,41,049,,21,08,042,,22,00,186,25,23,36,234,30*79
$GPGSV,3,3,09,31,05,134,*41
$GPRMC,041445.000,V,,,,,,,310517,,,N*4C
$GPVTG,,,,,,,,,N*30
$GPZDA,041445.000,31,05,2017,00,00*55
$GPTXT,01,01,01,ANTENNA OK*35
$GPGGA,041446.000,,,,,0,00,25.5,,,,,,*67
$GPGLL,,,,,041446.000,V,N*79
$GPGSA,A,1,,,,,,,,,,,,,25.5,25.5,25.5*02
$GPGSV,3,1,09,07,27,319,,08,71,247,29,09,33,276,25,11,24,195,25*7E
$GPGSV,3,2,09,16,41,049,,21,08,042,,22,00,186,25,23,36,234,30*79
$GPGSV,3,3,09,31,05,134,*41
$GPRMC,041446.000,V,,,,,,,310517,,,N*4F
$GPVTG,,,,,,,,,N*30
$GPZDA,041446.000,31,05,2017,00,00*56
$GPTXT,01,01,01,ANTENNA OK*35
$GPGGA,041447.000,,,,,0,00,25.5,,,,,,*66
$GPGLL,,,,,041447.000,V,N*78
$GPGSA,A,1,,,,,,,,,,,,,25.5,25.5,25.5*02
$GPGSV,3,1,09,07,27,319,,08,71,247,29,09,33,276,25,11,24,195,25*7E
$GPGSV,3,2,09,16,41,049,,21,08,042,,22,00,186,25,23,36,234,30*79
$GPGSV,3,3,09,31,05,134,*41
$GPRMC,041447.000,V,,,,,,,310517,,,N*4E
$GPVTG,,,,,,,,,N*30
$GPZDA,041447.000,31,05,2017,00,00*57
$GPTXT,01,01,01,ANTENNA OK*35
$GPGGA,041448.000,,,,,0,00,25.5,,,,,,*69
$GPGLL,,,,,041448.000,V,N*77
$GPGSA,A,1,,,,,,,,,,,,,25.5,25.5,25.5*02
$GPGSV,3,1,09,07,27,319,,08,71,247,29,09,33,276,25,11,24,195,25*7E
$GPGSV,3,2,09,16,41,049,,21,08,042,,22,00,186,25,23,36,234,30*79
$GPGSV,3,3,09,31,05,134,*41
$GPRMC,041448.000,V,,,,,,,310517,,,N*41
$GPVTG,,,,,,,,,N*30
$GPZDA,041448.000,31,05,2017,00,00*58
$GPTXT,01,01,01,ANTENNA OK*35
$GPGGA,041449.000,,,,,0,00,25.5,,,,,,*68
$GPGLL,,,,,041449.000,V,N*76
$GPGSA,A,1,,,,,,,,,,,,,25.5,25.5,25.5*02
$GPGSV,3,1,09,07,27,319,,08,71,247,29,09,33,276,25,11,24,195,25*7E
$GPGSV,3,2,09,16,41,049,,21,08,042,,22,00,186,25,23,36,234,29*71
$GPGSV,3,3,09,31,05,134,*41
$GPRMC,041449.000,V,,,,,,,310517,,,N*40
$GPVTG,,,,,,,,,N*30
$GPZDA,041449.000,31,05,2017,00,00*59
$GPTXT,01,01,01,ANTENNA OK*35
$GPGGA,041450.000,,,,,0,00,25.5,,,,,,*60
$GPGLL,,,,,041450.000,V,N*7E
$GPGSA,A,1,,,,,,,,,,,,,25.5,25.5,25.5*02
$GPGSV,3,1,09,07,27,319,,08,71,247,29,09,33,276,25,11,24,195,25*7E
$GPGSV,3,2,09,16,41,049,,21,08,042,,22,00,186,24,23,36,234,29*70
$GPGSV,3,3,09,31,05,134,*41
$GPRMC,041450.000,V,,,,,,,310517,,,N*48
$GPVTG,,,,,,,,,N*30
$GPZDA,041450.000,31,05,2017,00,00*51
$GPTXT,01,01,01,ANTENNA OK*35
$GPGGA,041451.000,,,,,0,00,25.5,,,,,,*61
$GPGLL,,,,,041451.000,V,N*7F
$GPGSA,A,1,,,,,,,,,,,,,25.5,25.5,25.5*02
$GPGSV,3,1,09,07,27,319,,08,71,247,29,09,33,276,25,11,24,195,25*7E
$GPGSV,3,2,09,16,41,049,,21,08,042,,22,00,186,24,23,36,234,29*70
$GPGSV,3,3,09,31,05,134,*41
$GPRMC,041451.000,V,,,,,,,310517,,,N*49
$GPVTG,,,,,,,,,N*30
$GPZDA,041451.000,31,05,2017,00,00*50
$GPTXT,01,01,01,ANTENNA OK*35
$GPGGA,041452.000,,,,,0,00,25.5,,,,,,*62
$GPGLL,,,,,041452.000,V,N*7C
$GPGSA,A,1,,,,,,,,,,,,,25.5,25.5,25.5*02
$GPGSV,3,1,09,07,27,319,,08,71,247,28,09,33,276,25,11,24,195,24*7E
$GPGSV,3,2,09,16,41,049,,21,08,042,,22,00,186,24,23,36,234,30*78
$GPGSV,3,3,09,31,05,134,*41
$GPRMC,041452.000,V,,,,,,,310517,,,N*4A
$GPVTG,,,,,,,,,N*30
$GPZDA,041452.000,31,05,2017,00,00*53
$GPTXT,01,01,01,ANTENNA OK*35
$GPGGA,041453.000,,,,,0,00,25.5,,,,,,*63
$GPGLL,,,,,041453.000,V,N*7D
$GPGSA,A,1,,,,,,,,,,,,,25.5,25.5,25.5*02
$GPGSV,3,1,09,07,27,319,,08,71,247,28,09,33,276,25,11,24,195,24*7E
$GPGSV,3,2,09,16,41,049,,21,08,042,,22,00,186,26,23,36,234,30*7A
$GPGSV,3,3,09,31,05,134,*41
$GPRMC,041453.000,V,,,,,,,310517,,,N*4B
$GPVTG,,,,,,,,,N*30
$GPZDA,041453.000,31,05,2017,00,00*52
$GPTXT,01,01,01,ANTENNA OK*35
$GPGGA,041454.000,,,,,0,00,25.5,,,,,,*64
$GPGLL,,,,,041454.000,V,N*7A
$GPGSA,A,1,,,,,,,,,,,,,25.5,25.5,25.5*02
$GPGSV,3,1,09,07,27,319,,08,71,247,30,09,33,276,25,11,24,195,24*77
$GPGSV,3,2,09,16,41,049,,21,08,042,,22,00,186,26,23,36,234,30*7A
$GPGSV,3,3,09,31,05,134,*41
$GPRMC,041454.000,V,,,,,,,310517,,,N*4C
$GPVTG,,,,,,,,,N*30
$GPZDA,041454.000,31,05,2017,00,00*55
$GPTXT,01,01,01,ANTENNA OK*35
$GPGGA,041455.000,,,,,0,00,25.5,,,,,,*65
$GPGLL,,,,,041455.000,V,N*7B
$GPGSA,A,1,,,,,,,,,,,,,25.5,25.5,25.5*02
$GPGSV,3,1,09,07,27,319,,08,71,247,30,09,33,276,25,11,24,195,24*77
$GPGSV,3,2,09,16,41,049,,21,08,042,,22,00,186,26,23,36,234,30*7A
$GPGSV,3,3,09,31,05,134,*41
$GPRMC,041455.000,V,,,,,,,310517,,,N*4D
$GPVTG,,,,,,,,,N*30
$GPZDA,041455.000,31,05,2017,00,00*54
$GPTXT,01,01,01,ANTENNA OK*35
$GPGGA,041456.000,,,,,0,00,25.5,,,,,,*66
$GPGLL,,,,,041456.000,V,N*78
$GPGSA,A,1,,,,,,,,,,,,,25.5,25.5,25.5*02
$GPGSV,3,1,09,07,27,319,,08,71,247,30,09,33,276,25,11,24,195,24*77
$GPGSV,3,2,09,16,41,049,,21,08,042,,22,00,186,26,23,36,234,30*7A
$GPGSV,3,3,09,31,05,134,*41
$GPRMC,041456.000,V,,,,,,,310517,,,N*4E
$GPVTG,,,,,,,,,N*30
$GPZDA,041456.000,31,05,2017,00,00*57
$GPTXT,01,01,01,ANTENNA OK*35
$GPGGA,041457.000,,,,,0,00,25.5,,,,,,*67
$GPGLL,,,,,041457.000,V,N*79
$GPGSA,A,1,,,,,,,,,,,,,25.5,25.5,25.5*02
$GPGSV,3,1,09,07,27,319,,08,71,247,30,09,33,276,25,11,24,195,24*77
$GPGSV,3,2,09,16,41,049,,21,08,042,,22,00,186,26,23,36,234,29*72
$GPGSV,3,3,09,31,05,134,*41
$GPRMC,041457.000,V,,,,,,,310517,,,N*4F
$GPVTG,,,,,,,,,N*30
$GPZDA,041457.000,31,05,2017,00,00*56
$GPTXT,01,01,01,ANTENNA OK*35
$GPGGA,041458.000,,,,,0,00,25.5,,,,,,*68
$GPGLL,,,,,041458.000,V,N*76
$GPGSA,A,1,,,,,,,,,,,,,25.5,25.5,25.5*02
$GPGSV,3,1,09,07,27,319,,08,71,247,30,09,33,276,25,11,24,195,24*77
$GPGSV,3,2,09,16,41,049,,21,08,042,,22,00,186,26,23,36,234,29*72
$GPGSV,3,3,09,31,05,134,*41
$GPRMC,041458.000,V,,,,,,,310517,,,N*40
$GPVTG,,,,,,,,,N*30
$GPZDA,041458.000,31,05,2017,00,00*59
$GPTXT,01,01,01,ANTENNA OK*35
$GPGGA,041459.000,,,,,0,00,25.5,,,,,,*69
$GPGLL,,,,,041459.000,V,N*77
$GPGSA,A,1,,,,,,,,,,,,,25.5,25.5,25.5*02
$GPGSV,3,1,09,07,27,319,,08,71,247,30,09,33,276,25,11,24,195,24*77
$GPGSV,3,2,09,16,41,049,,21,08,042,,22,00,186,26,23,36,234,29*72
$GPGSV,3,3,09,31,05,134,*41
$GPRMC,041459.000,V,,,,,,,310517,,,N*41
$GPVTG,,,,,,,,,N*30
$GPZDA,041459.000,31,05,2017,00,00*58
$GPTXT,01,01,01,ANTENNA OK*35
$GPGGA,041500.000,,,,,0,00,25.5,,,,,,*64
$GPGLL,,,,,041500.000,V,N*7A
$GPGSA,A,1,,,,,,,,,,,,,25.5,25.5,25.5*02
$GPGSV,3,1,09,07,27,319,,08,71,247,30,09,33,276,25,11,24,195,24*77
$GPGSV,3,2,09,16,41,049,,21,08,042,,22,00,186,26,23,36,234,31*7B
$GPGSV,3,3,09,31,05,134,*41
$GPRMC,041500.000,V,,,,,,,310517,,,N*4C
$GPVTG,,,,,,,,,N*30
$GPZDA,041500.000,31,05,2017,00,00*55
$GPTXT,01,01,01,ANTENNA OK*35
$GPGGA,041501.000,,,,,0,00,25.5,,,,,,*65
$GPGLL,,,,,041501.000,V,N*7B
$GPGSA,A,1,,,,,,,,,,,,,25.5,25.5,25.5*02
$GPGSV,3,1,09,07,27,319,,08,71,247,30,09,33,276,25,11,24,195,25*76
$GPGSV,3,2,09,16,41,049,,21,08,042,,22,00,186,25,23,36,234,31*78
$GPGSV,3,3,09,31,05,134,*41
$GPRMC,041501.000,V,,,,,,,310517,,,N*4D
$GPVTG,,,,,,,,,N*30
$GPZDA,041501.000,31,05,2017,00,00*54
$GPTXT,01,01,01,ANTENNA OK*35
$GPGGA,041502.000,,,,,0,00,25.5,,,,,,*66
$GPGLL,,,,,041502.000,V,N*78
$GPGSA,A,1,,,,,,,,,,,,,25.5,25.5,25.5*02
$GPGSV,3,1,09,07,27,319,,08,71,247,30,09,33,276,25,11,24,195,25*76
$GPGSV,3,2,09,16,41,049,,21,08,042,,22,00,186,25,23,36,234,31*78
$GPGSV,3,3,09,31,05,134,*41
$GPRMC,041502.000,V,,,,,,,310517,,,N*4E
$GPVTG,,,,,,,,,N*30
$GPZDA,041502.000,31,05,2017,00,00*57
$GPTXT,01,01,01,ANTENNA OK*35
$GPGGA,041503.000,,,,,0,00,25.5,,,,,,*67
$GPGLL,,,,,041503.000,V,N*79
$GPGSA,A,1,,,,,,,,,,,,,25.5,25.5,25.5*02
$GPGSV,3,1,09,07,27,319,,08,71,247,30,09,33,276,25,11,24,195,25*76
$GPGSV,3,2,09,16,41,049,,21,08,042,,22,00,186,25,23,36,234,31*78
$GPGSV,3,3,09,31,05,134,*41
$GPRMC,041503.000,V,,,,,,,310517,,,N*4F
$GPVTG,,,,,,,,,N*30
$GPZDA,041503.000,31,05,2017,00,00*56
$GPTXT,01,01,01,ANTENNA OK*35
$GPGGA,041504.000,,,,,0,00,25.5,,,,,,*60
$GPGLL,,,,,041504.000,V,N*7E
$GPGSA,A,1,,,,,,,,,,,,,25.5,25.5,25.5*02
$GPGSV,3,1,09,07,27,319,,08,71,247,29,09,33,276,25,11,24,195,25*7E
$GPGSV,3,2,09,16,40,049,,21,08,042,,22,00,186,25,23,36,234,30*78
$GPGSV,3,3,09,31,05,134,*41
$GPRMC,041504.000,V,,,,,,,310517,,,N*48
$GPVTG,,,,,,,,,N*30
$GPZDA,041504.000,31,05,2017,00,00*51
$GPTXT,01,01,01,ANTENNA OK*35
$GPGGA,041505.000,,,,,0,00,25.5,,,,,,*61
$GPGLL,,,,,041505.000,V,N*7F
$GPGSA,A,1,,,,,,,,,,,,,25.5,25.5,25.5*02
$GPGSV,3,1,09,07,27,319,,08,71,247,29,09,33,276,25,11,24,195,25*7E
$GPGSV,3,2,09,16,40,049,,21,08,042,,22,00,186,25,23,36,234,30*78
$GPGSV,3,3,09,31,05,134,*41
$GPRMC,041505.000,V,,,,,,,310517,,,N*49
$GPVTG,,,,,,,,,N*30
$GPZDA,041505.000,31,05,2017,00,00*50
$GPTXT,01,01,01,ANTENNA OK*35
$GPGGA,041506.000,,,,,0,00,25.5,,,,,,*62
$GPGLL,,,,,041506.000,V,N*7C
$GPGSA,A,1,,,,,,,,,,,,,25.5,25.5,25.5*02
$GPGSV,3,1,09,07,27,319,,08,71,247,29,09,33,275,25,11,24,195,25*7D
$GPGSV,3,2,09,16,40,049,,21,08,042,,22,00,186,25,23,36,234,30*78
$GPGSV,3,3,09,31,05,134,*41
$GPRMC,041506.000,V,,,,,,,310517,,,N*4A
$GPVTG,,,,,,,,,N*30
$GPZDA,041506.000,31,05,2017,00,00*53
$GPTXT,01,01,01,ANTENNA OK*35
$GPGGA,041507.000,,,,,0,00,25.5,,,,,,*63
$GPGLL,,,,,041507.000,V,N*7D
$GPGSA,A,1,,,,,,,,,,,,,25.5,25.5,25.5*02
$GPGSV,3,1,09,07,27,319,,08,71,247,29,09,33,275,25,11,24,195,25*7D
$GPGSV,3,2,09,16,40,049,,21,08,042,,22,00,186,25,23,36,234,30*78
$GPGSV,3,3,09,31,05,134,*41
$GPRMC,041507.000,V,,,,,,,310517,,,N*4B
$GPVTG,,,,,,,,,N*30
$GPZDA,041507.000,31,05,2017,00,00*52
$GPTXT,01,01,01,ANTENNA OK*35
$GPGGA,041508.000,,,,,0,00,25.5,,,,,,*6C
$GPGLL,,,,,041508.000,V,N*72
$GPGSA,A,1,,,,,,,,,,,,,25.5,25.5,25.5*02
$GPGSV,3,1,09,07,27,319,,08,71,247,29,09,33,275,25,11,24,195,25*7D
$GPGSV,3,2,09,16,40,049,,21,08,042,,22,00,186,25,23,36,234,29*70
$GPGSV,3,3,09,31,05,134,*41
$GPRMC,041508.000,V,,,,,,,310517,,,N*44
$GPVTG,,,,,,,,,N*30
$GPZDA,041508.000,31,05,2017,00,00*5D
$GPTXT,01,01,01,ANTENNA OK*35
$GPGGA,041509.000,,,,,0,00,25.5,,,,,,*6D
$GPGLL,,,,,041509.000,V,N*73
$GPGSA,A,1,,,,,,,,,,,,,25.5,25.5,25.5*02
$GPGSV,3,1,09,07,27,319,,08,71,247,28,09,33,275,25,11,24,195,24*7D
$GPGSV,3,2,09,16,40,049,,21,08,042,,22,00,186,25,23,36,234,29*70
$GPGSV,3,3,09,31,05,134,*41
$GPRMC,041509.000,V,,,,,,,310517,,,N*45
$GPVTG,,,,,,,,,N*30
$GPZDA,041509.000,31,05,2017,00,00*5C
$GPTXT,01,01,01,ANTENNA OK*35
$GPGGA,041510.000,,,,,0,00,25.5,,,,,,*65
$GPGLL,,,,,041510.000,V,N*7B
$GPGSA,A,1,,,,,,,,,,,,,25.5,25.5,25.5*02
$GPGSV,3,1,09,07,27,319,,08,71,247,28,09,33,275,24,11,24,195,24*7C
$GPGSV,3,2,09,16,40,049,,21,08,042,,22,00,186,25,23,36,234,29*70
$GPGSV,3,3,09,31,05,134,*41
$GPRMC,041510.000,V,,,,,,,310517,,,N*4D
$GPVTG,,,,,,,,,N*30
$GPZDA,041510.000,31,05,2017,00,00*54
$GPTXT,01,01,01,ANTENNA OK*35
$GPGGA,041511.000,,,,,0,00,25.5,,,,,,*64
$GPGLL,,,,,041511.000,V,N*7A
$GPGSA,A,1,,,,,,,,,,,,,25.5,25.5,25.5*02
$GPGSV,3,1,09,07,27,319,,08,71,247,28,09,33,275,24,11,24,195,24*7C
$GPGSV,3,2,09,16,40,049,,21,08,042,,22,00,186,25,23,36,234,29*70
$GPGSV,3,3,09,31,05,134,*41
$GPRMC,041511.000,V,,,,,,,310517,,,N*4C
$GPVTG,,,,,,,,,N*30
$GPZDA,041511.000,31,05,2017,00,00*55
$GPTXT,01,01,01,ANTENNA OK*35
$GPGGA,041512.000,,,,,0,00,25.5,,,,,,*67
$GPGLL,,,,,041512.000,V,N*79
$GPGSA,A,1,,,,,,,,,,,,,25.5,25.5,25.5*02
$GPGSV,3,1,09,07,27,319,,08,71,247,28,09,33,275,24,11,24,195,24*7C
$GPGSV,3,2,09,16,40,049,,21,08,042,,22,00,186,25,23,36,234,29*70
$GPGSV,3,3,09,31,05,134,*41
$GPRMC,041512.000,V,,,,,,,310517,,,N*4F
$GPVTG,,,,,,,,,N*30
$GPZDA,041512.000,31,05,2017,00,00*56
$GPTXT,01,01,01,ANTENNA OK*35
$GPGGA,041513.000,,,,,0,00,25.5,,,,,,*66
$GPGLL,,,,,041513.000,V,N*78
$GPGSA,A,1,,,,,,,,,,,,,25.5,25.5,25.5*02
$GPGSV,3,1,09,07,27,319,,08,71,247,29,09,33,275,24,11,24,195,24*7D
$GPGSV,3,2,09,16,40,049,,21,08,042,,22,00,186,25,23,36,234,29*70
$GPGSV,3,3,09,31,05,134,*41
$GPRMC,041513.000,V,,,,,,,310517,,,N*4E
$GPVTG,,,,,,,,,N*30
$GPZDA,041513.000,31,05,2017,00,00*57
$GPTXT,01,01,01,ANTENNA OK*35
$GPGGA,041514.000,,,,,0,00,25.5,,,,,,*61
$GPGLL,,,,,041514.000,V,N*7F
$GPGSA,A,1,,,,,,,,,,,,,25.5,25.5,25.5*02
$GPGSV,3,1,09,07,27,319,,08,71,247,29,09,33,275,24,11,24,195,24*7D
$GPGSV,3,2,09,16,40,049,,21,08,042,,22,00,186,25,23,36,234,29*70
$GPGSV,3,3,09,31,05,134,*41
$GPRMC,041514.000,V,,,,,,,310517,,,N*49
$GPVTG,,,,,,,,,N*30
$GPZDA,041514.000,31,05,2017,00,00*50
$GPTXT,01,01,01,ANTENNA OK*35
$GPGGA,041515.000,,,,,0,00,25.5,,,,,,*60
$GPGLL,,,,,041515.000,V,N*7E
$GPGSA,A,1,,,,,,,,,,,,,25.5,25.5,25.5*02
$GPGSV,3,1,09,07,27,319,,08,71,248,29,09,33,275,24,11,24,195,24*72
$GPGSV,3,2,09,16,40,049,,21,08,042,,22,00,186,25,23,36,234,29*70
$GPGSV,3,3,09,31,05,134,*41
$GPRMC,041515.000,V,,,,,,,310517,,,N*48
$GPVTG,,,,,,,,,N*30
$GPZDA,041515.000,31,05,2017,00,00*51
$GPTXT,01,01,01,ANTENNA OK*35
$GPGGA,041516.000,,,,,0,00,25.5,,,,,,*63
$GPGLL,,,,,041516.000,V,N*7D
$GPGSA,A,1,,,,,,,,,,,,,25.5,25.5,25.5*02
$GPGSV,3,1,09,07,27,319,,08,71,248,29,09,33,275,24,11,24,195,24*72
$GPGSV,3,2,09,16,40,049,,21,08,042,,22,00,186,25,23,36,234,29*70
$GPGSV,3,3,09,31,05,134,*41
$GPRMC,041516.000,V,,,,,,,310517,,,N*4B
$GPVTG,,,,,,,,,N*30
$GPZDA,041516.000,31,05,2017,00,00*52
$GPTXT,01,01,01,ANTENNA OK*35
$GPGGA,041517.000,,,,,0,00,25.5,,,,,,*62
$GPGLL,,,,,041517.000,V,N*7C
$GPGSA,A,1,,,,,,,,,,,,,25.5,25.5,25.5*02
$GPGSV,3,1,09,07,27,319,,08,71,248,29,09,33,275,24,11,24,195,24*72
$GPGSV,3,2,09,16,40,049,,21,08,042,,22,00,186,25,23,36,234,29*70
$GPGSV,3,3,09,31,05,134,*41
$GPRMC,041517.000,V,,,,,,,310517,,,N*4A
$GPVTG,,,,,,,,,N*30
$GPZDA,041517.000,31,05,2017,00,00*53
$GPTXT,01,01,01,ANTENNA OK*35
$GPGGA,041518.000,,,,,0,00,25.5,,,,,,*6D
$GPGLL,,,,,041518.000,V,N*73
$GPGSA,A,1,,,,,,,,,,,,,25.5,25.5,25.5*02
$GPGSV,3,1,09,07,27,319,,08,71,248,29,09,33,275,24,11,24,195,24*72
$GPGSV,3,2,09,16,40,049,,21,08,041,,22,00,186,24,23,36,234,29*72
$GPGSV,3,3,09,31,05,134,*41
$GPRMC,041518.000,V,,,,,,,310517,,,N*45
$GPVTG,,,,,,,,,N*30
$GPZDA,041518.000,31,05,2017,00,00*5C
$GPTXT,01,01,01,ANTENNA OK*35
$GPGGA,041519.000,,,,,0,00,25.5,,,,,,*6C
$GPGLL,,,,,041519.000,V,N*72
$GPGSA,A,1,,,,,,,,,,,,,25.5,25.5,25.5*02
$GPGSV,3,1,09,07,27,319,,08,71,248,29,09,33,275,24,11,24,195,24*72
$GPGSV,3,2,09,16,40,049,,21,08,041,,22,00,186,24,23,36,234,29*72
$GPGSV,3,3,09,31,05,134,*41
$GPRMC,041519.000,V,,,,,,,310517,,,N*44
$GPVTG,,,,,,,,,N*30
$GPZDA,041519.000,31,05,2017,00,00*5D
$GPTXT,01,01,01,ANTENNA OK*35
$GPGGA,041520.000,,,,,0,00,25.5,,,,,,*66
$GPGLL,,,,,041520.000,V,N*78
$GPGSA,A,1,,,,,,,,,,,,,25.5,25.5,25.5*02
$GPGSV,3,1,09,07,27,319,,08,71,248,29,09,33,275,24,11,24,195,24*72
$GPGSV,3,2,09,16,40,049,,21,08,041,,22,00,186,24,23,36,234,29*72
$GPGSV,3,3,09,31,05,134,*41
$GPRMC,041520.000,V,,,,,,,310517,,,N*4E
$GPVTG,,,,,,,,,N*30
$GPZDA,041520.000,31,05,2017,00,00*57
$GPTXT,01,01,01,ANTENNA OK*35
$GPGGA,041521.000,,,,,0,00,25.5,,,,,,*67
$GPGLL,,,,,041521.000,V,N*79
$GPGSA,A,1,,,,,,,,,,,,,25.5,25.5,25.5*02
$GPGSV,3,1,09,07,27,319,,08,71,248,29,09,33,275,24,11,24,195,24*72
$GPGSV,3,2,09,16,40,049,,21,08,041,,22,00,186,24,23,36,234,29*72
$GPGSV,3,3,09,31,05,134,*41
$GPRMC,041521.000,V,,,,,,,310517,,,N*4F
$GPVTG,,,,,,,,,N*30
$GPZDA,041521.000,31,05,2017,00,00*56
$GPTXT,01,01,01,ANTENNA OK*35
$GPGGA,041522.000,,,,,0,00,25.5,,,,,,*64
$GPGLL,,,,,041522.000,V,N*7A
$GPGSA,A,1,,,,,,,,,,,,,25.5,25.5,25.5*02
$GPGSV,3,1,09,07,27,319,,08,71,248,29,09,33,275,24,11,24,195,24*72
$GPGSV,3,2,09,16,40,049,,21,08,041,,22,00,186,24,23,36,234,29*72
$GPGSV,3,3,09,31,05,134,*41
$GPRMC,041522.000,V,,,,,,,310517,,,N*4C
$GPVTG,,,,,,,,,N*30
$GPZDA,041522.000,31,05,2017,00,00*55
$GPTXT,01,01,01,ANTENNA OK*35
$GPGGA,041523.000,,,,,0,00,25.5,,,,,,*65
$GPGLL,,,,,041523.000,V,N*7B
$GPGSA,A,1,,,,,,,,,,,,,25.5,25.5,25.5*02
$GPGSV,3,1,09,07,27,319,,08,71,248,29,09,33,275,24,11,24,195,24*72
$GPGSV,3,2,09,16,40,049,,21,08,041,,22,00,186,24,23,36,234,29*72
$GPGSV,3,3,09,31,05,134,*41
$GPRMC,041523.000,V,,,,,,,310517,,,N*4D
$GPVTG,,,,,,,,,N*30
$GPZDA,041523.000,31,05,2017,00,00*54
$GPTXT,01,01,01,ANTENNA OK*35
$GPGGA,041524.000,,,,,0,00,25.5,,,,,,*62
$GPGLL,,,,,041524.000,V,N*7C
$GPGSA,A,1,,,,,,,,,,,,,25.5,25.5,25.5*02
$GPGSV,3,1,09,07,27,319,,08,71,248,29,09,33,275,24,11,24,195,24*72
$GPGSV,3,2,09,16,40,049,,21,08,041,,22,00,186,24,23,36,234,29*72
$GPGSV,3,3,09,31,05,134,*41
$GPRMC,041524.000,V,,,,,,,310517,,,N*4A
$GPVTG,,,,,,,,,N*30
$GPZDA,041524.000,31,05,2017,00,00*53
$GPTXT,01,01,01,ANTENNA OK*35
$GPGGA,041525.000,,,,,0,00,25.5,,,,,,*63
$GPGLL,,,,,041525.000,V,N*7D
$GPGSA,A,1,,,,,,,,,,,,,25.5,25.5,25.5*02
$GPGSV,3,1,09,07,27,319,,08,71,248,29,09,33,275,24,11,24,195,24*72
$GPGSV,3,2,09,16,40,049,,21,07,041,,22,00,186,24,23,36,234,29*7D
$GPGSV,3,3,09,31,05,134,*41
$GPRMC,041525.000,V,,,,,,,310517,,,N*4B
$GPVTG,,,,,,,,,N*30
$GPZDA,041525.000,31,05,2017,00,00*52
$GPTXT,01,01,01,ANTENNA OK*35
$GPGGA,041526.000,,,,,0,00,25.5,,,,,,*60
$GPGLL,,,,,041526.000,V,N*7E
$GPGSA,A,1,,,,,,,,,,,,,25.5,25.5,25.5*02
$GPGSV,3,1,09,07,27,319,,08,71,248,29,09,33,275,24,11,24,195,23*75
$GPGSV,3,2,09,16,40,049,,21,07,041,,22,00,186,24,23,36,234,29*7D
$GPGSV,3,3,09,31,05,134,*41
$GPRMC,041526.000,V,,,,,,,310517,,,N*48
$GPVTG,,,,,,,,,N*30
$GPZDA,041526.000,31,05,2017,00,00*51
$GPTXT,01,01,01,ANTENNA OK*35
$GPGGA,041527.000,,,,,0,00,25.5,,,,,,*61
$GPGLL,,,,,041527.000,V,N*7F
$GPGSA,A,1,,,,,,,,,,,,,25.5,25.5,25.5*02
$GPGSV,3,1,09,07,27,319,,08,71,248,29,09,33,275,24,11,24,195,23*75
$GPGSV,3,2,09,16,40,049,,21,07,041,,22,00,186,25,23,36,234,29*7C
$GPGSV,3,3,09,31,05,134,*41
$GPRMC,041527.000,V,,,,,,,310517,,,N*49
$GPVTG,,,,,,,,,N*30
$GPZDA,041527.000,31,05,2017,00,00*50
$GPTXT,01,01,01,ANTENNA OK*35
$GPGGA,041528.000,,,,,0,00,25.5,,,,,,*6E
$GPGLL,,,,,041528.000,V,N*70
$GPGSA,A,1,,,,,,,,,,,,,25.5,25.5,25.5*02
$GPGSV,3,1,09,07,27,319,,08,71,248,29,09,33,275,24,11,24,195,23*75
$GPGSV,3,2,09,16,40,049,,21,07,041,,22,00,186,25,23,36,234,30*74
$GPGSV,3,3,09,31,05,134,*41
$GPRMC,041528.000,V,,,,,,,310517,,,N*46
$GPVTG,,,,,,,,,N*30
$GPZDA,041528.000,31,05,2017,00,00*5F
$GPTXT,01,01,01,ANTENNA OK*35
$GPGGA,041529.000,,,,,0,00,25.5,,,,,,*6F
$GPGLL,,,,,041529.000,V,N*71
$GPGSA,A,1,,,,,,,,,,,,,25.5,25.5,25.5*02
$GPGSV,3,1,09,07,27,319,,08,71,248,29,09,33,275,24,11,24,195,23*75
$GPGSV,3,2,09,16,40,049,,21,07,041,,22,00,186,25,23,36,234,30*74
$GPGSV,3,3,09,31,05,134,*41
$GPRMC,041529.000,V,,,,,,,310517,,,N*47
$GPVTG,,,,,,,,,N*30
$GPZDA,041529.000,31,05,2017,00,00*5E
$GPTXT,01,01,01,ANTENNA OK*35
$GPGGA,041530.000,,,,,0,00,25.5,,,,,,*67
$GPGLL,,,,,041530.000,V,N*79
$GPGSA,A,1,,,,,,,,,,,,,25.5,25.5,25.5*02
$GPGSV,3,1,09,07,27,319,,08,71,248,29,09,33,275,24,11,24,195,23*75
$GPGSV,3,2,09,16,40,049,,21,07,041,,22,00,186,25,23,36,234,30*74
$GPGSV,3,3,09,31,05,134,*41
$GPRMC,041530.000,V,,,,,,,310517,,,N*4F
$GPVTG,,,,,,,,,N*30
$GPZDA,041530.000,31,05,2017,00,00*56
$GPTXT,01,01,01,ANTENNA OK*35
$GPGGA,041531.000,,,,,0,00,25.5,,,,,,*66
$GPGLL,,,,,041531.000,V,N*78
$GPGSA,A,1,,,,,,,,,,,,,25.5,25.5,25.5*02
$GPGSV,3,1,09,07,27,319,,08,71,248,29,09,33,275,24,11,24,195,23*75
$GPGSV,3,2,09,16,40,049,,21,07,041,,22,00,186,25,23,36,234,30*74
$GPGSV,3,3,09,31,05,134,*41
$GPRMC,041531.000,V,,,,,,,310517,,,N*4E
$GPVTG,,,,,,,,,N*30
$GPZDA,041531.000,31,05,2017,00,00*57
$GPTXT,01,01,01,ANTENNA OK*35
$GPGGA,041532.000,,,,,0,00,25.5,,,,,,*65
$GPGLL,,,,,041532.000,V,N*7B
$GPGSA,A,1,,,,,,,,,,,,,25.5,25.5,25.5*02
$GPGSV,3,1,09,07,27,319,,08,71,248,29,09,33,275,24,11,24,195,23*75
$GPGSV,3,2,09,16,40,049,,21,07,041,,22,00,186,25,23,36,234,30*74
$GPGSV,3,3,09,31,05,134,*41
$GPRMC,041532.000,V,,,,,,,310517,,,N*4D
$GPVTG,,,,,,,,,N*30
$GPZDA,041532.000,31,05,2017,00,00*54
$GPTXT,01,01,01,ANTENNA OK*35
$GPGGA,041533.000,,,,,0,00,25.5,,,,,,*64
$GPGLL,,,,,041533.000,V,N*7A
$GPGSA,A,1,,,,,,,,,,,,,25.5,25.5,25.5*02
$GPGSV,3,1,09,07,27,319,,08,71,248,29,09,33,275,24,11,24,195,24*72
$GPGSV,3,2,09,16,40,049,,21,07,041,,22,00,186,25,23,36,234,30*74
$GPGSV,3,3,09,31,05,134,*41
$GPRMC,041533.000,V,,,,,,,310517,,,N*4C
$GPVTG,,,,,,,,,N*30
$GPZDA,041533.000,31,05,2017,00,00*55
$GPTXT,01,01,01,ANTENNA OK*35
$GPGGA,041534.000,,,,,0,00,25.5,,,,,,*63
$GPGLL,,,,,041534.000,V,N*7D
$GPGSA,A,1,,,,,,,,,,,,,25.5,25.5,25.5*02
$GPGSV,3,1,09,07,27,319,,08,71,248,29,09,33,275,24,11,24,195,24*72
$GPGSV,3,2,09,16,40,049,,21,07,041,,22,00,186,25,23,36,234,30*74
$GPGSV,3,3,09,31,05,134,*41
$GPRMC,041534.000,V,,,,,,,310517,,,N*4B
$GPVTG,,,,,,,,,N*30
$GPZDA,041534.000,31,05,2017,00,00*52
$GPTXT,01,01,01,ANTENNA OK*35
$GPGGA,041535.000,,,,,0,00,25.5,,,,,,*62
$GPGLL,,,,,041535.000,V,N*7C
$GPGSA,A,1,,,,,,,,,,,,,25.5,25.5,25.5*02
$GPGSV,3,1,09,07,27,319,,08,71,248,29,09,33,275,24,11,24,195,24*72
$GPGSV,3,2,09,16,40,049,,21,07,041,,22,00,186,25,23,36,234,30*74
$GPGSV,3,3,09,31,05,134,*41
$GPRMC,041535.000,V,,,,,,,310517,,,N*4A
$GPVTG,,,,,,,,,N*30
$GPZDA,041535.000,31,05,2017,00,00*53
$GPTXT,01,01,01,ANTENNA OK*35
$GPGGA,041536.000,,,,,0,00,25.5,,,,,,*61
$GPGLL,,,,,041536.000,V,N*7F
$GPGSA,A,1,,,,,,,,,,,,,25.5,25.5,25.5*02
$GPGSV,3,1,09,07,27,319,,08,71,248,29,09,33,275,25,11,24,195,24*73
$GPGSV,3,2,09,16,40,049,,21,07,041,,22,00,186,25,23,36,234,30*74
$GPGSV,3,3,09,31,05,134,*41
$GPRMC,041536.000,V,,,,,,,310517,,,N*49
$GPVTG,,,,,,,,,N*30
$GPZDA,041536.000,31,05,2017,00,00*50
$GPTXT,01,01,01,ANTENNA OK*35
$GPGGA,041537.000,,,,,0,00,25.5,,,,,,*60
$GPGLL,,,,,041537.000,V,N*7E
$GPGSA,A,1,,,,,,,,,,,,,25.5,25.5,25.5*02
$GPGSV,3,1,09,07,27,319,,08,71,248,29,09,33,275,25,11,25,195,24*72
$GPGSV,3,2,09,16,40,049,,21,07,041,,22,00,186,25,23,36,234,30*74
$GPGSV,3,3,09,31,05,134,*41
$GPRMC,041537.000,V,,,,,,,310517,,,N*48
$GPVTG,,,,,,,,,N*30
$GPZDA,041537.000,31,05,2017,00,00*51
$GPTXT,01,01,01,ANTENNA OK*35
$GPGGA,041538.000,,,,,0,00,25.5,,,,,,*6F
$GPGLL,,,,,041538.000,V,N*71
$GPGSA,A,1,,,,,,,,,,,,,25.5,25.5,25.5*02
$GPGSV,3,1,09,07,27,319,,08,71,248,29,09,33,275,25,11,25,195,24*72
$GPGSV,3,2,09,16,40,049,,21,07,041,,22,00,186,25,23,36,234,30*74
$GPGSV,3,3,09,31,05,134,*41
$GPRMC,041538.000,V,,,,,,,310517,,,N*47
$GPVTG,,,,,,,,,N*30
$GPZDA,041538.000,31,05,2017,00,00*5E
$GPTXT,01,01,01,ANTENNA OK*35
$GPGGA,041539.000,,,,,0,00,25.5,,,,,,*6E
$GPGLL,,,,,041539.000,V,N*70
$GPGSA,A,1,,,,,,,,,,,,,25.5,25.5,25.5*02
$GPGSV,3,1,09,07,27,319,,08,71,248,29,09,33,275,25,11,25,195,24*72
$GPGSV,3,2,09,16,40,049,,21,07,041,,22,00,186,25,23,36,234,30*74
$GPGSV,3,3,09,31,05,134,*41
$GPRMC,041539.000,V,,,,,,,310517,,,N*46
$GPVTG,,,,,,,,,N*30
$GPZDA,041539.000,31,05,2017,00,00*5F
$GPTXT,01,01,01,ANTENNA OK*35
$GPGGA,041540.000,,,,,0,00,25.5,,,,,,*60
$GPGLL,,,,,041540.000,V,N*7E
$GPGSA,A,1,,,,,,,,,,,,,25.5,25.5,25.5*02
$GPGSV,3,1,09,07,27,319,,08,71,248,29,09,33,275,25,11,25,195,24*72
$GPGSV,3,2,09,16,40,049,,21,07,041,,22,00,186,25,23,36,234,30*74
$GPGSV,3,3,09,31,05,134,*41
$GPRMC,041540.000,V,,,,,,,310517,,,N*48
$GPVTG,,,,,,,,,N*30
$GPZDA,041540.000,31,05,2017,00,00*51
$GPTXT,01,01,01,ANTENNA OK*35
$GPGGA,041541.000,,,,,0,00,25.5,,,,,,*61
$GPGLL,,,,,041541.000,V,N*7F
$GPGSA,A,1,,,,,,,,,,,,,25.5,25.5,25.5*02
$GPGSV,3,1,09,07,27,319,,08,71,248,29,09,33,275,25,11,25,195,23*75
$GPGSV,3,2,09,16,40,049,,21,07,041,,22,00,186,25,23,36,234,31*75
$GPGSV,3,3,09,31,05,134,*41
$GPRMC,041541.000,V,,,,,,,310517,,,N*49
$GPVTG,,,,,,,,,N*30
$GPZDA,041541.000,31,05,2017,00,00*50
$GPTXT,01,01,01,ANTENNA OK*35
$GPGGA,041542.000,,,,,0,00,25.5,,,,,,*62
$GPGLL,,,,,041542.000,V,N*7C
$GPGSA,A,1,,,,,,,,,,,,,25.5,25.5,25.5*02
$GPGSV,3,1,09,07,27,319,,08,71,248,29,09,33,275,25,11,25,195,23*75
$GPGSV,3,2,09,16,40,049,,21,07,041,,22,00,186,25,23,36,234,31*75
$GPGSV,3,3,09,31,05,134,*41
$GPRMC,041542.000,V,,,,,,,310517,,,N*4A
$GPVTG,,,,,,,,,N*30
$GPZDA,041542.000,31,05,2017,00,00*53
$GPTXT,01,01,01,ANTENNA OK*35
$GPGGA,041543.000,,,,,0,00,25.5,,,,,,*63
$GPGLL,,,,,041543.000,V,N*7D
$GPGSA,A,1,,,,,,,,,,,,,25.5,25.5,25.5*02
$GPGSV,2,1,08,07,27,319,,08,71,248,29,09,33,275,25,11,25,195,23*75
$GPGSV,2,2,08,16,40,049,,21,07,041,,22,00,186,25,23,36,234,31*75
$GPRMC,041543.000,V,,,,,,,310517,,,N*4B
$GPVTG,,,,,,,,,N*30
$GPZDA,041543.000,31,05,2017,00,00*52
$GPTXT,01,01,01,ANTENNA OK*35
$GPGGA,041544.000,,,,,0,00,25.5,,,,,,*64
$GPGLL,,,,,041544.000,V,N*7A
$GPGSA,A,1,,,,,,,,,,,,,25.5,25.5,25.5*02
$GPGSV,2,1,08,07,27,319,,08,71,248,29,09,33,275,25,11,25,195,23*75
$GPGSV,2,2,08,16,40,049,,21,07,041,,22,00,186,25,23,36,234,31*75
$GPRMC,041544.000,V,,,,,,,310517,,,N*4C
$GPVTG,,,,,,,,,N*30
$GPZDA,041544.000,31,05,2017,00,00*55
$GPTXT,01,01,01,ANTENNA OK*35
$GPGGA,041545.000,,,,,0,00,25.5,,,,,,*65
$GPGLL,,,,,041545.000,V,N*7B
$GPGSA,A,1,,,,,,,,,,,,,25.5,25.5,25.5*02
$GPGSV,2,1,08,07,27,319,,08,71,248,29,09,33,275,24,11,25,195,23*74
$GPGSV,2,2,08,16,40,049,,21,07,041,,22,00,186,25,23,36,234,31*75
$GPRMC,041545.000,V,,,,,,,310517,,,N*4D
$GPVTG,,,,,,,,,N*30
$GPZDA,041545.000,31,05,2017,00,00*54
$GPTXT,01,01,01,ANTENNA OK*35
$GPGGA,041546.000,,,,,0,00,25.5,,,,,,*66
$GPGLL,,,,,041546.000,V,N*78
$GPGSA,A,1,,,,,,,,,,,,,25.5,25.5,25.5*02
$GPGSV,2,1,08,07,27,319,,08,71,248,29,09,33,275,24,11,25,195,23*74
$GPGSV,2,2,08,16,40,049,,21,07,041,,22,00,185,25,23,36,234,31*76
$GPRMC,041546.000,V,,,,,,,310517,,,N*4E
$GPVTG,,,,,,,,,N*30
$GPZDA,041546.000,31,05,2017,00,00*57
$GPTXT,01,01,01,ANTENNA OK*35
$GPGGA,041547.000,,,,,0,00,25.5,,,,,,*67
$GPGLL,,,,,041547.000,V,N*79
$GPGSA,A,1,,,,,,,,,,,,,25.5,25.5,25.5*02
$GPGSV,2,1,08,07,27,319,,08,71,248,29,09,33,275,24,11,25,195,23*74
$GPGSV,2,2,08,16,40,049,,21,07,041,,22,00,185,25,23,36,234,31*76
$GPRMC,041547.000,V,,,,,,,310517,,,N*4F
$GPVTG,,,,,,,,,N*30
$GPZDA,041547.000,31,05,2017,00,00*56
$GPTXT,01,01,01,ANTENNA OK*35
$GPGGA,041548.000,,,,,0,00,25.5,,,,,,*68
$GPGLL,,,,,041548.000,V,N*76
$GPGSA,A,1,,,,,,,,,,,,,25.5,25.5,25.5*02
$GPGSV,2,1,08,07,27,319,,08,71,248,28,09,33,275,24,11,25,195,21*77
$GPGSV,2,2,08,16,40,049,,21,07,041,,22,00,185,25,23,36,234,31*76
$GPRMC,041548.000,V,,,,,,,310517,,,N*40
$GPVTG,,,,,,,,,N*30
$GPZDA,041548.000,31,05,2017,00,00*59
$GPTXT,01,01,01,ANTENNA OK*35
$GPGGA,041549.000,,,,,0,00,25.5,,,,,,*69
$GPGLL,,,,,041549.000,V,N*77
$GPGSA,A,1,,,,,,,,,,,,,25.5,25.5,25.5*02
$GPGSV,2,1,08,07,27,319,,08,71,248,28,09,33,275,24,11,25,195,21*77
$GPGSV,2,2,08,16,40,049,,21,07,041,,22,00,185,25,23,36,234,30*77
$GPRMC,041549.000,V,,,,,,,310517,,,N*41
$GPVTG,,,,,,,,,N*30
$GPZDA,041549.000,31,05,2017,00,00*58
$GPTXT,01,01,01,ANTENNA OK*35
$GPGGA,041550.000,,,,,0,00,25.5,,,,,,*61
$GPGLL,,,,,041550.000,V,N*7F
$GPGSA,A,1,,,,,,,,,,,,,25.5,25.5,25.5*02
$GPGSV,2,1,08,07,27,319,,08,71,248,28,09,33,275,24,11,25,195,21*77
$GPGSV,2,2,08,16,40,049,,21,07,041,,22,00,185,25,23,36,234,30*77
$GPRMC,041550.000,V,,,,,,,310517,,,N*49
$GPVTG,,,,,,,,,N*30
$GPZDA,041550.000,31,05,2017,00,00*50
$GPTXT,01,01,01,ANTENNA OK*35
$GPGGA,041551.000,,,,,0,00,25.5,,,,,,*60
$GPGLL,,,,,041551.000,V,N*7E
$GPGSA,A,1,,,,,,,,,,,,,25.5,25.5,25.5*02
$GPGSV,2,1,08,07,27,319,,08,71,248,28,09,33,275,24,11,25,195,21*77
$GPGSV,2,2,08,16,40,049,,21,07,041,,22,00,185,25,23,36,234,30*77
$GPRMC,041551.000,V,,,,,,,310517,,,N*48
$GPVTG,,,,,,,,,N*30
$GPZDA,041551.000,31,05,2017,00,00*51
$GPTXT,01,01,01,ANTENNA OK*35
$GPGGA,041552.000,,,,,0,00,25.5,,,,,,*63
$GPGLL,,,,,041552.000,V,N*7D
$GPGSA,A,1,,,,,,,,,,,,,25.5,25.5,25.5*02
$GPGSV,2,1,08,07,27,319,,08,71,248,27,09,33,275,24,11,25,195,21*78
$GPGSV,2,2,08,16,40,049,,21,07,041,,22,00,185,25,23,36,234,30*77
$GPRMC,041552.000,V,,,,,,,310517,,,N*4B
$GPVTG,,,,,,,,,N*30
$GPZDA,041552.000,31,05,2017,00,00*52
$GPTXT,01,01,01,ANTENNA OK*35
$GPGGA,041553.000,,,,,0,00,25.5,,,,,,*62
$GPGLL,,,,,041553.000,V,N*7C
$GPGSA,A,1,,,,,,,,,,,,,25.5,25.5,25.5*02
$GPGSV,2,1,08,07,27,319,,08,71,248,27,09,33,275,24,11,25,195,21*78
$GPGSV,2,2,08,16,40,049,,21,07,041,,22,00,185,25,23,36,234,30*77
$GPRMC,041553.000,V,,,,,,,310517,,,N*4A
$GPVTG,,,,,,,,,N*30
$GPZDA,041553.000,31,05,2017,00,00*53
$GPTXT,01,01,01,ANTENNA OK*35
$GPGGA,041554.000,,,,,0,00,25.5,,,,,,*65
$GPGLL,,,,,041554.000,V,N*7B
$GPGSA,A,1,,,,,,,,,,,,,25.5,25.5,25.5*02
$GPGSV,2,1,08,07,27,319,,08,71,248,27,09,33,275,24,11,25,195,21*78
$GPGSV,2,2,08,16,40,049,,21,07,041,,22,00,185,25,23,36,234,29*7F
$GPRMC,041554.000,V,,,,,,,310517,,,N*4D
$GPVTG,,,,,,,,,N*30
$GPZDA,041554.000,31,05,2017,00,00*54
$GPTXT,01,01,01,ANTENNA OK*35
$GPGGA,041555.000,,,,,0,00,25.5,,,,,,*64
$GPGLL,,,,,041555.000,V,N*7A
$GPGSA,A,1,,,,,,,,,,,,,25.5,25.5,25.5*02
$GPGSV,2,1,08,07,27,319,,08,71,248,27,09,33,275,24,11,25,195,21*78
$GPGSV,2,2,08,16,40,049,,21,07,041,,22,00,185,25,23,36,234,29*7F
$GPRMC,041555.000,V,,,,,,,310517,,,N*4C
$GPVTG,,,,,,,,,N*30
$GPZDA,041555.000,31,05,2017,00,00*55
$GPTXT,01,01,01,ANTENNA OK*35
$GPGGA,041556.000,,,,,0,00,25.5,,,,,,*67
$GPGLL,,,,,041556.000,V,N*79
$GPGSA,A,1,,,,,,,,,,,,,25.5,25.5,25.5*02
$GPGSV,2,1,08,07,27,319,,08,71,248,27,09,33,275,24,11,25,195,21*78
$GPGSV,2,2,08,16,40,049,,21,07,041,,22,00,185,25,23,36,234,29*7F
$GPRMC,041556.000,V,,,,,,,310517,,,N*4F
$GPVTG,,,,,,,,,N*30
$GPZDA,041556.000,31,05,2017,00,00*56
$GPTXT,01,01,01,ANTENNA OK*35
$GPGGA,041557.000,,,,,0,00,25.5,,,,,,*66
$GPGLL,,,,,041557.000,V,N*78
$GPGSA,A,1,,,,,,,,,,,,,25.5,25.5,25.5*02
$GPGSV,2,1,08,07,27,319,,08,71,248,27,09,33,275,24,11,25,195,21*78
$GPGSV,2,2,08,16,40,049,,21,07,041,,22,00,185,25,23,36,234,29*7F
$GPRMC,041557.000,V,,,,,,,310517,,,N*4E
$GPVTG,,,,,,,,,N*30
$GPZDA,041557.000,31,05,2017,00,00*57
$GPTXT,01,01,01,ANTENNA OK*35
$GPGGA,041558.000,,,,,0,00,25.5,,,,,,*69
$GPGLL,,,,,041558.000,V,N*77
$GPGSA,A,1,,,,,,,,,,,,,25.5,25.5,25.5*02
$GPGSV,2,1,08,07,27,319,,08,71,248,26,09,33,275,24,11,25,195,21*79
$GPGSV,2,2,08,16,40,049,,21,07,041,,22,00,185,25,23,36,234,29*7F
$GPRMC,041558.000,V,,,,,,,310517,,,N*41
$GPVTG,,,,,,,,,N*30
$GPZDA,041558.000,31,05,2017,00,00*58
$GPTXT,01,01,01,ANTENNA OK*35
$GPGGA,041559.000,,,,,0,00,25.5,,,,,,*68
$GPGLL,,,,,041559.000,V,N*76
$GPGSA,A,1,,,,,,,,,,,,,25.5,25.5,25.5*02
$GPGSV,2,1,08,07,27,319,,08,71,248,29,09,33,275,24,11,25,195,21*76
$GPGSV,2,2,08,16,40,049,,21,07,041,,22,00,185,25,23,36,234,29*7F
$GPRMC,041559.000,V,,,,,,,310517,,,N*40
$GPVTG,,,,,,,,,N*30
$GPZDA,041559.000,31,05,2017,00,00*59
$GPTXT,01,01,01,ANTENNA OK*35
$GPGGA,041600.000,,,,,0,00,25.5,,,,,,*67
$GPGLL,,,,,041600.000,V,N*79
$GPGSA,A,1,,,,,,,,,,,,,25.5,25.5,25.5*02
$GPGSV,2,1,08,07,27,319,,08,71,248,29,09,33,275,24,11,25,195,21*76
$GPGSV,2,2,08,16,40,049,,21,07,041,,22,00,185,24,23,36,234,29*7E
$GPRMC,041600.000,V,,,,,,,310517,,,N*4F
$GPVTG,,,,,,,,,N*30
$GPZDA,041600.000,31,05,2017,00,00*56
$GPTXT,01,01,01,ANTENNA OK*35
$GPGGA,041601.000,,,,,0,00,25.5,,,,,,*66
$GPGLL,,,,,041601.000,V,N*78
$GPGSA,A,1,,,,,,,,,,,,,25.5,25.5,25.5*02
$GPGSV,2,1,08,07,27,319,,08,71,248,29,09,33,275,24,11,25,195,21*76
$GPGSV,2,2,08,16,40,049,,21,07,041,,22,00,185,24,23,36,234,29*7E
$GPRMC,041601.000,V,,,,,,,310517,,,N*4E
$GPVTG,,,,,,,,,N*30
$GPZDA,041601.000,31,05,2017,00,00*57
$GPTXT,01,01,01,ANTENNA OK*35
$GPGGA,041602.000,,,,,0,00,25.5,,,,,,*65
$GPGLL,,,,,041602.000,V,N*7B
$GPGSA,A,1,,,,,,,,,,,,,25.5,25.5,25.5*02
$GPGSV,2,1,08,07,27,319,,08,71,248,27,09,33,275,24,11,25,195,21*78
$GPGSV,2,2,08,16,40,049,,21,07,041,,22,00,185,24,23,36,234,27*70
$GPRMC,041602.000,V,,,,,,,310517,,,N*4D
$GPVTG,,,,,,,,,N*30
$GPZDA,041602.000,31,05,2017,00,00*54
$GPTXT,01,01,01,ANTENNA OK*35
$GPGGA,041603.000,,,,,0,00,25.5,,,,,,*64
$GPGLL,,,,,041603.000,V,N*7A
$GPGSA,A,1,,,,,,,,,,,,,25.5,25.5,25.5*02
$GPGSV,2,1,08,07,27,319,,08,71,249,27,09,33,275,22,11,25,195,21*7F
$GPGSV,2,2,08,16,40,049,,21,07,041,,22,00,185,14,23,36,234,27*73
$GPRMC,041603.000,V,,,,,,,310517,,,N*4C
$GPVTG,,,,,,,,,N*30
$GPZDA,041603.000,31,05,2017,00,00*55
$GPTXT,01,01,01,ANTENNA OK*35
$GPGGA,041604.000,,,,,0,00,25.5,,,,,,*63
$GPGLL,,,,,041604.000,V,N*7D
$GPGSA,A,1,,,,,,,,,,,,,25.5,25.5,25.5*02
$GPGSV,2,1,08,07,27,319,,08,71,249,27,09,33,275,22,11,25,195,21*7F
$GPGSV,2,2,08,16,40,049,,21,07,041,,22,00,185,14,23,36,234,27*73
$GPRMC,041604.000,V,,,,,,,310517,,,N*4B
$GPVTG,,,,,,,,,N*30
$GPZDA,041604.000,31,05,2017,00,00*52
$GPTXT,01,01,01,ANTENNA OK*35
$GPGGA,041605.000,,,,,0,00,25.5,,,,,,*62
$GPGLL,,,,,041605.000,V,N*7C
$GPGSA,A,1,,,,,,,,,,,,,25.5,25.5,25.5*02
$GPGSV,2,1,08,07,27,319,,08,71,249,27,09,33,275,22,11,25,195,21*7F
$GPGSV,2,2,08,16,40,049,,21,07,041,,22,00,185,23,23,36,234,28*78
$GPRMC,041605.000,V,,,,,,,310517,,,N*4A
$GPVTG,,,,,,,,,N*30
$GPZDA,041605.000,31,05,2017,00,00*53
$GPTXT,01,01,01,ANTENNA OK*35
$GPGGA,041606.000,,,,,0,00,25.5,,,,,,*61
$GPGLL,,,,,041606.000,V,N*7F
$GPGSA,A,1,,,,,,,,,,,,,25.5,25.5,25.5*02
$GPGSV,2,1,08,07,27,319,,08,71,249,27,09,33,275,15,11,25,195,21*7B
$GPGSV,2,2,08,16,40,049,,21,07,041,,22,00,185,23,23,36,234,28*78
$GPRMC,041606.000,V,,,,,,,310517,,,N*49
$GPVTG,,,,,,,,,N*30
$GPZDA,041606.000,31,05,2017,00,00*50
$GPTXT,01,01,01,ANTENNA OK*35
$GPGGA,041607.000,,,,,0,00,25.5,,,,,,*60
$GPGLL,,,,,041607.000,V,N*7E
$GPGSA,A,1,,,,,,,,,,,,,25.5,25.5,25.5*02
$GPGSV,2,1,08,07,27,319,,08,71,249,27,09,33,275,15,11,25,195,21*7B
$GPGSV,2,2,08,16,40,049,,21,07,041,,22,00,185,23,23,36,234,28*78
$GPRMC,041607.000,V,,,,,,,310517,,,N*48
$GPVTG,,,,,,,,,N*30
$GPZDA,041607.000,31,05,2017,00,00*51
$GPTXT,01,01,01,ANTENNA OK*35
$GPGGA,041608.000,,,,,0,00,25.5,,,,,,*6F
$GPGLL,,,,,041608.000,V,N*71
$GPGSA,A,1,,,,,,,,,,,,,25.5,25.5,25.5*02
$GPGSV,2,1,08,07,27,319,,08,71,249,27,09,33,275,15,11,25,195,21*7B
$GPGSV,2,2,08,16,40,049,,21,07,041,,22,00,185,23,23,36,234,28*78
$GPRMC,041608.000,V,,,,,,,310517,,,N*47
$GPVTG,,,,,,,,,N*30
$GPZDA,041608.000,31,05,2017,00,00*5E
$GPTXT,01,01,01,ANTENNA OK*35
$GPGGA,041609.000,,,,,0,00,25.5,,,,,,*6E
$GPGLL,,,,,041609.000,V,N*70
$GPGSA,A,1,,,,,,,,,,,,,25.5,25.5,25.5*02
$GPGSV,2,1,08,07,27,319,,08,71,249,26,09,33,275,15,11,25,195,17*7F
$GPGSV,2,2,08,16,40,049,,21,07,041,,22,00,185,23,23,36,234,26*76
$GPRMC,041609.000,V,,,,,,,310517,,,N*46
$GPVTG,,,,,,,,,N*30
$GPZDA,041609.000,31,05,2017,00,00*5F
$GPTXT,01,01,01,ANTENNA OK*35
$GPGGA,041610.000,,,,,0,00,25.5,,,,,,*66
$GPGLL,,,,,041610.000,V,N*78
$GPGSA,A,1,,,,,,,,,,,,,25.5,25.5,25.5*02
$GPGSV,2,1,08,07,27,319,,08,71,249,26,09,33,275,15,11,25,195,17*7F
$GPGSV,2,2,08,16,40,049,,21,07,041,,22,00,185,21,23,36,234,26*74
$GPRMC,041610.000,V,,,,,,,310517,,,N*4E
$GPVTG,,,,,,,,,N*30
$GPZDA,041610.000,31,05,2017,00,00*57
$GPTXT,01,01,01,ANTENNA OK*35
$GPGGA,041611.000,,,,,0,00,25.5,,,,,,*67
$GPGLL,,,,,041611.000,V,N*79
$GPGSA,A,1,,,,,,,,,,,,,25.5,25.5,25.5*02
$GPGSV,2,1,08,07,27,319,,08,71,249,26,09,33,275,15,11,25,195,17*7F
$GPGSV,2,2,08,16,40,049,,21,07,041,,22,00,185,21,23,36,234,26*74
$GPRMC,041611.000,V,,,,,,,310517,,,N*4F
$GPVTG,,,,,,,,,N*30
$GPZDA,041611.000,31,05,2017,00,00*56
$GPTXT,01,01,01,ANTENNA OK*35
$GPGGA,041612.000,,,,,0,00,25.5,,,,,,*64
$GPGLL,,,,,041612.000,V,N*7A
$GPGSA,A,1,,,,,,,,,,,,,25.5,25.5,25.5*02
$GPGSV,2,1,08,07,27,319,,08,71,249,26,09,33,275,10,11,25,195,17*7A
$GPGSV,2,2,08,16,40,050,,21,07,041,,22,00,185,21,23,36,233,26*7B
$GPRMC,041612.000,V,,,,,,,310517,,,N*4C
$GPVTG,,,,,,,,,N*30
$GPZDA,041612.000,31,05,2017,00,00*55
$GPTXT,01,01,01,ANTENNA OK*35
$GPGGA,041613.000,,,,,0,00,25.5,,,,,,*65
$GPGLL,,,,,041613.000,V,N*7B
$GPGSA,A,1,,,,,,,,,,,,,25.5,25.5,25.5*02
$GPGSV,2,1,08,07,27,319,,08,71,249,26,09,33,275,10,11,25,195,29*77
$GPGSV,2,2,08,16,40,050,,21,07,041,,22,00,185,25,23,36,233,28*71
$GPRMC,041613.000,V,,,,,,,310517,,,N*4D
$GPVTG,,,,,,,,,N*30
$GPZDA,041613.000,31,05,2017,00,00*54
$GPTXT,01,01,01,ANTENNA OK*35
$GPGGA,041614.000,,,,,0,00,25.5,,,,,,*62
$GPGLL,,,,,041614.000,V,N*7C
$GPGSA,A,1,,,,,,,,,,,,,25.5,25.5,25.5*02
$GPGSV,2,1,08,07,27,319,,08,71,249,26,09,33,275,21,11,25,195,29*75
$GPGSV,2,2,08,16,40,050,,21,07,041,,22,00,185,25,23,36,233,28*71
$GPRMC,041614.000,V,,,,,,,310517,,,N*4A
$GPVTG,,,,,,,,,N*30
$GPZDA,041614.000,31,05,2017,00,00*53
$GPTXT,01,01,01,ANTENNA OK*35
$GPGGA,041615.000,,,,,0,00,25.5,,,,,,*63
$GPGLL,,,,,041615.000,V,N*7D
$GPGSA,A,1,,,,,,,,,,,,,25.5,25.5,25.5*02
$GPGSV,2,1,08,07,27,319,,08,71,249,26,09,33,275,21,11,25,195,26*7A
$GPGSV,2,2,08,16,40,050,,21,07,041,,22,00,185,29,23,36,233,31*75
$GPRMC,041615.000,V,,,,,,,310517,,,N*4B
$GPVTG,,,,,,,,,N*30
$GPZDA,041615.000,31,05,2017,00,00*52
$GPTXT,01,01,01,ANTENNA OK*35
$GPGGA,041616.000,,,,,0,00,25.5,,,,,,*60
$GPGLL,,,,,041616.000,V,N*7E
$GPGSA,A,1,,,,,,,,,,,,,25.5,25.5,25.5*02
$GPGSV,2,1,08,07,27,319,,08,72,249,26,09,33,275,21,11,25,195,26*79
$GPGSV,2,2,08,16,40,050,,21,07,041,,22,00,185,29,23,36,233,28*7D
$GPRMC,041616.000,V,,,,,,,310517,,,N*48
$GPVTG,,,,,,,,,N*30
$GPZDA,041616.000,31,05,2017,00,00*51
$GPTXT,01,01,01,ANTENNA OK*35
$GPGGA,041617.000,,,,,0,00,25.5,,,,,,*61
$GPGLL,,,,,041617.000,V,N*7F
$GPGSA,A,1,,,,,,,,,,,,,25.5,25.5,25.5*02
$GPGSV,2,1,08,07,27,319,,08,72,249,26,09,33,275,21,11,25,195,26*79
$GPGSV,2,2,08,16,40,050,,21,07,041,,22,00,185,26,23,36,233,28*72
$GPRMC,041617.000,V,,,,,,,310517,,,N*49
$GPVTG,,,,,,,,,N*30
$GPZDA,041617.000,31,05,2017,00,00*50
$GPTXT,01,01,01,ANTENNA OK*35
$GPGGA,041618.000,,,,,0,00,25.5,,,,,,*6E
$GPGLL,,,,,041618.000,V,N*70
$GPGSA,A,1,,,,,,,,,,,,,25.5,25.5,25.5*02
$GPGSV,2,1,08,07,27,319,,08,72,249,25,09,33,275,21,11,25,195,20*7C
$GPGSV,2,2,08,16,40,050,,21,07,041,,22,00,185,26,23,36,233,20*7A
$GPRMC,041618.000,V,,,,,,,310517,,,N*46
$GPVTG,,,,,,,,,N*30
$GPZDA,041618.000,31,05,2017,00,00*5F
$GPTXT,01,01,01,ANTENNA OK*35
$GPGGA,041619.000,,,,,0,00,25.5,,,,,,*6F
$GPGLL,,,,,041619.000,V,N*71
$GPGSA,A,1,,,,,,,,,,,,,25.5,25.5,25.5*02
$GPGSV,2,1,08,07,27,319,,08,72,249,25,09,33,275,17,11,25,195,20*79
$GPGSV,2,2,08,16,40,050,,21,07,041,,22,00,185,26,23,36,233,20*7A
$GPRMC,041619.000,V,,,,,,,310517,,,N*47
$GPVTG,,,,,,,,,N*30
$GPZDA,041619.000,31,05,2017,00,00*5E
$GPTXT,01,01,01,ANTENNA OK*35
$GPGGA,041620.000,,,,,0,00,25.5,,,,,,*65
$GPGLL,,,,,041620.000,V,N*7B
$GPGSA,A,1,,,,,,,,,,,,,25.5,25.5,25.5*02
$GPGSV,2,1,08,07,27,319,,08,72,249,25,09,33,275,17,11,25,195,20*79
$GPGSV,2,2,08,16,40,050,,21,07,041,,22,00,185,26,23,36,233,20*7A
$GPRMC,041620.000,V,,,,,,,310517,,,N*4D
$GPVTG,,,,,,,,,N*30
$GPZDA,041620.000,31,05,2017,00,00*54
$GPTXT,01,01,01,ANTENNA OK*35
$GPGGA,041621.000,,,,,0,00,25.5,,,,,,*64
$GPGLL,,,,,041621.000,V,N*7A
$GPGSA,A,1,,,,,,,,,,,,,25.5,25.5,25.5*02
$GPGSV,3,1,09,03,,,31,07,27,319,,08,72,249,20,09,33,275,17*45
$GPGSV,3,2,09,11,25,195,20,16,40,050,,21,07,041,,22,00,185,27*77
$GPGSV,3,3,09,23,36,233,20*44
$GPRMC,041621.000,V,,,,,,,310517,,,N*4C
$GPVTG,,,,,,,,,N*30
$GPZDA,041621.000,31,05,2017,00,00*55
$GPTXT,01,01,01,ANTENNA OK*35
$GPGGA,041622.000,,,,,0,00,25.5,,,,,,*67
$GPGLL,,,,,041622.000,V,N*79
$GPGSA,A,1,,,,,,,,,,,,,25.5,25.5,25.5*02
$GPGSV,3,1,09,03,,,31,07,28,319,,08,72,249,20,09,33,275,17*4A
$GPGSV,3,2,09,11,25,195,20,16,40,050,,21,07,041,,22,00,185,27*77
$GPGSV,3,3,09,23,36,233,20*44
$GPRMC,041622.000,V,,,,,,,310517,,,N*4F
$GPVTG,,,,,,,,,N*30
$GPZDA,041622.000,31,05,2017,00,00*56
$GPTXT,01,01,01,ANTENNA OK*35
$GPGGA,041623.000,,,,,0,00,25.5,,,,,,*66
$GPGLL,,,,,041623.000,V,N*78
$GPGSA,A,1,,,,,,,,,,,,,25.5,25.5,25.5*02
$GPGSV,3,1,09,03,,,35,07,28,319,,08,72,249,20,09,33,275,17*4E
$GPGSV,3,2,09,11,25,195,20,16,40,050,,21,07,041,,22,00,185,27*77
$GPGSV,3,3,09,23,36,233,20*44
$GPRMC,041623.000,V,,,,,,,310517,,,N*4E
$GPVTG,,,,,,,,,N*30
$GPZDA,041623.000,31,05,2017,00,00*57
$GPTXT,01,01,01,ANTENNA OK*35
$GPGGA,041624.000,,,,,0,00,25.5,,,,,,*61
$GPGLL,,,,,041624.000,V,N*7F
$GPGSA,A,1,,,,,,,,,,,,,25.5,25.5,25.5*02
$GPGSV,3,1,09,03,,,35,07,28,319,,08,72,249,20,09,33,275,17*4E
$GPGSV,3,2,09,11,25,195,22,16,40,050,,21,07,041,,22,00,185,24*76
$GPGSV,3,3,09,23,36,233,22*46
$GPRMC,041624.000,V,,,,,,,310517,,,N*49
$GPVTG,,,,,,,,,N*30
$GPZDA,041624.000,31,05,2017,00,00*50
$GPTXT,01,01,01,ANTENNA OK*35
$GPGGA,041625.000,,,,,0,00,25.5,,,,,,*60
$GPGLL,,,,,041625.000,V,N*7E
$GPGSA,A,1,,,,,,,,,,,,,25.5,25.5,25.5*02
$GPGSV,3,1,09,03,,,32,07,28,319,,08,72,249,20,09,33,275,17*49
$GPGSV,3,2,09,11,25,195,22,16,40,050,,21,07,041,,22,00,185,24*76
$GPGSV,3,3,09,23,36,233,22*46
$GPRMC,041625.000,V,,,,,,,310517,,,N*48
$GPVTG,,,,,,,,,N*30
$GPZDA,041625.000,31,05,2017,00,00*51
$GPTXT,01,01,01,ANTENNA OK*35
$GPGGA,041626.000,,,,,0,00,25.5,,,,,,*63
$GPGLL,,,,,041626.000,V,N*7D
$GPGSA,A,1,,,,,,,,,,,,,25.5,25.5,25.5*02
$GPGSV,3,1,09,03,,,32,07,28,319,,08,72,249,20,09,33,275,17*49
$GPGSV,3,2,09,11,25,195,26,16,40,050,,21,07,041,,22,00,185,33*74
$GPGSV,3,3,09,23,36,233,28*4C
$GPRMC,041626.000,V,,,,,,,310517,,,N*4B
$GPVTG,,,,,,,,,N*30
$GPZDA,041626.000,31,05,2017,00,00*52
$GPTXT,01,01,01,ANTENNA OK*35
$GPGGA,041627.000,,,,,0,00,25.5,,,,,,*62
$GPGLL,,,,,041627.000,V,N*7C
$GPGSA,A,1,,,,,,,,,,,,,25.5,25.5,25.5*02
$GPGSV,3,1,09,03,,,32,07,28,319,,08,72,249,20,09,33,275,17*49
$GPGSV,3,2,09,11,25,195,31,16,40,050,,21,07,041,,22,00,185,33*72
$GPGSV,3,3,09,23,36,233,28*4C
$GPRMC,041627.000,V,,,,,,,310517,,,N*4A
$GPVTG,,,,,,,,,N*30
$GPZDA,041627.000,31,05,2017,00,00*53
$GPTXT,01,01,01,ANTENNA OK*35
$GPGGA,041628.000,,,,,0,00,25.5,,,,,,*6D
$GPGLL,,,,,041628.000,V,N*73
$GPGSA,A,1,,,,,,,,,,,,,25.5,25.5,25.5*02
$GPGSV,3,1,09,03,,,32,07,28,319,,08,72,249,20,09,33,275,17*49
$GPGSV,3,2,09,11,25,195,35,16,40,050,,21,07,041,,22,00,185,35*70
$GPGSV,3,3,09,23,36,233,28*4C
$GPRMC,041628.000,V,,,,,,,310517,,,N*45
$GPVTG,,,,,,,,,N*30
$GPZDA,041628.000,31,05,2017,00,00*5C
$GPTXT,01,01,01,ANTENNA OK*35
$GPGGA,041629.000,,,,,0,00,25.5,,,,,,*6C
$GPGLL,,,,,041629.000,V,N*72
$GPGSA,A,1,,,,,,,,,,,,,25.5,25.5,25.5*02
$GPGSV,3,1,09,03,,,31,07,28,319,,08,72,249,20,09,33,275,17*4A
$GPGSV,3,2,09,11,25,195,38,16,40,050,,21,07,041,,22,00,185,35*7D
$GPGSV,3,3,09,23,36,233,37*42
$GPRMC,041629.000,V,,,,,,,310517,,,N*44
$GPVTG,,,,,,,,,N*30
$GPZDA,041629.000,31,05,2017,00,00*5D
$GPTXT,01,01,01,ANTENNA OK*35
$GPGGA,041630.000,,,,,0,00,25.5,,,,,,*64
$GPGLL,,,,,041630.000,V,N*7A
$GPGSA,A,1,,,,,,,,,,,,,25.5,25.5,25.5*02
$GPGSV,3,1,09,03,,,31,07,28,319,,08,72,249,20,09,33,275,28*46
$GPGSV,3,2,09,11,25,195,38,16,40,050,,21,07,041,,22,00,185,36*7E
$GPGSV,3,3,09,23,36,233,37*42
$GPRMC,041630.000,V,,,,,,,310517,,,N*4C
$GPVTG,,,,,,,,,N*30
$GPZDA,041630.000,31,05,2017,00,00*55
$GPTXT,01,01,01,ANTENNA OK*35
$GPGGA,041631.000,,,,,0,00,25.5,,,,,,*65
$GPGLL,,,,,041631.000,V,N*7B
$GPGSA,A,1,,,,,,,,,,,,,25.5,25.5,25.5*02
$GPGSV,3,1,10,01,04,188,39,03,,,31,07,28,319,,08,72,249,20*43
$GPGSV,3,2,10,09,33,275,28,11,25,195,38,16,40,050,,21,07,041,*7C
$GPGSV,3,3,10,22,00,185,38,23,36,233,35*7F
$GPRMC,041631.000,V,,,,,,,310517,,,N*4D
$GPVTG,,,,,,,,,N*30
$GPZDA,041631.000,31,05,2017,00,00*54
$GPTXT,01,01,01,ANTENNA OK*35
$GPGGA,041632.000,,,,,0,00,25.5,,,,,,*66
$GPGLL,,,,,041632.000,V,N*78
$GPGSA,A,1,,,,,,,,,,,,,25.5,25.5,25.5*02
$GPGSV,3,1,10,01,04,188,39,03,,,29,07,28,319,,08,72,249,20*4A
$GPGSV,3,2,10,09,33,275,28,11,25,195,38,16,40,050,,21,07,041,*7C
$GPGSV,3,3,10,22,00,185,33,23,36,233,35*74
$GPRMC,041632.000,V,,,,,,,310517,,,N*4E
$GPVTG,,,,,,,,,N*30
$GPZDA,041632.000,31,05,2017,00,00*57
$GPTXT,01,01,01,ANTENNA OK*35
$GPGGA,041633.000,,,,,0,00,25.5,,,,,,*67
$GPGLL,,,,,041633.000,V,N*79
$GPGSA,A,1,,,,,,,,,,,,,25.5,25.5,25.5*02
$GPGSV,3,1,10,01,04,188,39,03,,,36,07,28,319,,08,72,249,20*44
$GPGSV,3,2,10,09,33,275,28,11,25,195,34,16,40,050,,21,07,041,*70
$GPGSV,3,3,10,22,00,185,36,23,36,233,32*76
$GPRMC,041633.000,V,,,,,,,310517,,,N*4F
$GPVTG,,,,,,,,,N*30
$GPZDA,041633.000,31,05,2017,00,00*56
$GPTXT,01,01,01,ANTENNA OK*35
$GPGGA,041634.000,,,,,0,00,25.5,,,,,,*60
$GPGLL,,,,,041634.000,V,N*7E
$GPGSA,A,1,,,,,,,,,,,,,25.5,25.5,25.5*02
$GPGSV,3,1,10,01,04,188,36,03,,,36,07,28,319,,08,72,249,20*4B
$GPGSV,3,2,10,09,33,275,23,11,25,195,23,16,40,050,,21,07,041,*7D
$GPGSV,3,3,10,22,00,185,36,23,36,233,32*76
$GPRMC,041634.000,V,,,,,,,310517,,,N*48
$GPVTG,,,,,,,,,N*30
$GPZDA,041634.000,31,05,2017,00,00*51
$GPTXT,01,01,01,ANTENNA OK*35
$GPGGA,041635.000,,,,,0,00,25.5,,,,,,*61
$GPGLL,,,,,041635.000,V,N*7F
$GPGSA,A,1,,,,,,,,,,,,,25.5,25.5,25.5*02
$GPGSV,3,1,10,01,04,188,33,03,,,33,07,28,319,,08,72,249,20*4B
$GPGSV,3,2,10,09,33,275,23,11,25,195,28,16,40,050,,21,07,041,*76
$GPGSV,3,3,10,22,00,185,36,23,36,233,36*72
$GPRMC,041635.000,V,,,,,,,310517,,,N*49
$GPVTG,,,,,,,,,N*30
$GPZDA,041635.000,31,05,2017,00,00*50
$GPTXT,01,01,01,ANTENNA OK*35
$GPGGA,041636.000,,,,,0,00,25.5,,,,,,*62
$GPGLL,,,,,041636.000,V,N*7C
$GPGSA,A,1,,,,,,,,,,,,,25.5,25.5,25.5*02
$GPGSV,3,1,10,01,04,188,36,03,,,30,07,28,319,,08,72,249,20*4D
$GPGSV,3,2,10,09,33,275,23,11,25,195,38,16,40,050,,21,07,041,*77
$GPGSV,3,3,10,22,00,185,34,23,36,233,38*7E
$GPRMC,041636.000,V,,,,,,,310517,,,N*4A
$GPVTG,,,,,,,,,N*30
$GPZDA,041636.000,31,05,2017,00,00*53
$GPTXT,01,01,01,ANTENNA OK*35
$GPGGA,041637.000,,,,,0,00,25.5,,,,,,*63
$GPGLL,,,,,041637.000,V,N*7D
$GPGSA,A,1,,,,,,,,,,,,,25.5,25.5,25.5*02
$GPGSV,3,1,10,01,04,188,36,03,,,30,07,28,319,,08,72,249,20*4D
$GPGSV,3,2,10,09,33,275,33,11,25,195,35,16,40,050,,21,07,041,*7B
$GPGSV,3,3,10,22,00,185,34,23,36,233,29*7E
$GPRMC,041637.000,V,,,,,,,310517,,,N*4B
$GPVTG,,,,,,,,,N*30
$GPZDA,041637.000,31,05,2017,00,00*52
$GPTXT,01,01,01,ANTENNA OK*35
$GPGGA,041638.000,,,,,0,00,25.5,,,,,,*6C
$GPGLL,,,,,041638.000,V,N*72
$GPGSA,A,1,,,,,,,,,,,,,25.5,25.5,25.5*02
$GPGSV,3,1,10,01,04,188,36,03,,,30,07,28,319,,08,72,249,20*4D
$GPGSV,3,2,10,09,33,275,33,11,25,195,35,16,40,050,,21,07,041,*7B
$GPGSV,3,3,10,22,00,185,34,23,36,233,29*7E
$GPRMC,041638.000,V,,,,,,,310517,,,N*44
$GPVTG,,,,,,,,,N*30
$GPZDA,041638.000,31,05,2017,00,00*5D
$GPTXT,01,01,01,ANTENNA OK*35
$GPGGA,041639.000,,,,,0,00,25.5,,,,,,*6D
$GPGLL,,,,,041639.000,V,N*73
$GPGSA,A,1,,,,,,,,,,,,,25.5,25.5,25.5*02
$GPGSV,3,1,10,01,04,188,35,03,,,28,07,28,319,,08,72,249,20*47
$GPGSV,3,2,10,09,33,275,31,11,25,195,35,16,40,050,,21,07,041,*79
$GPGSV,3,3,10,22,00,185,33,23,36,233,31*70
$GPRMC,041639.000,V,,,,,,,310517,,,N*45
$GPVTG,,,,,,,,,N*30
$GPZDA,041639.000,31,05,2017,00,00*5C
$GPTXT,01,01,01,ANTENNA OK*35
$GPGGA,041640.000,,,,,0,00,25.5,,,,,,*63
$GPGLL,,,,,041640.000,V,N*7D
$GPGSA,A,1,,,,,,,,,,,,,25.5,25.5,25.5*02
$GPGSV,3,1,10,01,04,188,30,03,,,28,07,28,319,,08,72,249,20*42
$GPGSV,3,2,10,09,33,275,31,11,25,195,34,16,40,050,,21,07,041,*78
$GPGSV,3,3,10,22,00,185,33,23,36,233,36*77
$GPRMC,041640.000,V,,,,,,,310517,,,N*4B
$GPVTG,,,,,,,,,N*30
$GPZDA,041640.000,31,05,2017,00,00*52
$GPTXT,01,01,01,ANTENNA OK*35
$GPGGA,041641.000,,,,,0,00,25.5,,,,,,*62
$GPGLL,,,,,041641.000,V,N*7C
$GPGSA,A,1,,,,,,,,,,,,,25.5,25.5,25.5*02
$GPGSV,3,1,10,01,04,188,30,03,,,28,07,28,319,,08,72,249,20*42
$GPGSV,3,2,10,09,33,275,33,11,25,195,34,16,40,050,,21,07,041,*7A
$GPGSV,3,3,10,22,00,185,33,23,36,233,38*79
$GPRMC,041641.000,V,,,,,,,310517,,,N*4A
$GPVTG,,,,,,,,,N*30
$GPZDA,041641.000,31,05,2017,00,00*53
$GPTXT,01,01,01,ANTENNA OK*35
$GPGGA,041642.000,,,,,0,00,25.5,,,,,,*61
$GPGLL,,,,,041642.000,V,N*7F
$GPGSA,A,1,,,,,,,,,,,,,25.5,25.5,25.5*02
$GPGSV,3,1,10,01,04,188,30,03,,,28,07,28,319,,08,72,249,20*42
$GPGSV,3,2,10,09,33,275,36,11,25,195,34,16,40,050,,21,07,041,*7F
$GPGSV,3,3,10,22,00,185,33,23,36,233,38*79
$GPRMC,041642.000,V,,,,,,,310517,,,N*49
$GPVTG,,,,,,,,,N*30
$GPZDA,041642.000,31,05,2017,00,00*50
$GPTXT,01,01,01,ANTENNA OK*35
$GPGGA,041643.000,,,,,0,00,25.5,,,,,,*60
$GPGLL,,,,,041643.000,V,N*7E
$GPGSA,A,1,,,,,,,,,,,,,25.5,25.5,25.5*02
$GPGSV,3,1,10,01,04,188,31,03,,,28,07,28,319,,08,72,249,20*43
$GPGSV,3,2,10,09,33,275,36,11,25,195,35,16,40,050,,21,07,041,*7E
$GPGSV,3,3,10,22,00,185,32,23,36,233,38*78
$GPRMC,041643.000,V,,,,,,,310517,,,N*48
$GPVTG,,,,,,,,,N*30
$GPZDA,041643.000,31,05,2017,00,00*51
$GPTXT,01,01,01,ANTENNA OK*35
$GPGGA,041644.000,,,,,0,00,25.5,,,,,,*67
$GPGLL,,,,,041644.000,V,N*79
$GPGSA,A,1,,,,,,,,,,,,,25.5,25.5,25.5*02
$GPGSV,3,1,10,01,04,188,31,03,,,28,07,28,319,,08,72,249,22*41
$GPGSV,3,2,10,09,33,275,36,11,25,195,35,16,40,050,,21,07,041,*7E
$GPGSV,3,3,10,22,00,185,32,23,36,233,38*78
$GPRMC,041644.000,V,,,,,,,310517,,,N*4F
$GPVTG,,,,,,,,,N*30
$GPZDA,041644.000,31,05,2017,00,00*56
$GPTXT,01,01,01,ANTENNA OK*35
$GPGGA,041645.000,,,,,0,00,25.5,,,,,,*66
$GPGLL,,,,,041645.000,V,N*78
$GPGSA,A,1,,,,,,,,,,,,,25.5,25.5,25.5*02
$GPGSV,3,1,10,01,04,188,33,03,,,27,07,28,319,,08,72,249,22*4C
$GPGSV,3,2,10,09,33,275,37,11,25,195,35,16,40,050,,21,07,041,*7F
$GPGSV,3,3,10,22,00,185,32,23,36,233,38*78
$GPRMC,041645.000,V,,,,,,,310517,,,N*4E
$GPVTG,,,,,,,,,N*30
$GPZDA,041645.000,31,05,2017,00,00*57
$GPTXT,01,01,01,ANTENNA OK*35
$GPGGA,041646.000,,,,,0,00,25.5,,,,,,*65
$GPGLL,,,,,041646.000,V,N*7B
$GPGSA,A,1,,,,,,,,,,,,,25.5,25.5,25.5*02
$GPGSV,3,1,10,01,04,188,33,03,,,27,07,28,319,,08,72,249,22*4C
$GPGSV,3,2,10,09,33,275,37,11,25,195,35,16,40,050,,21,07,041,*7F
$GPGSV,3,3,10,22,00,185,32,23,36,233,38*78
$GPRMC,041646.000,V,,,,,,,310517,,,N*4D
$GPVTG,,,,,,,,,N*30
$GPZDA,041646.000,31,05,2017,00,00*54
$GPTXT,01,01,01,ANTENNA OK*35
$GPGGA,041647.000,,,,,0,00,25.5,,,,,,*64
$GPGLL,,,,,041647.000,V,N*7A
$GPGSA,A,1,,,,,,,,,,,,,25.5,25.5,25.5*02
$GPGSV,3,1,10,01,04,188,33,03,,,27,07,28,319,,08,72,249,25*4B
$GPGSV,3,2,10,09,33,275,37,11,25,195,36,16,40,050,,21,07,041,*7C
$GPGSV,3,3,10,22,00,185,33,23,36,233,38*79
$GPRMC,041647.000,V,,,,,,,310517,,,N*4C
$GPVTG,,,,,,,,,N*30
$GPZDA,041647.000,31,05,2017,00,00*55
$GPTXT,01,01,01,ANTENNA OK*35
$GPGGA,041648.000,,,,,0,00,25.5,,,,,,*6B
$GPGLL,,,,,041648.000,V,N*75
$GPGSA,A,1,,,,,,,,,,,,,25.5,25.5,25.5*02
$GPGSV,3,1,10,01,04,188,33,03,,,27,07,28,319,,08,72,249,25*4B
$GPGSV,3,2,10,09,33,275,37,11,25,195,36,16,40,050,,21,07,041,*7C
$GPGSV,3,3,10,22,00,185,33,23,36,233,38*79
$GPRMC,041648.000,V,,,,,,,310517,,,N*43
$GPVTG,,,,,,,,,N*30
$GPZDA,041648.000,31,05,2017,00,00*5A
$GPTXT,01,01,01,ANTENNA OK*35
$GPGGA,041649.000,,,,,0,00,25.5,,,,,,*6A
$GPGLL,,,,,041649.000,V,N*74
$GPGSA,A,1,,,,,,,,,,,,,25.5,25.5,25.5*02
$GPGSV,3,1,10,01,04,188,33,03,,,27,07,28,319,,08,72,249,25*4B
$GPGSV,3,2,10,09,33,275,37,11,25,195,36,16,40,050,,21,07,041,*7C
$GPGSV,3,3,10,22,00,185,33,23,36,233,38*79
$GPRMC,041649.000,V,,,,,,,310517,,,N*42
$GPVTG,,,,,,,,,N*30
$GPZDA,041649.000,31,05,2017,00,00*5B
$GPTXT,01,01,01,ANTENNA OK*35
$GPGGA,041650.000,,,,,0,00,25.5,,,,,,*62
$GPGLL,,,,,041650.000,V,N*7C
$GPGSA,A,1,,,,,,,,,,,,,25.5,25.5,25.5*02
$GPGSV,3,1,10,01,04,188,33,03,,,27,07,28,319,,08,72,250,25*43
$GPGSV,3,2,10,09,33,275,37,11,25,195,36,16,40,050,,21,07,041,*7C
$GPGSV,3,3,10,22,00,185,33,23,36,233,38*79
$GPRMC,041650.000,V,,,,,,,310517,,,N*4A
$GPVTG,,,,,,,,,N*30
$GPZDA,041650.000,31,05,2017,00,00*53
$GPTXT,01,01,01,ANTENNA OK*35
$GPGGA,041651.000,,,,,0,00,25.5,,,,,,*63
$GPGLL,,,,,041651.000,V,N*7D
$GPGSA,A,1,,,,,,,,,,,,,25.5,25.5,25.5*02
$GPGSV,3,1,10,01,04,188,33,03,,,28,07,28,319,,08,72,250,25*4C
$GPGSV,3,2,10,09,33,275,37,11,25,195,36,16,40,050,,21,07,041,*7C
$GPGSV,3,3,10,22,00,185,33,23,36,233,38*79
$GPRMC,041651.000,V,,,,,,,310517,,,N*4B
$GPVTG,,,,,,,,,N*30
$GPZDA,041651.000,31,05,2017,00,00*52
$GPTXT,01,01,01,ANTENNA OK*35
$GPGGA,041652.000,,,,,0,00,25.5,,,,,,*60
$GPGLL,,,,,041652.000,V,N*7E
$GPGSA,A,1,,,,,,,,,,,,,25.5,25.5,25.5*02
$GPGSV,2,1,07,01,04,188,33,03,00,209,28,08,72,250,25,09,33,275,37*7B
$GPGSV,2,2,07,11,25,195,36,22,00,185,33,23,36,233,38*40
$GPRMC,041652.000,V,,,,,,,310517,,,N*48
$GPVTG,,,,,,,,,N*30
$GPZDA,041652.000,31,05,2017,00,00*51
$GPTXT,01,01,01,ANTENNA OK*35
$GPGGA,041653.000,,,,,0,00,25.5,,,,,,*61
$GPGLL,,,,,041653.000,V,N*7F
$GPGSA,A,1,,,,,,,,,,,,,25.5,25.5,25.5*02
$GPGSV,2,1,07,01,04,188,33,03,00,209,28,08,72,250,25,09,33,275,37*7B
$GPGSV,2,2,07,11,25,195,36,22,00,185,33,23,36,233,38*40
$GPRMC,041653.000,V,,,,,,,310517,,,N*49
$GPVTG,,,,,,,,,N*30
$GPZDA,041653.000,31,05,2017,00,00*50
$GPTXT,01,01,01,ANTENNA OK*35
$GPGGA,041654.000,,,,,0,00,25.5,,,,,,*66
$GPGLL,,,,,041654.000,V,N*78
$GPGSA,A,1,,,,,,,,,,,,,25.5,25.5,25.5*02
$GPGSV,2,1,07,01,04,188,33,03,00,209,28,08,72,250,25,09,33,275,37*7B
$GPGSV,2,2,07,11,25,195,36,22,00,185,33,23,36,233,39*41
$GPRMC,041654.000,V,,,,,,,310517,,,N*4E
$GPVTG,,,,,,,,,N*30
$GPZDA,041654.000,31,05,2017,00,00*57
$GPTXT,01,01,01,ANTENNA OK*35
$GPGGA,041655.000,,,,,0,00,25.5,,,,,,*67
$GPGLL,,,,,041655.000,V,N*79
$GPGSA,A,1,,,,,,,,,,,,,25.5,25.5,25.5*02
$GPGSV,2,1,07,01,04,188,33,03,00,209,28,08,72,250,25,09,33,275,37*7B
$GPGSV,2,2,07,11,25,195,36,22,00,185,34,23,36,233,39*46
$GPRMC,041655.000,V,,,,,,,310517,,,N*4F
$GPVTG,,,,,,,,,N*30
$GPZDA,041655.000,31,05,2017,00,00*56
$GPTXT,01,01,01,ANTENNA OK*35
$GPGGA,041655.994,0756.6327,S,11237.4681,E,1,06,2.2,551.6,M,0.0,M,,*7E
$GPGLL,0756.6327,S,11237.4681,E,041655.994,A,A*4A
$GPGSA,A,3,23,11,01,08,03,22,,,,,,,3.8,2.2,3.1*30
$GPGSV,3,1,09,01,46,183,32,03,28,213,28,08,48,348,25,09,25,308,37*74
$GPGSV,3,2,09,11,72,200,36,14,07,146,,22,33,181,34,23,55,288,39*74
$GPGSV,3,3,09,31,21,115,*44
$GPRMC,041655.994,A,0756.6327,S,11237.4681,E,1.39,0.00,310517,,,A*77
$GPVTG,0.00,T,,M,1.39,N,2.57,K,A*36
$GPZDA,041655.994,31,05,2017,00,00*52
$GPTXT,01,01,01,ANTENNA OK*35
$GPGGA,041657.000,0756.6336,S,11237.4711,E,1,06,2.2,518.3,M,0.0,M,,*78
$GPGLL,0756.6336,S,11237.4711,E,041657.000,A,A*44
$GPGSA,A,3,23,11,01,08,03,22,,,,,,,3.8,2.2,3.1*30
$GPGSV,3,1,09,01,46,183,30,03,28,213,28,08,48,348,25,09,25,308,37*76
$GPGSV,3,2,09,11,72,200,36,14,07,146,,22,33,181,34,23,55,288,39*74
$GPGSV,3,3,09,31,21,115,*44
$GPRMC,041657.000,A,0756.6336,S,11237.4711,E,1.24,0.00,310517,,,A*75
$GPVTG,0.00,T,,M,1.24,N,2.30,K,A*3B
$GPZDA,041657.000,31,05,2017,00,00*54
$GPTXT,01,01,01,ANTENNA OK*35
$GPGGA,041658.000,0756.6338,S,11237.4710,E,1,06,2.2,518.6,M,0.0,M,,*7D
$GPGLL,0756.6338,S,11237.4710,E,041658.000,A,A*44
$GPGSA,A,3,23,11,01,08,03,22,,,,,,,3.8,2.2,3.1*30
$GPGSV,3,1,09,01,46,183,30,03,28,213,30,08,48,348,17,09,25,308,37*7E
$GPGSV,3,2,09,11,72,200,36,14,07,146,,22,33,181,34,23,55,288,39*74
$GPGSV,3,3,09,31,21,115,*44
$GPRMC,041658.000,A,0756.6338,S,11237.4710,E,0.15,0.00,310517,,,A*76
$GPVTG,0.00,T,,M,0.15,N,0.27,K,A*3C
$GPZDA,041658.000,31,05,2017,00,00*5B
$GPTXT,01,01,01,ANTENNA OK*35
$GPGGA,041659.000,0756.6339,S,11237.4709,E,1,06,2.2,518.6,M,0.0,M,,*75
$GPGLL,0756.6339,S,11237.4709,E,041659.000,A,A*4C
$GPGSA,A,3,23,11,01,08,03,22,,,,,,,3.8,2.2,3.1*30
$GPGSV,3,1,09,01,47,183,30,03,28,213,30,08,48,348,17,09,25,308,36*7E
$GPGSV,3,2,09,11,72,200,36,14,07,146,,22,33,181,34,23,55,288,38*75
$GPGSV,3,3,09,31,21,115,*44
$GPRMC,041659.000,A,0756.6339,S,11237.4709,E,0.57,0.00,310517,,,A*78
$GPVTG,0.00,T,,M,0.57,N,1.06,K,A*38
$GPZDA,041659.000,31,05,2017,00,00*5A
$GPTXT,01,01,01,ANTENNA OK*35
$GPGGA,041700.000,0756.6342,S,11237.4709,E,1,06,2.2,518.8,M,0.0,M,,*7A
$GPGLL,0756.6342,S,11237.4709,E,041700.000,A,A*4D
$GPGSA,A,3,23,11,01,08,03,22,,,,,,,3.8,2.2,3.1*30
$GPGSV,3,1,09,01,47,183,30,03,28,213,30,08,48,348,17,09,25,308,36*7E
$GPGSV,3,2,09,11,72,200,36,14,07,146,,22,33,181,32,23,55,288,38*73
$GPGSV,3,3,09,31,21,115,*44
$GPRMC,041700.000,A,0756.6342,S,11237.4709,E,0.60,0.00,310517,,,A*7D
$GPVTG,0.00,T,,M,0.60,N,1.11,K,A*3A
$GPZDA,041700.000,31,05,2017,00,00*57
$GPTXT,01,01,01,ANTENNA OK*35
$GPGGA,041701.000,0756.6342,S,11237.4710,E,1,07,2.1,518.9,M,0.0,M,,*70
$GPGLL,0756.6342,S,11237.4710,E,041701.000,A,A*44
$GPGSA,A,3,09,23,11,01,08,03,22,,,,,,3.3,2.1,2.5*34
$GPGSV,3,1,09,01,47,183,31,03,28,213,30,08,48,348,17,09,25,308,36*7F
$GPGSV,3,2,09,11,72,200,36,14,07,146,,22,33,181,35,23,55,288,38*74
$GPGSV,3,3,09,31,21,115,*44
$GPRMC,041701.000,A,0756.6342,S,11237.4710,E,0.10,0.00,310517,,,A*73
$GPVTG,0.00,T,,M,0.10,N,0.19,K,A*34
$GPZDA,041701.000,31,05,2017,00,00*56
$GPTXT,01,01,01,ANTENNA OK*35
$GPGGA,041702.000,0756.6341,S,11237.4711,E,1,07,2.1,518.9,M,0.0,M,,*71
$GPGLL,0756.6341,S,11237.4711,E,041702.000,A,A*45
$GPGSA,A,3,09,23,11,01,08,03,22,,,,,,3.3,2.1,2.5*34
$GPGSV,3,1,10,01,47,183,31,03,28,213,29,04,,,24,08,48,348,17*4D
$GPGSV,3,2,10,09,25,308,36,11,72,200,37,14,07,146,,22,33,181,35*75
$GPGSV,3,3,10,23,55,288,39,31,21,115,*75
$GPRMC,041702.000,A,0756.6341,S,11237.4711,E,0.22,0.00,310517,,,A*73
$GPVTG,0.00,T,,M,0.22,N,0.40,K,A*39
$GPZDA,041702.000,31,05,2017,00,00*55
$GPTXT,01,01,01,ANTENNA OK*35
$GPGGA,041703.000,0756.6341,S,11237.4711,E,1,07,2.1,519.1,M,0.0,M,,*79
$GPGLL,0756.6341,S,11237.4711,E,041703.000,A,A*44
$GPGSA,A,3,09,23,11,01,08,03,22,,,,,,3.3,2.1,2.5*34
$GPGSV,3,1,10,01,47,183,29,03,28,213,29,04,,,24,08,48,348,17*44
$GPGSV,3,2,10,09,25,308,39,11,72,200,37,14,07,146,,22,33,181,35*7A
$GPGSV,3,3,10,23,55,287,39,31,21,115,*7A
$GPRMC,041703.000,A,0756.6341,S,11237.4711,E,0.15,0.00,310517,,,A*76
$GPVTG,0.00,T,,M,0.15,N,0.27,K,A*3C
$GPZDA,041703.000,31,05,2017,00,00*54
$GPTXT,01,01,01,ANTENNA OK*35
$GPGGA,041704.000,0756.6341,S,11237.4710,E,1,07,2.1,519.4,M,0.0,M,,*7A
$GPGLL,0756.6341,S,11237.4710,E,041704.000,A,A*42
$GPGSA,A,3,09,23,11,01,08,03,22,,,,,,3.3,2.1,2.5*34
$GPGSV,3,1,10,01,47,183,29,03,28,213,31,04,,,24,08,48,348,17*4D
$GPGSV,3,2,10,09,25,308,39,11,72,200,38,14,07,146,,22,33,181,35*75
$GPGSV,3,3,10,23,55,287,39,31,21,115,*7A
$GPRMC,041704.000,A,0756.6341,S,11237.4710,E,0.28,0.00,310517,,,A*7E
$GPVTG,0.00,T,,M,0.28,N,0.52,K,A*30
$GPZDA,041704.000,31,05,2017,00,00*53
$GPTXT,01,01,01,ANTENNA OK*35

0756.6341,S,11237.4710,E,041704.000,A,A*42

7 56.6341
112 37.4710

7.94388889
112.6244444

rumus
dd = degree + (min/60) + (sec/3600)

eg1. $GPGLL,3751.65,S,14507.36,E*77
eg2. $GPGLL,4916.45,N,12311.12,W,225444,A
4916.46,N Latitude 49 deg. 16.45 min. North
12311.12,W Longitude 123 deg. 11.12 min. West
225444 Fix taken at 22:54:44 UTC
A Data valid

eg3. $GPGLL,5133.81,N,00042.25,W*75
1 2 3 4 5

1 5133.81 Current latitude


2 N North/South
3 00042.25 Current longitude
4 W East/West
5 *75 checksum